<?xml version="1.0" encoding="UTF-8" standalone="no" ?>
<gpx xmlns="http://www.topografix.com/GPX/1/1" xmlns:xsi="http://www.w3.org/2001/XMLSchema-instance" xsi:schemaLocation="http://www.topografix.com/GPX/1/1 http://www.topografix.com/GPX/1/1/gpx.xsd" version="1.1" creator="VisuGPX - https://www.visugpx.com">
  <metadata>
    <name>Pornichet 18/02/2021</name>
    <desc><![CDATA[Sortie vtt du jeudi 18 février 2021]]></desc>
  </metadata>
  <trk>
    <name><![CDATA[Pornichet Cyclisme]]></name>
    <trkseg>
      <trkpt lat="47.26459" lon="-2.3157">
        <ele>43.599998474121</ele>
        <time>2021-02-18T08:21:15.000Z</time>
      </trkpt>
      <trkpt lat="47.26459" lon="-2.31585">
        <ele>43.599998474121</ele>
        <time>2021-02-18T08:21:18.000Z</time>
      </trkpt>
      <trkpt lat="47.26457" lon="-2.31592">
        <ele>43.799999237061</ele>
        <time>2021-02-18T08:21:19.000Z</time>
      </trkpt>
      <trkpt lat="47.26453" lon="-2.31613">
        <ele>43.799999237061</ele>
        <time>2021-02-18T08:21:21.000Z</time>
      </trkpt>
      <trkpt lat="47.26446" lon="-2.3165">
        <ele>43.799999237061</ele>
        <time>2021-02-18T08:21:26.000Z</time>
      </trkpt>
      <trkpt lat="47.26444" lon="-2.31692">
        <ele>43.799999237061</ele>
        <time>2021-02-18T08:21:33.000Z</time>
      </trkpt>
      <trkpt lat="47.2645" lon="-2.31692">
        <ele>43.799999237061</ele>
        <time>2021-02-18T08:21:34.000Z</time>
      </trkpt>
      <trkpt lat="47.26436" lon="-2.31686">
        <ele>43.799999237061</ele>
        <time>2021-02-18T08:21:36.000Z</time>
      </trkpt>
      <trkpt lat="47.264" lon="-2.31694">
        <ele>43.400001525879</ele>
        <time>2021-02-18T08:21:42.000Z</time>
      </trkpt>
      <trkpt lat="47.26394" lon="-2.31697">
        <ele>42.799999237061</ele>
        <time>2021-02-18T08:21:43.000Z</time>
      </trkpt>
      <trkpt lat="47.26389" lon="-2.317">
        <ele>42.400001525879</ele>
        <time>2021-02-18T08:21:44.000Z</time>
      </trkpt>
      <trkpt lat="47.26383" lon="-2.31703">
        <ele>42</ele>
        <time>2021-02-18T08:21:45.000Z</time>
      </trkpt>
      <trkpt lat="47.26378" lon="-2.31706">
        <ele>41.599998474121</ele>
        <time>2021-02-18T08:21:46.000Z</time>
      </trkpt>
      <trkpt lat="47.2636" lon="-2.31713">
        <ele>41.599998474121</ele>
        <time>2021-02-18T08:21:49.000Z</time>
      </trkpt>
      <trkpt lat="47.26327" lon="-2.31728">
        <ele>41.599998474121</ele>
        <time>2021-02-18T08:21:55.000Z</time>
      </trkpt>
      <trkpt lat="47.26324" lon="-2.31731">
        <ele>41.200000762939</ele>
        <time>2021-02-18T08:21:56.000Z</time>
      </trkpt>
      <trkpt lat="47.26321" lon="-2.31734">
        <ele>40.799999237061</ele>
        <time>2021-02-18T08:21:57.000Z</time>
      </trkpt>
      <trkpt lat="47.26319" lon="-2.31735">
        <ele>40</ele>
        <time>2021-02-18T08:21:58.000Z</time>
      </trkpt>
      <trkpt lat="47.26317" lon="-2.31737">
        <ele>39.599998474121</ele>
        <time>2021-02-18T08:21:59.000Z</time>
      </trkpt>
      <trkpt lat="47.26317" lon="-2.31762">
        <ele>39.599998474121</ele>
        <time>2021-02-18T08:22:04.000Z</time>
      </trkpt>
      <trkpt lat="47.26321" lon="-2.31799">
        <ele>39.599998474121</ele>
        <time>2021-02-18T08:22:10.000Z</time>
      </trkpt>
      <trkpt lat="47.26321" lon="-2.31805">
        <ele>39.599998474121</ele>
        <time>2021-02-18T08:22:11.000Z</time>
      </trkpt>
      <trkpt lat="47.26319" lon="-2.31831">
        <ele>39.599998474121</ele>
        <time>2021-02-18T08:22:15.000Z</time>
      </trkpt>
      <trkpt lat="47.2632" lon="-2.31847">
        <ele>39.599998474121</ele>
        <time>2021-02-18T08:22:19.000Z</time>
      </trkpt>
      <trkpt lat="47.26321" lon="-2.31866">
        <ele>39.599998474121</ele>
        <time>2021-02-18T08:22:25.000Z</time>
      </trkpt>
      <trkpt lat="47.26312" lon="-2.31876">
        <ele>39.599998474121</ele>
        <time>2021-02-18T08:22:30.000Z</time>
      </trkpt>
      <trkpt lat="47.2631" lon="-2.31879">
        <ele>39.200000762939</ele>
        <time>2021-02-18T08:22:31.000Z</time>
      </trkpt>
      <trkpt lat="47.26307" lon="-2.31882">
        <ele>38.799999237061</ele>
        <time>2021-02-18T08:22:32.000Z</time>
      </trkpt>
      <trkpt lat="47.26305" lon="-2.31886">
        <ele>38.400001525879</ele>
        <time>2021-02-18T08:22:33.000Z</time>
      </trkpt>
      <trkpt lat="47.26303" lon="-2.31889">
        <ele>38</ele>
        <time>2021-02-18T08:22:34.000Z</time>
      </trkpt>
      <trkpt lat="47.263" lon="-2.31893">
        <ele>37.599998474121</ele>
        <time>2021-02-18T08:22:35.000Z</time>
      </trkpt>
      <trkpt lat="47.26289" lon="-2.31914">
        <ele>37.599998474121</ele>
        <time>2021-02-18T08:22:40.000Z</time>
      </trkpt>
      <trkpt lat="47.26279" lon="-2.31933">
        <ele>37.599998474121</ele>
        <time>2021-02-18T08:22:46.000Z</time>
      </trkpt>
      <trkpt lat="47.26269" lon="-2.3195">
        <ele>37.599998474121</ele>
        <time>2021-02-18T08:22:52.000Z</time>
      </trkpt>
      <trkpt lat="47.26258" lon="-2.31952">
        <ele>37.599998474121</ele>
        <time>2021-02-18T08:22:57.000Z</time>
      </trkpt>
      <trkpt lat="47.26257" lon="-2.31954">
        <ele>37.599998474121</ele>
        <time>2021-02-18T08:22:58.000Z</time>
      </trkpt>
      <trkpt lat="47.26252" lon="-2.31962">
        <ele>37.599998474121</ele>
        <time>2021-02-18T08:23:01.000Z</time>
      </trkpt>
      <trkpt lat="47.26248" lon="-2.31965">
        <ele>37.599998474121</ele>
        <time>2021-02-18T08:23:03.000Z</time>
      </trkpt>
      <trkpt lat="47.26237" lon="-2.31975">
        <ele>37.599998474121</ele>
        <time>2021-02-18T08:23:07.000Z</time>
      </trkpt>
      <trkpt lat="47.26236" lon="-2.31977">
        <ele>37.599998474121</ele>
        <time>2021-02-18T08:23:08.000Z</time>
      </trkpt>
      <trkpt lat="47.26235" lon="-2.31984">
        <ele>37.599998474121</ele>
        <time>2021-02-18T08:23:10.000Z</time>
      </trkpt>
      <trkpt lat="47.2623" lon="-2.31999">
        <ele>37.599998474121</ele>
        <time>2021-02-18T08:23:16.000Z</time>
      </trkpt>
      <trkpt lat="47.26223" lon="-2.31997">
        <ele>37.599998474121</ele>
        <time>2021-02-18T08:23:19.000Z</time>
      </trkpt>
      <trkpt lat="47.2622" lon="-2.31997">
        <ele>37.599998474121</ele>
        <time>2021-02-18T08:23:20.000Z</time>
      </trkpt>
      <trkpt lat="47.26207" lon="-2.32003">
        <ele>37.599998474121</ele>
        <time>2021-02-18T08:23:24.000Z</time>
      </trkpt>
      <trkpt lat="47.26199" lon="-2.32008">
        <ele>37.599998474121</ele>
        <time>2021-02-18T08:23:26.000Z</time>
      </trkpt>
      <trkpt lat="47.26192" lon="-2.32018">
        <ele>37.599998474121</ele>
        <time>2021-02-18T08:23:28.000Z</time>
      </trkpt>
      <trkpt lat="47.26187" lon="-2.32031">
        <ele>37.599998474121</ele>
        <time>2021-02-18T08:23:30.000Z</time>
      </trkpt>
      <trkpt lat="47.26185" lon="-2.32037">
        <ele>37.599998474121</ele>
        <time>2021-02-18T08:23:31.000Z</time>
      </trkpt>
      <trkpt lat="47.26181" lon="-2.32051">
        <ele>37.599998474121</ele>
        <time>2021-02-18T08:23:33.000Z</time>
      </trkpt>
      <trkpt lat="47.26173" lon="-2.32078">
        <ele>37.599998474121</ele>
        <time>2021-02-18T08:23:37.000Z</time>
      </trkpt>
      <trkpt lat="47.26167" lon="-2.32099">
        <ele>37.599998474121</ele>
        <time>2021-02-18T08:23:40.000Z</time>
      </trkpt>
      <trkpt lat="47.26153" lon="-2.32142">
        <ele>37.599998474121</ele>
        <time>2021-02-18T08:23:46.000Z</time>
      </trkpt>
      <trkpt lat="47.26134" lon="-2.32183">
        <ele>37.599998474121</ele>
        <time>2021-02-18T08:23:52.000Z</time>
      </trkpt>
      <trkpt lat="47.26112" lon="-2.3222">
        <ele>37.599998474121</ele>
        <time>2021-02-18T08:23:58.000Z</time>
      </trkpt>
      <trkpt lat="47.26085" lon="-2.32251">
        <ele>37.599998474121</ele>
        <time>2021-02-18T08:24:04.000Z</time>
      </trkpt>
      <trkpt lat="47.26053" lon="-2.3229">
        <ele>37.599998474121</ele>
        <time>2021-02-18T08:24:11.000Z</time>
      </trkpt>
      <trkpt lat="47.26022" lon="-2.32332">
        <ele>37.599998474121</ele>
        <time>2021-02-18T08:24:18.000Z</time>
      </trkpt>
      <trkpt lat="47.2599" lon="-2.32374">
        <ele>37.599998474121</ele>
        <time>2021-02-18T08:24:25.000Z</time>
      </trkpt>
      <trkpt lat="47.25957" lon="-2.32419">
        <ele>38</ele>
        <time>2021-02-18T08:24:33.000Z</time>
      </trkpt>
      <trkpt lat="47.25953" lon="-2.32425">
        <ele>38.400001525879</ele>
        <time>2021-02-18T08:24:34.000Z</time>
      </trkpt>
      <trkpt lat="47.25949" lon="-2.3243">
        <ele>38.799999237061</ele>
        <time>2021-02-18T08:24:35.000Z</time>
      </trkpt>
      <trkpt lat="47.25945" lon="-2.32435">
        <ele>39.200000762939</ele>
        <time>2021-02-18T08:24:36.000Z</time>
      </trkpt>
      <trkpt lat="47.25941" lon="-2.32441">
        <ele>39.599998474121</ele>
        <time>2021-02-18T08:24:37.000Z</time>
      </trkpt>
      <trkpt lat="47.25931" lon="-2.32455">
        <ele>39.599998474121</ele>
        <time>2021-02-18T08:24:40.000Z</time>
      </trkpt>
      <trkpt lat="47.25933" lon="-2.32467">
        <ele>39.599998474121</ele>
        <time>2021-02-18T08:24:43.000Z</time>
      </trkpt>
      <trkpt lat="47.25941" lon="-2.32473">
        <ele>39.599998474121</ele>
        <time>2021-02-18T08:24:45.000Z</time>
      </trkpt>
      <trkpt lat="47.25945" lon="-2.32477">
        <ele>39.599998474121</ele>
        <time>2021-02-18T08:24:46.000Z</time>
      </trkpt>
      <trkpt lat="47.25948" lon="-2.32482">
        <ele>39.599998474121</ele>
        <time>2021-02-18T08:24:47.000Z</time>
      </trkpt>
      <trkpt lat="47.25957" lon="-2.32502">
        <ele>39.599998474121</ele>
        <time>2021-02-18T08:24:50.000Z</time>
      </trkpt>
      <trkpt lat="47.2597" lon="-2.32545">
        <ele>39.599998474121</ele>
        <time>2021-02-18T08:24:56.000Z</time>
      </trkpt>
      <trkpt lat="47.25973" lon="-2.32575">
        <ele>39.200000762939</ele>
        <time>2021-02-18T08:25:00.000Z</time>
      </trkpt>
      <trkpt lat="47.25974" lon="-2.32583">
        <ele>38.799999237061</ele>
        <time>2021-02-18T08:25:01.000Z</time>
      </trkpt>
      <trkpt lat="47.25975" lon="-2.3259">
        <ele>38.400001525879</ele>
        <time>2021-02-18T08:25:02.000Z</time>
      </trkpt>
      <trkpt lat="47.25976" lon="-2.32598">
        <ele>37.799999237061</ele>
        <time>2021-02-18T08:25:03.000Z</time>
      </trkpt>
      <trkpt lat="47.25976" lon="-2.32605">
        <ele>37.400001525879</ele>
        <time>2021-02-18T08:25:04.000Z</time>
      </trkpt>
      <trkpt lat="47.25976" lon="-2.32613">
        <ele>37.400001525879</ele>
        <time>2021-02-18T08:25:05.000Z</time>
      </trkpt>
      <trkpt lat="47.25976" lon="-2.32627">
        <ele>37.400001525879</ele>
        <time>2021-02-18T08:25:07.000Z</time>
      </trkpt>
      <trkpt lat="47.25975" lon="-2.32641">
        <ele>37.400001525879</ele>
        <time>2021-02-18T08:25:09.000Z</time>
      </trkpt>
      <trkpt lat="47.25976" lon="-2.32648">
        <ele>37.400001525879</ele>
        <time>2021-02-18T08:25:10.000Z</time>
      </trkpt>
      <trkpt lat="47.25981" lon="-2.32652">
        <ele>37.400001525879</ele>
        <time>2021-02-18T08:25:12.000Z</time>
      </trkpt>
      <trkpt lat="47.25991" lon="-2.32652">
        <ele>37.400001525879</ele>
        <time>2021-02-18T08:25:15.000Z</time>
      </trkpt>
      <trkpt lat="47.26009" lon="-2.32651">
        <ele>37.400001525879</ele>
        <time>2021-02-18T08:25:19.000Z</time>
      </trkpt>
      <trkpt lat="47.26013" lon="-2.32651">
        <ele>37.400001525879</ele>
        <time>2021-02-18T08:25:20.000Z</time>
      </trkpt>
      <trkpt lat="47.26032" lon="-2.32649">
        <ele>37.400001525879</ele>
        <time>2021-02-18T08:25:24.000Z</time>
      </trkpt>
      <trkpt lat="47.26041" lon="-2.32647">
        <ele>37.400001525879</ele>
        <time>2021-02-18T08:25:26.000Z</time>
      </trkpt>
      <trkpt lat="47.2608" lon="-2.32639">
        <ele>37.400001525879</ele>
        <time>2021-02-18T08:25:34.000Z</time>
      </trkpt>
      <trkpt lat="47.26115" lon="-2.32636">
        <ele>37.400001525879</ele>
        <time>2021-02-18T08:25:41.000Z</time>
      </trkpt>
      <trkpt lat="47.26155" lon="-2.32643">
        <ele>37.400001525879</ele>
        <time>2021-02-18T08:25:49.000Z</time>
      </trkpt>
      <trkpt lat="47.26185" lon="-2.32659">
        <ele>37.400001525879</ele>
        <time>2021-02-18T08:25:55.000Z</time>
      </trkpt>
      <trkpt lat="47.2619" lon="-2.32662">
        <ele>37.400001525879</ele>
        <time>2021-02-18T08:25:56.000Z</time>
      </trkpt>
      <trkpt lat="47.26212" lon="-2.32685">
        <ele>37.400001525879</ele>
        <time>2021-02-18T08:26:01.000Z</time>
      </trkpt>
      <trkpt lat="47.26244" lon="-2.32727">
        <ele>37.400001525879</ele>
        <time>2021-02-18T08:26:09.000Z</time>
      </trkpt>
      <trkpt lat="47.26275" lon="-2.32776">
        <ele>37.400001525879</ele>
        <time>2021-02-18T08:26:17.000Z</time>
      </trkpt>
      <trkpt lat="47.26293" lon="-2.32824">
        <ele>37.400001525879</ele>
        <time>2021-02-18T08:26:24.000Z</time>
      </trkpt>
      <trkpt lat="47.26294" lon="-2.32831">
        <ele>37.400001525879</ele>
        <time>2021-02-18T08:26:25.000Z</time>
      </trkpt>
      <trkpt lat="47.26298" lon="-2.32854">
        <ele>37.400001525879</ele>
        <time>2021-02-18T08:26:28.000Z</time>
      </trkpt>
      <trkpt lat="47.26306" lon="-2.32864">
        <ele>37</ele>
        <time>2021-02-18T08:26:30.000Z</time>
      </trkpt>
      <trkpt lat="47.26311" lon="-2.32865">
        <ele>36.599998474121</ele>
        <time>2021-02-18T08:26:31.000Z</time>
      </trkpt>
      <trkpt lat="47.26316" lon="-2.32866">
        <ele>36.200000762939</ele>
        <time>2021-02-18T08:26:32.000Z</time>
      </trkpt>
      <trkpt lat="47.26321" lon="-2.32869">
        <ele>35.599998474121</ele>
        <time>2021-02-18T08:26:33.000Z</time>
      </trkpt>
      <trkpt lat="47.26325" lon="-2.32875">
        <ele>35.200000762939</ele>
        <time>2021-02-18T08:26:34.000Z</time>
      </trkpt>
      <trkpt lat="47.26328" lon="-2.32882">
        <ele>35.200000762939</ele>
        <time>2021-02-18T08:26:35.000Z</time>
      </trkpt>
      <trkpt lat="47.26334" lon="-2.32904">
        <ele>35.200000762939</ele>
        <time>2021-02-18T08:26:38.000Z</time>
      </trkpt>
      <trkpt lat="47.26339" lon="-2.32918">
        <ele>35.200000762939</ele>
        <time>2021-02-18T08:26:40.000Z</time>
      </trkpt>
      <trkpt lat="47.26362" lon="-2.32977">
        <ele>35.200000762939</ele>
        <time>2021-02-18T08:26:49.000Z</time>
      </trkpt>
      <trkpt lat="47.26371" lon="-2.32995">
        <ele>35.200000762939</ele>
        <time>2021-02-18T08:26:52.000Z</time>
      </trkpt>
      <trkpt lat="47.26374" lon="-2.33009">
        <ele>35.200000762939</ele>
        <time>2021-02-18T08:26:54.000Z</time>
      </trkpt>
      <trkpt lat="47.26374" lon="-2.33024">
        <ele>35.200000762939</ele>
        <time>2021-02-18T08:26:56.000Z</time>
      </trkpt>
      <trkpt lat="47.26374" lon="-2.33047">
        <ele>35.200000762939</ele>
        <time>2021-02-18T08:26:59.000Z</time>
      </trkpt>
      <trkpt lat="47.26379" lon="-2.33122">
        <ele>35.200000762939</ele>
        <time>2021-02-18T08:27:09.000Z</time>
      </trkpt>
      <trkpt lat="47.26381" lon="-2.33172">
        <ele>35.200000762939</ele>
        <time>2021-02-18T08:27:16.000Z</time>
      </trkpt>
      <trkpt lat="47.26382" lon="-2.33216">
        <ele>35.200000762939</ele>
        <time>2021-02-18T08:27:22.000Z</time>
      </trkpt>
      <trkpt lat="47.26383" lon="-2.33231">
        <ele>35.200000762939</ele>
        <time>2021-02-18T08:27:24.000Z</time>
      </trkpt>
      <trkpt lat="47.26385" lon="-2.33253">
        <ele>35.200000762939</ele>
        <time>2021-02-18T08:27:27.000Z</time>
      </trkpt>
      <trkpt lat="47.26393" lon="-2.3327">
        <ele>34.799999237061</ele>
        <time>2021-02-18T08:27:30.000Z</time>
      </trkpt>
      <trkpt lat="47.26397" lon="-2.33273">
        <ele>34.400001525879</ele>
        <time>2021-02-18T08:27:31.000Z</time>
      </trkpt>
      <trkpt lat="47.26401" lon="-2.33274">
        <ele>34</ele>
        <time>2021-02-18T08:27:32.000Z</time>
      </trkpt>
      <trkpt lat="47.26405" lon="-2.33275">
        <ele>33.400001525879</ele>
        <time>2021-02-18T08:27:33.000Z</time>
      </trkpt>
      <trkpt lat="47.26409" lon="-2.33275">
        <ele>33</ele>
        <time>2021-02-18T08:27:34.000Z</time>
      </trkpt>
      <trkpt lat="47.26413" lon="-2.33276">
        <ele>33</ele>
        <time>2021-02-18T08:27:35.000Z</time>
      </trkpt>
      <trkpt lat="47.26416" lon="-2.33277">
        <ele>33</ele>
        <time>2021-02-18T08:27:36.000Z</time>
      </trkpt>
      <trkpt lat="47.26426" lon="-2.33283">
        <ele>33</ele>
        <time>2021-02-18T08:27:39.000Z</time>
      </trkpt>
      <trkpt lat="47.26434" lon="-2.33283">
        <ele>33</ele>
        <time>2021-02-18T08:27:41.000Z</time>
      </trkpt>
      <trkpt lat="47.26443" lon="-2.33284">
        <ele>33</ele>
        <time>2021-02-18T08:27:43.000Z</time>
      </trkpt>
      <trkpt lat="47.26483" lon="-2.33285">
        <ele>33</ele>
        <time>2021-02-18T08:27:51.000Z</time>
      </trkpt>
      <trkpt lat="47.26504" lon="-2.33287">
        <ele>33</ele>
        <time>2021-02-18T08:27:56.000Z</time>
      </trkpt>
      <trkpt lat="47.26508" lon="-2.3329">
        <ele>33</ele>
        <time>2021-02-18T08:27:57.000Z</time>
      </trkpt>
      <trkpt lat="47.26517" lon="-2.33294">
        <ele>33</ele>
        <time>2021-02-18T08:27:59.000Z</time>
      </trkpt>
      <trkpt lat="47.26531" lon="-2.33293">
        <ele>33</ele>
        <time>2021-02-18T08:28:02.000Z</time>
      </trkpt>
      <trkpt lat="47.26534" lon="-2.33295">
        <ele>33</ele>
        <time>2021-02-18T08:28:03.000Z</time>
      </trkpt>
      <trkpt lat="47.2654" lon="-2.33304">
        <ele>33</ele>
        <time>2021-02-18T08:28:05.000Z</time>
      </trkpt>
      <trkpt lat="47.26548" lon="-2.33295">
        <ele>33</ele>
        <time>2021-02-18T08:28:08.000Z</time>
      </trkpt>
      <trkpt lat="47.2656" lon="-2.33281">
        <ele>33</ele>
        <time>2021-02-18T08:28:11.000Z</time>
      </trkpt>
      <trkpt lat="47.26569" lon="-2.33272">
        <ele>33</ele>
        <time>2021-02-18T08:28:13.000Z</time>
      </trkpt>
      <trkpt lat="47.26605" lon="-2.33235">
        <ele>33</ele>
        <time>2021-02-18T08:28:21.000Z</time>
      </trkpt>
      <trkpt lat="47.26614" lon="-2.33225">
        <ele>33</ele>
        <time>2021-02-18T08:28:23.000Z</time>
      </trkpt>
      <trkpt lat="47.26633" lon="-2.33206">
        <ele>33</ele>
        <time>2021-02-18T08:28:27.000Z</time>
      </trkpt>
      <trkpt lat="47.26656" lon="-2.3318">
        <ele>33</ele>
        <time>2021-02-18T08:28:32.000Z</time>
      </trkpt>
      <trkpt lat="47.26698" lon="-2.33138">
        <ele>33</ele>
        <time>2021-02-18T08:28:41.000Z</time>
      </trkpt>
      <trkpt lat="47.26735" lon="-2.33101">
        <ele>33</ele>
        <time>2021-02-18T08:28:49.000Z</time>
      </trkpt>
      <trkpt lat="47.26751" lon="-2.33091">
        <ele>33</ele>
        <time>2021-02-18T08:28:53.000Z</time>
      </trkpt>
      <trkpt lat="47.26755" lon="-2.33097">
        <ele>33</ele>
        <time>2021-02-18T08:28:54.000Z</time>
      </trkpt>
      <trkpt lat="47.26762" lon="-2.33118">
        <ele>33</ele>
        <time>2021-02-18T08:28:57.000Z</time>
      </trkpt>
      <trkpt lat="47.26759" lon="-2.33148">
        <ele>33</ele>
        <time>2021-02-18T08:29:01.000Z</time>
      </trkpt>
      <trkpt lat="47.26758" lon="-2.33156">
        <ele>33</ele>
        <time>2021-02-18T08:29:02.000Z</time>
      </trkpt>
      <trkpt lat="47.26745" lon="-2.33199">
        <ele>33</ele>
        <time>2021-02-18T08:29:08.000Z</time>
      </trkpt>
      <trkpt lat="47.26741" lon="-2.33213">
        <ele>33</ele>
        <time>2021-02-18T08:29:10.000Z</time>
      </trkpt>
      <trkpt lat="47.26736" lon="-2.33227">
        <ele>32.599998474121</ele>
        <time>2021-02-18T08:29:12.000Z</time>
      </trkpt>
      <trkpt lat="47.26734" lon="-2.33234">
        <ele>32.200000762939</ele>
        <time>2021-02-18T08:29:13.000Z</time>
      </trkpt>
      <trkpt lat="47.26731" lon="-2.33242">
        <ele>31.799999237061</ele>
        <time>2021-02-18T08:29:14.000Z</time>
      </trkpt>
      <trkpt lat="47.26729" lon="-2.33249">
        <ele>31.39999961853</ele>
        <time>2021-02-18T08:29:15.000Z</time>
      </trkpt>
      <trkpt lat="47.26728" lon="-2.33256">
        <ele>31</ele>
        <time>2021-02-18T08:29:16.000Z</time>
      </trkpt>
      <trkpt lat="47.26727" lon="-2.33272">
        <ele>31</ele>
        <time>2021-02-18T08:29:18.000Z</time>
      </trkpt>
      <trkpt lat="47.26733" lon="-2.33304">
        <ele>31</ele>
        <time>2021-02-18T08:29:22.000Z</time>
      </trkpt>
      <trkpt lat="47.26738" lon="-2.3332">
        <ele>31</ele>
        <time>2021-02-18T08:29:24.000Z</time>
      </trkpt>
      <trkpt lat="47.26746" lon="-2.33352">
        <ele>31</ele>
        <time>2021-02-18T08:29:28.000Z</time>
      </trkpt>
      <trkpt lat="47.26747" lon="-2.3336">
        <ele>31</ele>
        <time>2021-02-18T08:29:29.000Z</time>
      </trkpt>
      <trkpt lat="47.26752" lon="-2.33401">
        <ele>31</ele>
        <time>2021-02-18T08:29:34.000Z</time>
      </trkpt>
      <trkpt lat="47.26756" lon="-2.33444">
        <ele>31</ele>
        <time>2021-02-18T08:29:40.000Z</time>
      </trkpt>
      <trkpt lat="47.26767" lon="-2.33509">
        <ele>31</ele>
        <time>2021-02-18T08:29:48.000Z</time>
      </trkpt>
      <trkpt lat="47.26778" lon="-2.33572">
        <ele>31</ele>
        <time>2021-02-18T08:29:56.000Z</time>
      </trkpt>
      <trkpt lat="47.2678" lon="-2.33634">
        <ele>31</ele>
        <time>2021-02-18T08:30:04.000Z</time>
      </trkpt>
      <trkpt lat="47.26779" lon="-2.3365">
        <ele>31</ele>
        <time>2021-02-18T08:30:06.000Z</time>
      </trkpt>
      <trkpt lat="47.26778" lon="-2.33665">
        <ele>31</ele>
        <time>2021-02-18T08:30:08.000Z</time>
      </trkpt>
      <trkpt lat="47.26779" lon="-2.33697">
        <ele>31</ele>
        <time>2021-02-18T08:30:13.000Z</time>
      </trkpt>
      <trkpt lat="47.2679" lon="-2.33719">
        <ele>31</ele>
        <time>2021-02-18T08:30:17.000Z</time>
      </trkpt>
      <trkpt lat="47.26812" lon="-2.33746">
        <ele>31</ele>
        <time>2021-02-18T08:30:23.000Z</time>
      </trkpt>
      <trkpt lat="47.26815" lon="-2.33751">
        <ele>31</ele>
        <time>2021-02-18T08:30:24.000Z</time>
      </trkpt>
      <trkpt lat="47.26828" lon="-2.33763">
        <ele>31</ele>
        <time>2021-02-18T08:30:28.000Z</time>
      </trkpt>
      <trkpt lat="47.26831" lon="-2.33766">
        <ele>31</ele>
        <time>2021-02-18T08:30:29.000Z</time>
      </trkpt>
      <trkpt lat="47.26842" lon="-2.33779">
        <ele>31</ele>
        <time>2021-02-18T08:30:32.000Z</time>
      </trkpt>
      <trkpt lat="47.26851" lon="-2.33782">
        <ele>31</ele>
        <time>2021-02-18T08:30:34.000Z</time>
      </trkpt>
      <trkpt lat="47.26886" lon="-2.33797">
        <ele>31</ele>
        <time>2021-02-18T08:30:41.000Z</time>
      </trkpt>
      <trkpt lat="47.26891" lon="-2.33801">
        <ele>31</ele>
        <time>2021-02-18T08:30:42.000Z</time>
      </trkpt>
      <trkpt lat="47.26899" lon="-2.33819">
        <ele>31</ele>
        <time>2021-02-18T08:30:45.000Z</time>
      </trkpt>
      <trkpt lat="47.26905" lon="-2.3384">
        <ele>31</ele>
        <time>2021-02-18T08:30:48.000Z</time>
      </trkpt>
      <trkpt lat="47.26906" lon="-2.33846">
        <ele>31.39999961853</ele>
        <time>2021-02-18T08:30:49.000Z</time>
      </trkpt>
      <trkpt lat="47.26908" lon="-2.33853">
        <ele>31.799999237061</ele>
        <time>2021-02-18T08:30:50.000Z</time>
      </trkpt>
      <trkpt lat="47.2691" lon="-2.33861">
        <ele>32.200000762939</ele>
        <time>2021-02-18T08:30:51.000Z</time>
      </trkpt>
      <trkpt lat="47.26911" lon="-2.33868">
        <ele>32.599998474121</ele>
        <time>2021-02-18T08:30:52.000Z</time>
      </trkpt>
      <trkpt lat="47.26913" lon="-2.33874">
        <ele>33</ele>
        <time>2021-02-18T08:30:53.000Z</time>
      </trkpt>
      <trkpt lat="47.26921" lon="-2.33909">
        <ele>33</ele>
        <time>2021-02-18T08:30:58.000Z</time>
      </trkpt>
      <trkpt lat="47.26935" lon="-2.33969">
        <ele>33</ele>
        <time>2021-02-18T08:31:07.000Z</time>
      </trkpt>
      <trkpt lat="47.2695" lon="-2.34034">
        <ele>33</ele>
        <time>2021-02-18T08:31:16.000Z</time>
      </trkpt>
      <trkpt lat="47.26962" lon="-2.34086">
        <ele>33</ele>
        <time>2021-02-18T08:31:23.000Z</time>
      </trkpt>
      <trkpt lat="47.26974" lon="-2.34145">
        <ele>33</ele>
        <time>2021-02-18T08:31:31.000Z</time>
      </trkpt>
      <trkpt lat="47.26985" lon="-2.34195">
        <ele>33</ele>
        <time>2021-02-18T08:31:38.000Z</time>
      </trkpt>
      <trkpt lat="47.26999" lon="-2.34252">
        <ele>33</ele>
        <time>2021-02-18T08:31:46.000Z</time>
      </trkpt>
      <trkpt lat="47.27008" lon="-2.34294">
        <ele>33</ele>
        <time>2021-02-18T08:31:52.000Z</time>
      </trkpt>
      <trkpt lat="47.27007" lon="-2.34307">
        <ele>33</ele>
        <time>2021-02-18T08:31:54.000Z</time>
      </trkpt>
      <trkpt lat="47.27015" lon="-2.34322">
        <ele>33</ele>
        <time>2021-02-18T08:31:58.000Z</time>
      </trkpt>
      <trkpt lat="47.27022" lon="-2.34323">
        <ele>33</ele>
        <time>2021-02-18T08:32:00.000Z</time>
      </trkpt>
      <trkpt lat="47.2703" lon="-2.34325">
        <ele>33</ele>
        <time>2021-02-18T08:32:02.000Z</time>
      </trkpt>
      <trkpt lat="47.27038" lon="-2.34332">
        <ele>33</ele>
        <time>2021-02-18T08:32:04.000Z</time>
      </trkpt>
      <trkpt lat="47.27042" lon="-2.34347">
        <ele>33</ele>
        <time>2021-02-18T08:32:06.000Z</time>
      </trkpt>
      <trkpt lat="47.27055" lon="-2.3439">
        <ele>33</ele>
        <time>2021-02-18T08:32:12.000Z</time>
      </trkpt>
      <trkpt lat="47.27058" lon="-2.34405">
        <ele>33.599998474121</ele>
        <time>2021-02-18T08:32:14.000Z</time>
      </trkpt>
      <trkpt lat="47.2706" lon="-2.34412">
        <ele>34</ele>
        <time>2021-02-18T08:32:15.000Z</time>
      </trkpt>
      <trkpt lat="47.27061" lon="-2.34418">
        <ele>34.599998474121</ele>
        <time>2021-02-18T08:32:16.000Z</time>
      </trkpt>
      <trkpt lat="47.27063" lon="-2.34427">
        <ele>35.200000762939</ele>
        <time>2021-02-18T08:32:17.000Z</time>
      </trkpt>
      <trkpt lat="47.27064" lon="-2.34433">
        <ele>35.599998474121</ele>
        <time>2021-02-18T08:32:18.000Z</time>
      </trkpt>
      <trkpt lat="47.27067" lon="-2.34449">
        <ele>35.200000762939</ele>
        <time>2021-02-18T08:32:20.000Z</time>
      </trkpt>
      <trkpt lat="47.27069" lon="-2.34456">
        <ele>34.799999237061</ele>
        <time>2021-02-18T08:32:21.000Z</time>
      </trkpt>
      <trkpt lat="47.27071" lon="-2.34464">
        <ele>34.400001525879</ele>
        <time>2021-02-18T08:32:22.000Z</time>
      </trkpt>
      <trkpt lat="47.27073" lon="-2.34471">
        <ele>34</ele>
        <time>2021-02-18T08:32:23.000Z</time>
      </trkpt>
      <trkpt lat="47.27074" lon="-2.34477">
        <ele>33.599998474121</ele>
        <time>2021-02-18T08:32:24.000Z</time>
      </trkpt>
      <trkpt lat="47.27086" lon="-2.34535">
        <ele>33.599998474121</ele>
        <time>2021-02-18T08:32:32.000Z</time>
      </trkpt>
      <trkpt lat="47.271" lon="-2.34592">
        <ele>33.599998474121</ele>
        <time>2021-02-18T08:32:40.000Z</time>
      </trkpt>
      <trkpt lat="47.27117" lon="-2.34671">
        <ele>33.599998474121</ele>
        <time>2021-02-18T08:32:50.000Z</time>
      </trkpt>
      <trkpt lat="47.27119" lon="-2.34678">
        <ele>33.599998474121</ele>
        <time>2021-02-18T08:32:51.000Z</time>
      </trkpt>
      <trkpt lat="47.27135" lon="-2.34749">
        <ele>33.599998474121</ele>
        <time>2021-02-18T08:33:00.000Z</time>
      </trkpt>
      <trkpt lat="47.27146" lon="-2.34802">
        <ele>33.599998474121</ele>
        <time>2021-02-18T08:33:07.000Z</time>
      </trkpt>
      <trkpt lat="47.27155" lon="-2.34846">
        <ele>33.599998474121</ele>
        <time>2021-02-18T08:33:13.000Z</time>
      </trkpt>
      <trkpt lat="47.2716" lon="-2.34867">
        <ele>33.599998474121</ele>
        <time>2021-02-18T08:33:16.000Z</time>
      </trkpt>
      <trkpt lat="47.27169" lon="-2.34904">
        <ele>33.599998474121</ele>
        <time>2021-02-18T08:33:21.000Z</time>
      </trkpt>
      <trkpt lat="47.27193" lon="-2.34977">
        <ele>33.599998474121</ele>
        <time>2021-02-18T08:33:31.000Z</time>
      </trkpt>
      <trkpt lat="47.27209" lon="-2.35021">
        <ele>33.599998474121</ele>
        <time>2021-02-18T08:33:38.000Z</time>
      </trkpt>
      <trkpt lat="47.27228" lon="-2.3507">
        <ele>33.599998474121</ele>
        <time>2021-02-18T08:33:45.000Z</time>
      </trkpt>
      <trkpt lat="47.2725" lon="-2.35116">
        <ele>33.599998474121</ele>
        <time>2021-02-18T08:33:52.000Z</time>
      </trkpt>
      <trkpt lat="47.27253" lon="-2.35122">
        <ele>33.599998474121</ele>
        <time>2021-02-18T08:33:53.000Z</time>
      </trkpt>
      <trkpt lat="47.2726" lon="-2.35125">
        <ele>33.599998474121</ele>
        <time>2021-02-18T08:33:55.000Z</time>
      </trkpt>
      <trkpt lat="47.27283" lon="-2.35113">
        <ele>33.599998474121</ele>
        <time>2021-02-18T08:34:01.000Z</time>
      </trkpt>
      <trkpt lat="47.27298" lon="-2.35109">
        <ele>33.599998474121</ele>
        <time>2021-02-18T08:34:05.000Z</time>
      </trkpt>
      <trkpt lat="47.27302" lon="-2.35111">
        <ele>33.599998474121</ele>
        <time>2021-02-18T08:34:06.000Z</time>
      </trkpt>
      <trkpt lat="47.27314" lon="-2.35131">
        <ele>33.599998474121</ele>
        <time>2021-02-18T08:34:10.000Z</time>
      </trkpt>
      <trkpt lat="47.27316" lon="-2.35138">
        <ele>33.599998474121</ele>
        <time>2021-02-18T08:34:11.000Z</time>
      </trkpt>
      <trkpt lat="47.27323" lon="-2.35174">
        <ele>34</ele>
        <time>2021-02-18T08:34:16.000Z</time>
      </trkpt>
      <trkpt lat="47.27325" lon="-2.35181">
        <ele>34.400001525879</ele>
        <time>2021-02-18T08:34:17.000Z</time>
      </trkpt>
      <trkpt lat="47.27326" lon="-2.35188">
        <ele>35.200000762939</ele>
        <time>2021-02-18T08:34:18.000Z</time>
      </trkpt>
      <trkpt lat="47.27328" lon="-2.35195">
        <ele>35.799999237061</ele>
        <time>2021-02-18T08:34:19.000Z</time>
      </trkpt>
      <trkpt lat="47.2733" lon="-2.35202">
        <ele>35.200000762939</ele>
        <time>2021-02-18T08:34:20.000Z</time>
      </trkpt>
      <trkpt lat="47.27331" lon="-2.3521">
        <ele>34.799999237061</ele>
        <time>2021-02-18T08:34:21.000Z</time>
      </trkpt>
      <trkpt lat="47.27333" lon="-2.35218">
        <ele>34.200000762939</ele>
        <time>2021-02-18T08:34:22.000Z</time>
      </trkpt>
      <trkpt lat="47.27335" lon="-2.35226">
        <ele>33.799999237061</ele>
        <time>2021-02-18T08:34:23.000Z</time>
      </trkpt>
      <trkpt lat="47.27337" lon="-2.35235">
        <ele>33.400001525879</ele>
        <time>2021-02-18T08:34:24.000Z</time>
      </trkpt>
      <trkpt lat="47.27341" lon="-2.35252">
        <ele>33.400001525879</ele>
        <time>2021-02-18T08:34:26.000Z</time>
      </trkpt>
      <trkpt lat="47.27352" lon="-2.35299">
        <ele>33.400001525879</ele>
        <time>2021-02-18T08:34:32.000Z</time>
      </trkpt>
      <trkpt lat="47.27364" lon="-2.35354">
        <ele>33.400001525879</ele>
        <time>2021-02-18T08:34:38.000Z</time>
      </trkpt>
      <trkpt lat="47.27366" lon="-2.35364">
        <ele>33</ele>
        <time>2021-02-18T08:34:39.000Z</time>
      </trkpt>
      <trkpt lat="47.27368" lon="-2.35373">
        <ele>32.599998474121</ele>
        <time>2021-02-18T08:34:40.000Z</time>
      </trkpt>
      <trkpt lat="47.2737" lon="-2.35383">
        <ele>32</ele>
        <time>2021-02-18T08:34:41.000Z</time>
      </trkpt>
      <trkpt lat="47.27372" lon="-2.35392">
        <ele>31.60000038147</ele>
        <time>2021-02-18T08:34:42.000Z</time>
      </trkpt>
      <trkpt lat="47.27374" lon="-2.35402">
        <ele>31.200000762939</ele>
        <time>2021-02-18T08:34:43.000Z</time>
      </trkpt>
      <trkpt lat="47.2738" lon="-2.35431">
        <ele>31.200000762939</ele>
        <time>2021-02-18T08:34:46.000Z</time>
      </trkpt>
      <trkpt lat="47.27384" lon="-2.35451">
        <ele>30.799999237061</ele>
        <time>2021-02-18T08:34:48.000Z</time>
      </trkpt>
      <trkpt lat="47.27386" lon="-2.35461">
        <ele>30.39999961853</ele>
        <time>2021-02-18T08:34:49.000Z</time>
      </trkpt>
      <trkpt lat="47.27388" lon="-2.3547">
        <ele>30</ele>
        <time>2021-02-18T08:34:50.000Z</time>
      </trkpt>
      <trkpt lat="47.2739" lon="-2.35479">
        <ele>29.60000038147</ele>
        <time>2021-02-18T08:34:51.000Z</time>
      </trkpt>
      <trkpt lat="47.27392" lon="-2.35488">
        <ele>29</ele>
        <time>2021-02-18T08:34:52.000Z</time>
      </trkpt>
      <trkpt lat="47.27394" lon="-2.35498">
        <ele>29</ele>
        <time>2021-02-18T08:34:53.000Z</time>
      </trkpt>
      <trkpt lat="47.27404" lon="-2.35553">
        <ele>28.60000038147</ele>
        <time>2021-02-18T08:34:59.000Z</time>
      </trkpt>
      <trkpt lat="47.27406" lon="-2.35564">
        <ele>28.200000762939</ele>
        <time>2021-02-18T08:35:00.000Z</time>
      </trkpt>
      <trkpt lat="47.27407" lon="-2.35573">
        <ele>27.799999237061</ele>
        <time>2021-02-18T08:35:01.000Z</time>
      </trkpt>
      <trkpt lat="47.27409" lon="-2.35583">
        <ele>27.39999961853</ele>
        <time>2021-02-18T08:35:02.000Z</time>
      </trkpt>
      <trkpt lat="47.2741" lon="-2.35593">
        <ele>27</ele>
        <time>2021-02-18T08:35:03.000Z</time>
      </trkpt>
      <trkpt lat="47.27415" lon="-2.35632">
        <ele>27</ele>
        <time>2021-02-18T08:35:07.000Z</time>
      </trkpt>
      <trkpt lat="47.27416" lon="-2.35641">
        <ele>26.39999961853</ele>
        <time>2021-02-18T08:35:08.000Z</time>
      </trkpt>
      <trkpt lat="47.27418" lon="-2.3565">
        <ele>26</ele>
        <time>2021-02-18T08:35:09.000Z</time>
      </trkpt>
      <trkpt lat="47.2742" lon="-2.3566">
        <ele>25.60000038147</ele>
        <time>2021-02-18T08:35:10.000Z</time>
      </trkpt>
      <trkpt lat="47.27423" lon="-2.35666">
        <ele>25.200000762939</ele>
        <time>2021-02-18T08:35:11.000Z</time>
      </trkpt>
      <trkpt lat="47.27428" lon="-2.3567">
        <ele>24.60000038147</ele>
        <time>2021-02-18T08:35:12.000Z</time>
      </trkpt>
      <trkpt lat="47.27439" lon="-2.35675">
        <ele>24.60000038147</ele>
        <time>2021-02-18T08:35:14.000Z</time>
      </trkpt>
      <trkpt lat="47.27453" lon="-2.35676">
        <ele>24.60000038147</ele>
        <time>2021-02-18T08:35:16.000Z</time>
      </trkpt>
      <trkpt lat="47.27472" lon="-2.35679">
        <ele>24.60000038147</ele>
        <time>2021-02-18T08:35:19.000Z</time>
      </trkpt>
      <trkpt lat="47.27477" lon="-2.35681">
        <ele>24.60000038147</ele>
        <time>2021-02-18T08:35:20.000Z</time>
      </trkpt>
      <trkpt lat="47.27532" lon="-2.3569">
        <ele>24.60000038147</ele>
        <time>2021-02-18T08:35:29.000Z</time>
      </trkpt>
      <trkpt lat="47.27568" lon="-2.35698">
        <ele>24.60000038147</ele>
        <time>2021-02-18T08:35:35.000Z</time>
      </trkpt>
      <trkpt lat="47.27591" lon="-2.35706">
        <ele>24.60000038147</ele>
        <time>2021-02-18T08:35:39.000Z</time>
      </trkpt>
      <trkpt lat="47.27603" lon="-2.35707">
        <ele>24.60000038147</ele>
        <time>2021-02-18T08:35:41.000Z</time>
      </trkpt>
      <trkpt lat="47.27636" lon="-2.35714">
        <ele>24.60000038147</ele>
        <time>2021-02-18T08:35:47.000Z</time>
      </trkpt>
      <trkpt lat="47.27667" lon="-2.35724">
        <ele>25</ele>
        <time>2021-02-18T08:35:53.000Z</time>
      </trkpt>
      <trkpt lat="47.27672" lon="-2.35725">
        <ele>25.39999961853</ele>
        <time>2021-02-18T08:35:54.000Z</time>
      </trkpt>
      <trkpt lat="47.27677" lon="-2.35726">
        <ele>26</ele>
        <time>2021-02-18T08:35:55.000Z</time>
      </trkpt>
      <trkpt lat="47.27682" lon="-2.35727">
        <ele>26.39999961853</ele>
        <time>2021-02-18T08:35:56.000Z</time>
      </trkpt>
      <trkpt lat="47.27687" lon="-2.35727">
        <ele>26.799999237061</ele>
        <time>2021-02-18T08:35:57.000Z</time>
      </trkpt>
      <trkpt lat="47.27697" lon="-2.35726">
        <ele>26.799999237061</ele>
        <time>2021-02-18T08:35:59.000Z</time>
      </trkpt>
      <trkpt lat="47.27714" lon="-2.35712">
        <ele>26.799999237061</ele>
        <time>2021-02-18T08:36:03.000Z</time>
      </trkpt>
      <trkpt lat="47.27727" lon="-2.35694">
        <ele>26.799999237061</ele>
        <time>2021-02-18T08:36:07.000Z</time>
      </trkpt>
      <trkpt lat="47.27734" lon="-2.35684">
        <ele>26.799999237061</ele>
        <time>2021-02-18T08:36:09.000Z</time>
      </trkpt>
      <trkpt lat="47.27743" lon="-2.35668">
        <ele>27.200000762939</ele>
        <time>2021-02-18T08:36:12.000Z</time>
      </trkpt>
      <trkpt lat="47.27746" lon="-2.35662">
        <ele>27.60000038147</ele>
        <time>2021-02-18T08:36:13.000Z</time>
      </trkpt>
      <trkpt lat="47.27749" lon="-2.35657">
        <ele>28</ele>
        <time>2021-02-18T08:36:14.000Z</time>
      </trkpt>
      <trkpt lat="47.27753" lon="-2.35652">
        <ele>28.799999237061</ele>
        <time>2021-02-18T08:36:15.000Z</time>
      </trkpt>
      <trkpt lat="47.27761" lon="-2.35642">
        <ele>28.799999237061</ele>
        <time>2021-02-18T08:36:17.000Z</time>
      </trkpt>
      <trkpt lat="47.27773" lon="-2.35629">
        <ele>28.799999237061</ele>
        <time>2021-02-18T08:36:20.000Z</time>
      </trkpt>
      <trkpt lat="47.27794" lon="-2.35615">
        <ele>28.799999237061</ele>
        <time>2021-02-18T08:36:24.000Z</time>
      </trkpt>
      <trkpt lat="47.27799" lon="-2.35613">
        <ele>28.799999237061</ele>
        <time>2021-02-18T08:36:25.000Z</time>
      </trkpt>
      <trkpt lat="47.27819" lon="-2.35607">
        <ele>28.799999237061</ele>
        <time>2021-02-18T08:36:29.000Z</time>
      </trkpt>
      <trkpt lat="47.27824" lon="-2.35605">
        <ele>29.200000762939</ele>
        <time>2021-02-18T08:36:30.000Z</time>
      </trkpt>
      <trkpt lat="47.27829" lon="-2.35604">
        <ele>29.60000038147</ele>
        <time>2021-02-18T08:36:31.000Z</time>
      </trkpt>
      <trkpt lat="47.27834" lon="-2.35603">
        <ele>30.200000762939</ele>
        <time>2021-02-18T08:36:32.000Z</time>
      </trkpt>
      <trkpt lat="47.27839" lon="-2.35601">
        <ele>30.60000038147</ele>
        <time>2021-02-18T08:36:33.000Z</time>
      </trkpt>
      <trkpt lat="47.27844" lon="-2.356">
        <ele>31</ele>
        <time>2021-02-18T08:36:34.000Z</time>
      </trkpt>
      <trkpt lat="47.27853" lon="-2.35598">
        <ele>31</ele>
        <time>2021-02-18T08:36:36.000Z</time>
      </trkpt>
      <trkpt lat="47.27888" lon="-2.3559">
        <ele>31</ele>
        <time>2021-02-18T08:36:43.000Z</time>
      </trkpt>
      <trkpt lat="47.27892" lon="-2.35589">
        <ele>31.39999961853</ele>
        <time>2021-02-18T08:36:44.000Z</time>
      </trkpt>
      <trkpt lat="47.27896" lon="-2.35589">
        <ele>31.799999237061</ele>
        <time>2021-02-18T08:36:45.000Z</time>
      </trkpt>
      <trkpt lat="47.27901" lon="-2.35588">
        <ele>32.200000762939</ele>
        <time>2021-02-18T08:36:46.000Z</time>
      </trkpt>
      <trkpt lat="47.27905" lon="-2.35589">
        <ele>32.599998474121</ele>
        <time>2021-02-18T08:36:47.000Z</time>
      </trkpt>
      <trkpt lat="47.27909" lon="-2.35589">
        <ele>33</ele>
        <time>2021-02-18T08:36:48.000Z</time>
      </trkpt>
      <trkpt lat="47.27914" lon="-2.35589">
        <ele>33</ele>
        <time>2021-02-18T08:36:49.000Z</time>
      </trkpt>
      <trkpt lat="47.2794" lon="-2.35588">
        <ele>33</ele>
        <time>2021-02-18T08:36:55.000Z</time>
      </trkpt>
      <trkpt lat="47.27944" lon="-2.35586">
        <ele>33</ele>
        <time>2021-02-18T08:36:56.000Z</time>
      </trkpt>
      <trkpt lat="47.27961" lon="-2.3558">
        <ele>33</ele>
        <time>2021-02-18T08:37:00.000Z</time>
      </trkpt>
      <trkpt lat="47.27966" lon="-2.3558">
        <ele>33</ele>
        <time>2021-02-18T08:37:01.000Z</time>
      </trkpt>
      <trkpt lat="47.2797" lon="-2.3558">
        <ele>33.400001525879</ele>
        <time>2021-02-18T08:37:02.000Z</time>
      </trkpt>
      <trkpt lat="47.27974" lon="-2.35582">
        <ele>33.799999237061</ele>
        <time>2021-02-18T08:37:03.000Z</time>
      </trkpt>
      <trkpt lat="47.27979" lon="-2.35583">
        <ele>34.200000762939</ele>
        <time>2021-02-18T08:37:04.000Z</time>
      </trkpt>
      <trkpt lat="47.27983" lon="-2.35584">
        <ele>35</ele>
        <time>2021-02-18T08:37:05.000Z</time>
      </trkpt>
      <trkpt lat="47.27987" lon="-2.35584">
        <ele>35</ele>
        <time>2021-02-18T08:37:06.000Z</time>
      </trkpt>
      <trkpt lat="47.27991" lon="-2.35583">
        <ele>35</ele>
        <time>2021-02-18T08:37:07.000Z</time>
      </trkpt>
      <trkpt lat="47.28008" lon="-2.35577">
        <ele>35</ele>
        <time>2021-02-18T08:37:11.000Z</time>
      </trkpt>
      <trkpt lat="47.28033" lon="-2.35574">
        <ele>35</ele>
        <time>2021-02-18T08:37:17.000Z</time>
      </trkpt>
      <trkpt lat="47.28054" lon="-2.3558">
        <ele>35</ele>
        <time>2021-02-18T08:37:22.000Z</time>
      </trkpt>
      <trkpt lat="47.28072" lon="-2.35589">
        <ele>35</ele>
        <time>2021-02-18T08:37:28.000Z</time>
      </trkpt>
      <trkpt lat="47.28081" lon="-2.35606">
        <ele>35</ele>
        <time>2021-02-18T08:37:33.000Z</time>
      </trkpt>
      <trkpt lat="47.28083" lon="-2.35613">
        <ele>35.400001525879</ele>
        <time>2021-02-18T08:37:35.000Z</time>
      </trkpt>
      <trkpt lat="47.28084" lon="-2.35614">
        <ele>35.799999237061</ele>
        <time>2021-02-18T08:37:36.000Z</time>
      </trkpt>
      <trkpt lat="47.28084" lon="-2.35614">
        <ele>36.200000762939</ele>
        <time>2021-02-18T08:37:37.000Z</time>
      </trkpt>
      <trkpt lat="47.28084" lon="-2.35614">
        <ele>36.599998474121</ele>
        <time>2021-02-18T08:37:38.000Z</time>
      </trkpt>
      <trkpt lat="47.28082" lon="-2.35613">
        <ele>31</ele>
        <time>2021-02-18T08:42:07.000Z</time>
      </trkpt>
      <trkpt lat="47.28082" lon="-2.35608">
        <ele>31</ele>
        <time>2021-02-18T08:42:10.000Z</time>
      </trkpt>
      <trkpt lat="47.28076" lon="-2.35611">
        <ele>31</ele>
        <time>2021-02-18T08:42:14.000Z</time>
      </trkpt>
      <trkpt lat="47.28077" lon="-2.35619">
        <ele>31</ele>
        <time>2021-02-18T08:42:17.000Z</time>
      </trkpt>
      <trkpt lat="47.28082" lon="-2.35638">
        <ele>31.39999961853</ele>
        <time>2021-02-18T08:42:23.000Z</time>
      </trkpt>
      <trkpt lat="47.28084" lon="-2.35642">
        <ele>32</ele>
        <time>2021-02-18T08:42:24.000Z</time>
      </trkpt>
      <trkpt lat="47.28085" lon="-2.35646">
        <ele>32.400001525879</ele>
        <time>2021-02-18T08:42:25.000Z</time>
      </trkpt>
      <trkpt lat="47.28087" lon="-2.3565">
        <ele>33.200000762939</ele>
        <time>2021-02-18T08:42:26.000Z</time>
      </trkpt>
      <trkpt lat="47.2809" lon="-2.35657">
        <ele>33.799999237061</ele>
        <time>2021-02-18T08:42:28.000Z</time>
      </trkpt>
      <trkpt lat="47.2809" lon="-2.3566">
        <ele>34.200000762939</ele>
        <time>2021-02-18T08:42:29.000Z</time>
      </trkpt>
      <trkpt lat="47.2809" lon="-2.35664">
        <ele>34.599998474121</ele>
        <time>2021-02-18T08:42:30.000Z</time>
      </trkpt>
      <trkpt lat="47.28091" lon="-2.35667">
        <ele>35</ele>
        <time>2021-02-18T08:42:31.000Z</time>
      </trkpt>
      <trkpt lat="47.28091" lon="-2.35669">
        <ele>35.400001525879</ele>
        <time>2021-02-18T08:42:32.000Z</time>
      </trkpt>
      <trkpt lat="47.28093" lon="-2.35679">
        <ele>35.400001525879</ele>
        <time>2021-02-18T08:42:37.000Z</time>
      </trkpt>
      <trkpt lat="47.28095" lon="-2.35693">
        <ele>35.400001525879</ele>
        <time>2021-02-18T08:42:44.000Z</time>
      </trkpt>
      <trkpt lat="47.28097" lon="-2.35695">
        <ele>35.400001525879</ele>
        <time>2021-02-18T08:42:45.000Z</time>
      </trkpt>
      <trkpt lat="47.28099" lon="-2.35703">
        <ele>35.400001525879</ele>
        <time>2021-02-18T08:42:49.000Z</time>
      </trkpt>
      <trkpt lat="47.28095" lon="-2.35711">
        <ele>35.400001525879</ele>
        <time>2021-02-18T08:42:54.000Z</time>
      </trkpt>
      <trkpt lat="47.28093" lon="-2.35712">
        <ele>35.400001525879</ele>
        <time>2021-02-18T08:42:56.000Z</time>
      </trkpt>
      <trkpt lat="47.28094" lon="-2.357">
        <ele>35.400001525879</ele>
        <time>2021-02-18T08:43:19.000Z</time>
      </trkpt>
      <trkpt lat="47.28096" lon="-2.35695">
        <ele>35.400001525879</ele>
        <time>2021-02-18T08:43:21.000Z</time>
      </trkpt>
      <trkpt lat="47.28099" lon="-2.35692">
        <ele>36</ele>
        <time>2021-02-18T08:43:22.000Z</time>
      </trkpt>
      <trkpt lat="47.28101" lon="-2.3569">
        <ele>36.400001525879</ele>
        <time>2021-02-18T08:43:23.000Z</time>
      </trkpt>
      <trkpt lat="47.28103" lon="-2.35688">
        <ele>36.799999237061</ele>
        <time>2021-02-18T08:43:24.000Z</time>
      </trkpt>
      <trkpt lat="47.28105" lon="-2.35687">
        <ele>37.200000762939</ele>
        <time>2021-02-18T08:43:25.000Z</time>
      </trkpt>
      <trkpt lat="47.28107" lon="-2.35685">
        <ele>37.599998474121</ele>
        <time>2021-02-18T08:43:26.000Z</time>
      </trkpt>
      <trkpt lat="47.28111" lon="-2.35684">
        <ele>38</ele>
        <time>2021-02-18T08:43:28.000Z</time>
      </trkpt>
      <trkpt lat="47.28113" lon="-2.35683">
        <ele>38.400001525879</ele>
        <time>2021-02-18T08:43:29.000Z</time>
      </trkpt>
      <trkpt lat="47.28115" lon="-2.35682">
        <ele>38.799999237061</ele>
        <time>2021-02-18T08:43:30.000Z</time>
      </trkpt>
      <trkpt lat="47.28118" lon="-2.3568">
        <ele>39.200000762939</ele>
        <time>2021-02-18T08:43:31.000Z</time>
      </trkpt>
      <trkpt lat="47.2812" lon="-2.3568">
        <ele>39.599998474121</ele>
        <time>2021-02-18T08:43:32.000Z</time>
      </trkpt>
      <trkpt lat="47.28121" lon="-2.35678">
        <ele>39.599998474121</ele>
        <time>2021-02-18T08:43:33.000Z</time>
      </trkpt>
      <trkpt lat="47.28123" lon="-2.35677">
        <ele>40</ele>
        <time>2021-02-18T08:43:34.000Z</time>
      </trkpt>
      <trkpt lat="47.28125" lon="-2.35676">
        <ele>40.400001525879</ele>
        <time>2021-02-18T08:43:35.000Z</time>
      </trkpt>
      <trkpt lat="47.28126" lon="-2.35675">
        <ele>40.799999237061</ele>
        <time>2021-02-18T08:43:36.000Z</time>
      </trkpt>
      <trkpt lat="47.28129" lon="-2.35674">
        <ele>41.200000762939</ele>
        <time>2021-02-18T08:43:37.000Z</time>
      </trkpt>
      <trkpt lat="47.28132" lon="-2.35673">
        <ele>41.599998474121</ele>
        <time>2021-02-18T08:43:38.000Z</time>
      </trkpt>
      <trkpt lat="47.28134" lon="-2.35672">
        <ele>41.599998474121</ele>
        <time>2021-02-18T08:43:39.000Z</time>
      </trkpt>
      <trkpt lat="47.28143" lon="-2.35666">
        <ele>42</ele>
        <time>2021-02-18T08:43:44.000Z</time>
      </trkpt>
      <trkpt lat="47.28144" lon="-2.35667">
        <ele>42.400001525879</ele>
        <time>2021-02-18T08:43:45.000Z</time>
      </trkpt>
      <trkpt lat="47.28146" lon="-2.35669">
        <ele>42.799999237061</ele>
        <time>2021-02-18T08:43:46.000Z</time>
      </trkpt>
      <trkpt lat="47.28148" lon="-2.3567">
        <ele>43.200000762939</ele>
        <time>2021-02-18T08:43:47.000Z</time>
      </trkpt>
      <trkpt lat="47.28151" lon="-2.35672">
        <ele>43.599998474121</ele>
        <time>2021-02-18T08:43:48.000Z</time>
      </trkpt>
      <trkpt lat="47.28153" lon="-2.35673">
        <ele>43.599998474121</ele>
        <time>2021-02-18T08:43:49.000Z</time>
      </trkpt>
      <trkpt lat="47.28157" lon="-2.35677">
        <ele>43.200000762939</ele>
        <time>2021-02-18T08:43:51.000Z</time>
      </trkpt>
      <trkpt lat="47.28158" lon="-2.35679">
        <ele>42.599998474121</ele>
        <time>2021-02-18T08:43:52.000Z</time>
      </trkpt>
      <trkpt lat="47.28159" lon="-2.35679">
        <ele>42.200000762939</ele>
        <time>2021-02-18T08:43:53.000Z</time>
      </trkpt>
      <trkpt lat="47.2816" lon="-2.35678">
        <ele>41.599998474121</ele>
        <time>2021-02-18T08:43:54.000Z</time>
      </trkpt>
      <trkpt lat="47.28165" lon="-2.35682">
        <ele>41.200000762939</ele>
        <time>2021-02-18T08:43:58.000Z</time>
      </trkpt>
      <trkpt lat="47.28166" lon="-2.35685">
        <ele>40.599998474121</ele>
        <time>2021-02-18T08:43:59.000Z</time>
      </trkpt>
      <trkpt lat="47.28168" lon="-2.35688">
        <ele>40.200000762939</ele>
        <time>2021-02-18T08:44:00.000Z</time>
      </trkpt>
      <trkpt lat="47.2817" lon="-2.35691">
        <ele>39.799999237061</ele>
        <time>2021-02-18T08:44:01.000Z</time>
      </trkpt>
      <trkpt lat="47.28172" lon="-2.35694">
        <ele>39.400001525879</ele>
        <time>2021-02-18T08:44:02.000Z</time>
      </trkpt>
      <trkpt lat="47.28174" lon="-2.35697">
        <ele>38.799999237061</ele>
        <time>2021-02-18T08:44:03.000Z</time>
      </trkpt>
      <trkpt lat="47.28174" lon="-2.357">
        <ele>38.200000762939</ele>
        <time>2021-02-18T08:44:04.000Z</time>
      </trkpt>
      <trkpt lat="47.28175" lon="-2.35702">
        <ele>37</ele>
        <time>2021-02-18T08:44:05.000Z</time>
      </trkpt>
      <trkpt lat="47.28175" lon="-2.35704">
        <ele>36.400001525879</ele>
        <time>2021-02-18T08:44:06.000Z</time>
      </trkpt>
      <trkpt lat="47.28177" lon="-2.35704">
        <ele>36</ele>
        <time>2021-02-18T08:44:07.000Z</time>
      </trkpt>
      <trkpt lat="47.28179" lon="-2.35704">
        <ele>35.400001525879</ele>
        <time>2021-02-18T08:44:08.000Z</time>
      </trkpt>
      <trkpt lat="47.2818" lon="-2.35705">
        <ele>35</ele>
        <time>2021-02-18T08:44:09.000Z</time>
      </trkpt>
      <trkpt lat="47.28183" lon="-2.35706">
        <ele>34.599998474121</ele>
        <time>2021-02-18T08:44:10.000Z</time>
      </trkpt>
      <trkpt lat="47.28184" lon="-2.35708">
        <ele>34</ele>
        <time>2021-02-18T08:44:11.000Z</time>
      </trkpt>
      <trkpt lat="47.28186" lon="-2.35709">
        <ele>34</ele>
        <time>2021-02-18T08:44:12.000Z</time>
      </trkpt>
      <trkpt lat="47.28191" lon="-2.35717">
        <ele>34</ele>
        <time>2021-02-18T08:44:15.000Z</time>
      </trkpt>
      <trkpt lat="47.282" lon="-2.35727">
        <ele>34</ele>
        <time>2021-02-18T08:44:22.000Z</time>
      </trkpt>
      <trkpt lat="47.28201" lon="-2.35746">
        <ele>34</ele>
        <time>2021-02-18T08:44:30.000Z</time>
      </trkpt>
      <trkpt lat="47.28198" lon="-2.35755">
        <ele>34</ele>
        <time>2021-02-18T08:44:34.000Z</time>
      </trkpt>
      <trkpt lat="47.28193" lon="-2.35757">
        <ele>34</ele>
        <time>2021-02-18T08:44:36.000Z</time>
      </trkpt>
      <trkpt lat="47.28184" lon="-2.35759">
        <ele>34</ele>
        <time>2021-02-18T08:44:41.000Z</time>
      </trkpt>
      <trkpt lat="47.28181" lon="-2.3576">
        <ele>34</ele>
        <time>2021-02-18T08:44:45.000Z</time>
      </trkpt>
      <trkpt lat="47.28153" lon="-2.35757">
        <ele>29.799999237061</ele>
        <time>2021-02-18T08:45:09.000Z</time>
      </trkpt>
      <trkpt lat="47.2815" lon="-2.35757">
        <ele>29.799999237061</ele>
        <time>2021-02-18T08:45:10.000Z</time>
      </trkpt>
      <trkpt lat="47.2814" lon="-2.35764">
        <ele>29.799999237061</ele>
        <time>2021-02-18T08:45:15.000Z</time>
      </trkpt>
      <trkpt lat="47.28139" lon="-2.35766">
        <ele>29.799999237061</ele>
        <time>2021-02-18T08:45:16.000Z</time>
      </trkpt>
      <trkpt lat="47.28138" lon="-2.35774">
        <ele>29.799999237061</ele>
        <time>2021-02-18T08:45:20.000Z</time>
      </trkpt>
      <trkpt lat="47.28139" lon="-2.35793">
        <ele>29.799999237061</ele>
        <time>2021-02-18T08:45:26.000Z</time>
      </trkpt>
      <trkpt lat="47.28147" lon="-2.35809">
        <ele>29.799999237061</ele>
        <time>2021-02-18T08:45:31.000Z</time>
      </trkpt>
      <trkpt lat="47.28157" lon="-2.35823">
        <ele>29.799999237061</ele>
        <time>2021-02-18T08:45:37.000Z</time>
      </trkpt>
      <trkpt lat="47.28163" lon="-2.35829">
        <ele>29.799999237061</ele>
        <time>2021-02-18T08:45:40.000Z</time>
      </trkpt>
      <trkpt lat="47.28165" lon="-2.35836">
        <ele>29.799999237061</ele>
        <time>2021-02-18T08:45:42.000Z</time>
      </trkpt>
      <trkpt lat="47.2817" lon="-2.35848">
        <ele>29.799999237061</ele>
        <time>2021-02-18T08:45:46.000Z</time>
      </trkpt>
      <trkpt lat="47.28171" lon="-2.35852">
        <ele>29.799999237061</ele>
        <time>2021-02-18T08:45:47.000Z</time>
      </trkpt>
      <trkpt lat="47.28171" lon="-2.35855">
        <ele>29.799999237061</ele>
        <time>2021-02-18T08:45:48.000Z</time>
      </trkpt>
      <trkpt lat="47.28168" lon="-2.35866">
        <ele>29.799999237061</ele>
        <time>2021-02-18T08:45:51.000Z</time>
      </trkpt>
      <trkpt lat="47.28162" lon="-2.35872">
        <ele>29.799999237061</ele>
        <time>2021-02-18T08:45:53.000Z</time>
      </trkpt>
      <trkpt lat="47.28157" lon="-2.35874">
        <ele>29.799999237061</ele>
        <time>2021-02-18T08:45:55.000Z</time>
      </trkpt>
      <trkpt lat="47.28155" lon="-2.35874">
        <ele>29.799999237061</ele>
        <time>2021-02-18T08:45:56.000Z</time>
      </trkpt>
      <trkpt lat="47.28143" lon="-2.35869">
        <ele>29.799999237061</ele>
        <time>2021-02-18T08:46:01.000Z</time>
      </trkpt>
      <trkpt lat="47.28134" lon="-2.35866">
        <ele>29.39999961853</ele>
        <time>2021-02-18T08:46:04.000Z</time>
      </trkpt>
      <trkpt lat="47.28132" lon="-2.35864">
        <ele>29</ele>
        <time>2021-02-18T08:46:05.000Z</time>
      </trkpt>
      <trkpt lat="47.28131" lon="-2.35863">
        <ele>28.60000038147</ele>
        <time>2021-02-18T08:46:06.000Z</time>
      </trkpt>
      <trkpt lat="47.2813" lon="-2.35862">
        <ele>28.200000762939</ele>
        <time>2021-02-18T08:46:07.000Z</time>
      </trkpt>
      <trkpt lat="47.2813" lon="-2.35862">
        <ele>27.799999237061</ele>
        <time>2021-02-18T08:46:08.000Z</time>
      </trkpt>
      <trkpt lat="47.28126" lon="-2.35849">
        <ele>27.799999237061</ele>
        <time>2021-02-18T08:46:15.000Z</time>
      </trkpt>
      <trkpt lat="47.28125" lon="-2.35848">
        <ele>27.799999237061</ele>
        <time>2021-02-18T08:46:16.000Z</time>
      </trkpt>
      <trkpt lat="47.28113" lon="-2.35833">
        <ele>27.799999237061</ele>
        <time>2021-02-18T08:46:37.000Z</time>
      </trkpt>
      <trkpt lat="47.28111" lon="-2.35824">
        <ele>27.799999237061</ele>
        <time>2021-02-18T08:46:39.000Z</time>
      </trkpt>
      <trkpt lat="47.28107" lon="-2.35811">
        <ele>27.39999961853</ele>
        <time>2021-02-18T08:46:42.000Z</time>
      </trkpt>
      <trkpt lat="47.28106" lon="-2.35809">
        <ele>27</ele>
        <time>2021-02-18T08:46:43.000Z</time>
      </trkpt>
      <trkpt lat="47.28105" lon="-2.35808">
        <ele>26.60000038147</ele>
        <time>2021-02-18T08:46:44.000Z</time>
      </trkpt>
      <trkpt lat="47.28105" lon="-2.35806">
        <ele>26.200000762939</ele>
        <time>2021-02-18T08:46:45.000Z</time>
      </trkpt>
      <trkpt lat="47.28104" lon="-2.35805">
        <ele>25.799999237061</ele>
        <time>2021-02-18T08:46:46.000Z</time>
      </trkpt>
      <trkpt lat="47.2811" lon="-2.35801">
        <ele>25.799999237061</ele>
        <time>2021-02-18T08:46:57.000Z</time>
      </trkpt>
      <trkpt lat="47.28115" lon="-2.35803">
        <ele>25.799999237061</ele>
        <time>2021-02-18T08:47:00.000Z</time>
      </trkpt>
      <trkpt lat="47.28119" lon="-2.35807">
        <ele>25.799999237061</ele>
        <time>2021-02-18T08:47:03.000Z</time>
      </trkpt>
      <trkpt lat="47.28123" lon="-2.35817">
        <ele>25.799999237061</ele>
        <time>2021-02-18T08:47:07.000Z</time>
      </trkpt>
      <trkpt lat="47.28126" lon="-2.35822">
        <ele>25.799999237061</ele>
        <time>2021-02-18T08:47:10.000Z</time>
      </trkpt>
      <trkpt lat="47.28141" lon="-2.35818">
        <ele>27.799999237061</ele>
        <time>2021-02-18T08:47:21.000Z</time>
      </trkpt>
      <trkpt lat="47.28144" lon="-2.3582">
        <ele>27.799999237061</ele>
        <time>2021-02-18T08:47:22.000Z</time>
      </trkpt>
      <trkpt lat="47.28162" lon="-2.3583">
        <ele>27.799999237061</ele>
        <time>2021-02-18T08:47:29.000Z</time>
      </trkpt>
      <trkpt lat="47.28178" lon="-2.35847">
        <ele>27.799999237061</ele>
        <time>2021-02-18T08:47:35.000Z</time>
      </trkpt>
      <trkpt lat="47.28183" lon="-2.35871">
        <ele>27.799999237061</ele>
        <time>2021-02-18T08:47:41.000Z</time>
      </trkpt>
      <trkpt lat="47.2818" lon="-2.35899">
        <ele>27.799999237061</ele>
        <time>2021-02-18T08:47:46.000Z</time>
      </trkpt>
      <trkpt lat="47.2818" lon="-2.35905">
        <ele>27.39999961853</ele>
        <time>2021-02-18T08:47:47.000Z</time>
      </trkpt>
      <trkpt lat="47.28179" lon="-2.35912">
        <ele>26.39999961853</ele>
        <time>2021-02-18T08:47:48.000Z</time>
      </trkpt>
      <trkpt lat="47.28179" lon="-2.35918">
        <ele>26</ele>
        <time>2021-02-18T08:47:49.000Z</time>
      </trkpt>
      <trkpt lat="47.28179" lon="-2.35927">
        <ele>25.60000038147</ele>
        <time>2021-02-18T08:47:50.000Z</time>
      </trkpt>
      <trkpt lat="47.28182" lon="-2.35939">
        <ele>25.60000038147</ele>
        <time>2021-02-18T08:47:52.000Z</time>
      </trkpt>
      <trkpt lat="47.28184" lon="-2.35948">
        <ele>25.60000038147</ele>
        <time>2021-02-18T08:47:53.000Z</time>
      </trkpt>
      <trkpt lat="47.28191" lon="-2.35969">
        <ele>25.60000038147</ele>
        <time>2021-02-18T08:47:56.000Z</time>
      </trkpt>
      <trkpt lat="47.28194" lon="-2.35976">
        <ele>25.200000762939</ele>
        <time>2021-02-18T08:47:57.000Z</time>
      </trkpt>
      <trkpt lat="47.28198" lon="-2.35982">
        <ele>24.799999237061</ele>
        <time>2021-02-18T08:47:58.000Z</time>
      </trkpt>
      <trkpt lat="47.28201" lon="-2.35989">
        <ele>24.39999961853</ele>
        <time>2021-02-18T08:47:59.000Z</time>
      </trkpt>
      <trkpt lat="47.28204" lon="-2.35995">
        <ele>23.799999237061</ele>
        <time>2021-02-18T08:48:00.000Z</time>
      </trkpt>
      <trkpt lat="47.28207" lon="-2.36">
        <ele>23.39999961853</ele>
        <time>2021-02-18T08:48:01.000Z</time>
      </trkpt>
      <trkpt lat="47.2821" lon="-2.36006">
        <ele>23.39999961853</ele>
        <time>2021-02-18T08:48:02.000Z</time>
      </trkpt>
      <trkpt lat="47.28211" lon="-2.36019">
        <ele>23.39999961853</ele>
        <time>2021-02-18T08:48:05.000Z</time>
      </trkpt>
      <trkpt lat="47.28212" lon="-2.36021">
        <ele>23.39999961853</ele>
        <time>2021-02-18T08:48:06.000Z</time>
      </trkpt>
      <trkpt lat="47.28213" lon="-2.36024">
        <ele>23.39999961853</ele>
        <time>2021-02-18T08:48:07.000Z</time>
      </trkpt>
      <trkpt lat="47.2822" lon="-2.36029">
        <ele>23.39999961853</ele>
        <time>2021-02-18T08:48:10.000Z</time>
      </trkpt>
      <trkpt lat="47.28233" lon="-2.3602">
        <ele>23.39999961853</ele>
        <time>2021-02-18T08:48:15.000Z</time>
      </trkpt>
      <trkpt lat="47.28251" lon="-2.3601">
        <ele>23.39999961853</ele>
        <time>2021-02-18T08:48:19.000Z</time>
      </trkpt>
      <trkpt lat="47.28264" lon="-2.35998">
        <ele>23.39999961853</ele>
        <time>2021-02-18T08:48:23.000Z</time>
      </trkpt>
      <trkpt lat="47.28267" lon="-2.35995">
        <ele>23.39999961853</ele>
        <time>2021-02-18T08:48:24.000Z</time>
      </trkpt>
      <trkpt lat="47.28276" lon="-2.35981">
        <ele>23.39999961853</ele>
        <time>2021-02-18T08:48:29.000Z</time>
      </trkpt>
      <trkpt lat="47.28276" lon="-2.35978">
        <ele>23.799999237061</ele>
        <time>2021-02-18T08:48:30.000Z</time>
      </trkpt>
      <trkpt lat="47.28276" lon="-2.35974">
        <ele>24.200000762939</ele>
        <time>2021-02-18T08:48:31.000Z</time>
      </trkpt>
      <trkpt lat="47.28275" lon="-2.35969">
        <ele>24.799999237061</ele>
        <time>2021-02-18T08:48:32.000Z</time>
      </trkpt>
      <trkpt lat="47.28273" lon="-2.35964">
        <ele>25.200000762939</ele>
        <time>2021-02-18T08:48:33.000Z</time>
      </trkpt>
      <trkpt lat="47.28272" lon="-2.3596">
        <ele>25.60000038147</ele>
        <time>2021-02-18T08:48:34.000Z</time>
      </trkpt>
      <trkpt lat="47.28267" lon="-2.35951">
        <ele>25.60000038147</ele>
        <time>2021-02-18T08:48:36.000Z</time>
      </trkpt>
      <trkpt lat="47.28264" lon="-2.35942">
        <ele>25.60000038147</ele>
        <time>2021-02-18T08:48:38.000Z</time>
      </trkpt>
      <trkpt lat="47.28255" lon="-2.35925">
        <ele>26</ele>
        <time>2021-02-18T08:48:43.000Z</time>
      </trkpt>
      <trkpt lat="47.28254" lon="-2.35922">
        <ele>26.39999961853</ele>
        <time>2021-02-18T08:48:44.000Z</time>
      </trkpt>
      <trkpt lat="47.28252" lon="-2.35918">
        <ele>26.799999237061</ele>
        <time>2021-02-18T08:48:45.000Z</time>
      </trkpt>
      <trkpt lat="47.28251" lon="-2.35914">
        <ele>27.200000762939</ele>
        <time>2021-02-18T08:48:46.000Z</time>
      </trkpt>
      <trkpt lat="47.28251" lon="-2.3591">
        <ele>27.60000038147</ele>
        <time>2021-02-18T08:48:47.000Z</time>
      </trkpt>
      <trkpt lat="47.28253" lon="-2.35901">
        <ele>27.60000038147</ele>
        <time>2021-02-18T08:48:50.000Z</time>
      </trkpt>
      <trkpt lat="47.28261" lon="-2.35891">
        <ele>27.60000038147</ele>
        <time>2021-02-18T08:48:54.000Z</time>
      </trkpt>
      <trkpt lat="47.28266" lon="-2.35885">
        <ele>27.60000038147</ele>
        <time>2021-02-18T08:48:56.000Z</time>
      </trkpt>
      <trkpt lat="47.28272" lon="-2.35874">
        <ele>27.60000038147</ele>
        <time>2021-02-18T08:49:00.000Z</time>
      </trkpt>
      <trkpt lat="47.28275" lon="-2.35866">
        <ele>27.60000038147</ele>
        <time>2021-02-18T08:49:04.000Z</time>
      </trkpt>
      <trkpt lat="47.28271" lon="-2.3586">
        <ele>27.60000038147</ele>
        <time>2021-02-18T08:49:08.000Z</time>
      </trkpt>
      <trkpt lat="47.2827" lon="-2.35858">
        <ele>27.60000038147</ele>
        <time>2021-02-18T08:49:09.000Z</time>
      </trkpt>
      <trkpt lat="47.28266" lon="-2.35838">
        <ele>27.60000038147</ele>
        <time>2021-02-18T08:49:14.000Z</time>
      </trkpt>
      <trkpt lat="47.28262" lon="-2.35807">
        <ele>27.60000038147</ele>
        <time>2021-02-18T08:49:20.000Z</time>
      </trkpt>
      <trkpt lat="47.28259" lon="-2.35782">
        <ele>27.60000038147</ele>
        <time>2021-02-18T08:49:26.000Z</time>
      </trkpt>
      <trkpt lat="47.28257" lon="-2.3578">
        <ele>27.60000038147</ele>
        <time>2021-02-18T08:49:28.000Z</time>
      </trkpt>
      <trkpt lat="47.28253" lon="-2.3578">
        <ele>27.60000038147</ele>
        <time>2021-02-18T08:49:30.000Z</time>
      </trkpt>
      <trkpt lat="47.28248" lon="-2.3578">
        <ele>27.60000038147</ele>
        <time>2021-02-18T08:49:32.000Z</time>
      </trkpt>
      <trkpt lat="47.2824" lon="-2.35778">
        <ele>27.60000038147</ele>
        <time>2021-02-18T08:49:36.000Z</time>
      </trkpt>
      <trkpt lat="47.28238" lon="-2.35775">
        <ele>27.60000038147</ele>
        <time>2021-02-18T08:49:38.000Z</time>
      </trkpt>
      <trkpt lat="47.28233" lon="-2.35768">
        <ele>27.60000038147</ele>
        <time>2021-02-18T08:49:41.000Z</time>
      </trkpt>
      <trkpt lat="47.2823" lon="-2.35764">
        <ele>27.60000038147</ele>
        <time>2021-02-18T08:49:43.000Z</time>
      </trkpt>
      <trkpt lat="47.28226" lon="-2.35758">
        <ele>27.60000038147</ele>
        <time>2021-02-18T08:49:47.000Z</time>
      </trkpt>
      <trkpt lat="47.28218" lon="-2.35748">
        <ele>27.60000038147</ele>
        <time>2021-02-18T08:49:53.000Z</time>
      </trkpt>
      <trkpt lat="47.2822" lon="-2.35743">
        <ele>27.200000762939</ele>
        <time>2021-02-18T08:49:55.000Z</time>
      </trkpt>
      <trkpt lat="47.28221" lon="-2.35741">
        <ele>26.799999237061</ele>
        <time>2021-02-18T08:49:56.000Z</time>
      </trkpt>
      <trkpt lat="47.28223" lon="-2.35739">
        <ele>26.39999961853</ele>
        <time>2021-02-18T08:49:57.000Z</time>
      </trkpt>
      <trkpt lat="47.28224" lon="-2.35739">
        <ele>26</ele>
        <time>2021-02-18T08:49:58.000Z</time>
      </trkpt>
      <trkpt lat="47.28226" lon="-2.35738">
        <ele>25.60000038147</ele>
        <time>2021-02-18T08:49:59.000Z</time>
      </trkpt>
      <trkpt lat="47.2823" lon="-2.35743">
        <ele>25.60000038147</ele>
        <time>2021-02-18T08:50:03.000Z</time>
      </trkpt>
      <trkpt lat="47.28231" lon="-2.35748">
        <ele>25.60000038147</ele>
        <time>2021-02-18T08:50:05.000Z</time>
      </trkpt>
      <trkpt lat="47.28233" lon="-2.35755">
        <ele>25.60000038147</ele>
        <time>2021-02-18T08:50:09.000Z</time>
      </trkpt>
      <trkpt lat="47.28234" lon="-2.35757">
        <ele>26.200000762939</ele>
        <time>2021-02-18T08:50:10.000Z</time>
      </trkpt>
      <trkpt lat="47.28235" lon="-2.35758">
        <ele>26.60000038147</ele>
        <time>2021-02-18T08:50:11.000Z</time>
      </trkpt>
      <trkpt lat="47.28237" lon="-2.3576">
        <ele>27</ele>
        <time>2021-02-18T08:50:12.000Z</time>
      </trkpt>
      <trkpt lat="47.28239" lon="-2.35762">
        <ele>27.39999961853</ele>
        <time>2021-02-18T08:50:13.000Z</time>
      </trkpt>
      <trkpt lat="47.28242" lon="-2.35764">
        <ele>28</ele>
        <time>2021-02-18T08:50:14.000Z</time>
      </trkpt>
      <trkpt lat="47.28245" lon="-2.35766">
        <ele>28</ele>
        <time>2021-02-18T08:50:15.000Z</time>
      </trkpt>
      <trkpt lat="47.28255" lon="-2.35769">
        <ele>28</ele>
        <time>2021-02-18T08:50:19.000Z</time>
      </trkpt>
      <trkpt lat="47.28256" lon="-2.35771">
        <ele>28</ele>
        <time>2021-02-18T08:50:20.000Z</time>
      </trkpt>
      <trkpt lat="47.28258" lon="-2.35781">
        <ele>28</ele>
        <time>2021-02-18T08:50:24.000Z</time>
      </trkpt>
      <trkpt lat="47.28259" lon="-2.3579">
        <ele>28</ele>
        <time>2021-02-18T08:50:26.000Z</time>
      </trkpt>
      <trkpt lat="47.28261" lon="-2.35805">
        <ele>28</ele>
        <time>2021-02-18T08:50:30.000Z</time>
      </trkpt>
      <trkpt lat="47.28262" lon="-2.35807">
        <ele>28</ele>
        <time>2021-02-18T08:50:31.000Z</time>
      </trkpt>
      <trkpt lat="47.28265" lon="-2.35809">
        <ele>28</ele>
        <time>2021-02-18T08:50:32.000Z</time>
      </trkpt>
      <trkpt lat="47.28267" lon="-2.35809">
        <ele>28</ele>
        <time>2021-02-18T08:50:34.000Z</time>
      </trkpt>
      <trkpt lat="47.28275" lon="-2.35811">
        <ele>28</ele>
        <time>2021-02-18T08:50:38.000Z</time>
      </trkpt>
      <trkpt lat="47.28277" lon="-2.35811">
        <ele>28</ele>
        <time>2021-02-18T08:50:39.000Z</time>
      </trkpt>
      <trkpt lat="47.28281" lon="-2.35807">
        <ele>28</ele>
        <time>2021-02-18T08:50:41.000Z</time>
      </trkpt>
      <trkpt lat="47.28288" lon="-2.35803">
        <ele>28</ele>
        <time>2021-02-18T08:50:45.000Z</time>
      </trkpt>
      <trkpt lat="47.28295" lon="-2.35807">
        <ele>28</ele>
        <time>2021-02-18T08:50:51.000Z</time>
      </trkpt>
      <trkpt lat="47.28301" lon="-2.35817">
        <ele>28</ele>
        <time>2021-02-18T08:50:58.000Z</time>
      </trkpt>
      <trkpt lat="47.28303" lon="-2.35822">
        <ele>28</ele>
        <time>2021-02-18T08:51:02.000Z</time>
      </trkpt>
      <trkpt lat="47.28308" lon="-2.35833">
        <ele>28</ele>
        <time>2021-02-18T08:51:07.000Z</time>
      </trkpt>
      <trkpt lat="47.2831" lon="-2.35834">
        <ele>28</ele>
        <time>2021-02-18T08:51:08.000Z</time>
      </trkpt>
      <trkpt lat="47.28314" lon="-2.35835">
        <ele>28</ele>
        <time>2021-02-18T08:51:10.000Z</time>
      </trkpt>
      <trkpt lat="47.28316" lon="-2.35831">
        <ele>28</ele>
        <time>2021-02-18T08:51:12.000Z</time>
      </trkpt>
      <trkpt lat="47.28319" lon="-2.35828">
        <ele>28</ele>
        <time>2021-02-18T08:51:13.000Z</time>
      </trkpt>
      <trkpt lat="47.28325" lon="-2.35819">
        <ele>28</ele>
        <time>2021-02-18T08:51:16.000Z</time>
      </trkpt>
      <trkpt lat="47.28336" lon="-2.35808">
        <ele>28</ele>
        <time>2021-02-18T08:51:19.000Z</time>
      </trkpt>
      <trkpt lat="47.28356" lon="-2.35794">
        <ele>28</ele>
        <time>2021-02-18T08:51:25.000Z</time>
      </trkpt>
      <trkpt lat="47.28368" lon="-2.3579">
        <ele>28</ele>
        <time>2021-02-18T08:51:31.000Z</time>
      </trkpt>
      <trkpt lat="47.28381" lon="-2.35801">
        <ele>28</ele>
        <time>2021-02-18T08:51:37.000Z</time>
      </trkpt>
      <trkpt lat="47.28398" lon="-2.35817">
        <ele>28</ele>
        <time>2021-02-18T08:51:43.000Z</time>
      </trkpt>
      <trkpt lat="47.28417" lon="-2.35837">
        <ele>28</ele>
        <time>2021-02-18T08:51:48.000Z</time>
      </trkpt>
      <trkpt lat="47.28431" lon="-2.3586">
        <ele>28</ele>
        <time>2021-02-18T08:51:54.000Z</time>
      </trkpt>
      <trkpt lat="47.28447" lon="-2.35878">
        <ele>28</ele>
        <time>2021-02-18T08:52:00.000Z</time>
      </trkpt>
      <trkpt lat="47.28463" lon="-2.35886">
        <ele>28</ele>
        <time>2021-02-18T08:52:06.000Z</time>
      </trkpt>
      <trkpt lat="47.28463" lon="-2.35883">
        <ele>28</ele>
        <time>2021-02-18T08:52:08.000Z</time>
      </trkpt>
      <trkpt lat="47.28463" lon="-2.35879">
        <ele>28</ele>
        <time>2021-02-18T08:52:09.000Z</time>
      </trkpt>
      <trkpt lat="47.28464" lon="-2.3586">
        <ele>28</ele>
        <time>2021-02-18T08:52:14.000Z</time>
      </trkpt>
      <trkpt lat="47.28469" lon="-2.35838">
        <ele>28</ele>
        <time>2021-02-18T08:52:19.000Z</time>
      </trkpt>
      <trkpt lat="47.28474" lon="-2.35828">
        <ele>28</ele>
        <time>2021-02-18T08:52:22.000Z</time>
      </trkpt>
      <trkpt lat="47.28477" lon="-2.35825">
        <ele>28</ele>
        <time>2021-02-18T08:52:23.000Z</time>
      </trkpt>
      <trkpt lat="47.28482" lon="-2.35824">
        <ele>28</ele>
        <time>2021-02-18T08:52:25.000Z</time>
      </trkpt>
      <trkpt lat="47.28492" lon="-2.35826">
        <ele>28</ele>
        <time>2021-02-18T08:52:28.000Z</time>
      </trkpt>
      <trkpt lat="47.28521" lon="-2.35837">
        <ele>28</ele>
        <time>2021-02-18T08:52:35.000Z</time>
      </trkpt>
      <trkpt lat="47.28547" lon="-2.35852">
        <ele>28</ele>
        <time>2021-02-18T08:52:42.000Z</time>
      </trkpt>
      <trkpt lat="47.28564" lon="-2.35871">
        <ele>28</ele>
        <time>2021-02-18T08:52:48.000Z</time>
      </trkpt>
      <trkpt lat="47.28576" lon="-2.35896">
        <ele>28</ele>
        <time>2021-02-18T08:52:54.000Z</time>
      </trkpt>
      <trkpt lat="47.28581" lon="-2.35912">
        <ele>28</ele>
        <time>2021-02-18T08:52:59.000Z</time>
      </trkpt>
      <trkpt lat="47.28575" lon="-2.35917">
        <ele>28.39999961853</ele>
        <time>2021-02-18T08:53:03.000Z</time>
      </trkpt>
      <trkpt lat="47.28574" lon="-2.35916">
        <ele>28.799999237061</ele>
        <time>2021-02-18T08:53:04.000Z</time>
      </trkpt>
      <trkpt lat="47.28573" lon="-2.35915">
        <ele>29.200000762939</ele>
        <time>2021-02-18T08:53:05.000Z</time>
      </trkpt>
      <trkpt lat="47.28572" lon="-2.35914">
        <ele>29.799999237061</ele>
        <time>2021-02-18T08:53:06.000Z</time>
      </trkpt>
      <trkpt lat="47.28573" lon="-2.35912">
        <ele>30.200000762939</ele>
        <time>2021-02-18T08:53:07.000Z</time>
      </trkpt>
      <trkpt lat="47.28573" lon="-2.35911">
        <ele>30.200000762939</ele>
        <time>2021-02-18T08:53:08.000Z</time>
      </trkpt>
      <trkpt lat="47.28574" lon="-2.35907">
        <ele>30.200000762939</ele>
        <time>2021-02-18T08:53:10.000Z</time>
      </trkpt>
      <trkpt lat="47.28571" lon="-2.35899">
        <ele>30.200000762939</ele>
        <time>2021-02-18T08:53:13.000Z</time>
      </trkpt>
      <trkpt lat="47.28569" lon="-2.35898">
        <ele>30.200000762939</ele>
        <time>2021-02-18T08:53:14.000Z</time>
      </trkpt>
      <trkpt lat="47.28562" lon="-2.35896">
        <ele>30.200000762939</ele>
        <time>2021-02-18T08:53:17.000Z</time>
      </trkpt>
      <trkpt lat="47.28553" lon="-2.359">
        <ele>30.60000038147</ele>
        <time>2021-02-18T08:53:21.000Z</time>
      </trkpt>
      <trkpt lat="47.28551" lon="-2.35902">
        <ele>31</ele>
        <time>2021-02-18T08:53:22.000Z</time>
      </trkpt>
      <trkpt lat="47.2855" lon="-2.35905">
        <ele>31.39999961853</ele>
        <time>2021-02-18T08:53:23.000Z</time>
      </trkpt>
      <trkpt lat="47.28549" lon="-2.35907">
        <ele>31.799999237061</ele>
        <time>2021-02-18T08:53:24.000Z</time>
      </trkpt>
      <trkpt lat="47.28548" lon="-2.35909">
        <ele>32.200000762939</ele>
        <time>2021-02-18T08:53:25.000Z</time>
      </trkpt>
      <trkpt lat="47.28546" lon="-2.35913">
        <ele>32.599998474121</ele>
        <time>2021-02-18T08:53:27.000Z</time>
      </trkpt>
      <trkpt lat="47.28546" lon="-2.35915">
        <ele>33</ele>
        <time>2021-02-18T08:53:28.000Z</time>
      </trkpt>
      <trkpt lat="47.28545" lon="-2.35918">
        <ele>33.400001525879</ele>
        <time>2021-02-18T08:53:29.000Z</time>
      </trkpt>
      <trkpt lat="47.28544" lon="-2.3592">
        <ele>33.799999237061</ele>
        <time>2021-02-18T08:53:30.000Z</time>
      </trkpt>
      <trkpt lat="47.28544" lon="-2.35922">
        <ele>34.200000762939</ele>
        <time>2021-02-18T08:53:31.000Z</time>
      </trkpt>
      <trkpt lat="47.28542" lon="-2.35925">
        <ele>34.599998474121</ele>
        <time>2021-02-18T08:53:32.000Z</time>
      </trkpt>
      <trkpt lat="47.28542" lon="-2.35927">
        <ele>35.200000762939</ele>
        <time>2021-02-18T08:53:33.000Z</time>
      </trkpt>
      <trkpt lat="47.28542" lon="-2.35928">
        <ele>35.599998474121</ele>
        <time>2021-02-18T08:53:34.000Z</time>
      </trkpt>
      <trkpt lat="47.2854" lon="-2.35929">
        <ele>36</ele>
        <time>2021-02-18T08:53:35.000Z</time>
      </trkpt>
      <trkpt lat="47.28537" lon="-2.35931">
        <ele>36.599998474121</ele>
        <time>2021-02-18T08:53:36.000Z</time>
      </trkpt>
      <trkpt lat="47.28532" lon="-2.35932">
        <ele>37</ele>
        <time>2021-02-18T08:53:38.000Z</time>
      </trkpt>
      <trkpt lat="47.2853" lon="-2.35933">
        <ele>37.400001525879</ele>
        <time>2021-02-18T08:53:39.000Z</time>
      </trkpt>
      <trkpt lat="47.28527" lon="-2.35933">
        <ele>37.799999237061</ele>
        <time>2021-02-18T08:53:40.000Z</time>
      </trkpt>
      <trkpt lat="47.28522" lon="-2.35934">
        <ele>38.200000762939</ele>
        <time>2021-02-18T08:53:41.000Z</time>
      </trkpt>
      <trkpt lat="47.28519" lon="-2.35935">
        <ele>38.599998474121</ele>
        <time>2021-02-18T08:53:42.000Z</time>
      </trkpt>
      <trkpt lat="47.28515" lon="-2.35936">
        <ele>38.599998474121</ele>
        <time>2021-02-18T08:53:43.000Z</time>
      </trkpt>
      <trkpt lat="47.28489" lon="-2.35948">
        <ele>38.599998474121</ele>
        <time>2021-02-18T08:53:49.000Z</time>
      </trkpt>
      <trkpt lat="47.28484" lon="-2.35954">
        <ele>38.599998474121</ele>
        <time>2021-02-18T08:53:50.000Z</time>
      </trkpt>
      <trkpt lat="47.28478" lon="-2.35964">
        <ele>38.599998474121</ele>
        <time>2021-02-18T08:53:52.000Z</time>
      </trkpt>
      <trkpt lat="47.28475" lon="-2.35967">
        <ele>38.200000762939</ele>
        <time>2021-02-18T08:53:53.000Z</time>
      </trkpt>
      <trkpt lat="47.28473" lon="-2.35969">
        <ele>37.799999237061</ele>
        <time>2021-02-18T08:53:54.000Z</time>
      </trkpt>
      <trkpt lat="47.2847" lon="-2.35971">
        <ele>37.400001525879</ele>
        <time>2021-02-18T08:53:55.000Z</time>
      </trkpt>
      <trkpt lat="47.28469" lon="-2.35973">
        <ele>36.799999237061</ele>
        <time>2021-02-18T08:53:56.000Z</time>
      </trkpt>
      <trkpt lat="47.28467" lon="-2.35975">
        <ele>36.400001525879</ele>
        <time>2021-02-18T08:53:57.000Z</time>
      </trkpt>
      <trkpt lat="47.28463" lon="-2.35975">
        <ele>36.400001525879</ele>
        <time>2021-02-18T08:53:59.000Z</time>
      </trkpt>
      <trkpt lat="47.28462" lon="-2.35972">
        <ele>36.400001525879</ele>
        <time>2021-02-18T08:54:00.000Z</time>
      </trkpt>
      <trkpt lat="47.28464" lon="-2.35956">
        <ele>36.400001525879</ele>
        <time>2021-02-18T08:54:03.000Z</time>
      </trkpt>
      <trkpt lat="47.28466" lon="-2.3595">
        <ele>36</ele>
        <time>2021-02-18T08:54:04.000Z</time>
      </trkpt>
      <trkpt lat="47.28468" lon="-2.35943">
        <ele>35.599998474121</ele>
        <time>2021-02-18T08:54:05.000Z</time>
      </trkpt>
      <trkpt lat="47.2847" lon="-2.35937">
        <ele>35.200000762939</ele>
        <time>2021-02-18T08:54:06.000Z</time>
      </trkpt>
      <trkpt lat="47.28472" lon="-2.35931">
        <ele>34.799999237061</ele>
        <time>2021-02-18T08:54:07.000Z</time>
      </trkpt>
      <trkpt lat="47.28474" lon="-2.35925">
        <ele>34.200000762939</ele>
        <time>2021-02-18T08:54:08.000Z</time>
      </trkpt>
      <trkpt lat="47.28476" lon="-2.35917">
        <ele>33.599998474121</ele>
        <time>2021-02-18T08:54:09.000Z</time>
      </trkpt>
      <trkpt lat="47.28476" lon="-2.35912">
        <ele>33.200000762939</ele>
        <time>2021-02-18T08:54:10.000Z</time>
      </trkpt>
      <trkpt lat="47.28475" lon="-2.35905">
        <ele>32.599998474121</ele>
        <time>2021-02-18T08:54:11.000Z</time>
      </trkpt>
      <trkpt lat="47.28474" lon="-2.35898">
        <ele>32</ele>
        <time>2021-02-18T08:54:12.000Z</time>
      </trkpt>
      <trkpt lat="47.28471" lon="-2.35894">
        <ele>31.39999961853</ele>
        <time>2021-02-18T08:54:13.000Z</time>
      </trkpt>
      <trkpt lat="47.28467" lon="-2.3589">
        <ele>30.799999237061</ele>
        <time>2021-02-18T08:54:14.000Z</time>
      </trkpt>
      <trkpt lat="47.28462" lon="-2.35886">
        <ele>30.200000762939</ele>
        <time>2021-02-18T08:54:15.000Z</time>
      </trkpt>
      <trkpt lat="47.28458" lon="-2.35884">
        <ele>29.60000038147</ele>
        <time>2021-02-18T08:54:16.000Z</time>
      </trkpt>
      <trkpt lat="47.28452" lon="-2.35882">
        <ele>29</ele>
        <time>2021-02-18T08:54:17.000Z</time>
      </trkpt>
      <trkpt lat="47.28447" lon="-2.3588">
        <ele>28.39999961853</ele>
        <time>2021-02-18T08:54:18.000Z</time>
      </trkpt>
      <trkpt lat="47.28443" lon="-2.35877">
        <ele>27.799999237061</ele>
        <time>2021-02-18T08:54:19.000Z</time>
      </trkpt>
      <trkpt lat="47.28438" lon="-2.35872">
        <ele>27.39999961853</ele>
        <time>2021-02-18T08:54:20.000Z</time>
      </trkpt>
      <trkpt lat="47.28429" lon="-2.35863">
        <ele>27.39999961853</ele>
        <time>2021-02-18T08:54:23.000Z</time>
      </trkpt>
      <trkpt lat="47.28413" lon="-2.35865">
        <ele>27.39999961853</ele>
        <time>2021-02-18T08:54:27.000Z</time>
      </trkpt>
      <trkpt lat="47.28408" lon="-2.35868">
        <ele>27</ele>
        <time>2021-02-18T08:54:28.000Z</time>
      </trkpt>
      <trkpt lat="47.28403" lon="-2.35871">
        <ele>26.39999961853</ele>
        <time>2021-02-18T08:54:29.000Z</time>
      </trkpt>
      <trkpt lat="47.28398" lon="-2.35874">
        <ele>26</ele>
        <time>2021-02-18T08:54:30.000Z</time>
      </trkpt>
      <trkpt lat="47.28393" lon="-2.35877">
        <ele>25.60000038147</ele>
        <time>2021-02-18T08:54:31.000Z</time>
      </trkpt>
      <trkpt lat="47.28387" lon="-2.3588">
        <ele>25.200000762939</ele>
        <time>2021-02-18T08:54:32.000Z</time>
      </trkpt>
      <trkpt lat="47.28377" lon="-2.35888">
        <ele>25.200000762939</ele>
        <time>2021-02-18T08:54:34.000Z</time>
      </trkpt>
      <trkpt lat="47.28369" lon="-2.35905">
        <ele>25.200000762939</ele>
        <time>2021-02-18T08:54:37.000Z</time>
      </trkpt>
      <trkpt lat="47.28368" lon="-2.35918">
        <ele>25.200000762939</ele>
        <time>2021-02-18T08:54:40.000Z</time>
      </trkpt>
      <trkpt lat="47.28376" lon="-2.35936">
        <ele>25.200000762939</ele>
        <time>2021-02-18T08:54:44.000Z</time>
      </trkpt>
      <trkpt lat="47.28375" lon="-2.3595">
        <ele>25.200000762939</ele>
        <time>2021-02-18T08:54:48.000Z</time>
      </trkpt>
      <trkpt lat="47.28375" lon="-2.35954">
        <ele>25.200000762939</ele>
        <time>2021-02-18T08:54:50.000Z</time>
      </trkpt>
      <trkpt lat="47.28375" lon="-2.35959">
        <ele>25.200000762939</ele>
        <time>2021-02-18T08:54:53.000Z</time>
      </trkpt>
      <trkpt lat="47.28371" lon="-2.35976">
        <ele>25.200000762939</ele>
        <time>2021-02-18T08:55:00.000Z</time>
      </trkpt>
      <trkpt lat="47.28368" lon="-2.35986">
        <ele>25.799999237061</ele>
        <time>2021-02-18T08:55:04.000Z</time>
      </trkpt>
      <trkpt lat="47.28368" lon="-2.35988">
        <ele>26.200000762939</ele>
        <time>2021-02-18T08:55:05.000Z</time>
      </trkpt>
      <trkpt lat="47.28367" lon="-2.3599">
        <ele>26.60000038147</ele>
        <time>2021-02-18T08:55:06.000Z</time>
      </trkpt>
      <trkpt lat="47.28367" lon="-2.3599">
        <ele>27.200000762939</ele>
        <time>2021-02-18T08:55:07.000Z</time>
      </trkpt>
      <trkpt lat="47.28367" lon="-2.35991">
        <ele>27.60000038147</ele>
        <time>2021-02-18T08:55:08.000Z</time>
      </trkpt>
      <trkpt lat="47.28367" lon="-2.35993">
        <ele>27.60000038147</ele>
        <time>2021-02-18T08:55:09.000Z</time>
      </trkpt>
      <trkpt lat="47.28366" lon="-2.36012">
        <ele>27.200000762939</ele>
        <time>2021-02-18T08:58:05.000Z</time>
      </trkpt>
      <trkpt lat="47.28363" lon="-2.36013">
        <ele>26.799999237061</ele>
        <time>2021-02-18T08:58:06.000Z</time>
      </trkpt>
      <trkpt lat="47.2836" lon="-2.36014">
        <ele>26.39999961853</ele>
        <time>2021-02-18T08:58:07.000Z</time>
      </trkpt>
      <trkpt lat="47.28357" lon="-2.36015">
        <ele>25.799999237061</ele>
        <time>2021-02-18T08:58:08.000Z</time>
      </trkpt>
      <trkpt lat="47.28354" lon="-2.36016">
        <ele>25.39999961853</ele>
        <time>2021-02-18T08:58:09.000Z</time>
      </trkpt>
      <trkpt lat="47.28347" lon="-2.36021">
        <ele>25</ele>
        <time>2021-02-18T08:58:11.000Z</time>
      </trkpt>
      <trkpt lat="47.28344" lon="-2.36023">
        <ele>24.60000038147</ele>
        <time>2021-02-18T08:58:12.000Z</time>
      </trkpt>
      <trkpt lat="47.28341" lon="-2.36027">
        <ele>24</ele>
        <time>2021-02-18T08:58:13.000Z</time>
      </trkpt>
      <trkpt lat="47.28339" lon="-2.3603">
        <ele>23.60000038147</ele>
        <time>2021-02-18T08:58:14.000Z</time>
      </trkpt>
      <trkpt lat="47.28336" lon="-2.36032">
        <ele>23.200000762939</ele>
        <time>2021-02-18T08:58:15.000Z</time>
      </trkpt>
      <trkpt lat="47.28324" lon="-2.36045">
        <ele>23.200000762939</ele>
        <time>2021-02-18T08:58:20.000Z</time>
      </trkpt>
      <trkpt lat="47.2831" lon="-2.36046">
        <ele>23.200000762939</ele>
        <time>2021-02-18T08:58:25.000Z</time>
      </trkpt>
      <trkpt lat="47.28297" lon="-2.36044">
        <ele>22.799999237061</ele>
        <time>2021-02-18T08:58:30.000Z</time>
      </trkpt>
      <trkpt lat="47.28295" lon="-2.36043">
        <ele>22.200000762939</ele>
        <time>2021-02-18T08:58:31.000Z</time>
      </trkpt>
      <trkpt lat="47.28292" lon="-2.36043">
        <ele>21.799999237061</ele>
        <time>2021-02-18T08:58:32.000Z</time>
      </trkpt>
      <trkpt lat="47.28289" lon="-2.36042">
        <ele>21.39999961853</ele>
        <time>2021-02-18T08:58:33.000Z</time>
      </trkpt>
      <trkpt lat="47.28287" lon="-2.3604">
        <ele>21</ele>
        <time>2021-02-18T08:58:34.000Z</time>
      </trkpt>
      <trkpt lat="47.28285" lon="-2.36037">
        <ele>20.60000038147</ele>
        <time>2021-02-18T08:58:35.000Z</time>
      </trkpt>
      <trkpt lat="47.28283" lon="-2.36034">
        <ele>20.200000762939</ele>
        <time>2021-02-18T08:58:36.000Z</time>
      </trkpt>
      <trkpt lat="47.2828" lon="-2.36031">
        <ele>19.799999237061</ele>
        <time>2021-02-18T08:58:37.000Z</time>
      </trkpt>
      <trkpt lat="47.28277" lon="-2.36027">
        <ele>19.200000762939</ele>
        <time>2021-02-18T08:58:38.000Z</time>
      </trkpt>
      <trkpt lat="47.28274" lon="-2.36023">
        <ele>18.39999961853</ele>
        <time>2021-02-18T08:58:39.000Z</time>
      </trkpt>
      <trkpt lat="47.28272" lon="-2.3602">
        <ele>17.799999237061</ele>
        <time>2021-02-18T08:58:40.000Z</time>
      </trkpt>
      <trkpt lat="47.28271" lon="-2.36015">
        <ele>17.200000762939</ele>
        <time>2021-02-18T08:58:41.000Z</time>
      </trkpt>
      <trkpt lat="47.28269" lon="-2.36011">
        <ele>16.39999961853</ele>
        <time>2021-02-18T08:58:42.000Z</time>
      </trkpt>
      <trkpt lat="47.28266" lon="-2.3601">
        <ele>15.800000190735</ele>
        <time>2021-02-18T08:58:43.000Z</time>
      </trkpt>
      <trkpt lat="47.28262" lon="-2.36009">
        <ele>15</ele>
        <time>2021-02-18T08:58:44.000Z</time>
      </trkpt>
      <trkpt lat="47.28259" lon="-2.36009">
        <ele>14.39999961853</ele>
        <time>2021-02-18T08:58:45.000Z</time>
      </trkpt>
      <trkpt lat="47.28258" lon="-2.36014">
        <ele>14</ele>
        <time>2021-02-18T08:58:46.000Z</time>
      </trkpt>
      <trkpt lat="47.28256" lon="-2.36018">
        <ele>13.60000038147</ele>
        <time>2021-02-18T08:58:47.000Z</time>
      </trkpt>
      <trkpt lat="47.28255" lon="-2.36022">
        <ele>13.199999809265</ele>
        <time>2021-02-18T08:58:48.000Z</time>
      </trkpt>
      <trkpt lat="47.28253" lon="-2.36027">
        <ele>12.800000190735</ele>
        <time>2021-02-18T08:58:49.000Z</time>
      </trkpt>
      <trkpt lat="47.28252" lon="-2.36031">
        <ele>12.39999961853</ele>
        <time>2021-02-18T08:58:50.000Z</time>
      </trkpt>
      <trkpt lat="47.28249" lon="-2.36045">
        <ele>12.39999961853</ele>
        <time>2021-02-18T08:58:53.000Z</time>
      </trkpt>
      <trkpt lat="47.28247" lon="-2.36069">
        <ele>12.39999961853</ele>
        <time>2021-02-18T08:58:59.000Z</time>
      </trkpt>
      <trkpt lat="47.28241" lon="-2.3609">
        <ele>12.39999961853</ele>
        <time>2021-02-18T08:59:04.000Z</time>
      </trkpt>
      <trkpt lat="47.28245" lon="-2.36113">
        <ele>12.39999961853</ele>
        <time>2021-02-18T08:59:08.000Z</time>
      </trkpt>
      <trkpt lat="47.28256" lon="-2.36133">
        <ele>12.39999961853</ele>
        <time>2021-02-18T08:59:12.000Z</time>
      </trkpt>
      <trkpt lat="47.28264" lon="-2.36148">
        <ele>12.39999961853</ele>
        <time>2021-02-18T08:59:17.000Z</time>
      </trkpt>
      <trkpt lat="47.28268" lon="-2.3616">
        <ele>12.39999961853</ele>
        <time>2021-02-18T08:59:20.000Z</time>
      </trkpt>
      <trkpt lat="47.28268" lon="-2.36167">
        <ele>12.39999961853</ele>
        <time>2021-02-18T08:59:22.000Z</time>
      </trkpt>
      <trkpt lat="47.28273" lon="-2.36194">
        <ele>12.39999961853</ele>
        <time>2021-02-18T08:59:28.000Z</time>
      </trkpt>
      <trkpt lat="47.28278" lon="-2.36211">
        <ele>12.39999961853</ele>
        <time>2021-02-18T08:59:33.000Z</time>
      </trkpt>
      <trkpt lat="47.28279" lon="-2.36214">
        <ele>11.800000190735</ele>
        <time>2021-02-18T08:59:34.000Z</time>
      </trkpt>
      <trkpt lat="47.2828" lon="-2.36217">
        <ele>11.39999961853</ele>
        <time>2021-02-18T08:59:35.000Z</time>
      </trkpt>
      <trkpt lat="47.2828" lon="-2.3622">
        <ele>11</ele>
        <time>2021-02-18T08:59:36.000Z</time>
      </trkpt>
      <trkpt lat="47.2828" lon="-2.36223">
        <ele>10.60000038147</ele>
        <time>2021-02-18T08:59:37.000Z</time>
      </trkpt>
      <trkpt lat="47.28281" lon="-2.36226">
        <ele>10.199999809265</ele>
        <time>2021-02-18T08:59:38.000Z</time>
      </trkpt>
      <trkpt lat="47.28282" lon="-2.36228">
        <ele>10.199999809265</ele>
        <time>2021-02-18T08:59:39.000Z</time>
      </trkpt>
      <trkpt lat="47.28289" lon="-2.36233">
        <ele>10.199999809265</ele>
        <time>2021-02-18T08:59:41.000Z</time>
      </trkpt>
      <trkpt lat="47.28292" lon="-2.36234">
        <ele>10.199999809265</ele>
        <time>2021-02-18T08:59:42.000Z</time>
      </trkpt>
      <trkpt lat="47.2831" lon="-2.36241">
        <ele>10.199999809265</ele>
        <time>2021-02-18T08:59:49.000Z</time>
      </trkpt>
      <trkpt lat="47.28327" lon="-2.36251">
        <ele>10.199999809265</ele>
        <time>2021-02-18T08:59:55.000Z</time>
      </trkpt>
      <trkpt lat="47.28345" lon="-2.36259">
        <ele>10.199999809265</ele>
        <time>2021-02-18T09:00:02.000Z</time>
      </trkpt>
      <trkpt lat="47.28354" lon="-2.36265">
        <ele>10.199999809265</ele>
        <time>2021-02-18T09:00:08.000Z</time>
      </trkpt>
      <trkpt lat="47.28355" lon="-2.36269">
        <ele>10.199999809265</ele>
        <time>2021-02-18T09:00:10.000Z</time>
      </trkpt>
      <trkpt lat="47.28354" lon="-2.36275">
        <ele>10.199999809265</ele>
        <time>2021-02-18T09:00:12.000Z</time>
      </trkpt>
      <trkpt lat="47.28353" lon="-2.36278">
        <ele>10.199999809265</ele>
        <time>2021-02-18T09:00:14.000Z</time>
      </trkpt>
      <trkpt lat="47.28352" lon="-2.36285">
        <ele>10.199999809265</ele>
        <time>2021-02-18T09:00:19.000Z</time>
      </trkpt>
      <trkpt lat="47.28358" lon="-2.36297">
        <ele>10.199999809265</ele>
        <time>2021-02-18T09:00:29.000Z</time>
      </trkpt>
      <trkpt lat="47.28361" lon="-2.363">
        <ele>10.60000038147</ele>
        <time>2021-02-18T09:00:31.000Z</time>
      </trkpt>
      <trkpt lat="47.28362" lon="-2.36301">
        <ele>11.39999961853</ele>
        <time>2021-02-18T09:00:32.000Z</time>
      </trkpt>
      <trkpt lat="47.28365" lon="-2.36303">
        <ele>11.800000190735</ele>
        <time>2021-02-18T09:00:33.000Z</time>
      </trkpt>
      <trkpt lat="47.28367" lon="-2.36304">
        <ele>12.199999809265</ele>
        <time>2021-02-18T09:00:34.000Z</time>
      </trkpt>
      <trkpt lat="47.28376" lon="-2.36312">
        <ele>12.199999809265</ele>
        <time>2021-02-18T09:00:38.000Z</time>
      </trkpt>
      <trkpt lat="47.28389" lon="-2.36332">
        <ele>12.199999809265</ele>
        <time>2021-02-18T09:00:46.000Z</time>
      </trkpt>
      <trkpt lat="47.28392" lon="-2.36334">
        <ele>12.199999809265</ele>
        <time>2021-02-18T09:00:47.000Z</time>
      </trkpt>
      <trkpt lat="47.28394" lon="-2.36335">
        <ele>12.60000038147</ele>
        <time>2021-02-18T09:00:48.000Z</time>
      </trkpt>
      <trkpt lat="47.28396" lon="-2.36337">
        <ele>13.199999809265</ele>
        <time>2021-02-18T09:00:49.000Z</time>
      </trkpt>
      <trkpt lat="47.28398" lon="-2.3634">
        <ele>13.60000038147</ele>
        <time>2021-02-18T09:00:50.000Z</time>
      </trkpt>
      <trkpt lat="47.284" lon="-2.36343">
        <ele>14</ele>
        <time>2021-02-18T09:00:51.000Z</time>
      </trkpt>
      <trkpt lat="47.28402" lon="-2.36347">
        <ele>14.39999961853</ele>
        <time>2021-02-18T09:00:52.000Z</time>
      </trkpt>
      <trkpt lat="47.2841" lon="-2.36354">
        <ele>14.39999961853</ele>
        <time>2021-02-18T09:00:55.000Z</time>
      </trkpt>
      <trkpt lat="47.28428" lon="-2.36366">
        <ele>14.39999961853</ele>
        <time>2021-02-18T09:01:02.000Z</time>
      </trkpt>
      <trkpt lat="47.2844" lon="-2.36378">
        <ele>14.39999961853</ele>
        <time>2021-02-18T09:01:06.000Z</time>
      </trkpt>
      <trkpt lat="47.28455" lon="-2.36393">
        <ele>14.39999961853</ele>
        <time>2021-02-18T09:01:11.000Z</time>
      </trkpt>
      <trkpt lat="47.28458" lon="-2.36396">
        <ele>15</ele>
        <time>2021-02-18T09:01:12.000Z</time>
      </trkpt>
      <trkpt lat="47.2846" lon="-2.36399">
        <ele>15.39999961853</ele>
        <time>2021-02-18T09:01:13.000Z</time>
      </trkpt>
      <trkpt lat="47.28463" lon="-2.36401">
        <ele>16</ele>
        <time>2021-02-18T09:01:14.000Z</time>
      </trkpt>
      <trkpt lat="47.28468" lon="-2.36404">
        <ele>16.39999961853</ele>
        <time>2021-02-18T09:01:15.000Z</time>
      </trkpt>
      <trkpt lat="47.28471" lon="-2.36406">
        <ele>17</ele>
        <time>2021-02-18T09:01:16.000Z</time>
      </trkpt>
      <trkpt lat="47.28474" lon="-2.36409">
        <ele>17</ele>
        <time>2021-02-18T09:01:17.000Z</time>
      </trkpt>
      <trkpt lat="47.28488" lon="-2.36426">
        <ele>17</ele>
        <time>2021-02-18T09:01:20.000Z</time>
      </trkpt>
      <trkpt lat="47.28492" lon="-2.36431">
        <ele>17</ele>
        <time>2021-02-18T09:01:21.000Z</time>
      </trkpt>
      <trkpt lat="47.28503" lon="-2.3644">
        <ele>17</ele>
        <time>2021-02-18T09:01:24.000Z</time>
      </trkpt>
      <trkpt lat="47.28513" lon="-2.36455">
        <ele>17</ele>
        <time>2021-02-18T09:01:28.000Z</time>
      </trkpt>
      <trkpt lat="47.28516" lon="-2.36469">
        <ele>17</ele>
        <time>2021-02-18T09:01:31.000Z</time>
      </trkpt>
      <trkpt lat="47.28516" lon="-2.36476">
        <ele>17</ele>
        <time>2021-02-18T09:01:32.000Z</time>
      </trkpt>
      <trkpt lat="47.28516" lon="-2.36494">
        <ele>17</ele>
        <time>2021-02-18T09:01:35.000Z</time>
      </trkpt>
      <trkpt lat="47.28515" lon="-2.365">
        <ele>17</ele>
        <time>2021-02-18T09:01:36.000Z</time>
      </trkpt>
      <trkpt lat="47.28507" lon="-2.36519">
        <ele>16.39999961853</ele>
        <time>2021-02-18T09:01:39.000Z</time>
      </trkpt>
      <trkpt lat="47.28504" lon="-2.36524">
        <ele>16</ele>
        <time>2021-02-18T09:01:40.000Z</time>
      </trkpt>
      <trkpt lat="47.28499" lon="-2.36529">
        <ele>15.60000038147</ele>
        <time>2021-02-18T09:01:41.000Z</time>
      </trkpt>
      <trkpt lat="47.28495" lon="-2.36534">
        <ele>15.199999809265</ele>
        <time>2021-02-18T09:01:42.000Z</time>
      </trkpt>
      <trkpt lat="47.2849" lon="-2.36539">
        <ele>14.60000038147</ele>
        <time>2021-02-18T09:01:43.000Z</time>
      </trkpt>
      <trkpt lat="47.28481" lon="-2.36549">
        <ele>14.60000038147</ele>
        <time>2021-02-18T09:01:45.000Z</time>
      </trkpt>
      <trkpt lat="47.28473" lon="-2.3656">
        <ele>14.60000038147</ele>
        <time>2021-02-18T09:01:47.000Z</time>
      </trkpt>
      <trkpt lat="47.28468" lon="-2.36572">
        <ele>14.60000038147</ele>
        <time>2021-02-18T09:01:49.000Z</time>
      </trkpt>
      <trkpt lat="47.28471" lon="-2.36593">
        <ele>14.60000038147</ele>
        <time>2021-02-18T09:01:52.000Z</time>
      </trkpt>
      <trkpt lat="47.28476" lon="-2.36606">
        <ele>14.199999809265</ele>
        <time>2021-02-18T09:01:54.000Z</time>
      </trkpt>
      <trkpt lat="47.28478" lon="-2.36612">
        <ele>13.800000190735</ele>
        <time>2021-02-18T09:01:55.000Z</time>
      </trkpt>
      <trkpt lat="47.2848" lon="-2.36618">
        <ele>13.39999961853</ele>
        <time>2021-02-18T09:01:56.000Z</time>
      </trkpt>
      <trkpt lat="47.28483" lon="-2.36624">
        <ele>13</ele>
        <time>2021-02-18T09:01:57.000Z</time>
      </trkpt>
      <trkpt lat="47.28485" lon="-2.3663">
        <ele>12.60000038147</ele>
        <time>2021-02-18T09:01:58.000Z</time>
      </trkpt>
      <trkpt lat="47.28493" lon="-2.36657">
        <ele>12.60000038147</ele>
        <time>2021-02-18T09:02:03.000Z</time>
      </trkpt>
      <trkpt lat="47.28504" lon="-2.36677">
        <ele>12.60000038147</ele>
        <time>2021-02-18T09:02:08.000Z</time>
      </trkpt>
      <trkpt lat="47.28512" lon="-2.36687">
        <ele>11.800000190735</ele>
        <time>2021-02-18T09:02:11.000Z</time>
      </trkpt>
      <trkpt lat="47.28514" lon="-2.36691">
        <ele>11.39999961853</ele>
        <time>2021-02-18T09:02:12.000Z</time>
      </trkpt>
      <trkpt lat="47.28517" lon="-2.36695">
        <ele>11</ele>
        <time>2021-02-18T09:02:13.000Z</time>
      </trkpt>
      <trkpt lat="47.2852" lon="-2.36701">
        <ele>10.60000038147</ele>
        <time>2021-02-18T09:02:14.000Z</time>
      </trkpt>
      <trkpt lat="47.28538" lon="-2.36731">
        <ele>10.60000038147</ele>
        <time>2021-02-18T09:02:19.000Z</time>
      </trkpt>
      <trkpt lat="47.28547" lon="-2.36751">
        <ele>10</ele>
        <time>2021-02-18T09:02:22.000Z</time>
      </trkpt>
      <trkpt lat="47.28549" lon="-2.36756">
        <ele>9.6000003814697</ele>
        <time>2021-02-18T09:02:23.000Z</time>
      </trkpt>
      <trkpt lat="47.28552" lon="-2.36761">
        <ele>9</ele>
        <time>2021-02-18T09:02:24.000Z</time>
      </trkpt>
      <trkpt lat="47.28555" lon="-2.36765">
        <ele>8.6000003814697</ele>
        <time>2021-02-18T09:02:25.000Z</time>
      </trkpt>
      <trkpt lat="47.28559" lon="-2.36769">
        <ele>8</ele>
        <time>2021-02-18T09:02:26.000Z</time>
      </trkpt>
      <trkpt lat="47.28563" lon="-2.36772">
        <ele>7.4000000953674</ele>
        <time>2021-02-18T09:02:27.000Z</time>
      </trkpt>
      <trkpt lat="47.28566" lon="-2.36777">
        <ele>6.8000001907349</ele>
        <time>2021-02-18T09:02:28.000Z</time>
      </trkpt>
      <trkpt lat="47.28568" lon="-2.36781">
        <ele>6.1999998092651</ele>
        <time>2021-02-18T09:02:29.000Z</time>
      </trkpt>
      <trkpt lat="47.28571" lon="-2.36786">
        <ele>5.5999999046326</ele>
        <time>2021-02-18T09:02:30.000Z</time>
      </trkpt>
      <trkpt lat="47.28574" lon="-2.36792">
        <ele>5.5999999046326</ele>
        <time>2021-02-18T09:02:31.000Z</time>
      </trkpt>
      <trkpt lat="47.28578" lon="-2.36798">
        <ele>5.5999999046326</ele>
        <time>2021-02-18T09:02:33.000Z</time>
      </trkpt>
      <trkpt lat="47.28581" lon="-2.36802">
        <ele>5.5999999046326</ele>
        <time>2021-02-18T09:02:37.000Z</time>
      </trkpt>
      <trkpt lat="47.28582" lon="-2.36804">
        <ele>5.5999999046326</ele>
        <time>2021-02-18T09:02:44.000Z</time>
      </trkpt>
      <trkpt lat="47.28591" lon="-2.36821">
        <ele>5.5999999046326</ele>
        <time>2021-02-18T09:02:49.000Z</time>
      </trkpt>
      <trkpt lat="47.28602" lon="-2.36839">
        <ele>5.5999999046326</ele>
        <time>2021-02-18T09:02:55.000Z</time>
      </trkpt>
      <trkpt lat="47.28604" lon="-2.3684">
        <ele>5.5999999046326</ele>
        <time>2021-02-18T09:02:56.000Z</time>
      </trkpt>
      <trkpt lat="47.28605" lon="-2.36841">
        <ele>5.1999998092651</ele>
        <time>2021-02-18T09:02:57.000Z</time>
      </trkpt>
      <trkpt lat="47.28607" lon="-2.3684">
        <ele>4.8000001907349</ele>
        <time>2021-02-18T09:02:58.000Z</time>
      </trkpt>
      <trkpt lat="47.28609" lon="-2.36839">
        <ele>4.4000000953674</ele>
        <time>2021-02-18T09:02:59.000Z</time>
      </trkpt>
      <trkpt lat="47.28611" lon="-2.36836">
        <ele>3.5999999046326</ele>
        <time>2021-02-18T09:03:00.000Z</time>
      </trkpt>
      <trkpt lat="47.28616" lon="-2.36831">
        <ele>3.5999999046326</ele>
        <time>2021-02-18T09:03:02.000Z</time>
      </trkpt>
      <trkpt lat="47.28623" lon="-2.36823">
        <ele>3.5999999046326</ele>
        <time>2021-02-18T09:03:05.000Z</time>
      </trkpt>
      <trkpt lat="47.28635" lon="-2.36811">
        <ele>3.5999999046326</ele>
        <time>2021-02-18T09:03:11.000Z</time>
      </trkpt>
      <trkpt lat="47.28647" lon="-2.36798">
        <ele>3.5999999046326</ele>
        <time>2021-02-18T09:03:18.000Z</time>
      </trkpt>
      <trkpt lat="47.28655" lon="-2.3679">
        <ele>4</ele>
        <time>2021-02-18T09:03:22.000Z</time>
      </trkpt>
      <trkpt lat="47.28657" lon="-2.36789">
        <ele>4.4000000953674</ele>
        <time>2021-02-18T09:03:23.000Z</time>
      </trkpt>
      <trkpt lat="47.28659" lon="-2.36787">
        <ele>4.8000001907349</ele>
        <time>2021-02-18T09:03:24.000Z</time>
      </trkpt>
      <trkpt lat="47.28661" lon="-2.36787">
        <ele>5.5999999046326</ele>
        <time>2021-02-18T09:03:25.000Z</time>
      </trkpt>
      <trkpt lat="47.28667" lon="-2.36782">
        <ele>5.5999999046326</ele>
        <time>2021-02-18T09:03:29.000Z</time>
      </trkpt>
      <trkpt lat="47.28668" lon="-2.3678">
        <ele>6</ele>
        <time>2021-02-18T09:03:30.000Z</time>
      </trkpt>
      <trkpt lat="47.28669" lon="-2.36778">
        <ele>6.5999999046326</ele>
        <time>2021-02-18T09:03:31.000Z</time>
      </trkpt>
      <trkpt lat="47.2867" lon="-2.36776">
        <ele>7</ele>
        <time>2021-02-18T09:03:32.000Z</time>
      </trkpt>
      <trkpt lat="47.28672" lon="-2.36773">
        <ele>7.4000000953674</ele>
        <time>2021-02-18T09:03:33.000Z</time>
      </trkpt>
      <trkpt lat="47.28674" lon="-2.36771">
        <ele>7.8000001907349</ele>
        <time>2021-02-18T09:03:34.000Z</time>
      </trkpt>
      <trkpt lat="47.28676" lon="-2.36769">
        <ele>7.8000001907349</ele>
        <time>2021-02-18T09:03:35.000Z</time>
      </trkpt>
      <trkpt lat="47.28685" lon="-2.36757">
        <ele>8.1999998092651</ele>
        <time>2021-02-18T09:03:40.000Z</time>
      </trkpt>
      <trkpt lat="47.28687" lon="-2.36754">
        <ele>8.8000001907349</ele>
        <time>2021-02-18T09:03:41.000Z</time>
      </trkpt>
      <trkpt lat="47.28689" lon="-2.36751">
        <ele>9.1999998092651</ele>
        <time>2021-02-18T09:03:42.000Z</time>
      </trkpt>
      <trkpt lat="47.28691" lon="-2.36749">
        <ele>9.6000003814697</ele>
        <time>2021-02-18T09:03:43.000Z</time>
      </trkpt>
      <trkpt lat="47.28693" lon="-2.36746">
        <ele>10</ele>
        <time>2021-02-18T09:03:44.000Z</time>
      </trkpt>
      <trkpt lat="47.28701" lon="-2.36732">
        <ele>10</ele>
        <time>2021-02-18T09:03:49.000Z</time>
      </trkpt>
      <trkpt lat="47.28713" lon="-2.36709">
        <ele>10</ele>
        <time>2021-02-18T09:03:56.000Z</time>
      </trkpt>
      <trkpt lat="47.28717" lon="-2.36695">
        <ele>10.39999961853</ele>
        <time>2021-02-18T09:04:00.000Z</time>
      </trkpt>
      <trkpt lat="47.28718" lon="-2.36693">
        <ele>10.800000190735</ele>
        <time>2021-02-18T09:04:01.000Z</time>
      </trkpt>
      <trkpt lat="47.2872" lon="-2.3669">
        <ele>11.199999809265</ele>
        <time>2021-02-18T09:04:02.000Z</time>
      </trkpt>
      <trkpt lat="47.28721" lon="-2.36688">
        <ele>11.60000038147</ele>
        <time>2021-02-18T09:04:03.000Z</time>
      </trkpt>
      <trkpt lat="47.28724" lon="-2.36685">
        <ele>12</ele>
        <time>2021-02-18T09:04:04.000Z</time>
      </trkpt>
      <trkpt lat="47.28731" lon="-2.36677">
        <ele>12</ele>
        <time>2021-02-18T09:04:07.000Z</time>
      </trkpt>
      <trkpt lat="47.28737" lon="-2.3667">
        <ele>12.60000038147</ele>
        <time>2021-02-18T09:04:10.000Z</time>
      </trkpt>
      <trkpt lat="47.28739" lon="-2.36667">
        <ele>13</ele>
        <time>2021-02-18T09:04:11.000Z</time>
      </trkpt>
      <trkpt lat="47.28741" lon="-2.36664">
        <ele>13.39999961853</ele>
        <time>2021-02-18T09:04:12.000Z</time>
      </trkpt>
      <trkpt lat="47.28742" lon="-2.36661">
        <ele>13.800000190735</ele>
        <time>2021-02-18T09:04:13.000Z</time>
      </trkpt>
      <trkpt lat="47.28743" lon="-2.36658">
        <ele>14.199999809265</ele>
        <time>2021-02-18T09:04:14.000Z</time>
      </trkpt>
      <trkpt lat="47.28745" lon="-2.36655">
        <ele>14.199999809265</ele>
        <time>2021-02-18T09:04:15.000Z</time>
      </trkpt>
      <trkpt lat="47.28756" lon="-2.36635">
        <ele>14.199999809265</ele>
        <time>2021-02-18T09:04:21.000Z</time>
      </trkpt>
      <trkpt lat="47.2876" lon="-2.36628">
        <ele>14.60000038147</ele>
        <time>2021-02-18T09:04:23.000Z</time>
      </trkpt>
      <trkpt lat="47.28762" lon="-2.36625">
        <ele>15</ele>
        <time>2021-02-18T09:04:24.000Z</time>
      </trkpt>
      <trkpt lat="47.28763" lon="-2.36621">
        <ele>15.39999961853</ele>
        <time>2021-02-18T09:04:25.000Z</time>
      </trkpt>
      <trkpt lat="47.28765" lon="-2.36618">
        <ele>15.800000190735</ele>
        <time>2021-02-18T09:04:26.000Z</time>
      </trkpt>
      <trkpt lat="47.28767" lon="-2.36614">
        <ele>16.200000762939</ele>
        <time>2021-02-18T09:04:27.000Z</time>
      </trkpt>
      <trkpt lat="47.28775" lon="-2.36597">
        <ele>16.200000762939</ele>
        <time>2021-02-18T09:04:33.000Z</time>
      </trkpt>
      <trkpt lat="47.28782" lon="-2.36586">
        <ele>16.200000762939</ele>
        <time>2021-02-18T09:04:38.000Z</time>
      </trkpt>
      <trkpt lat="47.28785" lon="-2.36587">
        <ele>16.200000762939</ele>
        <time>2021-02-18T09:04:43.000Z</time>
      </trkpt>
      <trkpt lat="47.28791" lon="-2.36596">
        <ele>16.200000762939</ele>
        <time>2021-02-18T09:04:47.000Z</time>
      </trkpt>
      <trkpt lat="47.28799" lon="-2.36616">
        <ele>16.200000762939</ele>
        <time>2021-02-18T09:04:51.000Z</time>
      </trkpt>
      <trkpt lat="47.28803" lon="-2.36626">
        <ele>15.800000190735</ele>
        <time>2021-02-18T09:04:53.000Z</time>
      </trkpt>
      <trkpt lat="47.28804" lon="-2.36632">
        <ele>15.39999961853</ele>
        <time>2021-02-18T09:04:54.000Z</time>
      </trkpt>
      <trkpt lat="47.28805" lon="-2.36638">
        <ele>15</ele>
        <time>2021-02-18T09:04:55.000Z</time>
      </trkpt>
      <trkpt lat="47.28806" lon="-2.36643">
        <ele>14.60000038147</ele>
        <time>2021-02-18T09:04:56.000Z</time>
      </trkpt>
      <trkpt lat="47.28807" lon="-2.36649">
        <ele>14</ele>
        <time>2021-02-18T09:04:57.000Z</time>
      </trkpt>
      <trkpt lat="47.28806" lon="-2.36654">
        <ele>14</ele>
        <time>2021-02-18T09:04:58.000Z</time>
      </trkpt>
      <trkpt lat="47.28804" lon="-2.3666">
        <ele>13.60000038147</ele>
        <time>2021-02-18T09:04:59.000Z</time>
      </trkpt>
      <trkpt lat="47.28802" lon="-2.36666">
        <ele>13.199999809265</ele>
        <time>2021-02-18T09:05:00.000Z</time>
      </trkpt>
      <trkpt lat="47.288" lon="-2.36673">
        <ele>12.800000190735</ele>
        <time>2021-02-18T09:05:01.000Z</time>
      </trkpt>
      <trkpt lat="47.28797" lon="-2.36681">
        <ele>12.39999961853</ele>
        <time>2021-02-18T09:05:02.000Z</time>
      </trkpt>
      <trkpt lat="47.28795" lon="-2.36688">
        <ele>11.199999809265</ele>
        <time>2021-02-18T09:05:03.000Z</time>
      </trkpt>
      <trkpt lat="47.28793" lon="-2.36696">
        <ele>10.60000038147</ele>
        <time>2021-02-18T09:05:04.000Z</time>
      </trkpt>
      <trkpt lat="47.2879" lon="-2.36708">
        <ele>9.8000001907349</ele>
        <time>2021-02-18T09:05:05.000Z</time>
      </trkpt>
      <trkpt lat="47.28787" lon="-2.36722">
        <ele>9.1999998092651</ele>
        <time>2021-02-18T09:05:06.000Z</time>
      </trkpt>
      <trkpt lat="47.28783" lon="-2.36736">
        <ele>8.3999996185303</ele>
        <time>2021-02-18T09:05:07.000Z</time>
      </trkpt>
      <trkpt lat="47.2878" lon="-2.36751">
        <ele>7.5999999046326</ele>
        <time>2021-02-18T09:05:08.000Z</time>
      </trkpt>
      <trkpt lat="47.28776" lon="-2.36767">
        <ele>7</ele>
        <time>2021-02-18T09:05:09.000Z</time>
      </trkpt>
      <trkpt lat="47.28773" lon="-2.3678">
        <ele>6.4000000953674</ele>
        <time>2021-02-18T09:05:10.000Z</time>
      </trkpt>
      <trkpt lat="47.2877" lon="-2.36792">
        <ele>6</ele>
        <time>2021-02-18T09:05:11.000Z</time>
      </trkpt>
      <trkpt lat="47.28768" lon="-2.36805">
        <ele>5.4000000953674</ele>
        <time>2021-02-18T09:05:12.000Z</time>
      </trkpt>
      <trkpt lat="47.28766" lon="-2.36817">
        <ele>5</ele>
        <time>2021-02-18T09:05:13.000Z</time>
      </trkpt>
      <trkpt lat="47.28764" lon="-2.36828">
        <ele>4.4000000953674</ele>
        <time>2021-02-18T09:05:14.000Z</time>
      </trkpt>
      <trkpt lat="47.28762" lon="-2.3684">
        <ele>3.7999999523163</ele>
        <time>2021-02-18T09:05:15.000Z</time>
      </trkpt>
      <trkpt lat="47.2876" lon="-2.36851">
        <ele>3.2000000476837</ele>
        <time>2021-02-18T09:05:16.000Z</time>
      </trkpt>
      <trkpt lat="47.28759" lon="-2.36862">
        <ele>2.5999999046326</ele>
        <time>2021-02-18T09:05:17.000Z</time>
      </trkpt>
      <trkpt lat="47.28757" lon="-2.36872">
        <ele>1.7999999523163</ele>
        <time>2021-02-18T09:05:18.000Z</time>
      </trkpt>
      <trkpt lat="47.28755" lon="-2.36882">
        <ele>1</ele>
        <time>2021-02-18T09:05:19.000Z</time>
      </trkpt>
      <trkpt lat="47.28752" lon="-2.36888">
        <ele>0.40000000596046</ele>
        <time>2021-02-18T09:05:20.000Z</time>
      </trkpt>
      <trkpt lat="47.28749" lon="-2.36893">
        <ele>-0.40000000596046</ele>
        <time>2021-02-18T09:05:21.000Z</time>
      </trkpt>
      <trkpt lat="47.28745" lon="-2.36896">
        <ele>-1.2000000476837</ele>
        <time>2021-02-18T09:05:22.000Z</time>
      </trkpt>
      <trkpt lat="47.28741" lon="-2.36899">
        <ele>-2</ele>
        <time>2021-02-18T09:05:23.000Z</time>
      </trkpt>
      <trkpt lat="47.28738" lon="-2.36901">
        <ele>-2.5999999046326</ele>
        <time>2021-02-18T09:05:24.000Z</time>
      </trkpt>
      <trkpt lat="47.28734" lon="-2.36904">
        <ele>-2.5999999046326</ele>
        <time>2021-02-18T09:05:26.000Z</time>
      </trkpt>
      <trkpt lat="47.28732" lon="-2.36906">
        <ele>-2.5999999046326</ele>
        <time>2021-02-18T09:05:27.000Z</time>
      </trkpt>
      <trkpt lat="47.28726" lon="-2.36913">
        <ele>-2.2000000476837</ele>
        <time>2021-02-18T09:05:30.000Z</time>
      </trkpt>
      <trkpt lat="47.28725" lon="-2.36917">
        <ele>-1.7999999523163</ele>
        <time>2021-02-18T09:05:31.000Z</time>
      </trkpt>
      <trkpt lat="47.28724" lon="-2.3692">
        <ele>-1.3999999761581</ele>
        <time>2021-02-18T09:05:32.000Z</time>
      </trkpt>
      <trkpt lat="47.28722" lon="-2.36924">
        <ele>-1</ele>
        <time>2021-02-18T09:05:33.000Z</time>
      </trkpt>
      <trkpt lat="47.28721" lon="-2.36928">
        <ele>-0.60000002384186</ele>
        <time>2021-02-18T09:05:34.000Z</time>
      </trkpt>
      <trkpt lat="47.2872" lon="-2.36932">
        <ele>-0.60000002384186</ele>
        <time>2021-02-18T09:05:35.000Z</time>
      </trkpt>
      <trkpt lat="47.28719" lon="-2.36935">
        <ele>-0.20000000298023</ele>
        <time>2021-02-18T09:05:36.000Z</time>
      </trkpt>
      <trkpt lat="47.28719" lon="-2.36938">
        <ele>0.20000000298023</ele>
        <time>2021-02-18T09:05:37.000Z</time>
      </trkpt>
      <trkpt lat="47.28721" lon="-2.3694">
        <ele>0.60000002384186</ele>
        <time>2021-02-18T09:05:38.000Z</time>
      </trkpt>
      <trkpt lat="47.28724" lon="-2.36941">
        <ele>1</ele>
        <time>2021-02-18T09:05:39.000Z</time>
      </trkpt>
      <trkpt lat="47.28728" lon="-2.36943">
        <ele>1.3999999761581</ele>
        <time>2021-02-18T09:05:40.000Z</time>
      </trkpt>
      <trkpt lat="47.28732" lon="-2.36951">
        <ele>2</ele>
        <time>2021-02-18T09:05:43.000Z</time>
      </trkpt>
      <trkpt lat="47.28733" lon="-2.36953">
        <ele>2.4000000953674</ele>
        <time>2021-02-18T09:05:44.000Z</time>
      </trkpt>
      <trkpt lat="47.28735" lon="-2.36956">
        <ele>2.7999999523163</ele>
        <time>2021-02-18T09:05:45.000Z</time>
      </trkpt>
      <trkpt lat="47.28736" lon="-2.36958">
        <ele>3.2000000476837</ele>
        <time>2021-02-18T09:05:46.000Z</time>
      </trkpt>
      <trkpt lat="47.28737" lon="-2.36959">
        <ele>3.7999999523163</ele>
        <time>2021-02-18T09:05:47.000Z</time>
      </trkpt>
      <trkpt lat="47.28738" lon="-2.36961">
        <ele>4.1999998092651</ele>
        <time>2021-02-18T09:05:48.000Z</time>
      </trkpt>
      <trkpt lat="47.28739" lon="-2.36964">
        <ele>4.8000001907349</ele>
        <time>2021-02-18T09:05:49.000Z</time>
      </trkpt>
      <trkpt lat="47.2874" lon="-2.36966">
        <ele>5.1999998092651</ele>
        <time>2021-02-18T09:05:50.000Z</time>
      </trkpt>
      <trkpt lat="47.28742" lon="-2.36969">
        <ele>5.8000001907349</ele>
        <time>2021-02-18T09:05:51.000Z</time>
      </trkpt>
      <trkpt lat="47.28749" lon="-2.36978">
        <ele>5.8000001907349</ele>
        <time>2021-02-18T09:05:54.000Z</time>
      </trkpt>
      <trkpt lat="47.28764" lon="-2.37">
        <ele>5.8000001907349</ele>
        <time>2021-02-18T09:06:00.000Z</time>
      </trkpt>
      <trkpt lat="47.28772" lon="-2.37038">
        <ele>5.8000001907349</ele>
        <time>2021-02-18T09:06:05.000Z</time>
      </trkpt>
      <trkpt lat="47.28773" lon="-2.37045">
        <ele>5.8000001907349</ele>
        <time>2021-02-18T09:06:06.000Z</time>
      </trkpt>
      <trkpt lat="47.28776" lon="-2.37068">
        <ele>5.1999998092651</ele>
        <time>2021-02-18T09:06:09.000Z</time>
      </trkpt>
      <trkpt lat="47.28777" lon="-2.37076">
        <ele>4.8000001907349</ele>
        <time>2021-02-18T09:06:10.000Z</time>
      </trkpt>
      <trkpt lat="47.28778" lon="-2.37083">
        <ele>4.4000000953674</ele>
        <time>2021-02-18T09:06:11.000Z</time>
      </trkpt>
      <trkpt lat="47.28781" lon="-2.3709">
        <ele>3.5999999046326</ele>
        <time>2021-02-18T09:06:12.000Z</time>
      </trkpt>
      <trkpt lat="47.28785" lon="-2.37093">
        <ele>3</ele>
        <time>2021-02-18T09:06:13.000Z</time>
      </trkpt>
      <trkpt lat="47.28787" lon="-2.37095">
        <ele>2.4000000953674</ele>
        <time>2021-02-18T09:06:14.000Z</time>
      </trkpt>
      <trkpt lat="47.2879" lon="-2.37098">
        <ele>1.6000000238419</ele>
        <time>2021-02-18T09:06:15.000Z</time>
      </trkpt>
      <trkpt lat="47.28794" lon="-2.37101">
        <ele>1</ele>
        <time>2021-02-18T09:06:16.000Z</time>
      </trkpt>
      <trkpt lat="47.28798" lon="-2.37103">
        <ele>0.60000002384186</ele>
        <time>2021-02-18T09:06:17.000Z</time>
      </trkpt>
      <trkpt lat="47.288" lon="-2.37102">
        <ele>14.7</ele>
        <time>2021-02-18T09:06:18.000Z</time>
      </trkpt>
      <trkpt lat="47.28804" lon="-2.37102">
        <ele>-0.40000000596046</ele>
        <time>2021-02-18T09:06:19.000Z</time>
      </trkpt>
      <trkpt lat="47.28807" lon="-2.37101">
        <ele>-1</ele>
        <time>2021-02-18T09:06:20.000Z</time>
      </trkpt>
      <trkpt lat="47.28809" lon="-2.37101">
        <ele>-1.6000000238419</ele>
        <time>2021-02-18T09:06:21.000Z</time>
      </trkpt>
      <trkpt lat="47.28811" lon="-2.37103">
        <ele>-2.2000000476837</ele>
        <time>2021-02-18T09:06:22.000Z</time>
      </trkpt>
      <trkpt lat="47.28813" lon="-2.37107">
        <ele>-2.7999999523163</ele>
        <time>2021-02-18T09:06:23.000Z</time>
      </trkpt>
      <trkpt lat="47.28814" lon="-2.3711">
        <ele>-3.4000000953674</ele>
        <time>2021-02-18T09:06:24.000Z</time>
      </trkpt>
      <trkpt lat="47.28815" lon="-2.37114">
        <ele>-4</ele>
        <time>2021-02-18T09:06:25.000Z</time>
      </trkpt>
      <trkpt lat="47.28815" lon="-2.37118">
        <ele>-4.4000000953674</ele>
        <time>2021-02-18T09:06:26.000Z</time>
      </trkpt>
      <trkpt lat="47.28815" lon="-2.37122">
        <ele>-5</ele>
        <time>2021-02-18T09:06:27.000Z</time>
      </trkpt>
      <trkpt lat="47.28815" lon="-2.37127">
        <ele>-5.5999999046326</ele>
        <time>2021-02-18T09:06:28.000Z</time>
      </trkpt>
      <trkpt lat="47.28816" lon="-2.37145">
        <ele>-5.5999999046326</ele>
        <time>2021-02-18T09:06:31.000Z</time>
      </trkpt>
      <trkpt lat="47.28818" lon="-2.37151">
        <ele>-5.5999999046326</ele>
        <time>2021-02-18T09:06:32.000Z</time>
      </trkpt>
      <trkpt lat="47.28824" lon="-2.37181">
        <ele>-5.5999999046326</ele>
        <time>2021-02-18T09:06:36.000Z</time>
      </trkpt>
      <trkpt lat="47.28832" lon="-2.37208">
        <ele>-5.5999999046326</ele>
        <time>2021-02-18T09:06:41.000Z</time>
      </trkpt>
      <trkpt lat="47.2884" lon="-2.3723">
        <ele>-5.5999999046326</ele>
        <time>2021-02-18T09:06:46.000Z</time>
      </trkpt>
      <trkpt lat="47.28847" lon="-2.37243">
        <ele>-5.5999999046326</ele>
        <time>2021-02-18T09:06:51.000Z</time>
      </trkpt>
      <trkpt lat="47.2885" lon="-2.37247">
        <ele>-6</ele>
        <time>2021-02-18T09:06:53.000Z</time>
      </trkpt>
      <trkpt lat="47.28851" lon="-2.37246">
        <ele>-6.4000000953674</ele>
        <time>2021-02-18T09:06:54.000Z</time>
      </trkpt>
      <trkpt lat="47.28852" lon="-2.37245">
        <ele>-6.8000001907349</ele>
        <time>2021-02-18T09:06:55.000Z</time>
      </trkpt>
      <trkpt lat="47.28853" lon="-2.37244">
        <ele>-7.1999998092651</ele>
        <time>2021-02-18T09:06:56.000Z</time>
      </trkpt>
      <trkpt lat="47.28853" lon="-2.37243">
        <ele>-7.5999999046326</ele>
        <time>2021-02-18T09:06:57.000Z</time>
      </trkpt>
      <trkpt lat="47.28855" lon="-2.3724">
        <ele>-7.5999999046326</ele>
        <time>2021-02-18T09:07:00.000Z</time>
      </trkpt>
      <trkpt lat="47.28857" lon="-2.3724">
        <ele>-7.5999999046326</ele>
        <time>2021-02-18T09:07:01.000Z</time>
      </trkpt>
      <trkpt lat="47.28862" lon="-2.37243">
        <ele>-7.5999999046326</ele>
        <time>2021-02-18T09:07:05.000Z</time>
      </trkpt>
      <trkpt lat="47.28863" lon="-2.37244">
        <ele>-7.5999999046326</ele>
        <time>2021-02-18T09:07:07.000Z</time>
      </trkpt>
      <trkpt lat="47.2886" lon="-2.3725">
        <ele>-7.5999999046326</ele>
        <time>2021-02-18T09:07:11.000Z</time>
      </trkpt>
      <trkpt lat="47.2886" lon="-2.37253">
        <ele>-7.5999999046326</ele>
        <time>2021-02-18T09:07:12.000Z</time>
      </trkpt>
      <trkpt lat="47.2886" lon="-2.37281">
        <ele>-7.5999999046326</ele>
        <time>2021-02-18T09:07:18.000Z</time>
      </trkpt>
      <trkpt lat="47.28864" lon="-2.37307">
        <ele>-7.5999999046326</ele>
        <time>2021-02-18T09:07:25.000Z</time>
      </trkpt>
      <trkpt lat="47.28865" lon="-2.37321">
        <ele>-7.5999999046326</ele>
        <time>2021-02-18T09:07:32.000Z</time>
      </trkpt>
      <trkpt lat="47.28865" lon="-2.37347">
        <ele>-7.5999999046326</ele>
        <time>2021-02-18T09:07:37.000Z</time>
      </trkpt>
      <trkpt lat="47.28868" lon="-2.37384">
        <ele>-7.5999999046326</ele>
        <time>2021-02-18T09:07:44.000Z</time>
      </trkpt>
      <trkpt lat="47.2887" lon="-2.37418">
        <ele>-7.5999999046326</ele>
        <time>2021-02-18T09:07:51.000Z</time>
      </trkpt>
      <trkpt lat="47.28875" lon="-2.3745">
        <ele>-7.5999999046326</ele>
        <time>2021-02-18T09:07:58.000Z</time>
      </trkpt>
      <trkpt lat="47.28876" lon="-2.37478">
        <ele>-7.5999999046326</ele>
        <time>2021-02-18T09:08:04.000Z</time>
      </trkpt>
      <trkpt lat="47.2888" lon="-2.37506">
        <ele>-7.5999999046326</ele>
        <time>2021-02-18T09:08:10.000Z</time>
      </trkpt>
      <trkpt lat="47.28885" lon="-2.37531">
        <ele>-7.5999999046326</ele>
        <time>2021-02-18T09:08:17.000Z</time>
      </trkpt>
      <trkpt lat="47.28892" lon="-2.37556">
        <ele>-7.5999999046326</ele>
        <time>2021-02-18T09:08:22.000Z</time>
      </trkpt>
      <trkpt lat="47.28894" lon="-2.37561">
        <ele>-8</ele>
        <time>2021-02-18T09:08:23.000Z</time>
      </trkpt>
      <trkpt lat="47.28895" lon="-2.37567">
        <ele>-8.3999996185303</ele>
        <time>2021-02-18T09:08:24.000Z</time>
      </trkpt>
      <trkpt lat="47.28897" lon="-2.37573">
        <ele>-8.8000001907349</ele>
        <time>2021-02-18T09:08:25.000Z</time>
      </trkpt>
      <trkpt lat="47.28899" lon="-2.37579">
        <ele>-9.1999998092651</ele>
        <time>2021-02-18T09:08:26.000Z</time>
      </trkpt>
      <trkpt lat="47.289" lon="-2.37585">
        <ele>-9.6000003814697</ele>
        <time>2021-02-18T09:08:27.000Z</time>
      </trkpt>
      <trkpt lat="47.28903" lon="-2.37601">
        <ele>-9.6000003814697</ele>
        <time>2021-02-18T09:08:30.000Z</time>
      </trkpt>
      <trkpt lat="47.28907" lon="-2.37633">
        <ele>-9.6000003814697</ele>
        <time>2021-02-18T09:08:36.000Z</time>
      </trkpt>
      <trkpt lat="47.28912" lon="-2.37644">
        <ele>-9.6000003814697</ele>
        <time>2021-02-18T09:08:39.000Z</time>
      </trkpt>
      <trkpt lat="47.28915" lon="-2.37645">
        <ele>-9.6000003814697</ele>
        <time>2021-02-18T09:08:40.000Z</time>
      </trkpt>
      <trkpt lat="47.28927" lon="-2.37642">
        <ele>-9.6000003814697</ele>
        <time>2021-02-18T09:08:44.000Z</time>
      </trkpt>
      <trkpt lat="47.28932" lon="-2.37641">
        <ele>-9.6000003814697</ele>
        <time>2021-02-18T09:08:46.000Z</time>
      </trkpt>
      <trkpt lat="47.28947" lon="-2.37638">
        <ele>-9.6000003814697</ele>
        <time>2021-02-18T09:08:51.000Z</time>
      </trkpt>
      <trkpt lat="47.28959" lon="-2.37642">
        <ele>-9.6000003814697</ele>
        <time>2021-02-18T09:08:54.000Z</time>
      </trkpt>
      <trkpt lat="47.28962" lon="-2.37646">
        <ele>-9.6000003814697</ele>
        <time>2021-02-18T09:08:55.000Z</time>
      </trkpt>
      <trkpt lat="47.28969" lon="-2.37654">
        <ele>-10</ele>
        <time>2021-02-18T09:08:57.000Z</time>
      </trkpt>
      <trkpt lat="47.28972" lon="-2.37658">
        <ele>-10.39999961853</ele>
        <time>2021-02-18T09:08:58.000Z</time>
      </trkpt>
      <trkpt lat="47.28975" lon="-2.37662">
        <ele>-10.800000190735</ele>
        <time>2021-02-18T09:08:59.000Z</time>
      </trkpt>
      <trkpt lat="47.28978" lon="-2.37666">
        <ele>-11.199999809265</ele>
        <time>2021-02-18T09:09:00.000Z</time>
      </trkpt>
      <trkpt lat="47.28981" lon="-2.3767">
        <ele>-11.800000190735</ele>
        <time>2021-02-18T09:09:01.000Z</time>
      </trkpt>
      <trkpt lat="47.28985" lon="-2.37674">
        <ele>-11.800000190735</ele>
        <time>2021-02-18T09:09:02.000Z</time>
      </trkpt>
      <trkpt lat="47.29011" lon="-2.37708">
        <ele>-11.800000190735</ele>
        <time>2021-02-18T09:09:10.000Z</time>
      </trkpt>
      <trkpt lat="47.29032" lon="-2.37742">
        <ele>-11.800000190735</ele>
        <time>2021-02-18T09:09:17.000Z</time>
      </trkpt>
      <trkpt lat="47.29039" lon="-2.37752">
        <ele>-11.800000190735</ele>
        <time>2021-02-18T09:09:19.000Z</time>
      </trkpt>
      <trkpt lat="47.29049" lon="-2.37765">
        <ele>-11.800000190735</ele>
        <time>2021-02-18T09:09:22.000Z</time>
      </trkpt>
      <trkpt lat="47.29076" lon="-2.37791">
        <ele>-11.800000190735</ele>
        <time>2021-02-18T09:09:29.000Z</time>
      </trkpt>
      <trkpt lat="47.29103" lon="-2.37816">
        <ele>-11.800000190735</ele>
        <time>2021-02-18T09:09:36.000Z</time>
      </trkpt>
      <trkpt lat="47.29126" lon="-2.37838">
        <ele>-12.199999809265</ele>
        <time>2021-02-18T09:09:42.000Z</time>
      </trkpt>
      <trkpt lat="47.29129" lon="-2.37841">
        <ele>-12.60000038147</ele>
        <time>2021-02-18T09:09:43.000Z</time>
      </trkpt>
      <trkpt lat="47.29133" lon="-2.37844">
        <ele>-13</ele>
        <time>2021-02-18T09:09:44.000Z</time>
      </trkpt>
      <trkpt lat="47.29136" lon="-2.37845">
        <ele>-13.39999961853</ele>
        <time>2021-02-18T09:09:45.000Z</time>
      </trkpt>
      <trkpt lat="47.2914" lon="-2.37845">
        <ele>-13.800000190735</ele>
        <time>2021-02-18T09:09:46.000Z</time>
      </trkpt>
      <trkpt lat="47.29144" lon="-2.37845">
        <ele>-13.800000190735</ele>
        <time>2021-02-18T09:09:47.000Z</time>
      </trkpt>
      <trkpt lat="47.29156" lon="-2.37836">
        <ele>-13.800000190735</ele>
        <time>2021-02-18T09:09:51.000Z</time>
      </trkpt>
      <trkpt lat="47.29162" lon="-2.37832">
        <ele>-13.800000190735</ele>
        <time>2021-02-18T09:09:54.000Z</time>
      </trkpt>
      <trkpt lat="47.29162" lon="-2.37835">
        <ele>-13.800000190735</ele>
        <time>2021-02-18T09:09:55.000Z</time>
      </trkpt>
      <trkpt lat="47.29157" lon="-2.37843">
        <ele>-13.800000190735</ele>
        <time>2021-02-18T09:09:58.000Z</time>
      </trkpt>
      <trkpt lat="47.29152" lon="-2.37848">
        <ele>-13.800000190735</ele>
        <time>2021-02-18T09:10:00.000Z</time>
      </trkpt>
      <trkpt lat="47.29145" lon="-2.37864">
        <ele>-13.800000190735</ele>
        <time>2021-02-18T09:10:05.000Z</time>
      </trkpt>
      <trkpt lat="47.29133" lon="-2.37892">
        <ele>-13.800000190735</ele>
        <time>2021-02-18T09:10:13.000Z</time>
      </trkpt>
      <trkpt lat="47.2912" lon="-2.37913">
        <ele>-13.800000190735</ele>
        <time>2021-02-18T09:10:19.000Z</time>
      </trkpt>
      <trkpt lat="47.29101" lon="-2.37946">
        <ele>-13.800000190735</ele>
        <time>2021-02-18T09:10:27.000Z</time>
      </trkpt>
      <trkpt lat="47.29081" lon="-2.3798">
        <ele>-13.800000190735</ele>
        <time>2021-02-18T09:10:35.000Z</time>
      </trkpt>
      <trkpt lat="47.29062" lon="-2.38011">
        <ele>-13.800000190735</ele>
        <time>2021-02-18T09:10:42.000Z</time>
      </trkpt>
      <trkpt lat="47.29044" lon="-2.38041">
        <ele>-13.800000190735</ele>
        <time>2021-02-18T09:10:48.000Z</time>
      </trkpt>
      <trkpt lat="47.29042" lon="-2.38047">
        <ele>-13.800000190735</ele>
        <time>2021-02-18T09:10:49.000Z</time>
      </trkpt>
      <trkpt lat="47.29038" lon="-2.38074">
        <ele>-13.800000190735</ele>
        <time>2021-02-18T09:10:53.000Z</time>
      </trkpt>
      <trkpt lat="47.2904" lon="-2.38094">
        <ele>-13.800000190735</ele>
        <time>2021-02-18T09:10:56.000Z</time>
      </trkpt>
      <trkpt lat="47.29043" lon="-2.38106">
        <ele>-13.800000190735</ele>
        <time>2021-02-18T09:10:58.000Z</time>
      </trkpt>
      <trkpt lat="47.29054" lon="-2.38146">
        <ele>-13.800000190735</ele>
        <time>2021-02-18T09:11:05.000Z</time>
      </trkpt>
      <trkpt lat="47.29064" lon="-2.38183">
        <ele>-13.800000190735</ele>
        <time>2021-02-18T09:11:11.000Z</time>
      </trkpt>
      <trkpt lat="47.29066" lon="-2.38198">
        <ele>-13.800000190735</ele>
        <time>2021-02-18T09:11:13.000Z</time>
      </trkpt>
      <trkpt lat="47.29063" lon="-2.38212">
        <ele>-13.800000190735</ele>
        <time>2021-02-18T09:11:15.000Z</time>
      </trkpt>
      <trkpt lat="47.29051" lon="-2.38232">
        <ele>-13.800000190735</ele>
        <time>2021-02-18T09:11:19.000Z</time>
      </trkpt>
      <trkpt lat="47.29036" lon="-2.38249">
        <ele>-13.800000190735</ele>
        <time>2021-02-18T09:11:23.000Z</time>
      </trkpt>
      <trkpt lat="47.29029" lon="-2.38254">
        <ele>-13.800000190735</ele>
        <time>2021-02-18T09:11:25.000Z</time>
      </trkpt>
      <trkpt lat="47.2902" lon="-2.38258">
        <ele>-13.800000190735</ele>
        <time>2021-02-18T09:11:29.000Z</time>
      </trkpt>
      <trkpt lat="47.29006" lon="-2.38266">
        <ele>-13.800000190735</ele>
        <time>2021-02-18T09:11:35.000Z</time>
      </trkpt>
      <trkpt lat="47.29004" lon="-2.38264">
        <ele>-13.800000190735</ele>
        <time>2021-02-18T09:11:37.000Z</time>
      </trkpt>
      <trkpt lat="47.29002" lon="-2.38263">
        <ele>-13.800000190735</ele>
        <time>2021-02-18T09:11:39.000Z</time>
      </trkpt>
      <trkpt lat="47.28998" lon="-2.38271">
        <ele>-13.800000190735</ele>
        <time>2021-02-18T09:11:43.000Z</time>
      </trkpt>
      <trkpt lat="47.28999" lon="-2.38274">
        <ele>-13.800000190735</ele>
        <time>2021-02-18T09:11:44.000Z</time>
      </trkpt>
      <trkpt lat="47.29004" lon="-2.38296">
        <ele>-13.800000190735</ele>
        <time>2021-02-18T09:11:49.000Z</time>
      </trkpt>
      <trkpt lat="47.29005" lon="-2.38309">
        <ele>-13.800000190735</ele>
        <time>2021-02-18T09:11:51.000Z</time>
      </trkpt>
      <trkpt lat="47.29008" lon="-2.3834">
        <ele>-13.800000190735</ele>
        <time>2021-02-18T09:11:56.000Z</time>
      </trkpt>
      <trkpt lat="47.29013" lon="-2.3839">
        <ele>-13.800000190735</ele>
        <time>2021-02-18T09:12:04.000Z</time>
      </trkpt>
      <trkpt lat="47.29016" lon="-2.38422">
        <ele>-13.800000190735</ele>
        <time>2021-02-18T09:12:09.000Z</time>
      </trkpt>
      <trkpt lat="47.29016" lon="-2.38429">
        <ele>-13.800000190735</ele>
        <time>2021-02-18T09:12:10.000Z</time>
      </trkpt>
      <trkpt lat="47.29008" lon="-2.38453">
        <ele>-13.800000190735</ele>
        <time>2021-02-18T09:12:14.000Z</time>
      </trkpt>
      <trkpt lat="47.29008" lon="-2.38465">
        <ele>-13.800000190735</ele>
        <time>2021-02-18T09:12:16.000Z</time>
      </trkpt>
      <trkpt lat="47.29009" lon="-2.38492">
        <ele>-13.800000190735</ele>
        <time>2021-02-18T09:12:20.000Z</time>
      </trkpt>
      <trkpt lat="47.29013" lon="-2.3851">
        <ele>-13.800000190735</ele>
        <time>2021-02-18T09:12:24.000Z</time>
      </trkpt>
      <trkpt lat="47.29014" lon="-2.38532">
        <ele>-13.800000190735</ele>
        <time>2021-02-18T09:12:29.000Z</time>
      </trkpt>
      <trkpt lat="47.29007" lon="-2.38543">
        <ele>-13.800000190735</ele>
        <time>2021-02-18T09:12:34.000Z</time>
      </trkpt>
      <trkpt lat="47.29" lon="-2.38547">
        <ele>-13.800000190735</ele>
        <time>2021-02-18T09:12:38.000Z</time>
      </trkpt>
      <trkpt lat="47.28997" lon="-2.3855">
        <ele>-13.800000190735</ele>
        <time>2021-02-18T09:12:39.000Z</time>
      </trkpt>
      <trkpt lat="47.28982" lon="-2.3856">
        <ele>-13.800000190735</ele>
        <time>2021-02-18T09:12:43.000Z</time>
      </trkpt>
      <trkpt lat="47.28962" lon="-2.38576">
        <ele>-13.800000190735</ele>
        <time>2021-02-18T09:12:49.000Z</time>
      </trkpt>
      <trkpt lat="47.28961" lon="-2.3858">
        <ele>-13.800000190735</ele>
        <time>2021-02-18T09:12:50.000Z</time>
      </trkpt>
      <trkpt lat="47.2896" lon="-2.38589">
        <ele>-13.800000190735</ele>
        <time>2021-02-18T09:12:52.000Z</time>
      </trkpt>
      <trkpt lat="47.2896" lon="-2.38601">
        <ele>-13.800000190735</ele>
        <time>2021-02-18T09:12:54.000Z</time>
      </trkpt>
      <trkpt lat="47.2896" lon="-2.38621">
        <ele>-13.800000190735</ele>
        <time>2021-02-18T09:12:57.000Z</time>
      </trkpt>
      <trkpt lat="47.28962" lon="-2.38681">
        <ele>-13.800000190735</ele>
        <time>2021-02-18T09:13:05.000Z</time>
      </trkpt>
      <trkpt lat="47.28963" lon="-2.38738">
        <ele>-13.800000190735</ele>
        <time>2021-02-18T09:13:13.000Z</time>
      </trkpt>
      <trkpt lat="47.28962" lon="-2.38785">
        <ele>-13.800000190735</ele>
        <time>2021-02-18T09:13:19.000Z</time>
      </trkpt>
      <trkpt lat="47.28963" lon="-2.38853">
        <ele>-13.800000190735</ele>
        <time>2021-02-18T09:13:27.000Z</time>
      </trkpt>
      <trkpt lat="47.28959" lon="-2.38903">
        <ele>-13.800000190735</ele>
        <time>2021-02-18T09:13:33.000Z</time>
      </trkpt>
      <trkpt lat="47.28956" lon="-2.38952">
        <ele>-13.800000190735</ele>
        <time>2021-02-18T09:13:39.000Z</time>
      </trkpt>
      <trkpt lat="47.28954" lon="-2.39011">
        <ele>-13.800000190735</ele>
        <time>2021-02-18T09:13:46.000Z</time>
      </trkpt>
      <trkpt lat="47.28949" lon="-2.3906">
        <ele>-13.800000190735</ele>
        <time>2021-02-18T09:13:52.000Z</time>
      </trkpt>
      <trkpt lat="47.28941" lon="-2.39124">
        <ele>-13.800000190735</ele>
        <time>2021-02-18T09:14:00.000Z</time>
      </trkpt>
      <trkpt lat="47.28935" lon="-2.39188">
        <ele>-13.800000190735</ele>
        <time>2021-02-18T09:14:08.000Z</time>
      </trkpt>
      <trkpt lat="47.28937" lon="-2.39243">
        <ele>-13.800000190735</ele>
        <time>2021-02-18T09:14:15.000Z</time>
      </trkpt>
      <trkpt lat="47.28941" lon="-2.39279">
        <ele>-13.800000190735</ele>
        <time>2021-02-18T09:14:20.000Z</time>
      </trkpt>
      <trkpt lat="47.28943" lon="-2.39286">
        <ele>-13.800000190735</ele>
        <time>2021-02-18T09:14:21.000Z</time>
      </trkpt>
      <trkpt lat="47.28954" lon="-2.39308">
        <ele>-13.800000190735</ele>
        <time>2021-02-18T09:14:25.000Z</time>
      </trkpt>
      <trkpt lat="47.28956" lon="-2.39314">
        <ele>-13.800000190735</ele>
        <time>2021-02-18T09:14:26.000Z</time>
      </trkpt>
      <trkpt lat="47.28955" lon="-2.39325">
        <ele>-13.800000190735</ele>
        <time>2021-02-18T09:14:28.000Z</time>
      </trkpt>
      <trkpt lat="47.28948" lon="-2.39338">
        <ele>-13.800000190735</ele>
        <time>2021-02-18T09:14:31.000Z</time>
      </trkpt>
      <trkpt lat="47.28946" lon="-2.39343">
        <ele>-13.800000190735</ele>
        <time>2021-02-18T09:14:32.000Z</time>
      </trkpt>
      <trkpt lat="47.28945" lon="-2.39349">
        <ele>-13.800000190735</ele>
        <time>2021-02-18T09:14:33.000Z</time>
      </trkpt>
      <trkpt lat="47.2894" lon="-2.39377">
        <ele>-13.800000190735</ele>
        <time>2021-02-18T09:14:38.000Z</time>
      </trkpt>
      <trkpt lat="47.28934" lon="-2.3941">
        <ele>-13.800000190735</ele>
        <time>2021-02-18T09:14:44.000Z</time>
      </trkpt>
      <trkpt lat="47.28929" lon="-2.39435">
        <ele>-13.800000190735</ele>
        <time>2021-02-18T09:14:48.000Z</time>
      </trkpt>
      <trkpt lat="47.28927" lon="-2.39449">
        <ele>-13.800000190735</ele>
        <time>2021-02-18T09:14:50.000Z</time>
      </trkpt>
      <trkpt lat="47.28918" lon="-2.39506">
        <ele>-13.800000190735</ele>
        <time>2021-02-18T09:14:58.000Z</time>
      </trkpt>
      <trkpt lat="47.28914" lon="-2.39528">
        <ele>-13.800000190735</ele>
        <time>2021-02-18T09:15:01.000Z</time>
      </trkpt>
      <trkpt lat="47.28909" lon="-2.39556">
        <ele>-13.800000190735</ele>
        <time>2021-02-18T09:15:05.000Z</time>
      </trkpt>
      <trkpt lat="47.28902" lon="-2.39608">
        <ele>-13.800000190735</ele>
        <time>2021-02-18T09:15:12.000Z</time>
      </trkpt>
      <trkpt lat="47.28896" lon="-2.39644">
        <ele>-14.199999809265</ele>
        <time>2021-02-18T09:15:17.000Z</time>
      </trkpt>
      <trkpt lat="47.28895" lon="-2.39651">
        <ele>-14.60000038147</ele>
        <time>2021-02-18T09:15:18.000Z</time>
      </trkpt>
      <trkpt lat="47.28893" lon="-2.39659">
        <ele>-15</ele>
        <time>2021-02-18T09:15:19.000Z</time>
      </trkpt>
      <trkpt lat="47.28892" lon="-2.39666">
        <ele>-15.39999961853</ele>
        <time>2021-02-18T09:15:20.000Z</time>
      </trkpt>
      <trkpt lat="47.28889" lon="-2.39673">
        <ele>-15.800000190735</ele>
        <time>2021-02-18T09:15:21.000Z</time>
      </trkpt>
      <trkpt lat="47.28878" lon="-2.39707">
        <ele>-15.800000190735</ele>
        <time>2021-02-18T09:15:26.000Z</time>
      </trkpt>
      <trkpt lat="47.28859" lon="-2.39761">
        <ele>-15.800000190735</ele>
        <time>2021-02-18T09:15:34.000Z</time>
      </trkpt>
      <trkpt lat="47.28841" lon="-2.39812">
        <ele>-15.800000190735</ele>
        <time>2021-02-18T09:15:42.000Z</time>
      </trkpt>
      <trkpt lat="47.28832" lon="-2.39845">
        <ele>-15.800000190735</ele>
        <time>2021-02-18T09:15:48.000Z</time>
      </trkpt>
      <trkpt lat="47.28829" lon="-2.39869">
        <ele>-15.800000190735</ele>
        <time>2021-02-18T09:15:54.000Z</time>
      </trkpt>
      <trkpt lat="47.28826" lon="-2.39876">
        <ele>-15.800000190735</ele>
        <time>2021-02-18T09:15:57.000Z</time>
      </trkpt>
      <trkpt lat="47.28823" lon="-2.39874">
        <ele>-15.800000190735</ele>
        <time>2021-02-18T09:15:59.000Z</time>
      </trkpt>
      <trkpt lat="47.2882" lon="-2.39858">
        <ele>-15.800000190735</ele>
        <time>2021-02-18T09:16:05.000Z</time>
      </trkpt>
      <trkpt lat="47.28821" lon="-2.39846">
        <ele>-15.800000190735</ele>
        <time>2021-02-18T09:16:11.000Z</time>
      </trkpt>
      <trkpt lat="47.2882" lon="-2.39847">
        <ele>-15.800000190735</ele>
        <time>2021-02-18T09:16:13.000Z</time>
      </trkpt>
      <trkpt lat="47.28819" lon="-2.39851">
        <ele>-15.800000190735</ele>
        <time>2021-02-18T09:16:15.000Z</time>
      </trkpt>
      <trkpt lat="47.28819" lon="-2.39853">
        <ele>-15.39999961853</ele>
        <time>2021-02-18T09:16:16.000Z</time>
      </trkpt>
      <trkpt lat="47.28819" lon="-2.39855">
        <ele>-15</ele>
        <time>2021-02-18T09:16:17.000Z</time>
      </trkpt>
      <trkpt lat="47.28819" lon="-2.39858">
        <ele>-14.39999961853</ele>
        <time>2021-02-18T09:16:18.000Z</time>
      </trkpt>
      <trkpt lat="47.28819" lon="-2.3986">
        <ele>-14</ele>
        <time>2021-02-18T09:16:19.000Z</time>
      </trkpt>
      <trkpt lat="47.28819" lon="-2.39861">
        <ele>-13.60000038147</ele>
        <time>2021-02-18T09:16:20.000Z</time>
      </trkpt>
      <trkpt lat="47.2882" lon="-2.39862">
        <ele>-13.60000038147</ele>
        <time>2021-02-18T09:16:21.000Z</time>
      </trkpt>
      <trkpt lat="47.2882" lon="-2.39862">
        <ele>-13.60000038147</ele>
        <time>2021-02-18T09:16:22.000Z</time>
      </trkpt>
      <trkpt lat="47.2882" lon="-2.3986">
        <ele>-13.60000038147</ele>
        <time>2021-02-18T09:16:24.000Z</time>
      </trkpt>
      <trkpt lat="47.28821" lon="-2.39858">
        <ele>-13.60000038147</ele>
        <time>2021-02-18T09:16:25.000Z</time>
      </trkpt>
      <trkpt lat="47.28822" lon="-2.3985">
        <ele>-13.199999809265</ele>
        <time>2021-02-18T09:16:28.000Z</time>
      </trkpt>
      <trkpt lat="47.28823" lon="-2.39849">
        <ele>-12.800000190735</ele>
        <time>2021-02-18T09:16:29.000Z</time>
      </trkpt>
      <trkpt lat="47.28822" lon="-2.39847">
        <ele>-12.199999809265</ele>
        <time>2021-02-18T09:16:30.000Z</time>
      </trkpt>
      <trkpt lat="47.28821" lon="-2.39847">
        <ele>-11.800000190735</ele>
        <time>2021-02-18T09:16:31.000Z</time>
      </trkpt>
      <trkpt lat="47.2882" lon="-2.39847">
        <ele>-11.39999961853</ele>
        <time>2021-02-18T09:16:32.000Z</time>
      </trkpt>
      <trkpt lat="47.28813" lon="-2.39846">
        <ele>-11.39999961853</ele>
        <time>2021-02-18T09:16:39.000Z</time>
      </trkpt>
      <trkpt lat="47.28804" lon="-2.39843">
        <ele>-11.39999961853</ele>
        <time>2021-02-18T09:16:45.000Z</time>
      </trkpt>
      <trkpt lat="47.28803" lon="-2.39843">
        <ele>-11.39999961853</ele>
        <time>2021-02-18T09:16:46.000Z</time>
      </trkpt>
      <trkpt lat="47.28804" lon="-2.39847">
        <ele>-11.39999961853</ele>
        <time>2021-02-18T09:16:49.000Z</time>
      </trkpt>
      <trkpt lat="47.28806" lon="-2.39848">
        <ele>-11.39999961853</ele>
        <time>2021-02-18T09:16:51.000Z</time>
      </trkpt>
      <trkpt lat="47.28811" lon="-2.39851">
        <ele>-11.39999961853</ele>
        <time>2021-02-18T09:16:55.000Z</time>
      </trkpt>
      <trkpt lat="47.28812" lon="-2.39851">
        <ele>-11.800000190735</ele>
        <time>2021-02-18T09:16:56.000Z</time>
      </trkpt>
      <trkpt lat="47.28813" lon="-2.39851">
        <ele>-12.199999809265</ele>
        <time>2021-02-18T09:16:57.000Z</time>
      </trkpt>
      <trkpt lat="47.28814" lon="-2.3985">
        <ele>-12.60000038147</ele>
        <time>2021-02-18T09:16:58.000Z</time>
      </trkpt>
      <trkpt lat="47.28814" lon="-2.39848">
        <ele>-13</ele>
        <time>2021-02-18T09:16:59.000Z</time>
      </trkpt>
      <trkpt lat="47.28813" lon="-2.39847">
        <ele>-13.39999961853</ele>
        <time>2021-02-18T09:17:00.000Z</time>
      </trkpt>
      <trkpt lat="47.28806" lon="-2.39845">
        <ele>-13.39999961853</ele>
        <time>2021-02-18T09:17:04.000Z</time>
      </trkpt>
      <trkpt lat="47.28804" lon="-2.39845">
        <ele>-13.39999961853</ele>
        <time>2021-02-18T09:17:05.000Z</time>
      </trkpt>
      <trkpt lat="47.28801" lon="-2.39847">
        <ele>-13.800000190735</ele>
        <time>2021-02-18T09:17:07.000Z</time>
      </trkpt>
      <trkpt lat="47.288" lon="-2.39849">
        <ele>-14.39999961853</ele>
        <time>2021-02-18T09:17:08.000Z</time>
      </trkpt>
      <trkpt lat="47.28799" lon="-2.39851">
        <ele>-14.800000190735</ele>
        <time>2021-02-18T09:17:09.000Z</time>
      </trkpt>
      <trkpt lat="47.28798" lon="-2.39852">
        <ele>-15.199999809265</ele>
        <time>2021-02-18T09:17:10.000Z</time>
      </trkpt>
      <trkpt lat="47.28798" lon="-2.39853">
        <ele>-15.800000190735</ele>
        <time>2021-02-18T09:17:11.000Z</time>
      </trkpt>
      <trkpt lat="47.28799" lon="-2.39855">
        <ele>-15.800000190735</ele>
        <time>2021-02-18T09:17:12.000Z</time>
      </trkpt>
      <trkpt lat="47.28801" lon="-2.39859">
        <ele>-15.800000190735</ele>
        <time>2021-02-18T09:17:13.000Z</time>
      </trkpt>
      <trkpt lat="47.28802" lon="-2.39871">
        <ele>-15.800000190735</ele>
        <time>2021-02-18T09:17:16.000Z</time>
      </trkpt>
      <trkpt lat="47.28797" lon="-2.39901">
        <ele>-15.800000190735</ele>
        <time>2021-02-18T09:17:22.000Z</time>
      </trkpt>
      <trkpt lat="47.28796" lon="-2.39909">
        <ele>-15.800000190735</ele>
        <time>2021-02-18T09:17:25.000Z</time>
      </trkpt>
      <trkpt lat="47.28794" lon="-2.39908">
        <ele>-15.800000190735</ele>
        <time>2021-02-18T09:17:26.000Z</time>
      </trkpt>
      <trkpt lat="47.28788" lon="-2.39902">
        <ele>-15.800000190735</ele>
        <time>2021-02-18T09:17:29.000Z</time>
      </trkpt>
      <trkpt lat="47.28781" lon="-2.39897">
        <ele>-15.800000190735</ele>
        <time>2021-02-18T09:17:32.000Z</time>
      </trkpt>
      <trkpt lat="47.28779" lon="-2.39899">
        <ele>-15.800000190735</ele>
        <time>2021-02-18T09:17:33.000Z</time>
      </trkpt>
      <trkpt lat="47.28776" lon="-2.39905">
        <ele>-15.800000190735</ele>
        <time>2021-02-18T09:17:35.000Z</time>
      </trkpt>
      <trkpt lat="47.28771" lon="-2.39923">
        <ele>-15.800000190735</ele>
        <time>2021-02-18T09:17:40.000Z</time>
      </trkpt>
      <trkpt lat="47.28766" lon="-2.3994">
        <ele>-15.800000190735</ele>
        <time>2021-02-18T09:17:43.000Z</time>
      </trkpt>
      <trkpt lat="47.28761" lon="-2.39957">
        <ele>-15.800000190735</ele>
        <time>2021-02-18T09:17:46.000Z</time>
      </trkpt>
      <trkpt lat="47.2875" lon="-2.39988">
        <ele>-15.800000190735</ele>
        <time>2021-02-18T09:17:52.000Z</time>
      </trkpt>
      <trkpt lat="47.2874" lon="-2.40025">
        <ele>-15.800000190735</ele>
        <time>2021-02-18T09:17:59.000Z</time>
      </trkpt>
      <trkpt lat="47.28732" lon="-2.40066">
        <ele>-15.800000190735</ele>
        <time>2021-02-18T09:18:05.000Z</time>
      </trkpt>
      <trkpt lat="47.28724" lon="-2.40125">
        <ele>-15.800000190735</ele>
        <time>2021-02-18T09:18:13.000Z</time>
      </trkpt>
      <trkpt lat="47.28716" lon="-2.40169">
        <ele>-15.800000190735</ele>
        <time>2021-02-18T09:18:19.000Z</time>
      </trkpt>
      <trkpt lat="47.28712" lon="-2.40188">
        <ele>-15.800000190735</ele>
        <time>2021-02-18T09:18:22.000Z</time>
      </trkpt>
      <trkpt lat="47.28705" lon="-2.40208">
        <ele>-15.800000190735</ele>
        <time>2021-02-18T09:18:25.000Z</time>
      </trkpt>
      <trkpt lat="47.28693" lon="-2.40238">
        <ele>-15.800000190735</ele>
        <time>2021-02-18T09:18:30.000Z</time>
      </trkpt>
      <trkpt lat="47.28687" lon="-2.40251">
        <ele>-15.800000190735</ele>
        <time>2021-02-18T09:18:32.000Z</time>
      </trkpt>
      <trkpt lat="47.2867" lon="-2.40288">
        <ele>-15.800000190735</ele>
        <time>2021-02-18T09:18:38.000Z</time>
      </trkpt>
      <trkpt lat="47.28656" lon="-2.40318">
        <ele>-15.800000190735</ele>
        <time>2021-02-18T09:18:43.000Z</time>
      </trkpt>
      <trkpt lat="47.28653" lon="-2.40324">
        <ele>-15.800000190735</ele>
        <time>2021-02-18T09:18:44.000Z</time>
      </trkpt>
      <trkpt lat="47.28633" lon="-2.40364">
        <ele>-15.800000190735</ele>
        <time>2021-02-18T09:18:51.000Z</time>
      </trkpt>
      <trkpt lat="47.28625" lon="-2.40382">
        <ele>-15.800000190735</ele>
        <time>2021-02-18T09:18:54.000Z</time>
      </trkpt>
      <trkpt lat="47.28616" lon="-2.40399">
        <ele>-15.800000190735</ele>
        <time>2021-02-18T09:18:57.000Z</time>
      </trkpt>
      <trkpt lat="47.28608" lon="-2.40418">
        <ele>-15.800000190735</ele>
        <time>2021-02-18T09:19:00.000Z</time>
      </trkpt>
      <trkpt lat="47.28599" lon="-2.40435">
        <ele>-15.800000190735</ele>
        <time>2021-02-18T09:19:03.000Z</time>
      </trkpt>
      <trkpt lat="47.28579" lon="-2.4047">
        <ele>-15.800000190735</ele>
        <time>2021-02-18T09:19:10.000Z</time>
      </trkpt>
      <trkpt lat="47.28558" lon="-2.40501">
        <ele>-15.800000190735</ele>
        <time>2021-02-18T09:19:16.000Z</time>
      </trkpt>
      <trkpt lat="47.28555" lon="-2.40507">
        <ele>-15.800000190735</ele>
        <time>2021-02-18T09:19:17.000Z</time>
      </trkpt>
      <trkpt lat="47.2854" lon="-2.40528">
        <ele>-15.800000190735</ele>
        <time>2021-02-18T09:19:21.000Z</time>
      </trkpt>
      <trkpt lat="47.28522" lon="-2.40555">
        <ele>-15.800000190735</ele>
        <time>2021-02-18T09:19:26.000Z</time>
      </trkpt>
      <trkpt lat="47.28515" lon="-2.40565">
        <ele>-15.800000190735</ele>
        <time>2021-02-18T09:19:28.000Z</time>
      </trkpt>
      <trkpt lat="47.28498" lon="-2.40594">
        <ele>-15.800000190735</ele>
        <time>2021-02-18T09:19:34.000Z</time>
      </trkpt>
      <trkpt lat="47.28484" lon="-2.40616">
        <ele>-16.200000762939</ele>
        <time>2021-02-18T09:19:40.000Z</time>
      </trkpt>
      <trkpt lat="47.28483" lon="-2.40619">
        <ele>-16.60000038147</ele>
        <time>2021-02-18T09:19:41.000Z</time>
      </trkpt>
      <trkpt lat="47.2848" lon="-2.40623">
        <ele>-17</ele>
        <time>2021-02-18T09:19:42.000Z</time>
      </trkpt>
      <trkpt lat="47.28477" lon="-2.40626">
        <ele>-17.39999961853</ele>
        <time>2021-02-18T09:19:43.000Z</time>
      </trkpt>
      <trkpt lat="47.28474" lon="-2.40629">
        <ele>-17.799999237061</ele>
        <time>2021-02-18T09:19:44.000Z</time>
      </trkpt>
      <trkpt lat="47.28461" lon="-2.4065">
        <ele>-17.799999237061</ele>
        <time>2021-02-18T09:19:49.000Z</time>
      </trkpt>
      <trkpt lat="47.2844" lon="-2.40676">
        <ele>-17.799999237061</ele>
        <time>2021-02-18T09:19:55.000Z</time>
      </trkpt>
      <trkpt lat="47.28421" lon="-2.40702">
        <ele>-17.799999237061</ele>
        <time>2021-02-18T09:20:00.000Z</time>
      </trkpt>
      <trkpt lat="47.28417" lon="-2.40707">
        <ele>-17.799999237061</ele>
        <time>2021-02-18T09:20:01.000Z</time>
      </trkpt>
      <trkpt lat="47.28392" lon="-2.40738">
        <ele>-17.799999237061</ele>
        <time>2021-02-18T09:20:08.000Z</time>
      </trkpt>
      <trkpt lat="47.28367" lon="-2.40773">
        <ele>-17.799999237061</ele>
        <time>2021-02-18T09:20:15.000Z</time>
      </trkpt>
      <trkpt lat="47.28364" lon="-2.40794">
        <ele>-17.799999237061</ele>
        <time>2021-02-18T09:20:18.000Z</time>
      </trkpt>
      <trkpt lat="47.28363" lon="-2.40809">
        <ele>-17.799999237061</ele>
        <time>2021-02-18T09:20:20.000Z</time>
      </trkpt>
      <trkpt lat="47.28362" lon="-2.40831">
        <ele>-17.799999237061</ele>
        <time>2021-02-18T09:20:23.000Z</time>
      </trkpt>
      <trkpt lat="47.28362" lon="-2.40851">
        <ele>-17.799999237061</ele>
        <time>2021-02-18T09:20:26.000Z</time>
      </trkpt>
      <trkpt lat="47.28363" lon="-2.4087">
        <ele>-17.799999237061</ele>
        <time>2021-02-18T09:20:29.000Z</time>
      </trkpt>
      <trkpt lat="47.28375" lon="-2.40883">
        <ele>-17.799999237061</ele>
        <time>2021-02-18T09:20:32.000Z</time>
      </trkpt>
      <trkpt lat="47.28379" lon="-2.40886">
        <ele>-17.799999237061</ele>
        <time>2021-02-18T09:20:33.000Z</time>
      </trkpt>
      <trkpt lat="47.28384" lon="-2.4089">
        <ele>-17.799999237061</ele>
        <time>2021-02-18T09:20:34.000Z</time>
      </trkpt>
      <trkpt lat="47.28401" lon="-2.40899">
        <ele>-17.799999237061</ele>
        <time>2021-02-18T09:20:38.000Z</time>
      </trkpt>
      <trkpt lat="47.28405" lon="-2.409">
        <ele>-17.799999237061</ele>
        <time>2021-02-18T09:20:39.000Z</time>
      </trkpt>
      <trkpt lat="47.28421" lon="-2.4091">
        <ele>-17.799999237061</ele>
        <time>2021-02-18T09:20:43.000Z</time>
      </trkpt>
      <trkpt lat="47.28426" lon="-2.40918">
        <ele>-17.799999237061</ele>
        <time>2021-02-18T09:20:45.000Z</time>
      </trkpt>
      <trkpt lat="47.28427" lon="-2.40924">
        <ele>-17.799999237061</ele>
        <time>2021-02-18T09:20:46.000Z</time>
      </trkpt>
      <trkpt lat="47.28427" lon="-2.4095">
        <ele>-17.799999237061</ele>
        <time>2021-02-18T09:20:50.000Z</time>
      </trkpt>
      <trkpt lat="47.28421" lon="-2.4097">
        <ele>-17.799999237061</ele>
        <time>2021-02-18T09:20:53.000Z</time>
      </trkpt>
      <trkpt lat="47.28417" lon="-2.40985">
        <ele>-17.799999237061</ele>
        <time>2021-02-18T09:20:55.000Z</time>
      </trkpt>
      <trkpt lat="47.28405" lon="-2.41031">
        <ele>-17.799999237061</ele>
        <time>2021-02-18T09:21:01.000Z</time>
      </trkpt>
      <trkpt lat="47.28392" lon="-2.41084">
        <ele>-17.799999237061</ele>
        <time>2021-02-18T09:21:08.000Z</time>
      </trkpt>
      <trkpt lat="47.28389" lon="-2.411">
        <ele>-17.799999237061</ele>
        <time>2021-02-18T09:21:10.000Z</time>
      </trkpt>
      <trkpt lat="47.28373" lon="-2.41162">
        <ele>-17.799999237061</ele>
        <time>2021-02-18T09:21:18.000Z</time>
      </trkpt>
      <trkpt lat="47.28365" lon="-2.41198">
        <ele>-17.799999237061</ele>
        <time>2021-02-18T09:21:24.000Z</time>
      </trkpt>
      <trkpt lat="47.28365" lon="-2.41201">
        <ele>-17.799999237061</ele>
        <time>2021-02-18T09:21:25.000Z</time>
      </trkpt>
      <trkpt lat="47.28366" lon="-2.41207">
        <ele>-17.799999237061</ele>
        <time>2021-02-18T09:21:27.000Z</time>
      </trkpt>
      <trkpt lat="47.2837" lon="-2.41227">
        <ele>-17.799999237061</ele>
        <time>2021-02-18T09:21:34.000Z</time>
      </trkpt>
      <trkpt lat="47.28383" lon="-2.41238">
        <ele>-17.799999237061</ele>
        <time>2021-02-18T09:21:39.000Z</time>
      </trkpt>
      <trkpt lat="47.28399" lon="-2.41246">
        <ele>-17.799999237061</ele>
        <time>2021-02-18T09:21:45.000Z</time>
      </trkpt>
      <trkpt lat="47.28403" lon="-2.41246">
        <ele>-17.799999237061</ele>
        <time>2021-02-18T09:21:47.000Z</time>
      </trkpt>
      <trkpt lat="47.28406" lon="-2.41244">
        <ele>-17.799999237061</ele>
        <time>2021-02-18T09:21:50.000Z</time>
      </trkpt>
      <trkpt lat="47.28409" lon="-2.4124">
        <ele>-17.799999237061</ele>
        <time>2021-02-18T09:21:56.000Z</time>
      </trkpt>
      <trkpt lat="47.28409" lon="-2.4124">
        <ele>-17.799999237061</ele>
        <time>2021-02-18T09:21:58.000Z</time>
      </trkpt>
      <trkpt lat="47.28414" lon="-2.41236">
        <ele>-17.799999237061</ele>
        <time>2021-02-18T09:22:08.000Z</time>
      </trkpt>
      <trkpt lat="47.28416" lon="-2.41234">
        <ele>-17.799999237061</ele>
        <time>2021-02-18T09:22:09.000Z</time>
      </trkpt>
      <trkpt lat="47.28431" lon="-2.41224">
        <ele>-17.799999237061</ele>
        <time>2021-02-18T09:22:14.000Z</time>
      </trkpt>
      <trkpt lat="47.28457" lon="-2.41211">
        <ele>-17.799999237061</ele>
        <time>2021-02-18T09:22:22.000Z</time>
      </trkpt>
      <trkpt lat="47.28467" lon="-2.4121">
        <ele>-17.799999237061</ele>
        <time>2021-02-18T09:22:25.000Z</time>
      </trkpt>
      <trkpt lat="47.28469" lon="-2.41212">
        <ele>-17.799999237061</ele>
        <time>2021-02-18T09:22:26.000Z</time>
      </trkpt>
      <trkpt lat="47.28476" lon="-2.41235">
        <ele>-17.799999237061</ele>
        <time>2021-02-18T09:22:31.000Z</time>
      </trkpt>
      <trkpt lat="47.28478" lon="-2.41253">
        <ele>-17.799999237061</ele>
        <time>2021-02-18T09:22:35.000Z</time>
      </trkpt>
      <trkpt lat="47.28475" lon="-2.4126">
        <ele>-17.799999237061</ele>
        <time>2021-02-18T09:22:37.000Z</time>
      </trkpt>
      <trkpt lat="47.28472" lon="-2.4126">
        <ele>-17.799999237061</ele>
        <time>2021-02-18T09:22:38.000Z</time>
      </trkpt>
      <trkpt lat="47.28455" lon="-2.41263">
        <ele>-17.799999237061</ele>
        <time>2021-02-18T09:22:43.000Z</time>
      </trkpt>
      <trkpt lat="47.28453" lon="-2.41267">
        <ele>-17.799999237061</ele>
        <time>2021-02-18T09:22:44.000Z</time>
      </trkpt>
      <trkpt lat="47.28452" lon="-2.41276">
        <ele>-17.799999237061</ele>
        <time>2021-02-18T09:22:46.000Z</time>
      </trkpt>
      <trkpt lat="47.28453" lon="-2.41286">
        <ele>-17.799999237061</ele>
        <time>2021-02-18T09:22:48.000Z</time>
      </trkpt>
      <trkpt lat="47.28452" lon="-2.41302">
        <ele>-17.799999237061</ele>
        <time>2021-02-18T09:22:51.000Z</time>
      </trkpt>
      <trkpt lat="47.28443" lon="-2.41345">
        <ele>-17.799999237061</ele>
        <time>2021-02-18T09:22:58.000Z</time>
      </trkpt>
      <trkpt lat="47.28429" lon="-2.41406">
        <ele>-17.799999237061</ele>
        <time>2021-02-18T09:23:07.000Z</time>
      </trkpt>
      <trkpt lat="47.28419" lon="-2.41457">
        <ele>-17.799999237061</ele>
        <time>2021-02-18T09:23:14.000Z</time>
      </trkpt>
      <trkpt lat="47.28415" lon="-2.41511">
        <ele>-17.799999237061</ele>
        <time>2021-02-18T09:23:21.000Z</time>
      </trkpt>
      <trkpt lat="47.28406" lon="-2.41594">
        <ele>-17.799999237061</ele>
        <time>2021-02-18T09:23:32.000Z</time>
      </trkpt>
      <trkpt lat="47.28399" lon="-2.41663">
        <ele>-17.799999237061</ele>
        <time>2021-02-18T09:23:41.000Z</time>
      </trkpt>
      <trkpt lat="47.28388" lon="-2.41716">
        <ele>-17.799999237061</ele>
        <time>2021-02-18T09:23:48.000Z</time>
      </trkpt>
      <trkpt lat="47.28372" lon="-2.41778">
        <ele>-17.799999237061</ele>
        <time>2021-02-18T09:23:56.000Z</time>
      </trkpt>
      <trkpt lat="47.28353" lon="-2.41857">
        <ele>-17.799999237061</ele>
        <time>2021-02-18T09:24:06.000Z</time>
      </trkpt>
      <trkpt lat="47.28336" lon="-2.41925">
        <ele>-17.799999237061</ele>
        <time>2021-02-18T09:24:15.000Z</time>
      </trkpt>
      <trkpt lat="47.28321" lon="-2.41983">
        <ele>-17.799999237061</ele>
        <time>2021-02-18T09:24:23.000Z</time>
      </trkpt>
      <trkpt lat="47.28308" lon="-2.42041">
        <ele>-17.799999237061</ele>
        <time>2021-02-18T09:24:31.000Z</time>
      </trkpt>
      <trkpt lat="47.28301" lon="-2.42094">
        <ele>-17.799999237061</ele>
        <time>2021-02-18T09:24:38.000Z</time>
      </trkpt>
      <trkpt lat="47.28292" lon="-2.42163">
        <ele>-17.799999237061</ele>
        <time>2021-02-18T09:24:47.000Z</time>
      </trkpt>
      <trkpt lat="47.28282" lon="-2.42231">
        <ele>-17.799999237061</ele>
        <time>2021-02-18T09:24:56.000Z</time>
      </trkpt>
      <trkpt lat="47.28272" lon="-2.42291">
        <ele>-17.799999237061</ele>
        <time>2021-02-18T09:25:05.000Z</time>
      </trkpt>
      <trkpt lat="47.28268" lon="-2.42325">
        <ele>-17.799999237061</ele>
        <time>2021-02-18T09:25:10.000Z</time>
      </trkpt>
      <trkpt lat="47.28268" lon="-2.42338">
        <ele>-17.799999237061</ele>
        <time>2021-02-18T09:25:12.000Z</time>
      </trkpt>
      <trkpt lat="47.28267" lon="-2.42352">
        <ele>-17.799999237061</ele>
        <time>2021-02-18T09:25:14.000Z</time>
      </trkpt>
      <trkpt lat="47.28263" lon="-2.42381">
        <ele>-17.799999237061</ele>
        <time>2021-02-18T09:25:18.000Z</time>
      </trkpt>
      <trkpt lat="47.28248" lon="-2.42442">
        <ele>-17.799999237061</ele>
        <time>2021-02-18T09:25:27.000Z</time>
      </trkpt>
      <trkpt lat="47.28229" lon="-2.42483">
        <ele>-17.799999237061</ele>
        <time>2021-02-18T09:25:34.000Z</time>
      </trkpt>
      <trkpt lat="47.28202" lon="-2.42522">
        <ele>-17.799999237061</ele>
        <time>2021-02-18T09:25:42.000Z</time>
      </trkpt>
      <trkpt lat="47.28195" lon="-2.42531">
        <ele>-17.799999237061</ele>
        <time>2021-02-18T09:25:44.000Z</time>
      </trkpt>
      <trkpt lat="47.28181" lon="-2.42535">
        <ele>-17.799999237061</ele>
        <time>2021-02-18T09:25:47.000Z</time>
      </trkpt>
      <trkpt lat="47.28172" lon="-2.42533">
        <ele>-17.799999237061</ele>
        <time>2021-02-18T09:25:49.000Z</time>
      </trkpt>
      <trkpt lat="47.28159" lon="-2.42534">
        <ele>-17.799999237061</ele>
        <time>2021-02-18T09:25:52.000Z</time>
      </trkpt>
      <trkpt lat="47.28132" lon="-2.42541">
        <ele>-17.799999237061</ele>
        <time>2021-02-18T09:25:58.000Z</time>
      </trkpt>
      <trkpt lat="47.28103" lon="-2.42548">
        <ele>-17.799999237061</ele>
        <time>2021-02-18T09:26:06.000Z</time>
      </trkpt>
      <trkpt lat="47.28099" lon="-2.4255">
        <ele>-17.799999237061</ele>
        <time>2021-02-18T09:26:08.000Z</time>
      </trkpt>
      <trkpt lat="47.28099" lon="-2.42555">
        <ele>-17.799999237061</ele>
        <time>2021-02-18T09:26:10.000Z</time>
      </trkpt>
      <trkpt lat="47.28104" lon="-2.42566">
        <ele>-17.799999237061</ele>
        <time>2021-02-18T09:26:13.000Z</time>
      </trkpt>
      <trkpt lat="47.28107" lon="-2.4257">
        <ele>-17.799999237061</ele>
        <time>2021-02-18T09:26:14.000Z</time>
      </trkpt>
      <trkpt lat="47.28126" lon="-2.42599">
        <ele>-17.799999237061</ele>
        <time>2021-02-18T09:26:21.000Z</time>
      </trkpt>
      <trkpt lat="47.28138" lon="-2.42624">
        <ele>-17.799999237061</ele>
        <time>2021-02-18T09:26:28.000Z</time>
      </trkpt>
      <trkpt lat="47.28154" lon="-2.42653">
        <ele>-17.799999237061</ele>
        <time>2021-02-18T09:26:35.000Z</time>
      </trkpt>
      <trkpt lat="47.2817" lon="-2.42676">
        <ele>-17.799999237061</ele>
        <time>2021-02-18T09:26:41.000Z</time>
      </trkpt>
      <trkpt lat="47.28187" lon="-2.42705">
        <ele>-17.799999237061</ele>
        <time>2021-02-18T09:26:48.000Z</time>
      </trkpt>
      <trkpt lat="47.28191" lon="-2.42708">
        <ele>-17.799999237061</ele>
        <time>2021-02-18T09:26:51.000Z</time>
      </trkpt>
      <trkpt lat="47.28192" lon="-2.42707">
        <ele>-17.799999237061</ele>
        <time>2021-02-18T09:26:52.000Z</time>
      </trkpt>
      <trkpt lat="47.28195" lon="-2.42711">
        <ele>-17.799999237061</ele>
        <time>2021-02-18T09:26:56.000Z</time>
      </trkpt>
      <trkpt lat="47.28194" lon="-2.42713">
        <ele>-17.799999237061</ele>
        <time>2021-02-18T09:26:57.000Z</time>
      </trkpt>
      <trkpt lat="47.28195" lon="-2.42727">
        <ele>-17.799999237061</ele>
        <time>2021-02-18T09:27:01.000Z</time>
      </trkpt>
      <trkpt lat="47.28205" lon="-2.42746">
        <ele>-17.799999237061</ele>
        <time>2021-02-18T09:27:06.000Z</time>
      </trkpt>
      <trkpt lat="47.2822" lon="-2.42777">
        <ele>-17.799999237061</ele>
        <time>2021-02-18T09:27:12.000Z</time>
      </trkpt>
      <trkpt lat="47.28232" lon="-2.42811">
        <ele>-17.799999237061</ele>
        <time>2021-02-18T09:27:19.000Z</time>
      </trkpt>
      <trkpt lat="47.28242" lon="-2.42844">
        <ele>-17.799999237061</ele>
        <time>2021-02-18T09:27:25.000Z</time>
      </trkpt>
      <trkpt lat="47.28244" lon="-2.4285">
        <ele>-17.799999237061</ele>
        <time>2021-02-18T09:27:26.000Z</time>
      </trkpt>
      <trkpt lat="47.28259" lon="-2.42872">
        <ele>-17.799999237061</ele>
        <time>2021-02-18T09:27:31.000Z</time>
      </trkpt>
      <trkpt lat="47.2826" lon="-2.42892">
        <ele>-17.799999237061</ele>
        <time>2021-02-18T09:27:35.000Z</time>
      </trkpt>
      <trkpt lat="47.28257" lon="-2.42915">
        <ele>-17.799999237061</ele>
        <time>2021-02-18T09:27:39.000Z</time>
      </trkpt>
      <trkpt lat="47.28258" lon="-2.42929">
        <ele>-17.799999237061</ele>
        <time>2021-02-18T09:27:41.000Z</time>
      </trkpt>
      <trkpt lat="47.28261" lon="-2.42965">
        <ele>-17.799999237061</ele>
        <time>2021-02-18T09:27:46.000Z</time>
      </trkpt>
      <trkpt lat="47.28262" lon="-2.43025">
        <ele>-17.799999237061</ele>
        <time>2021-02-18T09:27:54.000Z</time>
      </trkpt>
      <trkpt lat="47.28256" lon="-2.43082">
        <ele>-17.799999237061</ele>
        <time>2021-02-18T09:28:02.000Z</time>
      </trkpt>
      <trkpt lat="47.28256" lon="-2.43096">
        <ele>-17.799999237061</ele>
        <time>2021-02-18T09:28:04.000Z</time>
      </trkpt>
      <trkpt lat="47.28256" lon="-2.43117">
        <ele>-17.799999237061</ele>
        <time>2021-02-18T09:28:07.000Z</time>
      </trkpt>
      <trkpt lat="47.28247" lon="-2.43152">
        <ele>-17.799999237061</ele>
        <time>2021-02-18T09:28:12.000Z</time>
      </trkpt>
      <trkpt lat="47.28238" lon="-2.43194">
        <ele>-17.799999237061</ele>
        <time>2021-02-18T09:28:18.000Z</time>
      </trkpt>
      <trkpt lat="47.28225" lon="-2.43245">
        <ele>-17.799999237061</ele>
        <time>2021-02-18T09:28:26.000Z</time>
      </trkpt>
      <trkpt lat="47.28224" lon="-2.43257">
        <ele>-17.799999237061</ele>
        <time>2021-02-18T09:28:28.000Z</time>
      </trkpt>
      <trkpt lat="47.28229" lon="-2.43273">
        <ele>-17.799999237061</ele>
        <time>2021-02-18T09:28:31.000Z</time>
      </trkpt>
      <trkpt lat="47.28227" lon="-2.43291">
        <ele>-17.799999237061</ele>
        <time>2021-02-18T09:28:34.000Z</time>
      </trkpt>
      <trkpt lat="47.28225" lon="-2.43304">
        <ele>-17.799999237061</ele>
        <time>2021-02-18T09:28:36.000Z</time>
      </trkpt>
      <trkpt lat="47.2822" lon="-2.43332">
        <ele>-17.799999237061</ele>
        <time>2021-02-18T09:28:41.000Z</time>
      </trkpt>
      <trkpt lat="47.28216" lon="-2.43338">
        <ele>-17.799999237061</ele>
        <time>2021-02-18T09:28:43.000Z</time>
      </trkpt>
      <trkpt lat="47.28213" lon="-2.43335">
        <ele>-17.799999237061</ele>
        <time>2021-02-18T09:28:44.000Z</time>
      </trkpt>
      <trkpt lat="47.282" lon="-2.4333">
        <ele>-17.799999237061</ele>
        <time>2021-02-18T09:28:47.000Z</time>
      </trkpt>
      <trkpt lat="47.28185" lon="-2.43337">
        <ele>-17.799999237061</ele>
        <time>2021-02-18T09:28:51.000Z</time>
      </trkpt>
      <trkpt lat="47.28177" lon="-2.43332">
        <ele>-17.799999237061</ele>
        <time>2021-02-18T09:28:54.000Z</time>
      </trkpt>
      <trkpt lat="47.28167" lon="-2.43343">
        <ele>-17.799999237061</ele>
        <time>2021-02-18T09:28:57.000Z</time>
      </trkpt>
      <trkpt lat="47.28158" lon="-2.43357">
        <ele>-17.799999237061</ele>
        <time>2021-02-18T09:29:00.000Z</time>
      </trkpt>
      <trkpt lat="47.28148" lon="-2.43373">
        <ele>-17.799999237061</ele>
        <time>2021-02-18T09:29:03.000Z</time>
      </trkpt>
      <trkpt lat="47.28116" lon="-2.43421">
        <ele>-17.799999237061</ele>
        <time>2021-02-18T09:29:12.000Z</time>
      </trkpt>
      <trkpt lat="47.28085" lon="-2.43468">
        <ele>-17.799999237061</ele>
        <time>2021-02-18T09:29:21.000Z</time>
      </trkpt>
      <trkpt lat="47.28052" lon="-2.43516">
        <ele>-17.799999237061</ele>
        <time>2021-02-18T09:29:30.000Z</time>
      </trkpt>
      <trkpt lat="47.28022" lon="-2.43558">
        <ele>-17.799999237061</ele>
        <time>2021-02-18T09:29:38.000Z</time>
      </trkpt>
      <trkpt lat="47.27991" lon="-2.43605">
        <ele>-17.799999237061</ele>
        <time>2021-02-18T09:29:47.000Z</time>
      </trkpt>
      <trkpt lat="47.27961" lon="-2.43646">
        <ele>-17.799999237061</ele>
        <time>2021-02-18T09:29:55.000Z</time>
      </trkpt>
      <trkpt lat="47.27928" lon="-2.43695">
        <ele>-17.799999237061</ele>
        <time>2021-02-18T09:30:04.000Z</time>
      </trkpt>
      <trkpt lat="47.27905" lon="-2.43724">
        <ele>-17.799999237061</ele>
        <time>2021-02-18T09:30:10.000Z</time>
      </trkpt>
      <trkpt lat="47.27897" lon="-2.43733">
        <ele>-17.799999237061</ele>
        <time>2021-02-18T09:30:12.000Z</time>
      </trkpt>
      <trkpt lat="47.27865" lon="-2.43765">
        <ele>-17.799999237061</ele>
        <time>2021-02-18T09:30:20.000Z</time>
      </trkpt>
      <trkpt lat="47.27836" lon="-2.43787">
        <ele>-17.799999237061</ele>
        <time>2021-02-18T09:30:27.000Z</time>
      </trkpt>
      <trkpt lat="47.27808" lon="-2.43799">
        <ele>-17.799999237061</ele>
        <time>2021-02-18T09:30:34.000Z</time>
      </trkpt>
      <trkpt lat="47.27794" lon="-2.43794">
        <ele>-17.799999237061</ele>
        <time>2021-02-18T09:30:38.000Z</time>
      </trkpt>
      <trkpt lat="47.2779" lon="-2.43806">
        <ele>-17.799999237061</ele>
        <time>2021-02-18T09:30:41.000Z</time>
      </trkpt>
      <trkpt lat="47.27795" lon="-2.43832">
        <ele>-17.799999237061</ele>
        <time>2021-02-18T09:30:45.000Z</time>
      </trkpt>
      <trkpt lat="47.27791" lon="-2.43853">
        <ele>-17.799999237061</ele>
        <time>2021-02-18T09:30:48.000Z</time>
      </trkpt>
      <trkpt lat="47.27777" lon="-2.43869">
        <ele>-17.799999237061</ele>
        <time>2021-02-18T09:30:51.000Z</time>
      </trkpt>
      <trkpt lat="47.27774" lon="-2.43875">
        <ele>-17.799999237061</ele>
        <time>2021-02-18T09:30:52.000Z</time>
      </trkpt>
      <trkpt lat="47.27766" lon="-2.43896">
        <ele>-17.799999237061</ele>
        <time>2021-02-18T09:30:55.000Z</time>
      </trkpt>
      <trkpt lat="47.2775" lon="-2.43949">
        <ele>-17.799999237061</ele>
        <time>2021-02-18T09:31:02.000Z</time>
      </trkpt>
      <trkpt lat="47.27736" lon="-2.44">
        <ele>-17.799999237061</ele>
        <time>2021-02-18T09:31:09.000Z</time>
      </trkpt>
      <trkpt lat="47.27721" lon="-2.4405">
        <ele>-17.799999237061</ele>
        <time>2021-02-18T09:31:16.000Z</time>
      </trkpt>
      <trkpt lat="47.2772" lon="-2.44057">
        <ele>-17.799999237061</ele>
        <time>2021-02-18T09:31:17.000Z</time>
      </trkpt>
      <trkpt lat="47.27717" lon="-2.44079">
        <ele>-17.799999237061</ele>
        <time>2021-02-18T09:31:20.000Z</time>
      </trkpt>
      <trkpt lat="47.27713" lon="-2.44085">
        <ele>-17.799999237061</ele>
        <time>2021-02-18T09:31:21.000Z</time>
      </trkpt>
      <trkpt lat="47.27698" lon="-2.44084">
        <ele>-17.799999237061</ele>
        <time>2021-02-18T09:31:24.000Z</time>
      </trkpt>
      <trkpt lat="47.27694" lon="-2.4408">
        <ele>-18.39999961853</ele>
        <time>2021-02-18T09:31:25.000Z</time>
      </trkpt>
      <trkpt lat="47.27689" lon="-2.44075">
        <ele>-18.799999237061</ele>
        <time>2021-02-18T09:31:26.000Z</time>
      </trkpt>
      <trkpt lat="47.27684" lon="-2.44072">
        <ele>-19.60000038147</ele>
        <time>2021-02-18T09:31:27.000Z</time>
      </trkpt>
      <trkpt lat="47.27678" lon="-2.4407">
        <ele>-20</ele>
        <time>2021-02-18T09:31:28.000Z</time>
      </trkpt>
      <trkpt lat="47.27673" lon="-2.44067">
        <ele>-20</ele>
        <time>2021-02-18T09:31:29.000Z</time>
      </trkpt>
      <trkpt lat="47.27662" lon="-2.44068">
        <ele>-20</ele>
        <time>2021-02-18T09:31:31.000Z</time>
      </trkpt>
      <trkpt lat="47.27658" lon="-2.44071">
        <ele>-20</ele>
        <time>2021-02-18T09:31:32.000Z</time>
      </trkpt>
      <trkpt lat="47.27641" lon="-2.4409">
        <ele>-20</ele>
        <time>2021-02-18T09:31:36.000Z</time>
      </trkpt>
      <trkpt lat="47.27638" lon="-2.44095">
        <ele>-20</ele>
        <time>2021-02-18T09:31:37.000Z</time>
      </trkpt>
      <trkpt lat="47.27635" lon="-2.44101">
        <ele>-20</ele>
        <time>2021-02-18T09:31:38.000Z</time>
      </trkpt>
      <trkpt lat="47.27621" lon="-2.44126">
        <ele>-20</ele>
        <time>2021-02-18T09:31:42.000Z</time>
      </trkpt>
      <trkpt lat="47.2759" lon="-2.4418">
        <ele>-20</ele>
        <time>2021-02-18T09:31:51.000Z</time>
      </trkpt>
      <trkpt lat="47.27564" lon="-2.44226">
        <ele>-20</ele>
        <time>2021-02-18T09:31:59.000Z</time>
      </trkpt>
      <trkpt lat="47.27542" lon="-2.44278">
        <ele>-20</ele>
        <time>2021-02-18T09:32:07.000Z</time>
      </trkpt>
      <trkpt lat="47.27536" lon="-2.44308">
        <ele>-20</ele>
        <time>2021-02-18T09:32:12.000Z</time>
      </trkpt>
      <trkpt lat="47.27531" lon="-2.44339">
        <ele>-20</ele>
        <time>2021-02-18T09:32:18.000Z</time>
      </trkpt>
      <trkpt lat="47.2753" lon="-2.4437">
        <ele>-20</ele>
        <time>2021-02-18T09:32:23.000Z</time>
      </trkpt>
      <trkpt lat="47.27534" lon="-2.44381">
        <ele>-20</ele>
        <time>2021-02-18T09:32:25.000Z</time>
      </trkpt>
      <trkpt lat="47.27537" lon="-2.444">
        <ele>-20</ele>
        <time>2021-02-18T09:32:29.000Z</time>
      </trkpt>
      <trkpt lat="47.27528" lon="-2.44403">
        <ele>-20</ele>
        <time>2021-02-18T09:32:32.000Z</time>
      </trkpt>
      <trkpt lat="47.2752" lon="-2.44401">
        <ele>-20</ele>
        <time>2021-02-18T09:32:34.000Z</time>
      </trkpt>
      <trkpt lat="47.27501" lon="-2.44399">
        <ele>-20</ele>
        <time>2021-02-18T09:32:38.000Z</time>
      </trkpt>
      <trkpt lat="47.27476" lon="-2.44405">
        <ele>-20</ele>
        <time>2021-02-18T09:32:44.000Z</time>
      </trkpt>
      <trkpt lat="47.27455" lon="-2.44407">
        <ele>-20</ele>
        <time>2021-02-18T09:32:50.000Z</time>
      </trkpt>
      <trkpt lat="47.27439" lon="-2.44409">
        <ele>-20</ele>
        <time>2021-02-18T09:32:55.000Z</time>
      </trkpt>
      <trkpt lat="47.27433" lon="-2.44432">
        <ele>-20</ele>
        <time>2021-02-18T09:33:00.000Z</time>
      </trkpt>
      <trkpt lat="47.27435" lon="-2.44471">
        <ele>-20</ele>
        <time>2021-02-18T09:33:05.000Z</time>
      </trkpt>
      <trkpt lat="47.27438" lon="-2.44506">
        <ele>-20</ele>
        <time>2021-02-18T09:33:10.000Z</time>
      </trkpt>
      <trkpt lat="47.2744" lon="-2.44513">
        <ele>-20</ele>
        <time>2021-02-18T09:33:11.000Z</time>
      </trkpt>
      <trkpt lat="47.27447" lon="-2.4453">
        <ele>-20</ele>
        <time>2021-02-18T09:33:14.000Z</time>
      </trkpt>
      <trkpt lat="47.27449" lon="-2.44544">
        <ele>-20</ele>
        <time>2021-02-18T09:33:16.000Z</time>
      </trkpt>
      <trkpt lat="47.27449" lon="-2.44551">
        <ele>-20</ele>
        <time>2021-02-18T09:33:17.000Z</time>
      </trkpt>
      <trkpt lat="47.27451" lon="-2.44585">
        <ele>-20</ele>
        <time>2021-02-18T09:33:22.000Z</time>
      </trkpt>
      <trkpt lat="47.27456" lon="-2.44606">
        <ele>-20</ele>
        <time>2021-02-18T09:33:25.000Z</time>
      </trkpt>
      <trkpt lat="47.27462" lon="-2.44617">
        <ele>-20</ele>
        <time>2021-02-18T09:33:27.000Z</time>
      </trkpt>
      <trkpt lat="47.27473" lon="-2.4464">
        <ele>-20</ele>
        <time>2021-02-18T09:33:31.000Z</time>
      </trkpt>
      <trkpt lat="47.27481" lon="-2.44658">
        <ele>-20</ele>
        <time>2021-02-18T09:33:34.000Z</time>
      </trkpt>
      <trkpt lat="47.27484" lon="-2.44663">
        <ele>-20</ele>
        <time>2021-02-18T09:33:35.000Z</time>
      </trkpt>
      <trkpt lat="47.27502" lon="-2.4469">
        <ele>-20</ele>
        <time>2021-02-18T09:33:40.000Z</time>
      </trkpt>
      <trkpt lat="47.27516" lon="-2.44716">
        <ele>-20</ele>
        <time>2021-02-18T09:33:44.000Z</time>
      </trkpt>
      <trkpt lat="47.27519" lon="-2.44732">
        <ele>-20</ele>
        <time>2021-02-18T09:33:46.000Z</time>
      </trkpt>
      <trkpt lat="47.2753" lon="-2.44783">
        <ele>-20</ele>
        <time>2021-02-18T09:33:53.000Z</time>
      </trkpt>
      <trkpt lat="47.27536" lon="-2.44809">
        <ele>-20</ele>
        <time>2021-02-18T09:33:58.000Z</time>
      </trkpt>
      <trkpt lat="47.27535" lon="-2.44822">
        <ele>-20</ele>
        <time>2021-02-18T09:34:01.000Z</time>
      </trkpt>
      <trkpt lat="47.27532" lon="-2.44824">
        <ele>-20</ele>
        <time>2021-02-18T09:34:02.000Z</time>
      </trkpt>
      <trkpt lat="47.27521" lon="-2.44834">
        <ele>-20</ele>
        <time>2021-02-18T09:34:06.000Z</time>
      </trkpt>
      <trkpt lat="47.27515" lon="-2.44841">
        <ele>-20</ele>
        <time>2021-02-18T09:34:08.000Z</time>
      </trkpt>
      <trkpt lat="47.27495" lon="-2.44855">
        <ele>-20</ele>
        <time>2021-02-18T09:34:14.000Z</time>
      </trkpt>
      <trkpt lat="47.2749" lon="-2.44857">
        <ele>-20</ele>
        <time>2021-02-18T09:34:15.000Z</time>
      </trkpt>
      <trkpt lat="47.27475" lon="-2.44856">
        <ele>-20</ele>
        <time>2021-02-18T09:34:18.000Z</time>
      </trkpt>
      <trkpt lat="47.27461" lon="-2.44855">
        <ele>-20</ele>
        <time>2021-02-18T09:34:21.000Z</time>
      </trkpt>
      <trkpt lat="47.27453" lon="-2.44864">
        <ele>-20</ele>
        <time>2021-02-18T09:34:23.000Z</time>
      </trkpt>
      <trkpt lat="47.27445" lon="-2.44874">
        <ele>-20</ele>
        <time>2021-02-18T09:34:25.000Z</time>
      </trkpt>
      <trkpt lat="47.27442" lon="-2.4488">
        <ele>-20</ele>
        <time>2021-02-18T09:34:26.000Z</time>
      </trkpt>
      <trkpt lat="47.27435" lon="-2.44891">
        <ele>-20</ele>
        <time>2021-02-18T09:34:28.000Z</time>
      </trkpt>
      <trkpt lat="47.27409" lon="-2.44915">
        <ele>-20</ele>
        <time>2021-02-18T09:34:34.000Z</time>
      </trkpt>
      <trkpt lat="47.27385" lon="-2.44928">
        <ele>-20</ele>
        <time>2021-02-18T09:34:39.000Z</time>
      </trkpt>
      <trkpt lat="47.27376" lon="-2.44933">
        <ele>-19.60000038147</ele>
        <time>2021-02-18T09:34:41.000Z</time>
      </trkpt>
      <trkpt lat="47.27372" lon="-2.44936">
        <ele>-19.200000762939</ele>
        <time>2021-02-18T09:34:42.000Z</time>
      </trkpt>
      <trkpt lat="47.27368" lon="-2.44938">
        <ele>-18.799999237061</ele>
        <time>2021-02-18T09:34:43.000Z</time>
      </trkpt>
      <trkpt lat="47.27364" lon="-2.44941">
        <ele>-17.799999237061</ele>
        <time>2021-02-18T09:34:44.000Z</time>
      </trkpt>
      <trkpt lat="47.2735" lon="-2.44947">
        <ele>-17.799999237061</ele>
        <time>2021-02-18T09:34:47.000Z</time>
      </trkpt>
      <trkpt lat="47.27328" lon="-2.44959">
        <ele>-17.799999237061</ele>
        <time>2021-02-18T09:34:52.000Z</time>
      </trkpt>
      <trkpt lat="47.27319" lon="-2.44962">
        <ele>-17.799999237061</ele>
        <time>2021-02-18T09:34:54.000Z</time>
      </trkpt>
      <trkpt lat="47.27299" lon="-2.44964">
        <ele>-17.799999237061</ele>
        <time>2021-02-18T09:34:58.000Z</time>
      </trkpt>
      <trkpt lat="47.27284" lon="-2.44965">
        <ele>-17.799999237061</ele>
        <time>2021-02-18T09:35:01.000Z</time>
      </trkpt>
      <trkpt lat="47.27245" lon="-2.44976">
        <ele>-17.799999237061</ele>
        <time>2021-02-18T09:35:09.000Z</time>
      </trkpt>
      <trkpt lat="47.2723" lon="-2.44982">
        <ele>-17.799999237061</ele>
        <time>2021-02-18T09:35:12.000Z</time>
      </trkpt>
      <trkpt lat="47.27221" lon="-2.44986">
        <ele>-17.799999237061</ele>
        <time>2021-02-18T09:35:14.000Z</time>
      </trkpt>
      <trkpt lat="47.27181" lon="-2.44995">
        <ele>-17.799999237061</ele>
        <time>2021-02-18T09:35:22.000Z</time>
      </trkpt>
      <trkpt lat="47.27147" lon="-2.45">
        <ele>-17.799999237061</ele>
        <time>2021-02-18T09:35:29.000Z</time>
      </trkpt>
      <trkpt lat="47.27117" lon="-2.45001">
        <ele>-17.39999961853</ele>
        <time>2021-02-18T09:35:35.000Z</time>
      </trkpt>
      <trkpt lat="47.27112" lon="-2.45001">
        <ele>-17</ele>
        <time>2021-02-18T09:35:36.000Z</time>
      </trkpt>
      <trkpt lat="47.27107" lon="-2.45001">
        <ele>-16.60000038147</ele>
        <time>2021-02-18T09:35:37.000Z</time>
      </trkpt>
      <trkpt lat="47.27102" lon="-2.45001">
        <ele>-16.200000762939</ele>
        <time>2021-02-18T09:35:38.000Z</time>
      </trkpt>
      <trkpt lat="47.27097" lon="-2.45">
        <ele>-15.800000190735</ele>
        <time>2021-02-18T09:35:39.000Z</time>
      </trkpt>
      <trkpt lat="47.27079" lon="-2.44995">
        <ele>-15.800000190735</ele>
        <time>2021-02-18T09:35:43.000Z</time>
      </trkpt>
      <trkpt lat="47.27065" lon="-2.44999">
        <ele>-15.800000190735</ele>
        <time>2021-02-18T09:35:48.000Z</time>
      </trkpt>
      <trkpt lat="47.27063" lon="-2.45019">
        <ele>-15.800000190735</ele>
        <time>2021-02-18T09:35:52.000Z</time>
      </trkpt>
      <trkpt lat="47.27064" lon="-2.45028">
        <ele>-15.800000190735</ele>
        <time>2021-02-18T09:35:55.000Z</time>
      </trkpt>
      <trkpt lat="47.27062" lon="-2.45054">
        <ele>-15.800000190735</ele>
        <time>2021-02-18T09:36:03.000Z</time>
      </trkpt>
      <trkpt lat="47.27062" lon="-2.45075">
        <ele>-15.39999961853</ele>
        <time>2021-02-18T09:36:08.000Z</time>
      </trkpt>
      <trkpt lat="47.27062" lon="-2.45079">
        <ele>-15</ele>
        <time>2021-02-18T09:36:09.000Z</time>
      </trkpt>
      <trkpt lat="47.27063" lon="-2.45084">
        <ele>-14.60000038147</ele>
        <time>2021-02-18T09:36:10.000Z</time>
      </trkpt>
      <trkpt lat="47.27062" lon="-2.45089">
        <ele>-14.199999809265</ele>
        <time>2021-02-18T09:36:11.000Z</time>
      </trkpt>
      <trkpt lat="47.27062" lon="-2.45094">
        <ele>-13.800000190735</ele>
        <time>2021-02-18T09:36:12.000Z</time>
      </trkpt>
      <trkpt lat="47.27061" lon="-2.45115">
        <ele>-13.800000190735</ele>
        <time>2021-02-18T09:36:16.000Z</time>
      </trkpt>
      <trkpt lat="47.27062" lon="-2.45143">
        <ele>-13.800000190735</ele>
        <time>2021-02-18T09:36:22.000Z</time>
      </trkpt>
      <trkpt lat="47.27062" lon="-2.45147">
        <ele>-13.800000190735</ele>
        <time>2021-02-18T09:36:24.000Z</time>
      </trkpt>
      <trkpt lat="47.27059" lon="-2.45151">
        <ele>-13.800000190735</ele>
        <time>2021-02-18T09:36:27.000Z</time>
      </trkpt>
      <trkpt lat="47.27049" lon="-2.45151">
        <ele>-13.800000190735</ele>
        <time>2021-02-18T09:36:31.000Z</time>
      </trkpt>
      <trkpt lat="47.27041" lon="-2.45153">
        <ele>-13.800000190735</ele>
        <time>2021-02-18T09:36:33.000Z</time>
      </trkpt>
      <trkpt lat="47.2703" lon="-2.45154">
        <ele>-13.800000190735</ele>
        <time>2021-02-18T09:36:36.000Z</time>
      </trkpt>
      <trkpt lat="47.27003" lon="-2.45155">
        <ele>-13.800000190735</ele>
        <time>2021-02-18T09:36:43.000Z</time>
      </trkpt>
      <trkpt lat="47.26991" lon="-2.45158">
        <ele>-13.800000190735</ele>
        <time>2021-02-18T09:36:48.000Z</time>
      </trkpt>
      <trkpt lat="47.26984" lon="-2.45159">
        <ele>-13.800000190735</ele>
        <time>2021-02-18T09:36:52.000Z</time>
      </trkpt>
      <trkpt lat="47.26983" lon="-2.45157">
        <ele>-13.800000190735</ele>
        <time>2021-02-18T09:36:53.000Z</time>
      </trkpt>
      <trkpt lat="47.26975" lon="-2.45153">
        <ele>-13.800000190735</ele>
        <time>2021-02-18T09:36:58.000Z</time>
      </trkpt>
      <trkpt lat="47.26974" lon="-2.45163">
        <ele>-13.800000190735</ele>
        <time>2021-02-18T09:37:01.000Z</time>
      </trkpt>
      <trkpt lat="47.26975" lon="-2.45178">
        <ele>-13.800000190735</ele>
        <time>2021-02-18T09:37:04.000Z</time>
      </trkpt>
      <trkpt lat="47.26976" lon="-2.4519">
        <ele>-13.800000190735</ele>
        <time>2021-02-18T09:37:06.000Z</time>
      </trkpt>
      <trkpt lat="47.26977" lon="-2.45202">
        <ele>-13.800000190735</ele>
        <time>2021-02-18T09:37:08.000Z</time>
      </trkpt>
      <trkpt lat="47.2698" lon="-2.45224">
        <ele>-13.800000190735</ele>
        <time>2021-02-18T09:37:12.000Z</time>
      </trkpt>
      <trkpt lat="47.26981" lon="-2.45247">
        <ele>-13.800000190735</ele>
        <time>2021-02-18T09:37:17.000Z</time>
      </trkpt>
      <trkpt lat="47.26979" lon="-2.45293">
        <ele>-13.800000190735</ele>
        <time>2021-02-18T09:37:23.000Z</time>
      </trkpt>
      <trkpt lat="47.26979" lon="-2.45307">
        <ele>-13.800000190735</ele>
        <time>2021-02-18T09:37:25.000Z</time>
      </trkpt>
      <trkpt lat="47.26977" lon="-2.45334">
        <ele>-13.800000190735</ele>
        <time>2021-02-18T09:37:29.000Z</time>
      </trkpt>
      <trkpt lat="47.26972" lon="-2.45378">
        <ele>-13.800000190735</ele>
        <time>2021-02-18T09:37:36.000Z</time>
      </trkpt>
      <trkpt lat="47.2697" lon="-2.45406">
        <ele>-13.800000190735</ele>
        <time>2021-02-18T09:37:41.000Z</time>
      </trkpt>
      <trkpt lat="47.26968" lon="-2.45453">
        <ele>-13.800000190735</ele>
        <time>2021-02-18T09:37:48.000Z</time>
      </trkpt>
      <trkpt lat="47.26967" lon="-2.45509">
        <ele>-13.800000190735</ele>
        <time>2021-02-18T09:37:56.000Z</time>
      </trkpt>
      <trkpt lat="47.26967" lon="-2.45566">
        <ele>-13.800000190735</ele>
        <time>2021-02-18T09:38:04.000Z</time>
      </trkpt>
      <trkpt lat="47.26967" lon="-2.45618">
        <ele>-13.800000190735</ele>
        <time>2021-02-18T09:38:12.000Z</time>
      </trkpt>
      <trkpt lat="47.26967" lon="-2.45635">
        <ele>-13.800000190735</ele>
        <time>2021-02-18T09:38:15.000Z</time>
      </trkpt>
      <trkpt lat="47.2697" lon="-2.45647">
        <ele>-13.800000190735</ele>
        <time>2021-02-18T09:38:17.000Z</time>
      </trkpt>
      <trkpt lat="47.26987" lon="-2.45666">
        <ele>-13.800000190735</ele>
        <time>2021-02-18T09:38:21.000Z</time>
      </trkpt>
      <trkpt lat="47.26991" lon="-2.4567">
        <ele>-13.800000190735</ele>
        <time>2021-02-18T09:38:22.000Z</time>
      </trkpt>
      <trkpt lat="47.27017" lon="-2.4569">
        <ele>-13.800000190735</ele>
        <time>2021-02-18T09:38:28.000Z</time>
      </trkpt>
      <trkpt lat="47.27054" lon="-2.45715">
        <ele>-13.800000190735</ele>
        <time>2021-02-18T09:38:36.000Z</time>
      </trkpt>
      <trkpt lat="47.27083" lon="-2.45734">
        <ele>-13.800000190735</ele>
        <time>2021-02-18T09:38:42.000Z</time>
      </trkpt>
      <trkpt lat="47.27091" lon="-2.45741">
        <ele>-13.800000190735</ele>
        <time>2021-02-18T09:38:44.000Z</time>
      </trkpt>
      <trkpt lat="47.27099" lon="-2.45742">
        <ele>-13.800000190735</ele>
        <time>2021-02-18T09:38:46.000Z</time>
      </trkpt>
      <trkpt lat="47.27108" lon="-2.45737">
        <ele>-13.800000190735</ele>
        <time>2021-02-18T09:38:48.000Z</time>
      </trkpt>
      <trkpt lat="47.27127" lon="-2.45728">
        <ele>-13.800000190735</ele>
        <time>2021-02-18T09:38:52.000Z</time>
      </trkpt>
      <trkpt lat="47.27166" lon="-2.45717">
        <ele>-13.800000190735</ele>
        <time>2021-02-18T09:38:59.000Z</time>
      </trkpt>
      <trkpt lat="47.27172" lon="-2.45716">
        <ele>-13.800000190735</ele>
        <time>2021-02-18T09:39:00.000Z</time>
      </trkpt>
      <trkpt lat="47.27188" lon="-2.45713">
        <ele>-13.800000190735</ele>
        <time>2021-02-18T09:39:03.000Z</time>
      </trkpt>
      <trkpt lat="47.27193" lon="-2.45711">
        <ele>-13.800000190735</ele>
        <time>2021-02-18T09:39:04.000Z</time>
      </trkpt>
      <trkpt lat="47.27221" lon="-2.45702">
        <ele>-13.800000190735</ele>
        <time>2021-02-18T09:39:09.000Z</time>
      </trkpt>
      <trkpt lat="47.27226" lon="-2.45698">
        <ele>-13.800000190735</ele>
        <time>2021-02-18T09:39:10.000Z</time>
      </trkpt>
      <trkpt lat="47.27236" lon="-2.45688">
        <ele>-14.199999809265</ele>
        <time>2021-02-18T09:39:12.000Z</time>
      </trkpt>
      <trkpt lat="47.27241" lon="-2.45683">
        <ele>-14.60000038147</ele>
        <time>2021-02-18T09:39:13.000Z</time>
      </trkpt>
      <trkpt lat="47.27246" lon="-2.4568">
        <ele>-15</ele>
        <time>2021-02-18T09:39:14.000Z</time>
      </trkpt>
      <trkpt lat="47.27251" lon="-2.45677">
        <ele>-15.800000190735</ele>
        <time>2021-02-18T09:39:15.000Z</time>
      </trkpt>
      <trkpt lat="47.27282" lon="-2.4566">
        <ele>-15.800000190735</ele>
        <time>2021-02-18T09:39:21.000Z</time>
      </trkpt>
      <trkpt lat="47.27288" lon="-2.45657">
        <ele>-15.800000190735</ele>
        <time>2021-02-18T09:39:22.000Z</time>
      </trkpt>
      <trkpt lat="47.27314" lon="-2.45639">
        <ele>-15.800000190735</ele>
        <time>2021-02-18T09:39:27.000Z</time>
      </trkpt>
      <trkpt lat="47.27319" lon="-2.45638">
        <ele>-15.800000190735</ele>
        <time>2021-02-18T09:39:28.000Z</time>
      </trkpt>
      <trkpt lat="47.2733" lon="-2.45647">
        <ele>-15.800000190735</ele>
        <time>2021-02-18T09:39:31.000Z</time>
      </trkpt>
      <trkpt lat="47.27334" lon="-2.4566">
        <ele>-15.800000190735</ele>
        <time>2021-02-18T09:39:33.000Z</time>
      </trkpt>
      <trkpt lat="47.27335" lon="-2.45667">
        <ele>-15.800000190735</ele>
        <time>2021-02-18T09:39:34.000Z</time>
      </trkpt>
      <trkpt lat="47.27339" lon="-2.45682">
        <ele>-15.800000190735</ele>
        <time>2021-02-18T09:39:36.000Z</time>
      </trkpt>
      <trkpt lat="47.27348" lon="-2.45704">
        <ele>-15.800000190735</ele>
        <time>2021-02-18T09:39:39.000Z</time>
      </trkpt>
      <trkpt lat="47.27356" lon="-2.45727">
        <ele>-15.800000190735</ele>
        <time>2021-02-18T09:39:42.000Z</time>
      </trkpt>
      <trkpt lat="47.2737" lon="-2.45769">
        <ele>-15.800000190735</ele>
        <time>2021-02-18T09:39:48.000Z</time>
      </trkpt>
      <trkpt lat="47.27382" lon="-2.45781">
        <ele>-15.800000190735</ele>
        <time>2021-02-18T09:39:52.000Z</time>
      </trkpt>
      <trkpt lat="47.27392" lon="-2.45778">
        <ele>-15.800000190735</ele>
        <time>2021-02-18T09:39:54.000Z</time>
      </trkpt>
      <trkpt lat="47.27408" lon="-2.45774">
        <ele>-15.800000190735</ele>
        <time>2021-02-18T09:39:57.000Z</time>
      </trkpt>
      <trkpt lat="47.27452" lon="-2.45764">
        <ele>-15.800000190735</ele>
        <time>2021-02-18T09:40:05.000Z</time>
      </trkpt>
      <trkpt lat="47.27462" lon="-2.45762">
        <ele>-15.800000190735</ele>
        <time>2021-02-18T09:40:07.000Z</time>
      </trkpt>
      <trkpt lat="47.27484" lon="-2.45753">
        <ele>-15.800000190735</ele>
        <time>2021-02-18T09:40:11.000Z</time>
      </trkpt>
      <trkpt lat="47.27529" lon="-2.45738">
        <ele>-15.800000190735</ele>
        <time>2021-02-18T09:40:19.000Z</time>
      </trkpt>
      <trkpt lat="47.27556" lon="-2.45728">
        <ele>-15.800000190735</ele>
        <time>2021-02-18T09:40:25.000Z</time>
      </trkpt>
      <trkpt lat="47.27577" lon="-2.4572">
        <ele>-15.800000190735</ele>
        <time>2021-02-18T09:40:31.000Z</time>
      </trkpt>
      <trkpt lat="47.27604" lon="-2.45712">
        <ele>-15.800000190735</ele>
        <time>2021-02-18T09:40:38.000Z</time>
      </trkpt>
      <trkpt lat="47.27623" lon="-2.45706">
        <ele>-15.800000190735</ele>
        <time>2021-02-18T09:40:44.000Z</time>
      </trkpt>
      <trkpt lat="47.27628" lon="-2.45707">
        <ele>-15.800000190735</ele>
        <time>2021-02-18T09:40:46.000Z</time>
      </trkpt>
      <trkpt lat="47.27629" lon="-2.4571">
        <ele>-15.800000190735</ele>
        <time>2021-02-18T09:40:47.000Z</time>
      </trkpt>
      <trkpt lat="47.27637" lon="-2.4574">
        <ele>-15.800000190735</ele>
        <time>2021-02-18T09:40:53.000Z</time>
      </trkpt>
      <trkpt lat="47.2764" lon="-2.45764">
        <ele>-15.800000190735</ele>
        <time>2021-02-18T09:40:56.000Z</time>
      </trkpt>
      <trkpt lat="47.27641" lon="-2.45782">
        <ele>-15.800000190735</ele>
        <time>2021-02-18T09:40:58.000Z</time>
      </trkpt>
      <trkpt lat="47.27642" lon="-2.4579">
        <ele>-16.200000762939</ele>
        <time>2021-02-18T09:40:59.000Z</time>
      </trkpt>
      <trkpt lat="47.27642" lon="-2.45799">
        <ele>-16.799999237061</ele>
        <time>2021-02-18T09:41:00.000Z</time>
      </trkpt>
      <trkpt lat="47.27643" lon="-2.45807">
        <ele>-17.200000762939</ele>
        <time>2021-02-18T09:41:01.000Z</time>
      </trkpt>
      <trkpt lat="47.27643" lon="-2.45816">
        <ele>-17.60000038147</ele>
        <time>2021-02-18T09:41:02.000Z</time>
      </trkpt>
      <trkpt lat="47.27643" lon="-2.45823">
        <ele>-18</ele>
        <time>2021-02-18T09:41:03.000Z</time>
      </trkpt>
      <trkpt lat="47.27643" lon="-2.45831">
        <ele>-18</ele>
        <time>2021-02-18T09:41:04.000Z</time>
      </trkpt>
      <trkpt lat="47.27642" lon="-2.45853">
        <ele>-18</ele>
        <time>2021-02-18T09:41:07.000Z</time>
      </trkpt>
      <trkpt lat="47.27642" lon="-2.45874">
        <ele>-18</ele>
        <time>2021-02-18T09:41:10.000Z</time>
      </trkpt>
      <trkpt lat="47.27641" lon="-2.459">
        <ele>-18.39999961853</ele>
        <time>2021-02-18T09:41:14.000Z</time>
      </trkpt>
      <trkpt lat="47.27641" lon="-2.45907">
        <ele>-18.799999237061</ele>
        <time>2021-02-18T09:41:15.000Z</time>
      </trkpt>
      <trkpt lat="47.27641" lon="-2.45914">
        <ele>-19.200000762939</ele>
        <time>2021-02-18T09:41:16.000Z</time>
      </trkpt>
      <trkpt lat="47.27641" lon="-2.4592">
        <ele>-19.60000038147</ele>
        <time>2021-02-18T09:41:17.000Z</time>
      </trkpt>
      <trkpt lat="47.2764" lon="-2.45927">
        <ele>-20</ele>
        <time>2021-02-18T09:41:18.000Z</time>
      </trkpt>
      <trkpt lat="47.2764" lon="-2.45946">
        <ele>-20</ele>
        <time>2021-02-18T09:41:21.000Z</time>
      </trkpt>
      <trkpt lat="47.27637" lon="-2.45958">
        <ele>-20</ele>
        <time>2021-02-18T09:41:23.000Z</time>
      </trkpt>
      <trkpt lat="47.27627" lon="-2.45966">
        <ele>-20</ele>
        <time>2021-02-18T09:41:26.000Z</time>
      </trkpt>
      <trkpt lat="47.2762" lon="-2.45971">
        <ele>-20</ele>
        <time>2021-02-18T09:41:28.000Z</time>
      </trkpt>
      <trkpt lat="47.27606" lon="-2.45983">
        <ele>-20</ele>
        <time>2021-02-18T09:41:32.000Z</time>
      </trkpt>
      <trkpt lat="47.27592" lon="-2.45994">
        <ele>-20</ele>
        <time>2021-02-18T09:41:37.000Z</time>
      </trkpt>
      <trkpt lat="47.2759" lon="-2.45996">
        <ele>-20</ele>
        <time>2021-02-18T09:41:39.000Z</time>
      </trkpt>
      <trkpt lat="47.27595" lon="-2.45993">
        <ele>-20</ele>
        <time>2021-02-18T09:43:38.000Z</time>
      </trkpt>
      <trkpt lat="47.27596" lon="-2.45992">
        <ele>-20</ele>
        <time>2021-02-18T09:43:39.000Z</time>
      </trkpt>
      <trkpt lat="47.27606" lon="-2.45979">
        <ele>-20</ele>
        <time>2021-02-18T09:43:46.000Z</time>
      </trkpt>
      <trkpt lat="47.27608" lon="-2.45978">
        <ele>-20</ele>
        <time>2021-02-18T09:43:47.000Z</time>
      </trkpt>
      <trkpt lat="47.27614" lon="-2.45971">
        <ele>-20</ele>
        <time>2021-02-18T09:43:51.000Z</time>
      </trkpt>
      <trkpt lat="47.27629" lon="-2.45961">
        <ele>-20</ele>
        <time>2021-02-18T09:43:58.000Z</time>
      </trkpt>
      <trkpt lat="47.27634" lon="-2.45959">
        <ele>-20</ele>
        <time>2021-02-18T09:44:00.000Z</time>
      </trkpt>
      <trkpt lat="47.27638" lon="-2.45963">
        <ele>-20</ele>
        <time>2021-02-18T09:44:02.000Z</time>
      </trkpt>
      <trkpt lat="47.2764" lon="-2.45975">
        <ele>-20</ele>
        <time>2021-02-18T09:44:06.000Z</time>
      </trkpt>
      <trkpt lat="47.2764" lon="-2.45979">
        <ele>-20</ele>
        <time>2021-02-18T09:44:07.000Z</time>
      </trkpt>
      <trkpt lat="47.27643" lon="-2.4602">
        <ele>-20</ele>
        <time>2021-02-18T09:44:15.000Z</time>
      </trkpt>
      <trkpt lat="47.27651" lon="-2.46062">
        <ele>-20</ele>
        <time>2021-02-18T09:44:22.000Z</time>
      </trkpt>
      <trkpt lat="47.27655" lon="-2.46082">
        <ele>-20</ele>
        <time>2021-02-18T09:44:27.000Z</time>
      </trkpt>
      <trkpt lat="47.2766" lon="-2.46109">
        <ele>-20</ele>
        <time>2021-02-18T09:44:34.000Z</time>
      </trkpt>
      <trkpt lat="47.27663" lon="-2.46129">
        <ele>-20</ele>
        <time>2021-02-18T09:44:40.000Z</time>
      </trkpt>
      <trkpt lat="47.27667" lon="-2.46155">
        <ele>-20</ele>
        <time>2021-02-18T09:44:46.000Z</time>
      </trkpt>
      <trkpt lat="47.27666" lon="-2.46183">
        <ele>-20</ele>
        <time>2021-02-18T09:44:51.000Z</time>
      </trkpt>
      <trkpt lat="47.27668" lon="-2.46221">
        <ele>-20</ele>
        <time>2021-02-18T09:44:57.000Z</time>
      </trkpt>
      <trkpt lat="47.2767" lon="-2.46263">
        <ele>-20</ele>
        <time>2021-02-18T09:45:04.000Z</time>
      </trkpt>
      <trkpt lat="47.27661" lon="-2.4628">
        <ele>-20</ele>
        <time>2021-02-18T09:45:08.000Z</time>
      </trkpt>
      <trkpt lat="47.27659" lon="-2.46285">
        <ele>-20</ele>
        <time>2021-02-18T09:45:09.000Z</time>
      </trkpt>
      <trkpt lat="47.2766" lon="-2.46295">
        <ele>-20</ele>
        <time>2021-02-18T09:45:11.000Z</time>
      </trkpt>
      <trkpt lat="47.27671" lon="-2.46318">
        <ele>-20</ele>
        <time>2021-02-18T09:45:16.000Z</time>
      </trkpt>
      <trkpt lat="47.27672" lon="-2.46323">
        <ele>-20</ele>
        <time>2021-02-18T09:45:17.000Z</time>
      </trkpt>
      <trkpt lat="47.27677" lon="-2.46351">
        <ele>-20</ele>
        <time>2021-02-18T09:45:22.000Z</time>
      </trkpt>
      <trkpt lat="47.27678" lon="-2.46357">
        <ele>-20</ele>
        <time>2021-02-18T09:45:23.000Z</time>
      </trkpt>
      <trkpt lat="47.27683" lon="-2.46375">
        <ele>-19.60000038147</ele>
        <time>2021-02-18T09:45:26.000Z</time>
      </trkpt>
      <trkpt lat="47.27686" lon="-2.46381">
        <ele>-19.200000762939</ele>
        <time>2021-02-18T09:45:27.000Z</time>
      </trkpt>
      <trkpt lat="47.27688" lon="-2.46387">
        <ele>-18.799999237061</ele>
        <time>2021-02-18T09:45:28.000Z</time>
      </trkpt>
      <trkpt lat="47.2769" lon="-2.46394">
        <ele>-18.39999961853</ele>
        <time>2021-02-18T09:45:29.000Z</time>
      </trkpt>
      <trkpt lat="47.27692" lon="-2.464">
        <ele>-18</ele>
        <time>2021-02-18T09:45:30.000Z</time>
      </trkpt>
      <trkpt lat="47.27695" lon="-2.46405">
        <ele>-18</ele>
        <time>2021-02-18T09:45:31.000Z</time>
      </trkpt>
      <trkpt lat="47.27697" lon="-2.4641">
        <ele>-18</ele>
        <time>2021-02-18T09:45:32.000Z</time>
      </trkpt>
      <trkpt lat="47.27704" lon="-2.46427">
        <ele>-18</ele>
        <time>2021-02-18T09:45:35.000Z</time>
      </trkpt>
      <trkpt lat="47.27709" lon="-2.46438">
        <ele>-18</ele>
        <time>2021-02-18T09:45:37.000Z</time>
      </trkpt>
      <trkpt lat="47.27715" lon="-2.4645">
        <ele>-18</ele>
        <time>2021-02-18T09:45:39.000Z</time>
      </trkpt>
      <trkpt lat="47.2772" lon="-2.46462">
        <ele>-18</ele>
        <time>2021-02-18T09:45:41.000Z</time>
      </trkpt>
      <trkpt lat="47.27727" lon="-2.46481">
        <ele>-18</ele>
        <time>2021-02-18T09:45:44.000Z</time>
      </trkpt>
      <trkpt lat="47.27737" lon="-2.46523">
        <ele>-18</ele>
        <time>2021-02-18T09:45:51.000Z</time>
      </trkpt>
      <trkpt lat="47.27746" lon="-2.46558">
        <ele>-18</ele>
        <time>2021-02-18T09:45:57.000Z</time>
      </trkpt>
      <trkpt lat="47.2775" lon="-2.46568">
        <ele>-18</ele>
        <time>2021-02-18T09:45:59.000Z</time>
      </trkpt>
      <trkpt lat="47.27752" lon="-2.46574">
        <ele>-18</ele>
        <time>2021-02-18T09:46:00.000Z</time>
      </trkpt>
      <trkpt lat="47.27757" lon="-2.46583">
        <ele>-18</ele>
        <time>2021-02-18T09:46:02.000Z</time>
      </trkpt>
      <trkpt lat="47.27762" lon="-2.46591">
        <ele>-18</ele>
        <time>2021-02-18T09:46:04.000Z</time>
      </trkpt>
      <trkpt lat="47.27767" lon="-2.46608">
        <ele>-18</ele>
        <time>2021-02-18T09:46:08.000Z</time>
      </trkpt>
      <trkpt lat="47.27765" lon="-2.46616">
        <ele>-18</ele>
        <time>2021-02-18T09:46:10.000Z</time>
      </trkpt>
      <trkpt lat="47.27762" lon="-2.46624">
        <ele>-18</ele>
        <time>2021-02-18T09:46:12.000Z</time>
      </trkpt>
      <trkpt lat="47.27764" lon="-2.46639">
        <ele>-18</ele>
        <time>2021-02-18T09:46:15.000Z</time>
      </trkpt>
      <trkpt lat="47.27765" lon="-2.46656">
        <ele>-18</ele>
        <time>2021-02-18T09:46:18.000Z</time>
      </trkpt>
      <trkpt lat="47.27764" lon="-2.46663">
        <ele>-18</ele>
        <time>2021-02-18T09:46:19.000Z</time>
      </trkpt>
      <trkpt lat="47.27763" lon="-2.46669">
        <ele>-18</ele>
        <time>2021-02-18T09:46:20.000Z</time>
      </trkpt>
      <trkpt lat="47.27763" lon="-2.46684">
        <ele>-18.39999961853</ele>
        <time>2021-02-18T09:46:22.000Z</time>
      </trkpt>
      <trkpt lat="47.27763" lon="-2.46691">
        <ele>-18.799999237061</ele>
        <time>2021-02-18T09:46:23.000Z</time>
      </trkpt>
      <trkpt lat="47.27763" lon="-2.46698">
        <ele>-19.200000762939</ele>
        <time>2021-02-18T09:46:24.000Z</time>
      </trkpt>
      <trkpt lat="47.27761" lon="-2.46705">
        <ele>-19.60000038147</ele>
        <time>2021-02-18T09:46:25.000Z</time>
      </trkpt>
      <trkpt lat="47.27759" lon="-2.4671">
        <ele>-20</ele>
        <time>2021-02-18T09:46:26.000Z</time>
      </trkpt>
      <trkpt lat="47.27759" lon="-2.46717">
        <ele>-20</ele>
        <time>2021-02-18T09:46:27.000Z</time>
      </trkpt>
      <trkpt lat="47.27762" lon="-2.46735">
        <ele>-20</ele>
        <time>2021-02-18T09:46:30.000Z</time>
      </trkpt>
      <trkpt lat="47.27765" lon="-2.46747">
        <ele>-20</ele>
        <time>2021-02-18T09:46:32.000Z</time>
      </trkpt>
      <trkpt lat="47.27775" lon="-2.46786">
        <ele>-20</ele>
        <time>2021-02-18T09:46:38.000Z</time>
      </trkpt>
      <trkpt lat="47.27782" lon="-2.46818">
        <ele>-20</ele>
        <time>2021-02-18T09:46:44.000Z</time>
      </trkpt>
      <trkpt lat="47.27786" lon="-2.46853">
        <ele>-20</ele>
        <time>2021-02-18T09:46:50.000Z</time>
      </trkpt>
      <trkpt lat="47.27784" lon="-2.46876">
        <ele>-20</ele>
        <time>2021-02-18T09:46:56.000Z</time>
      </trkpt>
      <trkpt lat="47.27784" lon="-2.46883">
        <ele>-20</ele>
        <time>2021-02-18T09:46:58.000Z</time>
      </trkpt>
      <trkpt lat="47.27789" lon="-2.46886">
        <ele>-20</ele>
        <time>2021-02-18T09:47:00.000Z</time>
      </trkpt>
      <trkpt lat="47.27801" lon="-2.46901">
        <ele>-20</ele>
        <time>2021-02-18T09:47:04.000Z</time>
      </trkpt>
      <trkpt lat="47.27804" lon="-2.46905">
        <ele>-20</ele>
        <time>2021-02-18T09:47:05.000Z</time>
      </trkpt>
      <trkpt lat="47.27806" lon="-2.4691">
        <ele>-20</ele>
        <time>2021-02-18T09:47:06.000Z</time>
      </trkpt>
      <trkpt lat="47.27814" lon="-2.46927">
        <ele>-20</ele>
        <time>2021-02-18T09:47:09.000Z</time>
      </trkpt>
      <trkpt lat="47.27831" lon="-2.46942">
        <ele>-20</ele>
        <time>2021-02-18T09:47:13.000Z</time>
      </trkpt>
      <trkpt lat="47.27836" lon="-2.46945">
        <ele>-20</ele>
        <time>2021-02-18T09:47:14.000Z</time>
      </trkpt>
      <trkpt lat="47.27846" lon="-2.46952">
        <ele>-20.39999961853</ele>
        <time>2021-02-18T09:47:16.000Z</time>
      </trkpt>
      <trkpt lat="47.27851" lon="-2.46956">
        <ele>-20.799999237061</ele>
        <time>2021-02-18T09:47:17.000Z</time>
      </trkpt>
      <trkpt lat="47.27856" lon="-2.4696">
        <ele>-21.200000762939</ele>
        <time>2021-02-18T09:47:18.000Z</time>
      </trkpt>
      <trkpt lat="47.27861" lon="-2.46964">
        <ele>-21.60000038147</ele>
        <time>2021-02-18T09:47:19.000Z</time>
      </trkpt>
      <trkpt lat="47.27865" lon="-2.46968">
        <ele>-22</ele>
        <time>2021-02-18T09:47:20.000Z</time>
      </trkpt>
      <trkpt lat="47.27901" lon="-2.47002">
        <ele>-22</ele>
        <time>2021-02-18T09:47:28.000Z</time>
      </trkpt>
      <trkpt lat="47.27933" lon="-2.47041">
        <ele>-22</ele>
        <time>2021-02-18T09:47:36.000Z</time>
      </trkpt>
      <trkpt lat="47.2795" lon="-2.47078">
        <ele>-22</ele>
        <time>2021-02-18T09:47:42.000Z</time>
      </trkpt>
      <trkpt lat="47.27963" lon="-2.47117">
        <ele>-22</ele>
        <time>2021-02-18T09:47:48.000Z</time>
      </trkpt>
      <trkpt lat="47.27966" lon="-2.47132">
        <ele>-22</ele>
        <time>2021-02-18T09:47:50.000Z</time>
      </trkpt>
      <trkpt lat="47.27975" lon="-2.47179">
        <ele>-22</ele>
        <time>2021-02-18T09:47:56.000Z</time>
      </trkpt>
      <trkpt lat="47.27986" lon="-2.47246">
        <ele>-22</ele>
        <time>2021-02-18T09:48:05.000Z</time>
      </trkpt>
      <trkpt lat="47.27993" lon="-2.47297">
        <ele>-22</ele>
        <time>2021-02-18T09:48:13.000Z</time>
      </trkpt>
      <trkpt lat="47.28003" lon="-2.47329">
        <ele>-22</ele>
        <time>2021-02-18T09:48:19.000Z</time>
      </trkpt>
      <trkpt lat="47.28012" lon="-2.47337">
        <ele>-22</ele>
        <time>2021-02-18T09:48:22.000Z</time>
      </trkpt>
      <trkpt lat="47.28017" lon="-2.47336">
        <ele>-22</ele>
        <time>2021-02-18T09:48:23.000Z</time>
      </trkpt>
      <trkpt lat="47.28051" lon="-2.47324">
        <ele>-22</ele>
        <time>2021-02-18T09:48:30.000Z</time>
      </trkpt>
      <trkpt lat="47.28082" lon="-2.47318">
        <ele>-22</ele>
        <time>2021-02-18T09:48:36.000Z</time>
      </trkpt>
      <trkpt lat="47.28115" lon="-2.47311">
        <ele>-22</ele>
        <time>2021-02-18T09:48:42.000Z</time>
      </trkpt>
      <trkpt lat="47.28119" lon="-2.47313">
        <ele>-22</ele>
        <time>2021-02-18T09:48:43.000Z</time>
      </trkpt>
      <trkpt lat="47.28126" lon="-2.4733">
        <ele>-22</ele>
        <time>2021-02-18T09:48:46.000Z</time>
      </trkpt>
      <trkpt lat="47.28126" lon="-2.47344">
        <ele>-22</ele>
        <time>2021-02-18T09:48:48.000Z</time>
      </trkpt>
      <trkpt lat="47.28125" lon="-2.47351">
        <ele>-22</ele>
        <time>2021-02-18T09:48:49.000Z</time>
      </trkpt>
      <trkpt lat="47.28124" lon="-2.47358">
        <ele>-22</ele>
        <time>2021-02-18T09:48:50.000Z</time>
      </trkpt>
      <trkpt lat="47.28115" lon="-2.47401">
        <ele>-22</ele>
        <time>2021-02-18T09:48:57.000Z</time>
      </trkpt>
      <trkpt lat="47.28101" lon="-2.47472">
        <ele>-22</ele>
        <time>2021-02-18T09:49:08.000Z</time>
      </trkpt>
      <trkpt lat="47.28089" lon="-2.47529">
        <ele>-22</ele>
        <time>2021-02-18T09:49:17.000Z</time>
      </trkpt>
      <trkpt lat="47.28081" lon="-2.47584">
        <ele>-22</ele>
        <time>2021-02-18T09:49:25.000Z</time>
      </trkpt>
      <trkpt lat="47.28079" lon="-2.47628">
        <ele>-22</ele>
        <time>2021-02-18T09:49:31.000Z</time>
      </trkpt>
      <trkpt lat="47.28081" lon="-2.47686">
        <ele>-22</ele>
        <time>2021-02-18T09:49:39.000Z</time>
      </trkpt>
      <trkpt lat="47.28089" lon="-2.47734">
        <ele>-22</ele>
        <time>2021-02-18T09:49:46.000Z</time>
      </trkpt>
      <trkpt lat="47.28096" lon="-2.47788">
        <ele>-22</ele>
        <time>2021-02-18T09:49:54.000Z</time>
      </trkpt>
      <trkpt lat="47.28105" lon="-2.47848">
        <ele>-22</ele>
        <time>2021-02-18T09:50:03.000Z</time>
      </trkpt>
      <trkpt lat="47.28107" lon="-2.4786">
        <ele>-22</ele>
        <time>2021-02-18T09:50:05.000Z</time>
      </trkpt>
      <trkpt lat="47.28112" lon="-2.47879">
        <ele>-22</ele>
        <time>2021-02-18T09:50:08.000Z</time>
      </trkpt>
      <trkpt lat="47.28111" lon="-2.47893">
        <ele>-22</ele>
        <time>2021-02-18T09:50:10.000Z</time>
      </trkpt>
      <trkpt lat="47.28112" lon="-2.479">
        <ele>-22</ele>
        <time>2021-02-18T09:50:11.000Z</time>
      </trkpt>
      <trkpt lat="47.28113" lon="-2.47908">
        <ele>-22</ele>
        <time>2021-02-18T09:50:12.000Z</time>
      </trkpt>
      <trkpt lat="47.28125" lon="-2.47933">
        <ele>-22</ele>
        <time>2021-02-18T09:50:16.000Z</time>
      </trkpt>
      <trkpt lat="47.28144" lon="-2.47947">
        <ele>-22</ele>
        <time>2021-02-18T09:50:20.000Z</time>
      </trkpt>
      <trkpt lat="47.28148" lon="-2.4795">
        <ele>-22</ele>
        <time>2021-02-18T09:50:21.000Z</time>
      </trkpt>
      <trkpt lat="47.28152" lon="-2.47954">
        <ele>-22</ele>
        <time>2021-02-18T09:50:22.000Z</time>
      </trkpt>
      <trkpt lat="47.28155" lon="-2.47967">
        <ele>-22</ele>
        <time>2021-02-18T09:50:24.000Z</time>
      </trkpt>
      <trkpt lat="47.28154" lon="-2.47995">
        <ele>-22</ele>
        <time>2021-02-18T09:50:28.000Z</time>
      </trkpt>
      <trkpt lat="47.28156" lon="-2.48008">
        <ele>-22</ele>
        <time>2021-02-18T09:50:30.000Z</time>
      </trkpt>
      <trkpt lat="47.2816" lon="-2.48045">
        <ele>-22</ele>
        <time>2021-02-18T09:50:35.000Z</time>
      </trkpt>
      <trkpt lat="47.28167" lon="-2.48097">
        <ele>-22</ele>
        <time>2021-02-18T09:50:42.000Z</time>
      </trkpt>
      <trkpt lat="47.28175" lon="-2.48167">
        <ele>-22</ele>
        <time>2021-02-18T09:50:51.000Z</time>
      </trkpt>
      <trkpt lat="47.28177" lon="-2.48174">
        <ele>-21.60000038147</ele>
        <time>2021-02-18T09:50:52.000Z</time>
      </trkpt>
      <trkpt lat="47.28178" lon="-2.48182">
        <ele>-21.200000762939</ele>
        <time>2021-02-18T09:50:53.000Z</time>
      </trkpt>
      <trkpt lat="47.28179" lon="-2.48189">
        <ele>-20.799999237061</ele>
        <time>2021-02-18T09:50:54.000Z</time>
      </trkpt>
      <trkpt lat="47.28181" lon="-2.48197">
        <ele>-20.39999961853</ele>
        <time>2021-02-18T09:50:55.000Z</time>
      </trkpt>
      <trkpt lat="47.28182" lon="-2.48203">
        <ele>-20</ele>
        <time>2021-02-18T09:50:56.000Z</time>
      </trkpt>
      <trkpt lat="47.28186" lon="-2.48217">
        <ele>-20</ele>
        <time>2021-02-18T09:50:58.000Z</time>
      </trkpt>
      <trkpt lat="47.28189" lon="-2.48223">
        <ele>-20</ele>
        <time>2021-02-18T09:50:59.000Z</time>
      </trkpt>
      <trkpt lat="47.28199" lon="-2.48237">
        <ele>-20</ele>
        <time>2021-02-18T09:51:02.000Z</time>
      </trkpt>
      <trkpt lat="47.282" lon="-2.48258">
        <ele>-20</ele>
        <time>2021-02-18T09:51:05.000Z</time>
      </trkpt>
      <trkpt lat="47.28198" lon="-2.48272">
        <ele>-20</ele>
        <time>2021-02-18T09:51:07.000Z</time>
      </trkpt>
      <trkpt lat="47.28193" lon="-2.48305">
        <ele>-20</ele>
        <time>2021-02-18T09:51:12.000Z</time>
      </trkpt>
      <trkpt lat="47.28192" lon="-2.48326">
        <ele>-20</ele>
        <time>2021-02-18T09:51:15.000Z</time>
      </trkpt>
      <trkpt lat="47.28191" lon="-2.48346">
        <ele>-20</ele>
        <time>2021-02-18T09:51:18.000Z</time>
      </trkpt>
      <trkpt lat="47.2818" lon="-2.48358">
        <ele>-20</ele>
        <time>2021-02-18T09:51:21.000Z</time>
      </trkpt>
      <trkpt lat="47.28171" lon="-2.48362">
        <ele>-20</ele>
        <time>2021-02-18T09:51:23.000Z</time>
      </trkpt>
      <trkpt lat="47.28158" lon="-2.48365">
        <ele>-20</ele>
        <time>2021-02-18T09:51:26.000Z</time>
      </trkpt>
      <trkpt lat="47.2814" lon="-2.48366">
        <ele>-20</ele>
        <time>2021-02-18T09:51:30.000Z</time>
      </trkpt>
      <trkpt lat="47.2813" lon="-2.48363">
        <ele>-20</ele>
        <time>2021-02-18T09:51:32.000Z</time>
      </trkpt>
      <trkpt lat="47.28121" lon="-2.4836">
        <ele>-20</ele>
        <time>2021-02-18T09:51:34.000Z</time>
      </trkpt>
      <trkpt lat="47.28101" lon="-2.48353">
        <ele>-20</ele>
        <time>2021-02-18T09:51:38.000Z</time>
      </trkpt>
      <trkpt lat="47.2806" lon="-2.48339">
        <ele>-20</ele>
        <time>2021-02-18T09:51:46.000Z</time>
      </trkpt>
      <trkpt lat="47.28012" lon="-2.48321">
        <ele>-20</ele>
        <time>2021-02-18T09:51:55.000Z</time>
      </trkpt>
      <trkpt lat="47.27975" lon="-2.48307">
        <ele>-20</ele>
        <time>2021-02-18T09:52:02.000Z</time>
      </trkpt>
      <trkpt lat="47.2794" lon="-2.48293">
        <ele>-20</ele>
        <time>2021-02-18T09:52:10.000Z</time>
      </trkpt>
      <trkpt lat="47.27928" lon="-2.48292">
        <ele>-20</ele>
        <time>2021-02-18T09:52:14.000Z</time>
      </trkpt>
      <trkpt lat="47.27927" lon="-2.48295">
        <ele>-20</ele>
        <time>2021-02-18T09:52:15.000Z</time>
      </trkpt>
      <trkpt lat="47.27932" lon="-2.48324">
        <ele>-20</ele>
        <time>2021-02-18T09:52:20.000Z</time>
      </trkpt>
      <trkpt lat="47.2794" lon="-2.4837">
        <ele>-20</ele>
        <time>2021-02-18T09:52:26.000Z</time>
      </trkpt>
      <trkpt lat="47.27943" lon="-2.48393">
        <ele>-19.60000038147</ele>
        <time>2021-02-18T09:52:29.000Z</time>
      </trkpt>
      <trkpt lat="47.27944" lon="-2.48401">
        <ele>-19.200000762939</ele>
        <time>2021-02-18T09:52:30.000Z</time>
      </trkpt>
      <trkpt lat="47.27946" lon="-2.48409">
        <ele>-18.799999237061</ele>
        <time>2021-02-18T09:52:31.000Z</time>
      </trkpt>
      <trkpt lat="47.27947" lon="-2.48417">
        <ele>-18.39999961853</ele>
        <time>2021-02-18T09:52:32.000Z</time>
      </trkpt>
      <trkpt lat="47.27948" lon="-2.48424">
        <ele>-18</ele>
        <time>2021-02-18T09:52:33.000Z</time>
      </trkpt>
      <trkpt lat="47.27957" lon="-2.48492">
        <ele>-18</ele>
        <time>2021-02-18T09:52:42.000Z</time>
      </trkpt>
      <trkpt lat="47.27966" lon="-2.4856">
        <ele>-18</ele>
        <time>2021-02-18T09:52:51.000Z</time>
      </trkpt>
      <trkpt lat="47.2798" lon="-2.48635">
        <ele>-18</ele>
        <time>2021-02-18T09:52:59.000Z</time>
      </trkpt>
      <trkpt lat="47.27988" lon="-2.48688">
        <ele>-17.39999961853</ele>
        <time>2021-02-18T09:53:05.000Z</time>
      </trkpt>
      <trkpt lat="47.27989" lon="-2.48697">
        <ele>-17</ele>
        <time>2021-02-18T09:53:06.000Z</time>
      </trkpt>
      <trkpt lat="47.2799" lon="-2.48705">
        <ele>-16.60000038147</ele>
        <time>2021-02-18T09:53:07.000Z</time>
      </trkpt>
      <trkpt lat="47.27991" lon="-2.48714">
        <ele>-16.200000762939</ele>
        <time>2021-02-18T09:53:08.000Z</time>
      </trkpt>
      <trkpt lat="47.27993" lon="-2.48723">
        <ele>-15.800000190735</ele>
        <time>2021-02-18T09:53:09.000Z</time>
      </trkpt>
      <trkpt lat="47.27999" lon="-2.48756">
        <ele>-15.800000190735</ele>
        <time>2021-02-18T09:53:13.000Z</time>
      </trkpt>
      <trkpt lat="47.28002" lon="-2.48764">
        <ele>-15.800000190735</ele>
        <time>2021-02-18T09:53:14.000Z</time>
      </trkpt>
      <trkpt lat="47.28006" lon="-2.48781">
        <ele>-15.800000190735</ele>
        <time>2021-02-18T09:53:16.000Z</time>
      </trkpt>
      <trkpt lat="47.28006" lon="-2.48799">
        <ele>-15.800000190735</ele>
        <time>2021-02-18T09:53:18.000Z</time>
      </trkpt>
      <trkpt lat="47.28006" lon="-2.48808">
        <ele>-15.800000190735</ele>
        <time>2021-02-18T09:53:19.000Z</time>
      </trkpt>
      <trkpt lat="47.28011" lon="-2.48845">
        <ele>-15.800000190735</ele>
        <time>2021-02-18T09:53:23.000Z</time>
      </trkpt>
      <trkpt lat="47.28021" lon="-2.48917">
        <ele>-15.800000190735</ele>
        <time>2021-02-18T09:53:31.000Z</time>
      </trkpt>
      <trkpt lat="47.28034" lon="-2.48997">
        <ele>-15.800000190735</ele>
        <time>2021-02-18T09:53:40.000Z</time>
      </trkpt>
      <trkpt lat="47.28035" lon="-2.49006">
        <ele>-15.800000190735</ele>
        <time>2021-02-18T09:53:41.000Z</time>
      </trkpt>
      <trkpt lat="47.28046" lon="-2.4908">
        <ele>-15.800000190735</ele>
        <time>2021-02-18T09:53:49.000Z</time>
      </trkpt>
      <trkpt lat="47.28055" lon="-2.49141">
        <ele>-16.200000762939</ele>
        <time>2021-02-18T09:53:56.000Z</time>
      </trkpt>
      <trkpt lat="47.28056" lon="-2.49149">
        <ele>-16.60000038147</ele>
        <time>2021-02-18T09:53:57.000Z</time>
      </trkpt>
      <trkpt lat="47.28058" lon="-2.49157">
        <ele>-17.200000762939</ele>
        <time>2021-02-18T09:53:58.000Z</time>
      </trkpt>
      <trkpt lat="47.28059" lon="-2.49166">
        <ele>-17.60000038147</ele>
        <time>2021-02-18T09:53:59.000Z</time>
      </trkpt>
      <trkpt lat="47.2806" lon="-2.49174">
        <ele>-18</ele>
        <time>2021-02-18T09:54:00.000Z</time>
      </trkpt>
      <trkpt lat="47.28068" lon="-2.49227">
        <ele>-18</ele>
        <time>2021-02-18T09:54:06.000Z</time>
      </trkpt>
      <trkpt lat="47.28081" lon="-2.49309">
        <ele>-18.39999961853</ele>
        <time>2021-02-18T09:54:15.000Z</time>
      </trkpt>
      <trkpt lat="47.28082" lon="-2.49318">
        <ele>-18.799999237061</ele>
        <time>2021-02-18T09:54:16.000Z</time>
      </trkpt>
      <trkpt lat="47.28083" lon="-2.49327">
        <ele>-19.200000762939</ele>
        <time>2021-02-18T09:54:17.000Z</time>
      </trkpt>
      <trkpt lat="47.28085" lon="-2.49337">
        <ele>-19.60000038147</ele>
        <time>2021-02-18T09:54:18.000Z</time>
      </trkpt>
      <trkpt lat="47.28086" lon="-2.49346">
        <ele>-20</ele>
        <time>2021-02-18T09:54:19.000Z</time>
      </trkpt>
      <trkpt lat="47.28094" lon="-2.49392">
        <ele>-20</ele>
        <time>2021-02-18T09:54:24.000Z</time>
      </trkpt>
      <trkpt lat="47.28102" lon="-2.49452">
        <ele>-20</ele>
        <time>2021-02-18T09:54:31.000Z</time>
      </trkpt>
      <trkpt lat="47.28112" lon="-2.49509">
        <ele>-20</ele>
        <time>2021-02-18T09:54:38.000Z</time>
      </trkpt>
      <trkpt lat="47.28119" lon="-2.49551">
        <ele>-20</ele>
        <time>2021-02-18T09:54:43.000Z</time>
      </trkpt>
      <trkpt lat="47.28123" lon="-2.49566">
        <ele>-20</ele>
        <time>2021-02-18T09:54:45.000Z</time>
      </trkpt>
      <trkpt lat="47.28124" lon="-2.49573">
        <ele>-20</ele>
        <time>2021-02-18T09:54:46.000Z</time>
      </trkpt>
      <trkpt lat="47.28127" lon="-2.49604">
        <ele>-20</ele>
        <time>2021-02-18T09:54:50.000Z</time>
      </trkpt>
      <trkpt lat="47.28133" lon="-2.49649">
        <ele>-20</ele>
        <time>2021-02-18T09:54:56.000Z</time>
      </trkpt>
      <trkpt lat="47.2814" lon="-2.49698">
        <ele>-20</ele>
        <time>2021-02-18T09:55:02.000Z</time>
      </trkpt>
      <trkpt lat="47.28143" lon="-2.49714">
        <ele>-20</ele>
        <time>2021-02-18T09:55:04.000Z</time>
      </trkpt>
      <trkpt lat="47.28145" lon="-2.4973">
        <ele>-20</ele>
        <time>2021-02-18T09:55:06.000Z</time>
      </trkpt>
      <trkpt lat="47.2815" lon="-2.49761">
        <ele>-20</ele>
        <time>2021-02-18T09:55:10.000Z</time>
      </trkpt>
      <trkpt lat="47.28157" lon="-2.49815">
        <ele>-20</ele>
        <time>2021-02-18T09:55:16.000Z</time>
      </trkpt>
      <trkpt lat="47.28162" lon="-2.49853">
        <ele>-20.39999961853</ele>
        <time>2021-02-18T09:55:20.000Z</time>
      </trkpt>
      <trkpt lat="47.28163" lon="-2.49862">
        <ele>-20.799999237061</ele>
        <time>2021-02-18T09:55:21.000Z</time>
      </trkpt>
      <trkpt lat="47.28165" lon="-2.49872">
        <ele>-21.200000762939</ele>
        <time>2021-02-18T09:55:22.000Z</time>
      </trkpt>
      <trkpt lat="47.28166" lon="-2.49881">
        <ele>-21.60000038147</ele>
        <time>2021-02-18T09:55:23.000Z</time>
      </trkpt>
      <trkpt lat="47.28167" lon="-2.4989">
        <ele>-22</ele>
        <time>2021-02-18T09:55:24.000Z</time>
      </trkpt>
      <trkpt lat="47.28177" lon="-2.49952">
        <ele>-22</ele>
        <time>2021-02-18T09:55:31.000Z</time>
      </trkpt>
      <trkpt lat="47.28185" lon="-2.5">
        <ele>-22</ele>
        <time>2021-02-18T09:55:37.000Z</time>
      </trkpt>
      <trkpt lat="47.28187" lon="-2.50027">
        <ele>-22</ele>
        <time>2021-02-18T09:55:41.000Z</time>
      </trkpt>
      <trkpt lat="47.28188" lon="-2.50035">
        <ele>-22</ele>
        <time>2021-02-18T09:55:42.000Z</time>
      </trkpt>
      <trkpt lat="47.28191" lon="-2.50042">
        <ele>-22</ele>
        <time>2021-02-18T09:55:43.000Z</time>
      </trkpt>
      <trkpt lat="47.28195" lon="-2.50065">
        <ele>-22</ele>
        <time>2021-02-18T09:55:46.000Z</time>
      </trkpt>
      <trkpt lat="47.28197" lon="-2.5008">
        <ele>-22</ele>
        <time>2021-02-18T09:55:48.000Z</time>
      </trkpt>
      <trkpt lat="47.28204" lon="-2.50113">
        <ele>-22</ele>
        <time>2021-02-18T09:55:52.000Z</time>
      </trkpt>
      <trkpt lat="47.28219" lon="-2.50181">
        <ele>-22</ele>
        <time>2021-02-18T09:56:00.000Z</time>
      </trkpt>
      <trkpt lat="47.28238" lon="-2.50217">
        <ele>-22</ele>
        <time>2021-02-18T09:56:05.000Z</time>
      </trkpt>
      <trkpt lat="47.28266" lon="-2.50248">
        <ele>-22</ele>
        <time>2021-02-18T09:56:11.000Z</time>
      </trkpt>
      <trkpt lat="47.28306" lon="-2.50277">
        <ele>-22</ele>
        <time>2021-02-18T09:56:18.000Z</time>
      </trkpt>
      <trkpt lat="47.28346" lon="-2.50307">
        <ele>-22</ele>
        <time>2021-02-18T09:56:25.000Z</time>
      </trkpt>
      <trkpt lat="47.28387" lon="-2.50335">
        <ele>-22.39999961853</ele>
        <time>2021-02-18T09:56:32.000Z</time>
      </trkpt>
      <trkpt lat="47.28392" lon="-2.50339">
        <ele>-22.799999237061</ele>
        <time>2021-02-18T09:56:33.000Z</time>
      </trkpt>
      <trkpt lat="47.28398" lon="-2.50344">
        <ele>-23.39999961853</ele>
        <time>2021-02-18T09:56:34.000Z</time>
      </trkpt>
      <trkpt lat="47.28403" lon="-2.50348">
        <ele>-23.799999237061</ele>
        <time>2021-02-18T09:56:35.000Z</time>
      </trkpt>
      <trkpt lat="47.28409" lon="-2.50351">
        <ele>-24.200000762939</ele>
        <time>2021-02-18T09:56:36.000Z</time>
      </trkpt>
      <trkpt lat="47.28432" lon="-2.50367">
        <ele>-24.200000762939</ele>
        <time>2021-02-18T09:56:40.000Z</time>
      </trkpt>
      <trkpt lat="47.28471" lon="-2.5039">
        <ele>-24.200000762939</ele>
        <time>2021-02-18T09:56:47.000Z</time>
      </trkpt>
      <trkpt lat="47.28517" lon="-2.50421">
        <ele>-24.200000762939</ele>
        <time>2021-02-18T09:56:56.000Z</time>
      </trkpt>
      <trkpt lat="47.28555" lon="-2.50449">
        <ele>-24.200000762939</ele>
        <time>2021-02-18T09:57:03.000Z</time>
      </trkpt>
      <trkpt lat="47.28581" lon="-2.50467">
        <ele>-24.200000762939</ele>
        <time>2021-02-18T09:57:07.000Z</time>
      </trkpt>
      <trkpt lat="47.286" lon="-2.5048">
        <ele>-24.200000762939</ele>
        <time>2021-02-18T09:57:10.000Z</time>
      </trkpt>
      <trkpt lat="47.28644" lon="-2.50508">
        <ele>-24.200000762939</ele>
        <time>2021-02-18T09:57:17.000Z</time>
      </trkpt>
      <trkpt lat="47.28699" lon="-2.50546">
        <ele>-24.200000762939</ele>
        <time>2021-02-18T09:57:26.000Z</time>
      </trkpt>
      <trkpt lat="47.28749" lon="-2.50579">
        <ele>-24.200000762939</ele>
        <time>2021-02-18T09:57:34.000Z</time>
      </trkpt>
      <trkpt lat="47.28756" lon="-2.50582">
        <ele>-24.200000762939</ele>
        <time>2021-02-18T09:57:35.000Z</time>
      </trkpt>
      <trkpt lat="47.28795" lon="-2.50602">
        <ele>-24.200000762939</ele>
        <time>2021-02-18T09:57:41.000Z</time>
      </trkpt>
      <trkpt lat="47.28849" lon="-2.50628">
        <ele>-24.200000762939</ele>
        <time>2021-02-18T09:57:49.000Z</time>
      </trkpt>
      <trkpt lat="47.28855" lon="-2.50631">
        <ele>-24.200000762939</ele>
        <time>2021-02-18T09:57:50.000Z</time>
      </trkpt>
      <trkpt lat="47.2887" lon="-2.50643">
        <ele>-24.200000762939</ele>
        <time>2021-02-18T09:57:53.000Z</time>
      </trkpt>
      <trkpt lat="47.28875" lon="-2.50645">
        <ele>-24.200000762939</ele>
        <time>2021-02-18T09:57:54.000Z</time>
      </trkpt>
      <trkpt lat="47.28888" lon="-2.5066">
        <ele>-24.200000762939</ele>
        <time>2021-02-18T09:57:57.000Z</time>
      </trkpt>
      <trkpt lat="47.28895" lon="-2.50672">
        <ele>-24.200000762939</ele>
        <time>2021-02-18T09:57:59.000Z</time>
      </trkpt>
      <trkpt lat="47.28917" lon="-2.50708">
        <ele>-24.200000762939</ele>
        <time>2021-02-18T09:58:05.000Z</time>
      </trkpt>
      <trkpt lat="47.28934" lon="-2.50728">
        <ele>-24.200000762939</ele>
        <time>2021-02-18T09:58:09.000Z</time>
      </trkpt>
      <trkpt lat="47.28943" lon="-2.50735">
        <ele>-24.200000762939</ele>
        <time>2021-02-18T09:58:11.000Z</time>
      </trkpt>
      <trkpt lat="47.28959" lon="-2.50743">
        <ele>-24.200000762939</ele>
        <time>2021-02-18T09:58:14.000Z</time>
      </trkpt>
      <trkpt lat="47.28971" lon="-2.50745">
        <ele>-24.200000762939</ele>
        <time>2021-02-18T09:58:16.000Z</time>
      </trkpt>
      <trkpt lat="47.28986" lon="-2.50743">
        <ele>-24.200000762939</ele>
        <time>2021-02-18T09:58:19.000Z</time>
      </trkpt>
      <trkpt lat="47.28996" lon="-2.50742">
        <ele>-24.200000762939</ele>
        <time>2021-02-18T09:58:21.000Z</time>
      </trkpt>
      <trkpt lat="47.29014" lon="-2.50754">
        <ele>-24.200000762939</ele>
        <time>2021-02-18T09:58:25.000Z</time>
      </trkpt>
      <trkpt lat="47.29028" lon="-2.50747">
        <ele>-24.200000762939</ele>
        <time>2021-02-18T09:58:28.000Z</time>
      </trkpt>
      <trkpt lat="47.29034" lon="-2.50726">
        <ele>-24.200000762939</ele>
        <time>2021-02-18T09:58:31.000Z</time>
      </trkpt>
      <trkpt lat="47.29035" lon="-2.50718">
        <ele>-24.200000762939</ele>
        <time>2021-02-18T09:58:32.000Z</time>
      </trkpt>
      <trkpt lat="47.29046" lon="-2.50681">
        <ele>-24.200000762939</ele>
        <time>2021-02-18T09:58:37.000Z</time>
      </trkpt>
      <trkpt lat="47.29046" lon="-2.50674">
        <ele>-24.200000762939</ele>
        <time>2021-02-18T09:58:38.000Z</time>
      </trkpt>
      <trkpt lat="47.29051" lon="-2.50616">
        <ele>-24.200000762939</ele>
        <time>2021-02-18T09:58:45.000Z</time>
      </trkpt>
      <trkpt lat="47.29063" lon="-2.50585">
        <ele>-24.200000762939</ele>
        <time>2021-02-18T09:58:49.000Z</time>
      </trkpt>
      <trkpt lat="47.29086" lon="-2.50526">
        <ele>-24.200000762939</ele>
        <time>2021-02-18T09:58:57.000Z</time>
      </trkpt>
      <trkpt lat="47.29104" lon="-2.5048">
        <ele>-24.200000762939</ele>
        <time>2021-02-18T09:59:04.000Z</time>
      </trkpt>
      <trkpt lat="47.29116" lon="-2.5045">
        <ele>-24.200000762939</ele>
        <time>2021-02-18T09:59:10.000Z</time>
      </trkpt>
      <trkpt lat="47.2912" lon="-2.50449">
        <ele>-24.200000762939</ele>
        <time>2021-02-18T09:59:11.000Z</time>
      </trkpt>
      <trkpt lat="47.29133" lon="-2.50455">
        <ele>-24.200000762939</ele>
        <time>2021-02-18T09:59:15.000Z</time>
      </trkpt>
      <trkpt lat="47.2915" lon="-2.50466">
        <ele>-24.200000762939</ele>
        <time>2021-02-18T09:59:22.000Z</time>
      </trkpt>
      <trkpt lat="47.29173" lon="-2.5048">
        <ele>-24.200000762939</ele>
        <time>2021-02-18T09:59:30.000Z</time>
      </trkpt>
      <trkpt lat="47.29192" lon="-2.50495">
        <ele>-24.200000762939</ele>
        <time>2021-02-18T09:59:37.000Z</time>
      </trkpt>
      <trkpt lat="47.29206" lon="-2.50514">
        <ele>-24.200000762939</ele>
        <time>2021-02-18T09:59:43.000Z</time>
      </trkpt>
      <trkpt lat="47.29216" lon="-2.50541">
        <ele>-24.200000762939</ele>
        <time>2021-02-18T09:59:50.000Z</time>
      </trkpt>
      <trkpt lat="47.29213" lon="-2.50571">
        <ele>-24.200000762939</ele>
        <time>2021-02-18T09:59:55.000Z</time>
      </trkpt>
      <trkpt lat="47.29209" lon="-2.50616">
        <ele>-24.200000762939</ele>
        <time>2021-02-18T10:00:03.000Z</time>
      </trkpt>
      <trkpt lat="47.29209" lon="-2.50628">
        <ele>-24.200000762939</ele>
        <time>2021-02-18T10:00:05.000Z</time>
      </trkpt>
      <trkpt lat="47.29212" lon="-2.50657">
        <ele>-24.200000762939</ele>
        <time>2021-02-18T10:00:10.000Z</time>
      </trkpt>
      <trkpt lat="47.29218" lon="-2.50692">
        <ele>-24.200000762939</ele>
        <time>2021-02-18T10:00:16.000Z</time>
      </trkpt>
      <trkpt lat="47.29219" lon="-2.50698">
        <ele>-24.200000762939</ele>
        <time>2021-02-18T10:00:17.000Z</time>
      </trkpt>
      <trkpt lat="47.29217" lon="-2.50716">
        <ele>-24.200000762939</ele>
        <time>2021-02-18T10:00:21.000Z</time>
      </trkpt>
      <trkpt lat="47.29216" lon="-2.5072">
        <ele>-24.200000762939</ele>
        <time>2021-02-18T10:00:22.000Z</time>
      </trkpt>
      <trkpt lat="47.2921" lon="-2.50737">
        <ele>-24.200000762939</ele>
        <time>2021-02-18T10:00:27.000Z</time>
      </trkpt>
      <trkpt lat="47.29205" lon="-2.50752">
        <ele>-24.200000762939</ele>
        <time>2021-02-18T10:00:32.000Z</time>
      </trkpt>
      <trkpt lat="47.29203" lon="-2.50775">
        <ele>-24.200000762939</ele>
        <time>2021-02-18T10:00:38.000Z</time>
      </trkpt>
      <trkpt lat="47.29207" lon="-2.50789">
        <ele>-24.200000762939</ele>
        <time>2021-02-18T10:00:42.000Z</time>
      </trkpt>
      <trkpt lat="47.2922" lon="-2.50809">
        <ele>-24.200000762939</ele>
        <time>2021-02-18T10:00:47.000Z</time>
      </trkpt>
      <trkpt lat="47.29236" lon="-2.5084">
        <ele>-24.200000762939</ele>
        <time>2021-02-18T10:00:54.000Z</time>
      </trkpt>
      <trkpt lat="47.29246" lon="-2.5086">
        <ele>-24.200000762939</ele>
        <time>2021-02-18T10:01:00.000Z</time>
      </trkpt>
      <trkpt lat="47.29251" lon="-2.50867">
        <ele>-24.200000762939</ele>
        <time>2021-02-18T10:01:06.000Z</time>
      </trkpt>
      <trkpt lat="47.29253" lon="-2.50868">
        <ele>-24.200000762939</ele>
        <time>2021-02-18T10:01:07.000Z</time>
      </trkpt>
      <trkpt lat="47.29261" lon="-2.50874">
        <ele>-24.200000762939</ele>
        <time>2021-02-18T10:01:10.000Z</time>
      </trkpt>
      <trkpt lat="47.29265" lon="-2.50876">
        <ele>-24.200000762939</ele>
        <time>2021-02-18T10:01:12.000Z</time>
      </trkpt>
      <trkpt lat="47.2927" lon="-2.50876">
        <ele>-24.200000762939</ele>
        <time>2021-02-18T10:01:14.000Z</time>
      </trkpt>
      <trkpt lat="47.29282" lon="-2.50882">
        <ele>-24.200000762939</ele>
        <time>2021-02-18T10:01:18.000Z</time>
      </trkpt>
      <trkpt lat="47.29285" lon="-2.50884">
        <ele>-24.200000762939</ele>
        <time>2021-02-18T10:01:19.000Z</time>
      </trkpt>
      <trkpt lat="47.29307" lon="-2.50897">
        <ele>-24.200000762939</ele>
        <time>2021-02-18T10:01:25.000Z</time>
      </trkpt>
      <trkpt lat="47.29339" lon="-2.50919">
        <ele>-24.200000762939</ele>
        <time>2021-02-18T10:01:33.000Z</time>
      </trkpt>
      <trkpt lat="47.29347" lon="-2.50925">
        <ele>-24.200000762939</ele>
        <time>2021-02-18T10:01:35.000Z</time>
      </trkpt>
      <trkpt lat="47.29361" lon="-2.50931">
        <ele>-24.200000762939</ele>
        <time>2021-02-18T10:01:38.000Z</time>
      </trkpt>
      <trkpt lat="47.29366" lon="-2.50932">
        <ele>-24.200000762939</ele>
        <time>2021-02-18T10:01:39.000Z</time>
      </trkpt>
      <trkpt lat="47.2937" lon="-2.50935">
        <ele>-24.200000762939</ele>
        <time>2021-02-18T10:01:40.000Z</time>
      </trkpt>
      <trkpt lat="47.29377" lon="-2.50944">
        <ele>-24.200000762939</ele>
        <time>2021-02-18T10:01:42.000Z</time>
      </trkpt>
      <trkpt lat="47.29387" lon="-2.5096">
        <ele>-24.200000762939</ele>
        <time>2021-02-18T10:01:45.000Z</time>
      </trkpt>
      <trkpt lat="47.29389" lon="-2.50966">
        <ele>-24.200000762939</ele>
        <time>2021-02-18T10:01:46.000Z</time>
      </trkpt>
      <trkpt lat="47.29392" lon="-2.50979">
        <ele>-24.200000762939</ele>
        <time>2021-02-18T10:01:48.000Z</time>
      </trkpt>
      <trkpt lat="47.29393" lon="-2.51004">
        <ele>-24.200000762939</ele>
        <time>2021-02-18T10:01:52.000Z</time>
      </trkpt>
      <trkpt lat="47.29396" lon="-2.51014">
        <ele>-24.60000038147</ele>
        <time>2021-02-18T10:01:54.000Z</time>
      </trkpt>
      <trkpt lat="47.29399" lon="-2.51019">
        <ele>-25</ele>
        <time>2021-02-18T10:01:55.000Z</time>
      </trkpt>
      <trkpt lat="47.29402" lon="-2.51024">
        <ele>-25.39999961853</ele>
        <time>2021-02-18T10:01:56.000Z</time>
      </trkpt>
      <trkpt lat="47.29405" lon="-2.5103">
        <ele>-25.799999237061</ele>
        <time>2021-02-18T10:01:57.000Z</time>
      </trkpt>
      <trkpt lat="47.29408" lon="-2.51035">
        <ele>-26.200000762939</ele>
        <time>2021-02-18T10:01:58.000Z</time>
      </trkpt>
      <trkpt lat="47.29424" lon="-2.51057">
        <ele>-26.200000762939</ele>
        <time>2021-02-18T10:02:02.000Z</time>
      </trkpt>
      <trkpt lat="47.29451" lon="-2.51096">
        <ele>-26.200000762939</ele>
        <time>2021-02-18T10:02:09.000Z</time>
      </trkpt>
      <trkpt lat="47.2948" lon="-2.51134">
        <ele>-26.200000762939</ele>
        <time>2021-02-18T10:02:16.000Z</time>
      </trkpt>
      <trkpt lat="47.29501" lon="-2.51171">
        <ele>-26.200000762939</ele>
        <time>2021-02-18T10:02:22.000Z</time>
      </trkpt>
      <trkpt lat="47.29515" lon="-2.51223">
        <ele>-26.200000762939</ele>
        <time>2021-02-18T10:02:29.000Z</time>
      </trkpt>
      <trkpt lat="47.29523" lon="-2.51252">
        <ele>-26.200000762939</ele>
        <time>2021-02-18T10:02:33.000Z</time>
      </trkpt>
      <trkpt lat="47.29526" lon="-2.51266">
        <ele>-26.200000762939</ele>
        <time>2021-02-18T10:02:35.000Z</time>
      </trkpt>
      <trkpt lat="47.2953" lon="-2.51281">
        <ele>-26.200000762939</ele>
        <time>2021-02-18T10:02:37.000Z</time>
      </trkpt>
      <trkpt lat="47.29541" lon="-2.51314">
        <ele>-26.200000762939</ele>
        <time>2021-02-18T10:02:42.000Z</time>
      </trkpt>
      <trkpt lat="47.29547" lon="-2.51317">
        <ele>-26.200000762939</ele>
        <time>2021-02-18T10:02:45.000Z</time>
      </trkpt>
      <trkpt lat="47.29554" lon="-2.51318">
        <ele>-26.200000762939</ele>
        <time>2021-02-18T10:02:49.000Z</time>
      </trkpt>
      <trkpt lat="47.29557" lon="-2.5132">
        <ele>-26.200000762939</ele>
        <time>2021-02-18T10:02:50.000Z</time>
      </trkpt>
      <trkpt lat="47.29561" lon="-2.51326">
        <ele>-26.200000762939</ele>
        <time>2021-02-18T10:02:52.000Z</time>
      </trkpt>
      <trkpt lat="47.29564" lon="-2.51329">
        <ele>-26.200000762939</ele>
        <time>2021-02-18T10:02:53.000Z</time>
      </trkpt>
      <trkpt lat="47.2958" lon="-2.51335">
        <ele>-26.200000762939</ele>
        <time>2021-02-18T10:02:56.000Z</time>
      </trkpt>
      <trkpt lat="47.29585" lon="-2.51338">
        <ele>-26.200000762939</ele>
        <time>2021-02-18T10:02:57.000Z</time>
      </trkpt>
      <trkpt lat="47.296" lon="-2.51348">
        <ele>-26.200000762939</ele>
        <time>2021-02-18T10:03:00.000Z</time>
      </trkpt>
      <trkpt lat="47.29605" lon="-2.51353">
        <ele>-26.200000762939</ele>
        <time>2021-02-18T10:03:01.000Z</time>
      </trkpt>
      <trkpt lat="47.29645" lon="-2.51386">
        <ele>-26.200000762939</ele>
        <time>2021-02-18T10:03:09.000Z</time>
      </trkpt>
      <trkpt lat="47.29681" lon="-2.51416">
        <ele>-26.200000762939</ele>
        <time>2021-02-18T10:03:16.000Z</time>
      </trkpt>
      <trkpt lat="47.29717" lon="-2.51441">
        <ele>-26.200000762939</ele>
        <time>2021-02-18T10:03:23.000Z</time>
      </trkpt>
      <trkpt lat="47.29753" lon="-2.51463">
        <ele>-26.200000762939</ele>
        <time>2021-02-18T10:03:30.000Z</time>
      </trkpt>
      <trkpt lat="47.29783" lon="-2.51481">
        <ele>-26.200000762939</ele>
        <time>2021-02-18T10:03:36.000Z</time>
      </trkpt>
      <trkpt lat="47.29793" lon="-2.51486">
        <ele>-26.200000762939</ele>
        <time>2021-02-18T10:03:38.000Z</time>
      </trkpt>
      <trkpt lat="47.2981" lon="-2.51485">
        <ele>-26.200000762939</ele>
        <time>2021-02-18T10:03:41.000Z</time>
      </trkpt>
      <trkpt lat="47.29821" lon="-2.51482">
        <ele>-26.200000762939</ele>
        <time>2021-02-18T10:03:43.000Z</time>
      </trkpt>
      <trkpt lat="47.29836" lon="-2.51487">
        <ele>-26.200000762939</ele>
        <time>2021-02-18T10:03:46.000Z</time>
      </trkpt>
      <trkpt lat="47.29841" lon="-2.51507">
        <ele>-26.200000762939</ele>
        <time>2021-02-18T10:03:49.000Z</time>
      </trkpt>
      <trkpt lat="47.29843" lon="-2.51513">
        <ele>-26.200000762939</ele>
        <time>2021-02-18T10:03:50.000Z</time>
      </trkpt>
      <trkpt lat="47.29854" lon="-2.51527">
        <ele>-26.200000762939</ele>
        <time>2021-02-18T10:03:53.000Z</time>
      </trkpt>
      <trkpt lat="47.29866" lon="-2.51541">
        <ele>-26.200000762939</ele>
        <time>2021-02-18T10:03:56.000Z</time>
      </trkpt>
      <trkpt lat="47.29877" lon="-2.51557">
        <ele>-26.200000762939</ele>
        <time>2021-02-18T10:03:59.000Z</time>
      </trkpt>
      <trkpt lat="47.29885" lon="-2.51584">
        <ele>-26.200000762939</ele>
        <time>2021-02-18T10:04:03.000Z</time>
      </trkpt>
      <trkpt lat="47.29895" lon="-2.51621">
        <ele>-26.200000762939</ele>
        <time>2021-02-18T10:04:09.000Z</time>
      </trkpt>
      <trkpt lat="47.29896" lon="-2.51632">
        <ele>-26.200000762939</ele>
        <time>2021-02-18T10:04:11.000Z</time>
      </trkpt>
      <trkpt lat="47.29904" lon="-2.51659">
        <ele>-26.200000762939</ele>
        <time>2021-02-18T10:04:17.000Z</time>
      </trkpt>
      <trkpt lat="47.29904" lon="-2.51659">
        <ele>-26.200000762939</ele>
        <time>2021-02-18T10:04:19.000Z</time>
      </trkpt>
      <trkpt lat="47.29911" lon="-2.51675">
        <ele>-28.39999961853</ele>
        <time>2021-02-18T10:16:31.000Z</time>
      </trkpt>
      <trkpt lat="47.29918" lon="-2.51688">
        <ele>-28.39999961853</ele>
        <time>2021-02-18T10:16:36.000Z</time>
      </trkpt>
      <trkpt lat="47.29927" lon="-2.51718">
        <ele>-28.39999961853</ele>
        <time>2021-02-18T10:16:43.000Z</time>
      </trkpt>
      <trkpt lat="47.29945" lon="-2.51759">
        <ele>-28.39999961853</ele>
        <time>2021-02-18T10:16:52.000Z</time>
      </trkpt>
      <trkpt lat="47.29962" lon="-2.51796">
        <ele>-28.39999961853</ele>
        <time>2021-02-18T10:17:00.000Z</time>
      </trkpt>
      <trkpt lat="47.29973" lon="-2.51819">
        <ele>-28.39999961853</ele>
        <time>2021-02-18T10:17:06.000Z</time>
      </trkpt>
      <trkpt lat="47.29976" lon="-2.51826">
        <ele>-28</ele>
        <time>2021-02-18T10:17:08.000Z</time>
      </trkpt>
      <trkpt lat="47.29978" lon="-2.5183">
        <ele>-27.39999961853</ele>
        <time>2021-02-18T10:17:09.000Z</time>
      </trkpt>
      <trkpt lat="47.2998" lon="-2.51834">
        <ele>-26.799999237061</ele>
        <time>2021-02-18T10:17:10.000Z</time>
      </trkpt>
      <trkpt lat="47.29982" lon="-2.51837">
        <ele>-26.39999961853</ele>
        <time>2021-02-18T10:17:11.000Z</time>
      </trkpt>
      <trkpt lat="47.29984" lon="-2.5184">
        <ele>-25.799999237061</ele>
        <time>2021-02-18T10:17:12.000Z</time>
      </trkpt>
      <trkpt lat="47.29985" lon="-2.51843">
        <ele>-25.799999237061</ele>
        <time>2021-02-18T10:17:13.000Z</time>
      </trkpt>
      <trkpt lat="47.29991" lon="-2.5186">
        <ele>-25.799999237061</ele>
        <time>2021-02-18T10:17:18.000Z</time>
      </trkpt>
      <trkpt lat="47.29984" lon="-2.51881">
        <ele>-25.799999237061</ele>
        <time>2021-02-18T10:17:23.000Z</time>
      </trkpt>
      <trkpt lat="47.29977" lon="-2.51897">
        <ele>-25.799999237061</ele>
        <time>2021-02-18T10:17:27.000Z</time>
      </trkpt>
      <trkpt lat="47.29982" lon="-2.51908">
        <ele>-25.799999237061</ele>
        <time>2021-02-18T10:17:30.000Z</time>
      </trkpt>
      <trkpt lat="47.29985" lon="-2.51911">
        <ele>-25.799999237061</ele>
        <time>2021-02-18T10:17:31.000Z</time>
      </trkpt>
      <trkpt lat="47.29995" lon="-2.51927">
        <ele>-25.799999237061</ele>
        <time>2021-02-18T10:17:35.000Z</time>
      </trkpt>
      <trkpt lat="47.30014" lon="-2.51956">
        <ele>-25.799999237061</ele>
        <time>2021-02-18T10:17:41.000Z</time>
      </trkpt>
      <trkpt lat="47.30022" lon="-2.51971">
        <ele>-25.799999237061</ele>
        <time>2021-02-18T10:17:44.000Z</time>
      </trkpt>
      <trkpt lat="47.30026" lon="-2.51982">
        <ele>-25.799999237061</ele>
        <time>2021-02-18T10:17:46.000Z</time>
      </trkpt>
      <trkpt lat="47.30027" lon="-2.51988">
        <ele>-25.799999237061</ele>
        <time>2021-02-18T10:17:47.000Z</time>
      </trkpt>
      <trkpt lat="47.30028" lon="-2.52035">
        <ele>-25.799999237061</ele>
        <time>2021-02-18T10:17:54.000Z</time>
      </trkpt>
      <trkpt lat="47.30031" lon="-2.52078">
        <ele>-25.799999237061</ele>
        <time>2021-02-18T10:18:00.000Z</time>
      </trkpt>
      <trkpt lat="47.30037" lon="-2.52122">
        <ele>-25.799999237061</ele>
        <time>2021-02-18T10:18:07.000Z</time>
      </trkpt>
      <trkpt lat="47.3004" lon="-2.52166">
        <ele>-25.799999237061</ele>
        <time>2021-02-18T10:18:14.000Z</time>
      </trkpt>
      <trkpt lat="47.30041" lon="-2.52196">
        <ele>-25.799999237061</ele>
        <time>2021-02-18T10:18:19.000Z</time>
      </trkpt>
      <trkpt lat="47.30041" lon="-2.52202">
        <ele>-25.799999237061</ele>
        <time>2021-02-18T10:18:20.000Z</time>
      </trkpt>
      <trkpt lat="47.30044" lon="-2.52238">
        <ele>-25.799999237061</ele>
        <time>2021-02-18T10:18:26.000Z</time>
      </trkpt>
      <trkpt lat="47.30044" lon="-2.52244">
        <ele>-26.200000762939</ele>
        <time>2021-02-18T10:18:27.000Z</time>
      </trkpt>
      <trkpt lat="47.30044" lon="-2.5225">
        <ele>-26.60000038147</ele>
        <time>2021-02-18T10:18:28.000Z</time>
      </trkpt>
      <trkpt lat="47.30044" lon="-2.52255">
        <ele>-27</ele>
        <time>2021-02-18T10:18:29.000Z</time>
      </trkpt>
      <trkpt lat="47.30044" lon="-2.5226">
        <ele>-27.39999961853</ele>
        <time>2021-02-18T10:18:30.000Z</time>
      </trkpt>
      <trkpt lat="47.30045" lon="-2.52265">
        <ele>-27.799999237061</ele>
        <time>2021-02-18T10:18:31.000Z</time>
      </trkpt>
      <trkpt lat="47.30047" lon="-2.52269">
        <ele>-27.799999237061</ele>
        <time>2021-02-18T10:18:32.000Z</time>
      </trkpt>
      <trkpt lat="47.3005" lon="-2.5229">
        <ele>-27.799999237061</ele>
        <time>2021-02-18T10:18:36.000Z</time>
      </trkpt>
      <trkpt lat="47.30048" lon="-2.52294">
        <ele>-27.799999237061</ele>
        <time>2021-02-18T10:18:37.000Z</time>
      </trkpt>
      <trkpt lat="47.30038" lon="-2.523">
        <ele>-27.799999237061</ele>
        <time>2021-02-18T10:18:40.000Z</time>
      </trkpt>
      <trkpt lat="47.30027" lon="-2.52288">
        <ele>-27.799999237061</ele>
        <time>2021-02-18T10:18:43.000Z</time>
      </trkpt>
      <trkpt lat="47.30025" lon="-2.52283">
        <ele>-27.799999237061</ele>
        <time>2021-02-18T10:18:44.000Z</time>
      </trkpt>
      <trkpt lat="47.30017" lon="-2.5227">
        <ele>-27.799999237061</ele>
        <time>2021-02-18T10:18:47.000Z</time>
      </trkpt>
      <trkpt lat="47.30014" lon="-2.52265">
        <ele>-27.799999237061</ele>
        <time>2021-02-18T10:18:48.000Z</time>
      </trkpt>
      <trkpt lat="47.30003" lon="-2.52256">
        <ele>-27.799999237061</ele>
        <time>2021-02-18T10:18:51.000Z</time>
      </trkpt>
      <trkpt lat="47.29994" lon="-2.52253">
        <ele>-27.799999237061</ele>
        <time>2021-02-18T10:18:53.000Z</time>
      </trkpt>
      <trkpt lat="47.29963" lon="-2.52248">
        <ele>-27.799999237061</ele>
        <time>2021-02-18T10:19:00.000Z</time>
      </trkpt>
      <trkpt lat="47.29929" lon="-2.52246">
        <ele>-27.799999237061</ele>
        <time>2021-02-18T10:19:07.000Z</time>
      </trkpt>
      <trkpt lat="47.29896" lon="-2.52242">
        <ele>-27.799999237061</ele>
        <time>2021-02-18T10:19:14.000Z</time>
      </trkpt>
      <trkpt lat="47.29853" lon="-2.52238">
        <ele>-27.799999237061</ele>
        <time>2021-02-18T10:19:23.000Z</time>
      </trkpt>
      <trkpt lat="47.29819" lon="-2.52236">
        <ele>-27.799999237061</ele>
        <time>2021-02-18T10:19:30.000Z</time>
      </trkpt>
      <trkpt lat="47.2981" lon="-2.52234">
        <ele>-27.799999237061</ele>
        <time>2021-02-18T10:19:32.000Z</time>
      </trkpt>
      <trkpt lat="47.29793" lon="-2.52232">
        <ele>-27.799999237061</ele>
        <time>2021-02-18T10:19:36.000Z</time>
      </trkpt>
      <trkpt lat="47.2978" lon="-2.5223">
        <ele>-27.799999237061</ele>
        <time>2021-02-18T10:19:39.000Z</time>
      </trkpt>
      <trkpt lat="47.29768" lon="-2.52227">
        <ele>-27.799999237061</ele>
        <time>2021-02-18T10:19:42.000Z</time>
      </trkpt>
      <trkpt lat="47.29747" lon="-2.52227">
        <ele>-27.799999237061</ele>
        <time>2021-02-18T10:19:47.000Z</time>
      </trkpt>
      <trkpt lat="47.29729" lon="-2.52226">
        <ele>-27.39999961853</ele>
        <time>2021-02-18T10:19:51.000Z</time>
      </trkpt>
      <trkpt lat="47.29724" lon="-2.52226">
        <ele>-27</ele>
        <time>2021-02-18T10:19:52.000Z</time>
      </trkpt>
      <trkpt lat="47.29719" lon="-2.52225">
        <ele>-26.60000038147</ele>
        <time>2021-02-18T10:19:53.000Z</time>
      </trkpt>
      <trkpt lat="47.29715" lon="-2.52225">
        <ele>-26.200000762939</ele>
        <time>2021-02-18T10:19:54.000Z</time>
      </trkpt>
      <trkpt lat="47.2971" lon="-2.52224">
        <ele>-25.799999237061</ele>
        <time>2021-02-18T10:19:55.000Z</time>
      </trkpt>
      <trkpt lat="47.29678" lon="-2.52222">
        <ele>-25.799999237061</ele>
        <time>2021-02-18T10:20:02.000Z</time>
      </trkpt>
      <trkpt lat="47.29648" lon="-2.52226">
        <ele>-25.799999237061</ele>
        <time>2021-02-18T10:20:09.000Z</time>
      </trkpt>
      <trkpt lat="47.29613" lon="-2.52232">
        <ele>-25.799999237061</ele>
        <time>2021-02-18T10:20:17.000Z</time>
      </trkpt>
      <trkpt lat="47.29603" lon="-2.52231">
        <ele>-25.799999237061</ele>
        <time>2021-02-18T10:20:20.000Z</time>
      </trkpt>
      <trkpt lat="47.29602" lon="-2.52226">
        <ele>-25.799999237061</ele>
        <time>2021-02-18T10:20:21.000Z</time>
      </trkpt>
      <trkpt lat="47.29601" lon="-2.52197">
        <ele>-25.799999237061</ele>
        <time>2021-02-18T10:20:26.000Z</time>
      </trkpt>
      <trkpt lat="47.29595" lon="-2.52137">
        <ele>-25.799999237061</ele>
        <time>2021-02-18T10:20:35.000Z</time>
      </trkpt>
      <trkpt lat="47.29585" lon="-2.52084">
        <ele>-25.799999237061</ele>
        <time>2021-02-18T10:20:42.000Z</time>
      </trkpt>
      <trkpt lat="47.29575" lon="-2.52031">
        <ele>-25.799999237061</ele>
        <time>2021-02-18T10:20:49.000Z</time>
      </trkpt>
      <trkpt lat="47.29571" lon="-2.52008">
        <ele>-25.799999237061</ele>
        <time>2021-02-18T10:20:52.000Z</time>
      </trkpt>
      <trkpt lat="47.29566" lon="-2.51982">
        <ele>-25.799999237061</ele>
        <time>2021-02-18T10:20:56.000Z</time>
      </trkpt>
      <trkpt lat="47.29565" lon="-2.51978">
        <ele>-25.799999237061</ele>
        <time>2021-02-18T10:20:57.000Z</time>
      </trkpt>
      <trkpt lat="47.29558" lon="-2.51972">
        <ele>-25.799999237061</ele>
        <time>2021-02-18T10:20:59.000Z</time>
      </trkpt>
      <trkpt lat="47.29546" lon="-2.51975">
        <ele>-25.799999237061</ele>
        <time>2021-02-18T10:21:02.000Z</time>
      </trkpt>
      <trkpt lat="47.29513" lon="-2.51983">
        <ele>-25.799999237061</ele>
        <time>2021-02-18T10:21:09.000Z</time>
      </trkpt>
      <trkpt lat="47.29472" lon="-2.51988">
        <ele>-25.799999237061</ele>
        <time>2021-02-18T10:21:18.000Z</time>
      </trkpt>
      <trkpt lat="47.29467" lon="-2.51991">
        <ele>-25.799999237061</ele>
        <time>2021-02-18T10:21:19.000Z</time>
      </trkpt>
      <trkpt lat="47.29458" lon="-2.51999">
        <ele>-25.799999237061</ele>
        <time>2021-02-18T10:21:21.000Z</time>
      </trkpt>
      <trkpt lat="47.29425" lon="-2.52031">
        <ele>-25.799999237061</ele>
        <time>2021-02-18T10:21:28.000Z</time>
      </trkpt>
      <trkpt lat="47.29389" lon="-2.52056">
        <ele>-25.799999237061</ele>
        <time>2021-02-18T10:21:35.000Z</time>
      </trkpt>
      <trkpt lat="47.29357" lon="-2.52069">
        <ele>-25.799999237061</ele>
        <time>2021-02-18T10:21:41.000Z</time>
      </trkpt>
      <trkpt lat="47.29345" lon="-2.52071">
        <ele>-25.799999237061</ele>
        <time>2021-02-18T10:21:43.000Z</time>
      </trkpt>
      <trkpt lat="47.29322" lon="-2.52075">
        <ele>-25.39999961853</ele>
        <time>2021-02-18T10:21:47.000Z</time>
      </trkpt>
      <trkpt lat="47.29317" lon="-2.52077">
        <ele>-25</ele>
        <time>2021-02-18T10:21:48.000Z</time>
      </trkpt>
      <trkpt lat="47.29311" lon="-2.52078">
        <ele>-24.60000038147</ele>
        <time>2021-02-18T10:21:49.000Z</time>
      </trkpt>
      <trkpt lat="47.29305" lon="-2.52079">
        <ele>-24.200000762939</ele>
        <time>2021-02-18T10:21:50.000Z</time>
      </trkpt>
      <trkpt lat="47.293" lon="-2.5208">
        <ele>-23.799999237061</ele>
        <time>2021-02-18T10:21:51.000Z</time>
      </trkpt>
      <trkpt lat="47.29285" lon="-2.52083">
        <ele>-23.799999237061</ele>
        <time>2021-02-18T10:21:54.000Z</time>
      </trkpt>
      <trkpt lat="47.29248" lon="-2.52089">
        <ele>-23.799999237061</ele>
        <time>2021-02-18T10:22:03.000Z</time>
      </trkpt>
      <trkpt lat="47.29233" lon="-2.52088">
        <ele>-23.39999961853</ele>
        <time>2021-02-18T10:22:08.000Z</time>
      </trkpt>
      <trkpt lat="47.29232" lon="-2.52085">
        <ele>-23</ele>
        <time>2021-02-18T10:22:09.000Z</time>
      </trkpt>
      <trkpt lat="47.2923" lon="-2.5208">
        <ele>-22.60000038147</ele>
        <time>2021-02-18T10:22:10.000Z</time>
      </trkpt>
      <trkpt lat="47.29228" lon="-2.52073">
        <ele>-22.200000762939</ele>
        <time>2021-02-18T10:22:11.000Z</time>
      </trkpt>
      <trkpt lat="47.29226" lon="-2.52066">
        <ele>-21.799999237061</ele>
        <time>2021-02-18T10:22:12.000Z</time>
      </trkpt>
      <trkpt lat="47.29223" lon="-2.52025">
        <ele>-21.799999237061</ele>
        <time>2021-02-18T10:22:17.000Z</time>
      </trkpt>
      <trkpt lat="47.29211" lon="-2.51974">
        <ele>-21.799999237061</ele>
        <time>2021-02-18T10:22:24.000Z</time>
      </trkpt>
      <trkpt lat="47.29196" lon="-2.51923">
        <ele>-21.799999237061</ele>
        <time>2021-02-18T10:22:31.000Z</time>
      </trkpt>
      <trkpt lat="47.2919" lon="-2.51899">
        <ele>-21.799999237061</ele>
        <time>2021-02-18T10:22:34.000Z</time>
      </trkpt>
      <trkpt lat="47.29189" lon="-2.5188">
        <ele>-21.799999237061</ele>
        <time>2021-02-18T10:22:36.000Z</time>
      </trkpt>
      <trkpt lat="47.29188" lon="-2.51816">
        <ele>-21.799999237061</ele>
        <time>2021-02-18T10:22:43.000Z</time>
      </trkpt>
      <trkpt lat="47.29188" lon="-2.51807">
        <ele>-21.799999237061</ele>
        <time>2021-02-18T10:22:44.000Z</time>
      </trkpt>
      <trkpt lat="47.29186" lon="-2.51789">
        <ele>-21.799999237061</ele>
        <time>2021-02-18T10:22:46.000Z</time>
      </trkpt>
      <trkpt lat="47.29186" lon="-2.51781">
        <ele>-21.799999237061</ele>
        <time>2021-02-18T10:22:47.000Z</time>
      </trkpt>
      <trkpt lat="47.29178" lon="-2.51722">
        <ele>-21.799999237061</ele>
        <time>2021-02-18T10:22:54.000Z</time>
      </trkpt>
      <trkpt lat="47.29164" lon="-2.51666">
        <ele>-21.799999237061</ele>
        <time>2021-02-18T10:23:01.000Z</time>
      </trkpt>
      <trkpt lat="47.29162" lon="-2.51658">
        <ele>-21.799999237061</ele>
        <time>2021-02-18T10:23:02.000Z</time>
      </trkpt>
      <trkpt lat="47.29156" lon="-2.51643">
        <ele>-21.799999237061</ele>
        <time>2021-02-18T10:23:04.000Z</time>
      </trkpt>
      <trkpt lat="47.29143" lon="-2.5161">
        <ele>-21.799999237061</ele>
        <time>2021-02-18T10:23:08.000Z</time>
      </trkpt>
      <trkpt lat="47.29139" lon="-2.51602">
        <ele>-21.39999961853</ele>
        <time>2021-02-18T10:23:09.000Z</time>
      </trkpt>
      <trkpt lat="47.29136" lon="-2.51593">
        <ele>-21</ele>
        <time>2021-02-18T10:23:10.000Z</time>
      </trkpt>
      <trkpt lat="47.29131" lon="-2.51585">
        <ele>-20.39999961853</ele>
        <time>2021-02-18T10:23:11.000Z</time>
      </trkpt>
      <trkpt lat="47.29127" lon="-2.51576">
        <ele>-20</ele>
        <time>2021-02-18T10:23:12.000Z</time>
      </trkpt>
      <trkpt lat="47.29122" lon="-2.51568">
        <ele>-19.60000038147</ele>
        <time>2021-02-18T10:23:13.000Z</time>
      </trkpt>
      <trkpt lat="47.29113" lon="-2.5155">
        <ele>-19.60000038147</ele>
        <time>2021-02-18T10:23:15.000Z</time>
      </trkpt>
      <trkpt lat="47.29099" lon="-2.51524">
        <ele>-20</ele>
        <time>2021-02-18T10:23:18.000Z</time>
      </trkpt>
      <trkpt lat="47.29094" lon="-2.51515">
        <ele>-20.39999961853</ele>
        <time>2021-02-18T10:23:19.000Z</time>
      </trkpt>
      <trkpt lat="47.2909" lon="-2.51506">
        <ele>-20.799999237061</ele>
        <time>2021-02-18T10:23:20.000Z</time>
      </trkpt>
      <trkpt lat="47.29085" lon="-2.51497">
        <ele>-21.39999961853</ele>
        <time>2021-02-18T10:23:21.000Z</time>
      </trkpt>
      <trkpt lat="47.2908" lon="-2.51488">
        <ele>-21.799999237061</ele>
        <time>2021-02-18T10:23:22.000Z</time>
      </trkpt>
      <trkpt lat="47.29057" lon="-2.51445">
        <ele>-21.799999237061</ele>
        <time>2021-02-18T10:23:27.000Z</time>
      </trkpt>
      <trkpt lat="47.29025" lon="-2.51385">
        <ele>-21.799999237061</ele>
        <time>2021-02-18T10:23:34.000Z</time>
      </trkpt>
      <trkpt lat="47.2901" lon="-2.51357">
        <ele>-21.799999237061</ele>
        <time>2021-02-18T10:23:38.000Z</time>
      </trkpt>
      <trkpt lat="47.29008" lon="-2.51349">
        <ele>-21.799999237061</ele>
        <time>2021-02-18T10:23:39.000Z</time>
      </trkpt>
      <trkpt lat="47.29003" lon="-2.51332">
        <ele>-21.799999237061</ele>
        <time>2021-02-18T10:23:41.000Z</time>
      </trkpt>
      <trkpt lat="47.28993" lon="-2.51309">
        <ele>-21.799999237061</ele>
        <time>2021-02-18T10:23:44.000Z</time>
      </trkpt>
      <trkpt lat="47.28969" lon="-2.5126">
        <ele>-21.799999237061</ele>
        <time>2021-02-18T10:23:51.000Z</time>
      </trkpt>
      <trkpt lat="47.28943" lon="-2.51207">
        <ele>-21.799999237061</ele>
        <time>2021-02-18T10:23:59.000Z</time>
      </trkpt>
      <trkpt lat="47.28911" lon="-2.5114">
        <ele>-21.799999237061</ele>
        <time>2021-02-18T10:24:08.000Z</time>
      </trkpt>
      <trkpt lat="47.28908" lon="-2.51133">
        <ele>-21.799999237061</ele>
        <time>2021-02-18T10:24:09.000Z</time>
      </trkpt>
      <trkpt lat="47.28888" lon="-2.51091">
        <ele>-21.799999237061</ele>
        <time>2021-02-18T10:24:15.000Z</time>
      </trkpt>
      <trkpt lat="47.28885" lon="-2.51083">
        <ele>-22.200000762939</ele>
        <time>2021-02-18T10:24:16.000Z</time>
      </trkpt>
      <trkpt lat="47.28881" lon="-2.51076">
        <ele>-22.60000038147</ele>
        <time>2021-02-18T10:24:17.000Z</time>
      </trkpt>
      <trkpt lat="47.28878" lon="-2.51068">
        <ele>-23</ele>
        <time>2021-02-18T10:24:18.000Z</time>
      </trkpt>
      <trkpt lat="47.28874" lon="-2.51062">
        <ele>-23.39999961853</ele>
        <time>2021-02-18T10:24:19.000Z</time>
      </trkpt>
      <trkpt lat="47.2887" lon="-2.51055">
        <ele>-23.799999237061</ele>
        <time>2021-02-18T10:24:20.000Z</time>
      </trkpt>
      <trkpt lat="47.28866" lon="-2.51049">
        <ele>-23.799999237061</ele>
        <time>2021-02-18T10:24:21.000Z</time>
      </trkpt>
      <trkpt lat="47.28833" lon="-2.51009">
        <ele>-23.799999237061</ele>
        <time>2021-02-18T10:24:28.000Z</time>
      </trkpt>
      <trkpt lat="47.28801" lon="-2.50972">
        <ele>-23.799999237061</ele>
        <time>2021-02-18T10:24:35.000Z</time>
      </trkpt>
      <trkpt lat="47.28796" lon="-2.50967">
        <ele>-23.799999237061</ele>
        <time>2021-02-18T10:24:36.000Z</time>
      </trkpt>
      <trkpt lat="47.28792" lon="-2.50962">
        <ele>-23.799999237061</ele>
        <time>2021-02-18T10:24:37.000Z</time>
      </trkpt>
      <trkpt lat="47.28774" lon="-2.50938">
        <ele>-23.799999237061</ele>
        <time>2021-02-18T10:24:41.000Z</time>
      </trkpt>
      <trkpt lat="47.28728" lon="-2.50882">
        <ele>-23.799999237061</ele>
        <time>2021-02-18T10:24:51.000Z</time>
      </trkpt>
      <trkpt lat="47.28692" lon="-2.5084">
        <ele>-23.799999237061</ele>
        <time>2021-02-18T10:24:59.000Z</time>
      </trkpt>
      <trkpt lat="47.28653" lon="-2.50798">
        <ele>-23.799999237061</ele>
        <time>2021-02-18T10:25:07.000Z</time>
      </trkpt>
      <trkpt lat="47.28614" lon="-2.50765">
        <ele>-23.799999237061</ele>
        <time>2021-02-18T10:25:14.000Z</time>
      </trkpt>
      <trkpt lat="47.28572" lon="-2.5072">
        <ele>-23.799999237061</ele>
        <time>2021-02-18T10:25:22.000Z</time>
      </trkpt>
      <trkpt lat="47.28536" lon="-2.50679">
        <ele>-23.799999237061</ele>
        <time>2021-02-18T10:25:29.000Z</time>
      </trkpt>
      <trkpt lat="47.285" lon="-2.50638">
        <ele>-23.799999237061</ele>
        <time>2021-02-18T10:25:36.000Z</time>
      </trkpt>
      <trkpt lat="47.28458" lon="-2.50591">
        <ele>-23.799999237061</ele>
        <time>2021-02-18T10:25:44.000Z</time>
      </trkpt>
      <trkpt lat="47.28426" lon="-2.50546">
        <ele>-23.799999237061</ele>
        <time>2021-02-18T10:25:51.000Z</time>
      </trkpt>
      <trkpt lat="47.28417" lon="-2.50532">
        <ele>-23.799999237061</ele>
        <time>2021-02-18T10:25:53.000Z</time>
      </trkpt>
      <trkpt lat="47.28407" lon="-2.50506">
        <ele>-23.799999237061</ele>
        <time>2021-02-18T10:25:56.000Z</time>
      </trkpt>
      <trkpt lat="47.28389" lon="-2.50459">
        <ele>-24.200000762939</ele>
        <time>2021-02-18T10:26:01.000Z</time>
      </trkpt>
      <trkpt lat="47.28385" lon="-2.50448">
        <ele>-24.60000038147</ele>
        <time>2021-02-18T10:26:02.000Z</time>
      </trkpt>
      <trkpt lat="47.28382" lon="-2.50439">
        <ele>-25</ele>
        <time>2021-02-18T10:26:03.000Z</time>
      </trkpt>
      <trkpt lat="47.28379" lon="-2.5043">
        <ele>-25.60000038147</ele>
        <time>2021-02-18T10:26:04.000Z</time>
      </trkpt>
      <trkpt lat="47.28376" lon="-2.50421">
        <ele>-26</ele>
        <time>2021-02-18T10:26:05.000Z</time>
      </trkpt>
      <trkpt lat="47.28373" lon="-2.50413">
        <ele>-26</ele>
        <time>2021-02-18T10:26:06.000Z</time>
      </trkpt>
      <trkpt lat="47.28362" lon="-2.50389">
        <ele>-26</ele>
        <time>2021-02-18T10:26:09.000Z</time>
      </trkpt>
      <trkpt lat="47.28351" lon="-2.50379">
        <ele>-26</ele>
        <time>2021-02-18T10:26:11.000Z</time>
      </trkpt>
      <trkpt lat="47.28345" lon="-2.50374">
        <ele>-26</ele>
        <time>2021-02-18T10:26:12.000Z</time>
      </trkpt>
      <trkpt lat="47.28324" lon="-2.50356">
        <ele>-26</ele>
        <time>2021-02-18T10:26:16.000Z</time>
      </trkpt>
      <trkpt lat="47.28315" lon="-2.50344">
        <ele>-26</ele>
        <time>2021-02-18T10:26:18.000Z</time>
      </trkpt>
      <trkpt lat="47.28305" lon="-2.50334">
        <ele>-26</ele>
        <time>2021-02-18T10:26:20.000Z</time>
      </trkpt>
      <trkpt lat="47.283" lon="-2.5033">
        <ele>-26</ele>
        <time>2021-02-18T10:26:21.000Z</time>
      </trkpt>
      <trkpt lat="47.28295" lon="-2.50324">
        <ele>-26</ele>
        <time>2021-02-18T10:26:22.000Z</time>
      </trkpt>
      <trkpt lat="47.28282" lon="-2.50314">
        <ele>-26</ele>
        <time>2021-02-18T10:26:25.000Z</time>
      </trkpt>
      <trkpt lat="47.28269" lon="-2.50298">
        <ele>-26</ele>
        <time>2021-02-18T10:26:28.000Z</time>
      </trkpt>
      <trkpt lat="47.28263" lon="-2.50284">
        <ele>-26</ele>
        <time>2021-02-18T10:26:30.000Z</time>
      </trkpt>
      <trkpt lat="47.28249" lon="-2.50256">
        <ele>-26</ele>
        <time>2021-02-18T10:26:34.000Z</time>
      </trkpt>
      <trkpt lat="47.28222" lon="-2.50217">
        <ele>-26</ele>
        <time>2021-02-18T10:26:40.000Z</time>
      </trkpt>
      <trkpt lat="47.28204" lon="-2.5017">
        <ele>-26</ele>
        <time>2021-02-18T10:26:46.000Z</time>
      </trkpt>
      <trkpt lat="47.282" lon="-2.50152">
        <ele>-26</ele>
        <time>2021-02-18T10:26:48.000Z</time>
      </trkpt>
      <trkpt lat="47.28194" lon="-2.50117">
        <ele>-26</ele>
        <time>2021-02-18T10:26:52.000Z</time>
      </trkpt>
      <trkpt lat="47.28183" lon="-2.50054">
        <ele>-26</ele>
        <time>2021-02-18T10:26:59.000Z</time>
      </trkpt>
      <trkpt lat="47.28176" lon="-2.50015">
        <ele>-26</ele>
        <time>2021-02-18T10:27:04.000Z</time>
      </trkpt>
      <trkpt lat="47.28172" lon="-2.49991">
        <ele>-26</ele>
        <time>2021-02-18T10:27:07.000Z</time>
      </trkpt>
      <trkpt lat="47.28169" lon="-2.49975">
        <ele>-26</ele>
        <time>2021-02-18T10:27:09.000Z</time>
      </trkpt>
      <trkpt lat="47.28161" lon="-2.49924">
        <ele>-26</ele>
        <time>2021-02-18T10:27:15.000Z</time>
      </trkpt>
      <trkpt lat="47.28154" lon="-2.49868">
        <ele>-26</ele>
        <time>2021-02-18T10:27:21.000Z</time>
      </trkpt>
      <trkpt lat="47.28149" lon="-2.4983">
        <ele>-26</ele>
        <time>2021-02-18T10:27:25.000Z</time>
      </trkpt>
      <trkpt lat="47.28146" lon="-2.49811">
        <ele>-26</ele>
        <time>2021-02-18T10:27:27.000Z</time>
      </trkpt>
      <trkpt lat="47.28141" lon="-2.49768">
        <ele>-25.60000038147</ele>
        <time>2021-02-18T10:27:32.000Z</time>
      </trkpt>
      <trkpt lat="47.2814" lon="-2.49759">
        <ele>-25.200000762939</ele>
        <time>2021-02-18T10:27:33.000Z</time>
      </trkpt>
      <trkpt lat="47.28139" lon="-2.49751">
        <ele>-24.799999237061</ele>
        <time>2021-02-18T10:27:34.000Z</time>
      </trkpt>
      <trkpt lat="47.28138" lon="-2.49743">
        <ele>-24.39999961853</ele>
        <time>2021-02-18T10:27:35.000Z</time>
      </trkpt>
      <trkpt lat="47.28137" lon="-2.49735">
        <ele>-24</ele>
        <time>2021-02-18T10:27:36.000Z</time>
      </trkpt>
      <trkpt lat="47.28132" lon="-2.49684">
        <ele>-24</ele>
        <time>2021-02-18T10:27:42.000Z</time>
      </trkpt>
      <trkpt lat="47.28129" lon="-2.49667">
        <ele>-24</ele>
        <time>2021-02-18T10:27:44.000Z</time>
      </trkpt>
      <trkpt lat="47.28124" lon="-2.49651">
        <ele>-24</ele>
        <time>2021-02-18T10:27:46.000Z</time>
      </trkpt>
      <trkpt lat="47.28121" lon="-2.49642">
        <ele>-24</ele>
        <time>2021-02-18T10:27:47.000Z</time>
      </trkpt>
      <trkpt lat="47.28107" lon="-2.49621">
        <ele>-24</ele>
        <time>2021-02-18T10:27:50.000Z</time>
      </trkpt>
      <trkpt lat="47.28103" lon="-2.49614">
        <ele>-24</ele>
        <time>2021-02-18T10:27:51.000Z</time>
      </trkpt>
      <trkpt lat="47.28094" lon="-2.49601">
        <ele>-23.39999961853</ele>
        <time>2021-02-18T10:27:53.000Z</time>
      </trkpt>
      <trkpt lat="47.28089" lon="-2.49594">
        <ele>-23</ele>
        <time>2021-02-18T10:27:54.000Z</time>
      </trkpt>
      <trkpt lat="47.28084" lon="-2.49587">
        <ele>-22.60000038147</ele>
        <time>2021-02-18T10:27:55.000Z</time>
      </trkpt>
      <trkpt lat="47.28079" lon="-2.4958">
        <ele>-22.200000762939</ele>
        <time>2021-02-18T10:27:56.000Z</time>
      </trkpt>
      <trkpt lat="47.28074" lon="-2.49573">
        <ele>-21.799999237061</ele>
        <time>2021-02-18T10:27:57.000Z</time>
      </trkpt>
      <trkpt lat="47.28069" lon="-2.49565">
        <ele>-21.799999237061</ele>
        <time>2021-02-18T10:27:58.000Z</time>
      </trkpt>
      <trkpt lat="47.28036" lon="-2.49524">
        <ele>-21.799999237061</ele>
        <time>2021-02-18T10:28:04.000Z</time>
      </trkpt>
      <trkpt lat="47.28001" lon="-2.49478">
        <ele>-21.799999237061</ele>
        <time>2021-02-18T10:28:11.000Z</time>
      </trkpt>
      <trkpt lat="47.27965" lon="-2.49428">
        <ele>-21.799999237061</ele>
        <time>2021-02-18T10:28:19.000Z</time>
      </trkpt>
      <trkpt lat="47.27943" lon="-2.49397">
        <ele>-21.39999961853</ele>
        <time>2021-02-18T10:28:24.000Z</time>
      </trkpt>
      <trkpt lat="47.27939" lon="-2.4939">
        <ele>-21</ele>
        <time>2021-02-18T10:28:25.000Z</time>
      </trkpt>
      <trkpt lat="47.27934" lon="-2.49384">
        <ele>-20.60000038147</ele>
        <time>2021-02-18T10:28:26.000Z</time>
      </trkpt>
      <trkpt lat="47.2793" lon="-2.49377">
        <ele>-20</ele>
        <time>2021-02-18T10:28:27.000Z</time>
      </trkpt>
      <trkpt lat="47.27925" lon="-2.49371">
        <ele>-19.60000038147</ele>
        <time>2021-02-18T10:28:28.000Z</time>
      </trkpt>
      <trkpt lat="47.27888" lon="-2.4932">
        <ele>-19.60000038147</ele>
        <time>2021-02-18T10:28:36.000Z</time>
      </trkpt>
      <trkpt lat="47.27851" lon="-2.49281">
        <ele>-19.60000038147</ele>
        <time>2021-02-18T10:28:43.000Z</time>
      </trkpt>
      <trkpt lat="47.27815" lon="-2.49264">
        <ele>-19.60000038147</ele>
        <time>2021-02-18T10:28:49.000Z</time>
      </trkpt>
      <trkpt lat="47.27774" lon="-2.49257">
        <ele>-19.60000038147</ele>
        <time>2021-02-18T10:28:55.000Z</time>
      </trkpt>
      <trkpt lat="47.27732" lon="-2.49257">
        <ele>-19.60000038147</ele>
        <time>2021-02-18T10:29:01.000Z</time>
      </trkpt>
      <trkpt lat="47.27691" lon="-2.49254">
        <ele>-19.60000038147</ele>
        <time>2021-02-18T10:29:07.000Z</time>
      </trkpt>
      <trkpt lat="47.27671" lon="-2.49247">
        <ele>-19.60000038147</ele>
        <time>2021-02-18T10:29:10.000Z</time>
      </trkpt>
      <trkpt lat="47.27658" lon="-2.49243">
        <ele>-19.60000038147</ele>
        <time>2021-02-18T10:29:12.000Z</time>
      </trkpt>
      <trkpt lat="47.27634" lon="-2.49234">
        <ele>-19.60000038147</ele>
        <time>2021-02-18T10:29:16.000Z</time>
      </trkpt>
      <trkpt lat="47.27631" lon="-2.49227">
        <ele>-20</ele>
        <time>2021-02-18T10:29:17.000Z</time>
      </trkpt>
      <trkpt lat="47.27627" lon="-2.49218">
        <ele>-20.60000038147</ele>
        <time>2021-02-18T10:29:18.000Z</time>
      </trkpt>
      <trkpt lat="47.27623" lon="-2.4921">
        <ele>-21</ele>
        <time>2021-02-18T10:29:19.000Z</time>
      </trkpt>
      <trkpt lat="47.27618" lon="-2.49203">
        <ele>-21.39999961853</ele>
        <time>2021-02-18T10:29:20.000Z</time>
      </trkpt>
      <trkpt lat="47.27614" lon="-2.49195">
        <ele>-21.799999237061</ele>
        <time>2021-02-18T10:29:21.000Z</time>
      </trkpt>
      <trkpt lat="47.27594" lon="-2.49153">
        <ele>-21.799999237061</ele>
        <time>2021-02-18T10:29:26.000Z</time>
      </trkpt>
      <trkpt lat="47.27592" lon="-2.49143">
        <ele>-21.799999237061</ele>
        <time>2021-02-18T10:29:27.000Z</time>
      </trkpt>
      <trkpt lat="47.27588" lon="-2.49113">
        <ele>-21.799999237061</ele>
        <time>2021-02-18T10:29:30.000Z</time>
      </trkpt>
      <trkpt lat="47.27587" lon="-2.49103">
        <ele>-21.799999237061</ele>
        <time>2021-02-18T10:29:31.000Z</time>
      </trkpt>
      <trkpt lat="47.27588" lon="-2.49055">
        <ele>-21.799999237061</ele>
        <time>2021-02-18T10:29:36.000Z</time>
      </trkpt>
      <trkpt lat="47.27592" lon="-2.49">
        <ele>-21.799999237061</ele>
        <time>2021-02-18T10:29:42.000Z</time>
      </trkpt>
      <trkpt lat="47.27593" lon="-2.48971">
        <ele>-21.39999961853</ele>
        <time>2021-02-18T10:29:45.000Z</time>
      </trkpt>
      <trkpt lat="47.27594" lon="-2.48962">
        <ele>-21</ele>
        <time>2021-02-18T10:29:46.000Z</time>
      </trkpt>
      <trkpt lat="47.27595" lon="-2.48952">
        <ele>-20.60000038147</ele>
        <time>2021-02-18T10:29:47.000Z</time>
      </trkpt>
      <trkpt lat="47.27595" lon="-2.48942">
        <ele>-19.60000038147</ele>
        <time>2021-02-18T10:29:48.000Z</time>
      </trkpt>
      <trkpt lat="47.27596" lon="-2.48933">
        <ele>-19.60000038147</ele>
        <time>2021-02-18T10:29:49.000Z</time>
      </trkpt>
      <trkpt lat="47.27602" lon="-2.48866">
        <ele>-19.60000038147</ele>
        <time>2021-02-18T10:29:56.000Z</time>
      </trkpt>
      <trkpt lat="47.27606" lon="-2.48796">
        <ele>-19.60000038147</ele>
        <time>2021-02-18T10:30:03.000Z</time>
      </trkpt>
      <trkpt lat="47.27603" lon="-2.48736">
        <ele>-19.60000038147</ele>
        <time>2021-02-18T10:30:09.000Z</time>
      </trkpt>
      <trkpt lat="47.27595" lon="-2.48667">
        <ele>-19.60000038147</ele>
        <time>2021-02-18T10:30:16.000Z</time>
      </trkpt>
      <trkpt lat="47.27587" lon="-2.4858">
        <ele>-19.60000038147</ele>
        <time>2021-02-18T10:30:25.000Z</time>
      </trkpt>
      <trkpt lat="47.2758" lon="-2.48495">
        <ele>-19.60000038147</ele>
        <time>2021-02-18T10:30:34.000Z</time>
      </trkpt>
      <trkpt lat="47.2758" lon="-2.48485">
        <ele>-19.60000038147</ele>
        <time>2021-02-18T10:30:35.000Z</time>
      </trkpt>
      <trkpt lat="47.27572" lon="-2.48425">
        <ele>-19.60000038147</ele>
        <time>2021-02-18T10:30:41.000Z</time>
      </trkpt>
      <trkpt lat="47.27559" lon="-2.48349">
        <ele>-19.60000038147</ele>
        <time>2021-02-18T10:30:48.000Z</time>
      </trkpt>
      <trkpt lat="47.27554" lon="-2.48327">
        <ele>-19.200000762939</ele>
        <time>2021-02-18T10:30:50.000Z</time>
      </trkpt>
      <trkpt lat="47.2755" lon="-2.48316">
        <ele>-18.799999237061</ele>
        <time>2021-02-18T10:30:51.000Z</time>
      </trkpt>
      <trkpt lat="47.27548" lon="-2.48305">
        <ele>-18.39999961853</ele>
        <time>2021-02-18T10:30:52.000Z</time>
      </trkpt>
      <trkpt lat="47.27546" lon="-2.48295">
        <ele>-17.799999237061</ele>
        <time>2021-02-18T10:30:53.000Z</time>
      </trkpt>
      <trkpt lat="47.27543" lon="-2.48284">
        <ele>-17.39999961853</ele>
        <time>2021-02-18T10:30:54.000Z</time>
      </trkpt>
      <trkpt lat="47.27532" lon="-2.4824">
        <ele>-17</ele>
        <time>2021-02-18T10:30:58.000Z</time>
      </trkpt>
      <trkpt lat="47.2753" lon="-2.48229">
        <ele>-16.39999961853</ele>
        <time>2021-02-18T10:30:59.000Z</time>
      </trkpt>
      <trkpt lat="47.27527" lon="-2.48219">
        <ele>-16</ele>
        <time>2021-02-18T10:31:00.000Z</time>
      </trkpt>
      <trkpt lat="47.27525" lon="-2.48208">
        <ele>-15</ele>
        <time>2021-02-18T10:31:01.000Z</time>
      </trkpt>
      <trkpt lat="47.2751" lon="-2.48149">
        <ele>-15</ele>
        <time>2021-02-18T10:31:07.000Z</time>
      </trkpt>
      <trkpt lat="47.27494" lon="-2.48093">
        <ele>-15</ele>
        <time>2021-02-18T10:31:13.000Z</time>
      </trkpt>
      <trkpt lat="47.27471" lon="-2.48043">
        <ele>-15</ele>
        <time>2021-02-18T10:31:19.000Z</time>
      </trkpt>
      <trkpt lat="47.27439" lon="-2.47976">
        <ele>-16</ele>
        <time>2021-02-18T10:31:26.000Z</time>
      </trkpt>
      <trkpt lat="47.27433" lon="-2.47967">
        <ele>-16.39999961853</ele>
        <time>2021-02-18T10:31:27.000Z</time>
      </trkpt>
      <trkpt lat="47.27427" lon="-2.47957">
        <ele>-16.799999237061</ele>
        <time>2021-02-18T10:31:28.000Z</time>
      </trkpt>
      <trkpt lat="47.2742" lon="-2.47949">
        <ele>-17.200000762939</ele>
        <time>2021-02-18T10:31:29.000Z</time>
      </trkpt>
      <trkpt lat="47.27406" lon="-2.47934">
        <ele>-17.200000762939</ele>
        <time>2021-02-18T10:31:31.000Z</time>
      </trkpt>
      <trkpt lat="47.27363" lon="-2.479">
        <ele>-17.200000762939</ele>
        <time>2021-02-18T10:31:37.000Z</time>
      </trkpt>
      <trkpt lat="47.27356" lon="-2.47896">
        <ele>-17.60000038147</ele>
        <time>2021-02-18T10:31:38.000Z</time>
      </trkpt>
      <trkpt lat="47.2735" lon="-2.47891">
        <ele>-18.200000762939</ele>
        <time>2021-02-18T10:31:39.000Z</time>
      </trkpt>
      <trkpt lat="47.27343" lon="-2.47887">
        <ele>-18.60000038147</ele>
        <time>2021-02-18T10:31:40.000Z</time>
      </trkpt>
      <trkpt lat="47.27337" lon="-2.47882">
        <ele>-19.200000762939</ele>
        <time>2021-02-18T10:31:41.000Z</time>
      </trkpt>
      <trkpt lat="47.27331" lon="-2.47878">
        <ele>-19.60000038147</ele>
        <time>2021-02-18T10:31:42.000Z</time>
      </trkpt>
      <trkpt lat="47.27319" lon="-2.47869">
        <ele>-19.60000038147</ele>
        <time>2021-02-18T10:31:44.000Z</time>
      </trkpt>
      <trkpt lat="47.27276" lon="-2.47833">
        <ele>-19.60000038147</ele>
        <time>2021-02-18T10:31:52.000Z</time>
      </trkpt>
      <trkpt lat="47.27242" lon="-2.47787">
        <ele>-19.60000038147</ele>
        <time>2021-02-18T10:31:59.000Z</time>
      </trkpt>
      <trkpt lat="47.27221" lon="-2.47743">
        <ele>-19.60000038147</ele>
        <time>2021-02-18T10:32:05.000Z</time>
      </trkpt>
      <trkpt lat="47.27219" lon="-2.47735">
        <ele>-19.60000038147</ele>
        <time>2021-02-18T10:32:06.000Z</time>
      </trkpt>
      <trkpt lat="47.27206" lon="-2.47679">
        <ele>-19.60000038147</ele>
        <time>2021-02-18T10:32:13.000Z</time>
      </trkpt>
      <trkpt lat="47.27202" lon="-2.47622">
        <ele>-19.60000038147</ele>
        <time>2021-02-18T10:32:19.000Z</time>
      </trkpt>
      <trkpt lat="47.27198" lon="-2.47569">
        <ele>-19.200000762939</ele>
        <time>2021-02-18T10:32:24.000Z</time>
      </trkpt>
      <trkpt lat="47.27197" lon="-2.47558">
        <ele>-18.799999237061</ele>
        <time>2021-02-18T10:32:25.000Z</time>
      </trkpt>
      <trkpt lat="47.27195" lon="-2.47546">
        <ele>-18.39999961853</ele>
        <time>2021-02-18T10:32:26.000Z</time>
      </trkpt>
      <trkpt lat="47.27194" lon="-2.47534">
        <ele>-18</ele>
        <time>2021-02-18T10:32:27.000Z</time>
      </trkpt>
      <trkpt lat="47.27192" lon="-2.47522">
        <ele>-17.60000038147</ele>
        <time>2021-02-18T10:32:28.000Z</time>
      </trkpt>
      <trkpt lat="47.27188" lon="-2.47499">
        <ele>-17.60000038147</ele>
        <time>2021-02-18T10:32:30.000Z</time>
      </trkpt>
      <trkpt lat="47.27185" lon="-2.47488">
        <ele>-17.60000038147</ele>
        <time>2021-02-18T10:32:31.000Z</time>
      </trkpt>
      <trkpt lat="47.27171" lon="-2.47447">
        <ele>-17.60000038147</ele>
        <time>2021-02-18T10:32:35.000Z</time>
      </trkpt>
      <trkpt lat="47.27144" lon="-2.47378">
        <ele>-17.200000762939</ele>
        <time>2021-02-18T10:32:42.000Z</time>
      </trkpt>
      <trkpt lat="47.27141" lon="-2.47367">
        <ele>-16.799999237061</ele>
        <time>2021-02-18T10:32:43.000Z</time>
      </trkpt>
      <trkpt lat="47.27138" lon="-2.47357">
        <ele>-16.39999961853</ele>
        <time>2021-02-18T10:32:44.000Z</time>
      </trkpt>
      <trkpt lat="47.27136" lon="-2.47347">
        <ele>-16</ele>
        <time>2021-02-18T10:32:45.000Z</time>
      </trkpt>
      <trkpt lat="47.27133" lon="-2.47337">
        <ele>-15.60000038147</ele>
        <time>2021-02-18T10:32:46.000Z</time>
      </trkpt>
      <trkpt lat="47.27132" lon="-2.47326">
        <ele>-15.60000038147</ele>
        <time>2021-02-18T10:32:47.000Z</time>
      </trkpt>
      <trkpt lat="47.2713" lon="-2.47315">
        <ele>-15.60000038147</ele>
        <time>2021-02-18T10:32:48.000Z</time>
      </trkpt>
      <trkpt lat="47.27125" lon="-2.47247">
        <ele>-15.60000038147</ele>
        <time>2021-02-18T10:32:54.000Z</time>
      </trkpt>
      <trkpt lat="47.27118" lon="-2.47165">
        <ele>-15.60000038147</ele>
        <time>2021-02-18T10:33:01.000Z</time>
      </trkpt>
      <trkpt lat="47.27117" lon="-2.47153">
        <ele>-15.60000038147</ele>
        <time>2021-02-18T10:33:02.000Z</time>
      </trkpt>
      <trkpt lat="47.27112" lon="-2.47082">
        <ele>-15.60000038147</ele>
        <time>2021-02-18T10:33:08.000Z</time>
      </trkpt>
      <trkpt lat="47.27108" lon="-2.47009">
        <ele>-15.60000038147</ele>
        <time>2021-02-18T10:33:14.000Z</time>
      </trkpt>
      <trkpt lat="47.27111" lon="-2.46926">
        <ele>-15.60000038147</ele>
        <time>2021-02-18T10:33:21.000Z</time>
      </trkpt>
      <trkpt lat="47.2712" lon="-2.46845">
        <ele>-15.60000038147</ele>
        <time>2021-02-18T10:33:28.000Z</time>
      </trkpt>
      <trkpt lat="47.27122" lon="-2.46822">
        <ele>-15.60000038147</ele>
        <time>2021-02-18T10:33:30.000Z</time>
      </trkpt>
      <trkpt lat="47.27122" lon="-2.46738">
        <ele>-15.60000038147</ele>
        <time>2021-02-18T10:33:37.000Z</time>
      </trkpt>
      <trkpt lat="47.27119" lon="-2.46656">
        <ele>-15.60000038147</ele>
        <time>2021-02-18T10:33:44.000Z</time>
      </trkpt>
      <trkpt lat="47.27119" lon="-2.46645">
        <ele>-16</ele>
        <time>2021-02-18T10:33:45.000Z</time>
      </trkpt>
      <trkpt lat="47.27118" lon="-2.46632">
        <ele>-16.39999961853</ele>
        <time>2021-02-18T10:33:46.000Z</time>
      </trkpt>
      <trkpt lat="47.27118" lon="-2.4662">
        <ele>-16.799999237061</ele>
        <time>2021-02-18T10:33:47.000Z</time>
      </trkpt>
      <trkpt lat="47.27118" lon="-2.46608">
        <ele>-17.200000762939</ele>
        <time>2021-02-18T10:33:48.000Z</time>
      </trkpt>
      <trkpt lat="47.27117" lon="-2.46596">
        <ele>-17.60000038147</ele>
        <time>2021-02-18T10:33:49.000Z</time>
      </trkpt>
      <trkpt lat="47.27113" lon="-2.46519">
        <ele>-17.60000038147</ele>
        <time>2021-02-18T10:33:55.000Z</time>
      </trkpt>
      <trkpt lat="47.27112" lon="-2.46506">
        <ele>-18</ele>
        <time>2021-02-18T10:33:56.000Z</time>
      </trkpt>
      <trkpt lat="47.2711" lon="-2.46493">
        <ele>-18.60000038147</ele>
        <time>2021-02-18T10:33:57.000Z</time>
      </trkpt>
      <trkpt lat="47.27109" lon="-2.4648">
        <ele>-19</ele>
        <time>2021-02-18T10:33:58.000Z</time>
      </trkpt>
      <trkpt lat="47.27108" lon="-2.46467">
        <ele>-19.39999961853</ele>
        <time>2021-02-18T10:33:59.000Z</time>
      </trkpt>
      <trkpt lat="47.27106" lon="-2.46453">
        <ele>-20</ele>
        <time>2021-02-18T10:34:00.000Z</time>
      </trkpt>
      <trkpt lat="47.27104" lon="-2.4644">
        <ele>-20</ele>
        <time>2021-02-18T10:34:01.000Z</time>
      </trkpt>
      <trkpt lat="47.27095" lon="-2.4639">
        <ele>-20.39999961853</ele>
        <time>2021-02-18T10:34:05.000Z</time>
      </trkpt>
      <trkpt lat="47.27092" lon="-2.46378">
        <ele>-20.799999237061</ele>
        <time>2021-02-18T10:34:06.000Z</time>
      </trkpt>
      <trkpt lat="47.27089" lon="-2.46367">
        <ele>-21.200000762939</ele>
        <time>2021-02-18T10:34:07.000Z</time>
      </trkpt>
      <trkpt lat="47.27086" lon="-2.46356">
        <ele>-21.60000038147</ele>
        <time>2021-02-18T10:34:08.000Z</time>
      </trkpt>
      <trkpt lat="47.27083" lon="-2.46346">
        <ele>-22</ele>
        <time>2021-02-18T10:34:09.000Z</time>
      </trkpt>
      <trkpt lat="47.27073" lon="-2.46307">
        <ele>-22</ele>
        <time>2021-02-18T10:34:13.000Z</time>
      </trkpt>
      <trkpt lat="47.27054" lon="-2.46234">
        <ele>-22</ele>
        <time>2021-02-18T10:34:21.000Z</time>
      </trkpt>
      <trkpt lat="47.27037" lon="-2.46175">
        <ele>-22</ele>
        <time>2021-02-18T10:34:27.000Z</time>
      </trkpt>
      <trkpt lat="47.27034" lon="-2.46165">
        <ele>-22</ele>
        <time>2021-02-18T10:34:28.000Z</time>
      </trkpt>
      <trkpt lat="47.27016" lon="-2.46098">
        <ele>-21.60000038147</ele>
        <time>2021-02-18T10:34:35.000Z</time>
      </trkpt>
      <trkpt lat="47.27014" lon="-2.46088">
        <ele>-21.200000762939</ele>
        <time>2021-02-18T10:34:36.000Z</time>
      </trkpt>
      <trkpt lat="47.27011" lon="-2.46078">
        <ele>-20.799999237061</ele>
        <time>2021-02-18T10:34:37.000Z</time>
      </trkpt>
      <trkpt lat="47.27008" lon="-2.46068">
        <ele>-20.200000762939</ele>
        <time>2021-02-18T10:34:38.000Z</time>
      </trkpt>
      <trkpt lat="47.27006" lon="-2.46057">
        <ele>-19.799999237061</ele>
        <time>2021-02-18T10:34:39.000Z</time>
      </trkpt>
      <trkpt lat="47.26997" lon="-2.46017">
        <ele>-19.799999237061</ele>
        <time>2021-02-18T10:34:43.000Z</time>
      </trkpt>
      <trkpt lat="47.2699" lon="-2.45977">
        <ele>-19.39999961853</ele>
        <time>2021-02-18T10:34:47.000Z</time>
      </trkpt>
      <trkpt lat="47.26988" lon="-2.45966">
        <ele>-19</ele>
        <time>2021-02-18T10:34:48.000Z</time>
      </trkpt>
      <trkpt lat="47.26986" lon="-2.45956">
        <ele>-18.60000038147</ele>
        <time>2021-02-18T10:34:49.000Z</time>
      </trkpt>
      <trkpt lat="47.26984" lon="-2.45946">
        <ele>-18.200000762939</ele>
        <time>2021-02-18T10:34:50.000Z</time>
      </trkpt>
      <trkpt lat="47.26982" lon="-2.45935">
        <ele>-17.799999237061</ele>
        <time>2021-02-18T10:34:51.000Z</time>
      </trkpt>
      <trkpt lat="47.26971" lon="-2.45874">
        <ele>-17.799999237061</ele>
        <time>2021-02-18T10:34:57.000Z</time>
      </trkpt>
      <trkpt lat="47.26967" lon="-2.45797">
        <ele>-17.799999237061</ele>
        <time>2021-02-18T10:35:04.000Z</time>
      </trkpt>
      <trkpt lat="47.26964" lon="-2.45716">
        <ele>-17.799999237061</ele>
        <time>2021-02-18T10:35:11.000Z</time>
      </trkpt>
      <trkpt lat="47.26958" lon="-2.45662">
        <ele>-17.799999237061</ele>
        <time>2021-02-18T10:35:16.000Z</time>
      </trkpt>
      <trkpt lat="47.26951" lon="-2.45644">
        <ele>-17.799999237061</ele>
        <time>2021-02-18T10:35:18.000Z</time>
      </trkpt>
      <trkpt lat="47.2693" lon="-2.45613">
        <ele>-17.799999237061</ele>
        <time>2021-02-18T10:35:22.000Z</time>
      </trkpt>
      <trkpt lat="47.26917" lon="-2.45601">
        <ele>-17.799999237061</ele>
        <time>2021-02-18T10:35:24.000Z</time>
      </trkpt>
      <trkpt lat="47.26898" lon="-2.45582">
        <ele>-17.799999237061</ele>
        <time>2021-02-18T10:35:27.000Z</time>
      </trkpt>
      <trkpt lat="47.26867" lon="-2.45557">
        <ele>-18.200000762939</ele>
        <time>2021-02-18T10:35:32.000Z</time>
      </trkpt>
      <trkpt lat="47.26861" lon="-2.45552">
        <ele>-18.60000038147</ele>
        <time>2021-02-18T10:35:33.000Z</time>
      </trkpt>
      <trkpt lat="47.26855" lon="-2.45547">
        <ele>-19</ele>
        <time>2021-02-18T10:35:34.000Z</time>
      </trkpt>
      <trkpt lat="47.26849" lon="-2.45542">
        <ele>-19.799999237061</ele>
        <time>2021-02-18T10:35:35.000Z</time>
      </trkpt>
      <trkpt lat="47.26805" lon="-2.455">
        <ele>-19.799999237061</ele>
        <time>2021-02-18T10:35:42.000Z</time>
      </trkpt>
      <trkpt lat="47.26765" lon="-2.45449">
        <ele>-20.200000762939</ele>
        <time>2021-02-18T10:35:49.000Z</time>
      </trkpt>
      <trkpt lat="47.2676" lon="-2.45441">
        <ele>-20.60000038147</ele>
        <time>2021-02-18T10:35:50.000Z</time>
      </trkpt>
      <trkpt lat="47.26754" lon="-2.45435">
        <ele>-21</ele>
        <time>2021-02-18T10:35:51.000Z</time>
      </trkpt>
      <trkpt lat="47.26748" lon="-2.45428">
        <ele>-21.39999961853</ele>
        <time>2021-02-18T10:35:52.000Z</time>
      </trkpt>
      <trkpt lat="47.26741" lon="-2.4542">
        <ele>-21.799999237061</ele>
        <time>2021-02-18T10:35:53.000Z</time>
      </trkpt>
      <trkpt lat="47.2673" lon="-2.45406">
        <ele>-21.799999237061</ele>
        <time>2021-02-18T10:35:55.000Z</time>
      </trkpt>
      <trkpt lat="47.26693" lon="-2.45371">
        <ele>-21.799999237061</ele>
        <time>2021-02-18T10:36:01.000Z</time>
      </trkpt>
      <trkpt lat="47.26662" lon="-2.45342">
        <ele>-21.39999961853</ele>
        <time>2021-02-18T10:36:06.000Z</time>
      </trkpt>
      <trkpt lat="47.26656" lon="-2.45336">
        <ele>-21</ele>
        <time>2021-02-18T10:36:07.000Z</time>
      </trkpt>
      <trkpt lat="47.26649" lon="-2.4533">
        <ele>-20.60000038147</ele>
        <time>2021-02-18T10:36:08.000Z</time>
      </trkpt>
      <trkpt lat="47.26643" lon="-2.45323">
        <ele>-20.200000762939</ele>
        <time>2021-02-18T10:36:09.000Z</time>
      </trkpt>
      <trkpt lat="47.26637" lon="-2.45317">
        <ele>-19.799999237061</ele>
        <time>2021-02-18T10:36:10.000Z</time>
      </trkpt>
      <trkpt lat="47.2662" lon="-2.453">
        <ele>-19.799999237061</ele>
        <time>2021-02-18T10:36:13.000Z</time>
      </trkpt>
      <trkpt lat="47.26572" lon="-2.45254">
        <ele>-19.799999237061</ele>
        <time>2021-02-18T10:36:21.000Z</time>
      </trkpt>
      <trkpt lat="47.26566" lon="-2.45249">
        <ele>-19.799999237061</ele>
        <time>2021-02-18T10:36:22.000Z</time>
      </trkpt>
      <trkpt lat="47.26531" lon="-2.45217">
        <ele>-19.799999237061</ele>
        <time>2021-02-18T10:36:28.000Z</time>
      </trkpt>
      <trkpt lat="47.26514" lon="-2.452">
        <ele>-19.799999237061</ele>
        <time>2021-02-18T10:36:31.000Z</time>
      </trkpt>
      <trkpt lat="47.26501" lon="-2.45189">
        <ele>-19.799999237061</ele>
        <time>2021-02-18T10:36:33.000Z</time>
      </trkpt>
      <trkpt lat="47.26461" lon="-2.45142">
        <ele>-19.799999237061</ele>
        <time>2021-02-18T10:36:40.000Z</time>
      </trkpt>
      <trkpt lat="47.26447" lon="-2.45119">
        <ele>-19.39999961853</ele>
        <time>2021-02-18T10:36:43.000Z</time>
      </trkpt>
      <trkpt lat="47.26443" lon="-2.4511">
        <ele>-19</ele>
        <time>2021-02-18T10:36:44.000Z</time>
      </trkpt>
      <trkpt lat="47.26439" lon="-2.45101">
        <ele>-18.60000038147</ele>
        <time>2021-02-18T10:36:45.000Z</time>
      </trkpt>
      <trkpt lat="47.26435" lon="-2.45092">
        <ele>-18.200000762939</ele>
        <time>2021-02-18T10:36:46.000Z</time>
      </trkpt>
      <trkpt lat="47.26431" lon="-2.45081">
        <ele>-17.799999237061</ele>
        <time>2021-02-18T10:36:47.000Z</time>
      </trkpt>
      <trkpt lat="47.26419" lon="-2.45042">
        <ele>-17.799999237061</ele>
        <time>2021-02-18T10:36:51.000Z</time>
      </trkpt>
      <trkpt lat="47.26403" lon="-2.44987">
        <ele>-17.799999237061</ele>
        <time>2021-02-18T10:36:57.000Z</time>
      </trkpt>
      <trkpt lat="47.26389" lon="-2.44943">
        <ele>-17.799999237061</ele>
        <time>2021-02-18T10:37:03.000Z</time>
      </trkpt>
      <trkpt lat="47.26377" lon="-2.44913">
        <ele>-17.799999237061</ele>
        <time>2021-02-18T10:37:07.000Z</time>
      </trkpt>
      <trkpt lat="47.26372" lon="-2.44907">
        <ele>-17.799999237061</ele>
        <time>2021-02-18T10:37:08.000Z</time>
      </trkpt>
      <trkpt lat="47.2635" lon="-2.449">
        <ele>-17.799999237061</ele>
        <time>2021-02-18T10:37:11.000Z</time>
      </trkpt>
      <trkpt lat="47.26303" lon="-2.44886">
        <ele>-17.799999237061</ele>
        <time>2021-02-18T10:37:17.000Z</time>
      </trkpt>
      <trkpt lat="47.26295" lon="-2.44881">
        <ele>-17.799999237061</ele>
        <time>2021-02-18T10:37:18.000Z</time>
      </trkpt>
      <trkpt lat="47.26276" lon="-2.44858">
        <ele>-17.799999237061</ele>
        <time>2021-02-18T10:37:21.000Z</time>
      </trkpt>
      <trkpt lat="47.26266" lon="-2.4484">
        <ele>-17.799999237061</ele>
        <time>2021-02-18T10:37:23.000Z</time>
      </trkpt>
      <trkpt lat="47.26258" lon="-2.44819">
        <ele>-17.799999237061</ele>
        <time>2021-02-18T10:37:25.000Z</time>
      </trkpt>
      <trkpt lat="47.26232" lon="-2.44745">
        <ele>-17.799999237061</ele>
        <time>2021-02-18T10:37:32.000Z</time>
      </trkpt>
      <trkpt lat="47.26218" lon="-2.44684">
        <ele>-17.799999237061</ele>
        <time>2021-02-18T10:37:38.000Z</time>
      </trkpt>
      <trkpt lat="47.26213" lon="-2.44618">
        <ele>-17.799999237061</ele>
        <time>2021-02-18T10:37:44.000Z</time>
      </trkpt>
      <trkpt lat="47.26213" lon="-2.44553">
        <ele>-17.799999237061</ele>
        <time>2021-02-18T10:37:50.000Z</time>
      </trkpt>
      <trkpt lat="47.26207" lon="-2.44479">
        <ele>-17.799999237061</ele>
        <time>2021-02-18T10:37:57.000Z</time>
      </trkpt>
      <trkpt lat="47.26193" lon="-2.44425">
        <ele>-17.799999237061</ele>
        <time>2021-02-18T10:38:02.000Z</time>
      </trkpt>
      <trkpt lat="47.26168" lon="-2.44351">
        <ele>-17.799999237061</ele>
        <time>2021-02-18T10:38:09.000Z</time>
      </trkpt>
      <trkpt lat="47.26164" lon="-2.44341">
        <ele>-17.799999237061</ele>
        <time>2021-02-18T10:38:10.000Z</time>
      </trkpt>
      <trkpt lat="47.26139" lon="-2.44272">
        <ele>-17.799999237061</ele>
        <time>2021-02-18T10:38:17.000Z</time>
      </trkpt>
      <trkpt lat="47.26116" lon="-2.442">
        <ele>-17.799999237061</ele>
        <time>2021-02-18T10:38:25.000Z</time>
      </trkpt>
      <trkpt lat="47.2611" lon="-2.44172">
        <ele>-16.799999237061</ele>
        <time>2021-02-18T10:38:28.000Z</time>
      </trkpt>
      <trkpt lat="47.26108" lon="-2.44163">
        <ele>-16.39999961853</ele>
        <time>2021-02-18T10:38:29.000Z</time>
      </trkpt>
      <trkpt lat="47.26106" lon="-2.44154">
        <ele>-16</ele>
        <time>2021-02-18T10:38:30.000Z</time>
      </trkpt>
      <trkpt lat="47.26105" lon="-2.44145">
        <ele>-15.39999961853</ele>
        <time>2021-02-18T10:38:31.000Z</time>
      </trkpt>
      <trkpt lat="47.26103" lon="-2.44135">
        <ele>-15.39999961853</ele>
        <time>2021-02-18T10:38:32.000Z</time>
      </trkpt>
      <trkpt lat="47.2609" lon="-2.4407">
        <ele>-15.39999961853</ele>
        <time>2021-02-18T10:38:38.000Z</time>
      </trkpt>
      <trkpt lat="47.26079" lon="-2.43992">
        <ele>-15.39999961853</ele>
        <time>2021-02-18T10:38:45.000Z</time>
      </trkpt>
      <trkpt lat="47.26076" lon="-2.43969">
        <ele>-15.39999961853</ele>
        <time>2021-02-18T10:38:47.000Z</time>
      </trkpt>
      <trkpt lat="47.26069" lon="-2.43897">
        <ele>-16.39999961853</ele>
        <time>2021-02-18T10:38:53.000Z</time>
      </trkpt>
      <trkpt lat="47.26068" lon="-2.43885">
        <ele>-16.799999237061</ele>
        <time>2021-02-18T10:38:54.000Z</time>
      </trkpt>
      <trkpt lat="47.26068" lon="-2.43873">
        <ele>-17.200000762939</ele>
        <time>2021-02-18T10:38:55.000Z</time>
      </trkpt>
      <trkpt lat="47.26067" lon="-2.43861">
        <ele>-17.60000038147</ele>
        <time>2021-02-18T10:38:56.000Z</time>
      </trkpt>
      <trkpt lat="47.26068" lon="-2.43848">
        <ele>-17.60000038147</ele>
        <time>2021-02-18T10:38:57.000Z</time>
      </trkpt>
      <trkpt lat="47.26074" lon="-2.43785">
        <ele>-17.60000038147</ele>
        <time>2021-02-18T10:39:02.000Z</time>
      </trkpt>
      <trkpt lat="47.26088" lon="-2.43714">
        <ele>-17.60000038147</ele>
        <time>2021-02-18T10:39:08.000Z</time>
      </trkpt>
      <trkpt lat="47.26089" lon="-2.43688">
        <ele>-17.60000038147</ele>
        <time>2021-02-18T10:39:10.000Z</time>
      </trkpt>
      <trkpt lat="47.26088" lon="-2.43662">
        <ele>-17.60000038147</ele>
        <time>2021-02-18T10:39:12.000Z</time>
      </trkpt>
      <trkpt lat="47.26077" lon="-2.43629">
        <ele>-17.60000038147</ele>
        <time>2021-02-18T10:39:15.000Z</time>
      </trkpt>
      <trkpt lat="47.26067" lon="-2.43608">
        <ele>-17.60000038147</ele>
        <time>2021-02-18T10:39:17.000Z</time>
      </trkpt>
      <trkpt lat="47.26051" lon="-2.4358">
        <ele>-17.60000038147</ele>
        <time>2021-02-18T10:39:20.000Z</time>
      </trkpt>
      <trkpt lat="47.26015" lon="-2.43505">
        <ele>-17.60000038147</ele>
        <time>2021-02-18T10:39:27.000Z</time>
      </trkpt>
      <trkpt lat="47.25991" lon="-2.43434">
        <ele>-18</ele>
        <time>2021-02-18T10:39:33.000Z</time>
      </trkpt>
      <trkpt lat="47.25987" lon="-2.43423">
        <ele>-18.39999961853</ele>
        <time>2021-02-18T10:39:34.000Z</time>
      </trkpt>
      <trkpt lat="47.25982" lon="-2.43411">
        <ele>-18.799999237061</ele>
        <time>2021-02-18T10:39:35.000Z</time>
      </trkpt>
      <trkpt lat="47.25978" lon="-2.43399">
        <ele>-19.200000762939</ele>
        <time>2021-02-18T10:39:36.000Z</time>
      </trkpt>
      <trkpt lat="47.25974" lon="-2.43388">
        <ele>-19.799999237061</ele>
        <time>2021-02-18T10:39:37.000Z</time>
      </trkpt>
      <trkpt lat="47.25954" lon="-2.4332">
        <ele>-19.799999237061</ele>
        <time>2021-02-18T10:39:43.000Z</time>
      </trkpt>
      <trkpt lat="47.25949" lon="-2.43287">
        <ele>-19.799999237061</ele>
        <time>2021-02-18T10:39:46.000Z</time>
      </trkpt>
      <trkpt lat="47.25946" lon="-2.43266">
        <ele>-19.799999237061</ele>
        <time>2021-02-18T10:39:48.000Z</time>
      </trkpt>
      <trkpt lat="47.25942" lon="-2.43196">
        <ele>-19.799999237061</ele>
        <time>2021-02-18T10:39:55.000Z</time>
      </trkpt>
      <trkpt lat="47.25943" lon="-2.43156">
        <ele>-19.799999237061</ele>
        <time>2021-02-18T10:40:00.000Z</time>
      </trkpt>
      <trkpt lat="47.25945" lon="-2.43115">
        <ele>-19.799999237061</ele>
        <time>2021-02-18T10:40:04.000Z</time>
      </trkpt>
      <trkpt lat="47.25958" lon="-2.43029">
        <ele>-19.799999237061</ele>
        <time>2021-02-18T10:40:12.000Z</time>
      </trkpt>
      <trkpt lat="47.25959" lon="-2.42975">
        <ele>-19.39999961853</ele>
        <time>2021-02-18T10:40:17.000Z</time>
      </trkpt>
      <trkpt lat="47.2596" lon="-2.42964">
        <ele>-19</ele>
        <time>2021-02-18T10:40:18.000Z</time>
      </trkpt>
      <trkpt lat="47.25962" lon="-2.42952">
        <ele>-18.39999961853</ele>
        <time>2021-02-18T10:40:19.000Z</time>
      </trkpt>
      <trkpt lat="47.25964" lon="-2.42942">
        <ele>-18</ele>
        <time>2021-02-18T10:40:20.000Z</time>
      </trkpt>
      <trkpt lat="47.25967" lon="-2.42932">
        <ele>-17.60000038147</ele>
        <time>2021-02-18T10:40:21.000Z</time>
      </trkpt>
      <trkpt lat="47.2597" lon="-2.42922">
        <ele>-17.60000038147</ele>
        <time>2021-02-18T10:40:22.000Z</time>
      </trkpt>
      <trkpt lat="47.25983" lon="-2.42881">
        <ele>-17.60000038147</ele>
        <time>2021-02-18T10:40:26.000Z</time>
      </trkpt>
      <trkpt lat="47.25986" lon="-2.42836">
        <ele>-17.60000038147</ele>
        <time>2021-02-18T10:40:30.000Z</time>
      </trkpt>
      <trkpt lat="47.25985" lon="-2.4278">
        <ele>-17.60000038147</ele>
        <time>2021-02-18T10:40:35.000Z</time>
      </trkpt>
      <trkpt lat="47.25982" lon="-2.42697">
        <ele>-17.60000038147</ele>
        <time>2021-02-18T10:40:42.000Z</time>
      </trkpt>
      <trkpt lat="47.2598" lon="-2.42683">
        <ele>-17.60000038147</ele>
        <time>2021-02-18T10:40:43.000Z</time>
      </trkpt>
      <trkpt lat="47.25971" lon="-2.42597">
        <ele>-17.60000038147</ele>
        <time>2021-02-18T10:40:50.000Z</time>
      </trkpt>
      <trkpt lat="47.25974" lon="-2.42548">
        <ele>-17.60000038147</ele>
        <time>2021-02-18T10:40:54.000Z</time>
      </trkpt>
      <trkpt lat="47.25978" lon="-2.42536">
        <ele>-17.60000038147</ele>
        <time>2021-02-18T10:40:55.000Z</time>
      </trkpt>
      <trkpt lat="47.25989" lon="-2.42484">
        <ele>-17.60000038147</ele>
        <time>2021-02-18T10:40:59.000Z</time>
      </trkpt>
      <trkpt lat="47.25996" lon="-2.42413">
        <ele>-17.60000038147</ele>
        <time>2021-02-18T10:41:05.000Z</time>
      </trkpt>
      <trkpt lat="47.25989" lon="-2.42371">
        <ele>-17.60000038147</ele>
        <time>2021-02-18T10:41:09.000Z</time>
      </trkpt>
      <trkpt lat="47.25986" lon="-2.42361">
        <ele>-17.60000038147</ele>
        <time>2021-02-18T10:41:10.000Z</time>
      </trkpt>
      <trkpt lat="47.25977" lon="-2.42345">
        <ele>-17.60000038147</ele>
        <time>2021-02-18T10:41:12.000Z</time>
      </trkpt>
      <trkpt lat="47.25966" lon="-2.4233">
        <ele>-17.60000038147</ele>
        <time>2021-02-18T10:41:14.000Z</time>
      </trkpt>
      <trkpt lat="47.25955" lon="-2.42314">
        <ele>-17.60000038147</ele>
        <time>2021-02-18T10:41:16.000Z</time>
      </trkpt>
      <trkpt lat="47.25938" lon="-2.42277">
        <ele>-17.60000038147</ele>
        <time>2021-02-18T10:41:20.000Z</time>
      </trkpt>
      <trkpt lat="47.25923" lon="-2.42224">
        <ele>-17.60000038147</ele>
        <time>2021-02-18T10:41:25.000Z</time>
      </trkpt>
      <trkpt lat="47.25913" lon="-2.42142">
        <ele>-17.60000038147</ele>
        <time>2021-02-18T10:41:32.000Z</time>
      </trkpt>
      <trkpt lat="47.25911" lon="-2.42098">
        <ele>-17.60000038147</ele>
        <time>2021-02-18T10:41:37.000Z</time>
      </trkpt>
      <trkpt lat="47.2591" lon="-2.42076">
        <ele>-17.60000038147</ele>
        <time>2021-02-18T10:41:40.000Z</time>
      </trkpt>
      <trkpt lat="47.25909" lon="-2.42063">
        <ele>-17.60000038147</ele>
        <time>2021-02-18T10:41:42.000Z</time>
      </trkpt>
      <trkpt lat="47.25915" lon="-2.42054">
        <ele>-17.60000038147</ele>
        <time>2021-02-18T10:41:44.000Z</time>
      </trkpt>
      <trkpt lat="47.25919" lon="-2.42051">
        <ele>-17.60000038147</ele>
        <time>2021-02-18T10:41:45.000Z</time>
      </trkpt>
      <trkpt lat="47.25926" lon="-2.42044">
        <ele>-17.60000038147</ele>
        <time>2021-02-18T10:41:47.000Z</time>
      </trkpt>
      <trkpt lat="47.25934" lon="-2.42036">
        <ele>-17.60000038147</ele>
        <time>2021-02-18T10:41:49.000Z</time>
      </trkpt>
      <trkpt lat="47.25939" lon="-2.42033">
        <ele>-17.60000038147</ele>
        <time>2021-02-18T10:41:50.000Z</time>
      </trkpt>
      <trkpt lat="47.25959" lon="-2.42017">
        <ele>-17.60000038147</ele>
        <time>2021-02-18T10:41:54.000Z</time>
      </trkpt>
      <trkpt lat="47.25973" lon="-2.42008">
        <ele>-17.60000038147</ele>
        <time>2021-02-18T10:41:57.000Z</time>
      </trkpt>
      <trkpt lat="47.25984" lon="-2.42008">
        <ele>-17.60000038147</ele>
        <time>2021-02-18T10:41:59.000Z</time>
      </trkpt>
      <trkpt lat="47.25993" lon="-2.4201">
        <ele>-17.200000762939</ele>
        <time>2021-02-18T10:42:01.000Z</time>
      </trkpt>
      <trkpt lat="47.25997" lon="-2.42008">
        <ele>-16.799999237061</ele>
        <time>2021-02-18T10:42:02.000Z</time>
      </trkpt>
      <trkpt lat="47.26" lon="-2.42003">
        <ele>-16.39999961853</ele>
        <time>2021-02-18T10:42:03.000Z</time>
      </trkpt>
      <trkpt lat="47.26001" lon="-2.41997">
        <ele>-16</ele>
        <time>2021-02-18T10:42:04.000Z</time>
      </trkpt>
      <trkpt lat="47.26002" lon="-2.4199">
        <ele>-15.60000038147</ele>
        <time>2021-02-18T10:42:05.000Z</time>
      </trkpt>
      <trkpt lat="47.26011" lon="-2.41971">
        <ele>-15.60000038147</ele>
        <time>2021-02-18T10:42:08.000Z</time>
      </trkpt>
      <trkpt lat="47.26014" lon="-2.41965">
        <ele>-15.60000038147</ele>
        <time>2021-02-18T10:42:09.000Z</time>
      </trkpt>
      <trkpt lat="47.26037" lon="-2.41929">
        <ele>-15.60000038147</ele>
        <time>2021-02-18T10:42:15.000Z</time>
      </trkpt>
      <trkpt lat="47.26041" lon="-2.41924">
        <ele>-15.60000038147</ele>
        <time>2021-02-18T10:42:16.000Z</time>
      </trkpt>
      <trkpt lat="47.26063" lon="-2.41896">
        <ele>-16</ele>
        <time>2021-02-18T10:42:22.000Z</time>
      </trkpt>
      <trkpt lat="47.26067" lon="-2.41891">
        <ele>-16.39999961853</ele>
        <time>2021-02-18T10:42:23.000Z</time>
      </trkpt>
      <trkpt lat="47.26071" lon="-2.41886">
        <ele>-17</ele>
        <time>2021-02-18T10:42:24.000Z</time>
      </trkpt>
      <trkpt lat="47.26075" lon="-2.4188">
        <ele>-17.39999961853</ele>
        <time>2021-02-18T10:42:25.000Z</time>
      </trkpt>
      <trkpt lat="47.26078" lon="-2.41874">
        <ele>-17.799999237061</ele>
        <time>2021-02-18T10:42:26.000Z</time>
      </trkpt>
      <trkpt lat="47.26085" lon="-2.41863">
        <ele>-17.799999237061</ele>
        <time>2021-02-18T10:42:28.000Z</time>
      </trkpt>
      <trkpt lat="47.2609" lon="-2.41857">
        <ele>-17.799999237061</ele>
        <time>2021-02-18T10:42:29.000Z</time>
      </trkpt>
      <trkpt lat="47.26112" lon="-2.41825">
        <ele>-17.799999237061</ele>
        <time>2021-02-18T10:42:35.000Z</time>
      </trkpt>
      <trkpt lat="47.26127" lon="-2.41807">
        <ele>-18.200000762939</ele>
        <time>2021-02-18T10:42:39.000Z</time>
      </trkpt>
      <trkpt lat="47.2613" lon="-2.41804">
        <ele>-18.60000038147</ele>
        <time>2021-02-18T10:42:40.000Z</time>
      </trkpt>
      <trkpt lat="47.26134" lon="-2.41802">
        <ele>-19</ele>
        <time>2021-02-18T10:42:41.000Z</time>
      </trkpt>
      <trkpt lat="47.26138" lon="-2.41801">
        <ele>-19.39999961853</ele>
        <time>2021-02-18T10:42:42.000Z</time>
      </trkpt>
      <trkpt lat="47.26142" lon="-2.41802">
        <ele>-20</ele>
        <time>2021-02-18T10:42:43.000Z</time>
      </trkpt>
      <trkpt lat="47.2615" lon="-2.41806">
        <ele>-20</ele>
        <time>2021-02-18T10:42:45.000Z</time>
      </trkpt>
      <trkpt lat="47.26176" lon="-2.41826">
        <ele>-20</ele>
        <time>2021-02-18T10:42:51.000Z</time>
      </trkpt>
      <trkpt lat="47.26202" lon="-2.41857">
        <ele>-20</ele>
        <time>2021-02-18T10:42:58.000Z</time>
      </trkpt>
      <trkpt lat="47.26224" lon="-2.41882">
        <ele>-20</ele>
        <time>2021-02-18T10:43:03.000Z</time>
      </trkpt>
      <trkpt lat="47.26268" lon="-2.41916">
        <ele>-20</ele>
        <time>2021-02-18T10:43:11.000Z</time>
      </trkpt>
      <trkpt lat="47.26273" lon="-2.41919">
        <ele>-20.39999961853</ele>
        <time>2021-02-18T10:43:12.000Z</time>
      </trkpt>
      <trkpt lat="47.26279" lon="-2.41923">
        <ele>-20.799999237061</ele>
        <time>2021-02-18T10:43:13.000Z</time>
      </trkpt>
      <trkpt lat="47.26284" lon="-2.41926">
        <ele>-21.200000762939</ele>
        <time>2021-02-18T10:43:14.000Z</time>
      </trkpt>
      <trkpt lat="47.2629" lon="-2.41929">
        <ele>-21.60000038147</ele>
        <time>2021-02-18T10:43:15.000Z</time>
      </trkpt>
      <trkpt lat="47.26296" lon="-2.41933">
        <ele>-22.200000762939</ele>
        <time>2021-02-18T10:43:16.000Z</time>
      </trkpt>
      <trkpt lat="47.26302" lon="-2.41937">
        <ele>-22.200000762939</ele>
        <time>2021-02-18T10:43:17.000Z</time>
      </trkpt>
      <trkpt lat="47.26352" lon="-2.4197">
        <ele>-22.200000762939</ele>
        <time>2021-02-18T10:43:25.000Z</time>
      </trkpt>
      <trkpt lat="47.26388" lon="-2.41994">
        <ele>-22.200000762939</ele>
        <time>2021-02-18T10:43:31.000Z</time>
      </trkpt>
      <trkpt lat="47.26427" lon="-2.42025">
        <ele>-22.200000762939</ele>
        <time>2021-02-18T10:43:38.000Z</time>
      </trkpt>
      <trkpt lat="47.26465" lon="-2.42064">
        <ele>-22.200000762939</ele>
        <time>2021-02-18T10:43:45.000Z</time>
      </trkpt>
      <trkpt lat="47.26497" lon="-2.42101">
        <ele>-22.200000762939</ele>
        <time>2021-02-18T10:43:51.000Z</time>
      </trkpt>
      <trkpt lat="47.26536" lon="-2.42139">
        <ele>-22.200000762939</ele>
        <time>2021-02-18T10:43:58.000Z</time>
      </trkpt>
      <trkpt lat="47.26563" lon="-2.42165">
        <ele>-22.200000762939</ele>
        <time>2021-02-18T10:44:03.000Z</time>
      </trkpt>
      <trkpt lat="47.26569" lon="-2.42169">
        <ele>-22.60000038147</ele>
        <time>2021-02-18T10:44:04.000Z</time>
      </trkpt>
      <trkpt lat="47.26575" lon="-2.42173">
        <ele>-23</ele>
        <time>2021-02-18T10:44:05.000Z</time>
      </trkpt>
      <trkpt lat="47.26581" lon="-2.42178">
        <ele>-23.39999961853</ele>
        <time>2021-02-18T10:44:06.000Z</time>
      </trkpt>
      <trkpt lat="47.26587" lon="-2.42183">
        <ele>-24.200000762939</ele>
        <time>2021-02-18T10:44:07.000Z</time>
      </trkpt>
      <trkpt lat="47.26604" lon="-2.42197">
        <ele>-24.200000762939</ele>
        <time>2021-02-18T10:44:10.000Z</time>
      </trkpt>
      <trkpt lat="47.26641" lon="-2.42231">
        <ele>-24.200000762939</ele>
        <time>2021-02-18T10:44:17.000Z</time>
      </trkpt>
      <trkpt lat="47.26672" lon="-2.42275">
        <ele>-24.200000762939</ele>
        <time>2021-02-18T10:44:24.000Z</time>
      </trkpt>
      <trkpt lat="47.26697" lon="-2.42301">
        <ele>-24.200000762939</ele>
        <time>2021-02-18T10:44:29.000Z</time>
      </trkpt>
      <trkpt lat="47.26737" lon="-2.42329">
        <ele>-24.200000762939</ele>
        <time>2021-02-18T10:44:36.000Z</time>
      </trkpt>
      <trkpt lat="47.26771" lon="-2.42352">
        <ele>-24.200000762939</ele>
        <time>2021-02-18T10:44:42.000Z</time>
      </trkpt>
      <trkpt lat="47.26776" lon="-2.42357">
        <ele>-24.200000762939</ele>
        <time>2021-02-18T10:44:43.000Z</time>
      </trkpt>
      <trkpt lat="47.26787" lon="-2.42376">
        <ele>-24.200000762939</ele>
        <time>2021-02-18T10:44:46.000Z</time>
      </trkpt>
      <trkpt lat="47.26794" lon="-2.42389">
        <ele>-23.799999237061</ele>
        <time>2021-02-18T10:44:48.000Z</time>
      </trkpt>
      <trkpt lat="47.26798" lon="-2.42396">
        <ele>-23.39999961853</ele>
        <time>2021-02-18T10:44:49.000Z</time>
      </trkpt>
      <trkpt lat="47.26801" lon="-2.42403">
        <ele>-23</ele>
        <time>2021-02-18T10:44:50.000Z</time>
      </trkpt>
      <trkpt lat="47.26805" lon="-2.4241">
        <ele>-22.60000038147</ele>
        <time>2021-02-18T10:44:51.000Z</time>
      </trkpt>
      <trkpt lat="47.26809" lon="-2.42417">
        <ele>-22.200000762939</ele>
        <time>2021-02-18T10:44:52.000Z</time>
      </trkpt>
      <trkpt lat="47.26821" lon="-2.42437">
        <ele>-22.200000762939</ele>
        <time>2021-02-18T10:44:55.000Z</time>
      </trkpt>
      <trkpt lat="47.26826" lon="-2.42444">
        <ele>-22.200000762939</ele>
        <time>2021-02-18T10:44:56.000Z</time>
      </trkpt>
      <trkpt lat="47.26845" lon="-2.42464">
        <ele>-22.200000762939</ele>
        <time>2021-02-18T10:45:00.000Z</time>
      </trkpt>
      <trkpt lat="47.26849" lon="-2.42468">
        <ele>-22.200000762939</ele>
        <time>2021-02-18T10:45:01.000Z</time>
      </trkpt>
      <trkpt lat="47.26866" lon="-2.42474">
        <ele>-22.200000762939</ele>
        <time>2021-02-18T10:45:04.000Z</time>
      </trkpt>
      <trkpt lat="47.26871" lon="-2.42475">
        <ele>-22.200000762939</ele>
        <time>2021-02-18T10:45:05.000Z</time>
      </trkpt>
      <trkpt lat="47.26895" lon="-2.42472">
        <ele>-22.200000762939</ele>
        <time>2021-02-18T10:45:08.000Z</time>
      </trkpt>
      <trkpt lat="47.2693" lon="-2.4248">
        <ele>-22.200000762939</ele>
        <time>2021-02-18T10:45:13.000Z</time>
      </trkpt>
      <trkpt lat="47.26942" lon="-2.42487">
        <ele>-22.200000762939</ele>
        <time>2021-02-18T10:45:15.000Z</time>
      </trkpt>
      <trkpt lat="47.26953" lon="-2.42497">
        <ele>-22.200000762939</ele>
        <time>2021-02-18T10:45:17.000Z</time>
      </trkpt>
      <trkpt lat="47.26963" lon="-2.42509">
        <ele>-22.200000762939</ele>
        <time>2021-02-18T10:45:19.000Z</time>
      </trkpt>
      <trkpt lat="47.26971" lon="-2.42521">
        <ele>-22.200000762939</ele>
        <time>2021-02-18T10:45:21.000Z</time>
      </trkpt>
      <trkpt lat="47.26994" lon="-2.42564">
        <ele>-22.200000762939</ele>
        <time>2021-02-18T10:45:27.000Z</time>
      </trkpt>
      <trkpt lat="47.27018" lon="-2.42623">
        <ele>-22.200000762939</ele>
        <time>2021-02-18T10:45:35.000Z</time>
      </trkpt>
      <trkpt lat="47.27024" lon="-2.42636">
        <ele>-22.200000762939</ele>
        <time>2021-02-18T10:45:37.000Z</time>
      </trkpt>
      <trkpt lat="47.27032" lon="-2.42646">
        <ele>-22.200000762939</ele>
        <time>2021-02-18T10:45:39.000Z</time>
      </trkpt>
      <trkpt lat="47.27046" lon="-2.42658">
        <ele>-22.200000762939</ele>
        <time>2021-02-18T10:45:42.000Z</time>
      </trkpt>
      <trkpt lat="47.27051" lon="-2.4266">
        <ele>-22.200000762939</ele>
        <time>2021-02-18T10:45:43.000Z</time>
      </trkpt>
      <trkpt lat="47.27057" lon="-2.42662">
        <ele>-22.200000762939</ele>
        <time>2021-02-18T10:45:44.000Z</time>
      </trkpt>
      <trkpt lat="47.27076" lon="-2.42657">
        <ele>-22.200000762939</ele>
        <time>2021-02-18T10:45:47.000Z</time>
      </trkpt>
      <trkpt lat="47.27125" lon="-2.42638">
        <ele>-22.200000762939</ele>
        <time>2021-02-18T10:45:55.000Z</time>
      </trkpt>
      <trkpt lat="47.27161" lon="-2.42622">
        <ele>-22.200000762939</ele>
        <time>2021-02-18T10:46:01.000Z</time>
      </trkpt>
      <trkpt lat="47.27167" lon="-2.42619">
        <ele>-22.200000762939</ele>
        <time>2021-02-18T10:46:02.000Z</time>
      </trkpt>
      <trkpt lat="47.27186" lon="-2.42614">
        <ele>-22.200000762939</ele>
        <time>2021-02-18T10:46:05.000Z</time>
      </trkpt>
      <trkpt lat="47.27198" lon="-2.4261">
        <ele>-22.200000762939</ele>
        <time>2021-02-18T10:46:07.000Z</time>
      </trkpt>
      <trkpt lat="47.2721" lon="-2.42606">
        <ele>-22.200000762939</ele>
        <time>2021-02-18T10:46:09.000Z</time>
      </trkpt>
      <trkpt lat="47.27227" lon="-2.42601">
        <ele>-22.200000762939</ele>
        <time>2021-02-18T10:46:12.000Z</time>
      </trkpt>
      <trkpt lat="47.27257" lon="-2.4259">
        <ele>-22.200000762939</ele>
        <time>2021-02-18T10:46:17.000Z</time>
      </trkpt>
      <trkpt lat="47.27294" lon="-2.42572">
        <ele>-22.200000762939</ele>
        <time>2021-02-18T10:46:23.000Z</time>
      </trkpt>
      <trkpt lat="47.27331" lon="-2.4256">
        <ele>-22.200000762939</ele>
        <time>2021-02-18T10:46:29.000Z</time>
      </trkpt>
      <trkpt lat="47.27364" lon="-2.42558">
        <ele>-22.60000038147</ele>
        <time>2021-02-18T10:46:34.000Z</time>
      </trkpt>
      <trkpt lat="47.2737" lon="-2.42557">
        <ele>-23</ele>
        <time>2021-02-18T10:46:35.000Z</time>
      </trkpt>
      <trkpt lat="47.27376" lon="-2.42556">
        <ele>-23.799999237061</ele>
        <time>2021-02-18T10:46:36.000Z</time>
      </trkpt>
      <trkpt lat="47.27382" lon="-2.42556">
        <ele>-24.200000762939</ele>
        <time>2021-02-18T10:46:37.000Z</time>
      </trkpt>
      <trkpt lat="47.27403" lon="-2.42555">
        <ele>-24.200000762939</ele>
        <time>2021-02-18T10:46:41.000Z</time>
      </trkpt>
      <trkpt lat="47.27421" lon="-2.4256">
        <ele>-24.200000762939</ele>
        <time>2021-02-18T10:46:46.000Z</time>
      </trkpt>
      <trkpt lat="47.27431" lon="-2.42574">
        <ele>-24.200000762939</ele>
        <time>2021-02-18T10:46:51.000Z</time>
      </trkpt>
      <trkpt lat="47.27451" lon="-2.42595">
        <ele>-24.200000762939</ele>
        <time>2021-02-18T10:46:56.000Z</time>
      </trkpt>
      <trkpt lat="47.27477" lon="-2.42627">
        <ele>-24.200000762939</ele>
        <time>2021-02-18T10:47:02.000Z</time>
      </trkpt>
      <trkpt lat="47.27492" lon="-2.42663">
        <ele>-24.200000762939</ele>
        <time>2021-02-18T10:47:07.000Z</time>
      </trkpt>
      <trkpt lat="47.275" lon="-2.4268">
        <ele>-24.200000762939</ele>
        <time>2021-02-18T10:47:10.000Z</time>
      </trkpt>
      <trkpt lat="47.27504" lon="-2.42682">
        <ele>-24.200000762939</ele>
        <time>2021-02-18T10:47:11.000Z</time>
      </trkpt>
      <trkpt lat="47.27516" lon="-2.42674">
        <ele>-24.200000762939</ele>
        <time>2021-02-18T10:47:14.000Z</time>
      </trkpt>
      <trkpt lat="47.27521" lon="-2.4267">
        <ele>-24.200000762939</ele>
        <time>2021-02-18T10:47:15.000Z</time>
      </trkpt>
      <trkpt lat="47.27525" lon="-2.42665">
        <ele>-24.200000762939</ele>
        <time>2021-02-18T10:47:16.000Z</time>
      </trkpt>
      <trkpt lat="47.27535" lon="-2.42648">
        <ele>-24.200000762939</ele>
        <time>2021-02-18T10:47:19.000Z</time>
      </trkpt>
      <trkpt lat="47.27542" lon="-2.4264">
        <ele>-24.200000762939</ele>
        <time>2021-02-18T10:47:21.000Z</time>
      </trkpt>
      <trkpt lat="47.27549" lon="-2.42643">
        <ele>-24.200000762939</ele>
        <time>2021-02-18T10:47:23.000Z</time>
      </trkpt>
      <trkpt lat="47.27556" lon="-2.4265">
        <ele>-24.200000762939</ele>
        <time>2021-02-18T10:47:25.000Z</time>
      </trkpt>
      <trkpt lat="47.27564" lon="-2.4266">
        <ele>-24.200000762939</ele>
        <time>2021-02-18T10:47:27.000Z</time>
      </trkpt>
      <trkpt lat="47.27589" lon="-2.42694">
        <ele>-24.200000762939</ele>
        <time>2021-02-18T10:47:33.000Z</time>
      </trkpt>
      <trkpt lat="47.27623" lon="-2.4274">
        <ele>-24.200000762939</ele>
        <time>2021-02-18T10:47:41.000Z</time>
      </trkpt>
      <trkpt lat="47.27661" lon="-2.42778">
        <ele>-24.200000762939</ele>
        <time>2021-02-18T10:47:49.000Z</time>
      </trkpt>
      <trkpt lat="47.27677" lon="-2.42788">
        <ele>-24.200000762939</ele>
        <time>2021-02-18T10:47:52.000Z</time>
      </trkpt>
      <trkpt lat="47.27689" lon="-2.42793">
        <ele>-24.200000762939</ele>
        <time>2021-02-18T10:47:54.000Z</time>
      </trkpt>
      <trkpt lat="47.27731" lon="-2.42806">
        <ele>-24.200000762939</ele>
        <time>2021-02-18T10:48:01.000Z</time>
      </trkpt>
      <trkpt lat="47.27768" lon="-2.42815">
        <ele>-24.200000762939</ele>
        <time>2021-02-18T10:48:07.000Z</time>
      </trkpt>
      <trkpt lat="47.27808" lon="-2.42822">
        <ele>-24.200000762939</ele>
        <time>2021-02-18T10:48:14.000Z</time>
      </trkpt>
      <trkpt lat="47.27825" lon="-2.42821">
        <ele>-24.200000762939</ele>
        <time>2021-02-18T10:48:18.000Z</time>
      </trkpt>
      <trkpt lat="47.27829" lon="-2.42813">
        <ele>-24.200000762939</ele>
        <time>2021-02-18T10:48:20.000Z</time>
      </trkpt>
      <trkpt lat="47.2783" lon="-2.42808">
        <ele>-24.200000762939</ele>
        <time>2021-02-18T10:48:21.000Z</time>
      </trkpt>
      <trkpt lat="47.2783" lon="-2.4279">
        <ele>-24.200000762939</ele>
        <time>2021-02-18T10:48:24.000Z</time>
      </trkpt>
      <trkpt lat="47.27829" lon="-2.42776">
        <ele>-24.200000762939</ele>
        <time>2021-02-18T10:48:26.000Z</time>
      </trkpt>
      <trkpt lat="47.27828" lon="-2.42729">
        <ele>-24.200000762939</ele>
        <time>2021-02-18T10:48:32.000Z</time>
      </trkpt>
      <trkpt lat="47.27824" lon="-2.4267">
        <ele>-24.200000762939</ele>
        <time>2021-02-18T10:48:38.000Z</time>
      </trkpt>
      <trkpt lat="47.27812" lon="-2.42593">
        <ele>-24.200000762939</ele>
        <time>2021-02-18T10:48:45.000Z</time>
      </trkpt>
      <trkpt lat="47.27794" lon="-2.42542">
        <ele>-24.200000762939</ele>
        <time>2021-02-18T10:48:50.000Z</time>
      </trkpt>
      <trkpt lat="47.27766" lon="-2.42462">
        <ele>-24.200000762939</ele>
        <time>2021-02-18T10:48:58.000Z</time>
      </trkpt>
      <trkpt lat="47.27755" lon="-2.42405">
        <ele>-24.200000762939</ele>
        <time>2021-02-18T10:49:04.000Z</time>
      </trkpt>
      <trkpt lat="47.27746" lon="-2.42338">
        <ele>-24.200000762939</ele>
        <time>2021-02-18T10:49:11.000Z</time>
      </trkpt>
      <trkpt lat="47.27744" lon="-2.42318">
        <ele>-24.60000038147</ele>
        <time>2021-02-18T10:49:13.000Z</time>
      </trkpt>
      <trkpt lat="47.27743" lon="-2.42308">
        <ele>-25</ele>
        <time>2021-02-18T10:49:14.000Z</time>
      </trkpt>
      <trkpt lat="47.27742" lon="-2.42298">
        <ele>-25.39999961853</ele>
        <time>2021-02-18T10:49:15.000Z</time>
      </trkpt>
      <trkpt lat="47.27741" lon="-2.42288">
        <ele>-25.799999237061</ele>
        <time>2021-02-18T10:49:16.000Z</time>
      </trkpt>
      <trkpt lat="47.2774" lon="-2.42279">
        <ele>-26.200000762939</ele>
        <time>2021-02-18T10:49:17.000Z</time>
      </trkpt>
      <trkpt lat="47.27739" lon="-2.42259">
        <ele>-26.200000762939</ele>
        <time>2021-02-18T10:49:19.000Z</time>
      </trkpt>
      <trkpt lat="47.27737" lon="-2.42178">
        <ele>-26.200000762939</ele>
        <time>2021-02-18T10:49:27.000Z</time>
      </trkpt>
      <trkpt lat="47.27737" lon="-2.42168">
        <ele>-26.200000762939</ele>
        <time>2021-02-18T10:49:28.000Z</time>
      </trkpt>
      <trkpt lat="47.27738" lon="-2.42112">
        <ele>-26.200000762939</ele>
        <time>2021-02-18T10:49:34.000Z</time>
      </trkpt>
      <trkpt lat="47.27745" lon="-2.42055">
        <ele>-26.200000762939</ele>
        <time>2021-02-18T10:49:41.000Z</time>
      </trkpt>
      <trkpt lat="47.2776" lon="-2.41993">
        <ele>-26.200000762939</ele>
        <time>2021-02-18T10:49:48.000Z</time>
      </trkpt>
      <trkpt lat="47.27773" lon="-2.41952">
        <ele>-26.200000762939</ele>
        <time>2021-02-18T10:49:53.000Z</time>
      </trkpt>
      <trkpt lat="47.27792" lon="-2.41895">
        <ele>-26.200000762939</ele>
        <time>2021-02-18T10:50:00.000Z</time>
      </trkpt>
      <trkpt lat="47.27811" lon="-2.41843">
        <ele>-26.200000762939</ele>
        <time>2021-02-18T10:50:07.000Z</time>
      </trkpt>
      <trkpt lat="47.27827" lon="-2.41805">
        <ele>-26.200000762939</ele>
        <time>2021-02-18T10:50:13.000Z</time>
      </trkpt>
      <trkpt lat="47.27832" lon="-2.41793">
        <ele>-26.200000762939</ele>
        <time>2021-02-18T10:50:15.000Z</time>
      </trkpt>
      <trkpt lat="47.27837" lon="-2.41779">
        <ele>-26.200000762939</ele>
        <time>2021-02-18T10:50:18.000Z</time>
      </trkpt>
      <trkpt lat="47.27844" lon="-2.41764">
        <ele>-26.200000762939</ele>
        <time>2021-02-18T10:50:23.000Z</time>
      </trkpt>
      <trkpt lat="47.27849" lon="-2.41749">
        <ele>-26.200000762939</ele>
        <time>2021-02-18T10:50:27.000Z</time>
      </trkpt>
      <trkpt lat="47.27863" lon="-2.41719">
        <ele>-26.200000762939</ele>
        <time>2021-02-18T10:50:32.000Z</time>
      </trkpt>
      <trkpt lat="47.27893" lon="-2.41661">
        <ele>-26.200000762939</ele>
        <time>2021-02-18T10:50:40.000Z</time>
      </trkpt>
      <trkpt lat="47.27896" lon="-2.41653">
        <ele>-26.200000762939</ele>
        <time>2021-02-18T10:50:41.000Z</time>
      </trkpt>
      <trkpt lat="47.27911" lon="-2.41624">
        <ele>-26.200000762939</ele>
        <time>2021-02-18T10:50:45.000Z</time>
      </trkpt>
      <trkpt lat="47.2793" lon="-2.41588">
        <ele>-26.200000762939</ele>
        <time>2021-02-18T10:50:50.000Z</time>
      </trkpt>
      <trkpt lat="47.27937" lon="-2.41572">
        <ele>-26.200000762939</ele>
        <time>2021-02-18T10:50:52.000Z</time>
      </trkpt>
      <trkpt lat="47.27963" lon="-2.41515">
        <ele>-26.200000762939</ele>
        <time>2021-02-18T10:51:00.000Z</time>
      </trkpt>
      <trkpt lat="47.27965" lon="-2.41508">
        <ele>-25.799999237061</ele>
        <time>2021-02-18T10:51:01.000Z</time>
      </trkpt>
      <trkpt lat="47.27967" lon="-2.415">
        <ele>-25.39999961853</ele>
        <time>2021-02-18T10:51:02.000Z</time>
      </trkpt>
      <trkpt lat="47.27969" lon="-2.41492">
        <ele>-25</ele>
        <time>2021-02-18T10:51:03.000Z</time>
      </trkpt>
      <trkpt lat="47.27972" lon="-2.41483">
        <ele>-24.60000038147</ele>
        <time>2021-02-18T10:51:04.000Z</time>
      </trkpt>
      <trkpt lat="47.27974" lon="-2.41475">
        <ele>-24.200000762939</ele>
        <time>2021-02-18T10:51:05.000Z</time>
      </trkpt>
      <trkpt lat="47.27978" lon="-2.41459">
        <ele>-24.200000762939</ele>
        <time>2021-02-18T10:51:07.000Z</time>
      </trkpt>
      <trkpt lat="47.27987" lon="-2.41425">
        <ele>-24.200000762939</ele>
        <time>2021-02-18T10:51:11.000Z</time>
      </trkpt>
      <trkpt lat="47.27989" lon="-2.41407">
        <ele>-24.200000762939</ele>
        <time>2021-02-18T10:51:13.000Z</time>
      </trkpt>
      <trkpt lat="47.27991" lon="-2.41398">
        <ele>-24.200000762939</ele>
        <time>2021-02-18T10:51:14.000Z</time>
      </trkpt>
      <trkpt lat="47.27997" lon="-2.41359">
        <ele>-24.200000762939</ele>
        <time>2021-02-18T10:51:18.000Z</time>
      </trkpt>
      <trkpt lat="47.28009" lon="-2.41278">
        <ele>-24.200000762939</ele>
        <time>2021-02-18T10:51:26.000Z</time>
      </trkpt>
      <trkpt lat="47.28025" lon="-2.41209">
        <ele>-24.200000762939</ele>
        <time>2021-02-18T10:51:33.000Z</time>
      </trkpt>
      <trkpt lat="47.28043" lon="-2.41128">
        <ele>-24.200000762939</ele>
        <time>2021-02-18T10:51:41.000Z</time>
      </trkpt>
      <trkpt lat="47.28052" lon="-2.4107">
        <ele>-24.200000762939</ele>
        <time>2021-02-18T10:51:47.000Z</time>
      </trkpt>
      <trkpt lat="47.28055" lon="-2.4106">
        <ele>-24.200000762939</ele>
        <time>2021-02-18T10:51:48.000Z</time>
      </trkpt>
      <trkpt lat="47.28063" lon="-2.41022">
        <ele>-24.200000762939</ele>
        <time>2021-02-18T10:51:52.000Z</time>
      </trkpt>
      <trkpt lat="47.28077" lon="-2.40966">
        <ele>-24.200000762939</ele>
        <time>2021-02-18T10:51:58.000Z</time>
      </trkpt>
      <trkpt lat="47.28085" lon="-2.40934">
        <ele>-24.200000762939</ele>
        <time>2021-02-18T10:52:02.000Z</time>
      </trkpt>
      <trkpt lat="47.28084" lon="-2.40927">
        <ele>-24.200000762939</ele>
        <time>2021-02-18T10:52:03.000Z</time>
      </trkpt>
      <trkpt lat="47.28076" lon="-2.40906">
        <ele>-24.200000762939</ele>
        <time>2021-02-18T10:52:06.000Z</time>
      </trkpt>
      <trkpt lat="47.28051" lon="-2.40851">
        <ele>-24.200000762939</ele>
        <time>2021-02-18T10:52:13.000Z</time>
      </trkpt>
      <trkpt lat="47.28041" lon="-2.40831">
        <ele>-24.200000762939</ele>
        <time>2021-02-18T10:52:16.000Z</time>
      </trkpt>
      <trkpt lat="47.28034" lon="-2.40819">
        <ele>-24.200000762939</ele>
        <time>2021-02-18T10:52:18.000Z</time>
      </trkpt>
      <trkpt lat="47.28036" lon="-2.40795">
        <ele>-24.200000762939</ele>
        <time>2021-02-18T10:52:21.000Z</time>
      </trkpt>
      <trkpt lat="47.28038" lon="-2.40787">
        <ele>-24.200000762939</ele>
        <time>2021-02-18T10:52:22.000Z</time>
      </trkpt>
      <trkpt lat="47.28049" lon="-2.4074">
        <ele>-24.200000762939</ele>
        <time>2021-02-18T10:52:27.000Z</time>
      </trkpt>
      <trkpt lat="47.28059" lon="-2.40684">
        <ele>-24.200000762939</ele>
        <time>2021-02-18T10:52:33.000Z</time>
      </trkpt>
      <trkpt lat="47.2806" lon="-2.40675">
        <ele>-24.200000762939</ele>
        <time>2021-02-18T10:52:34.000Z</time>
      </trkpt>
      <trkpt lat="47.28054" lon="-2.40636">
        <ele>-24.200000762939</ele>
        <time>2021-02-18T10:52:38.000Z</time>
      </trkpt>
      <trkpt lat="47.28053" lon="-2.40626">
        <ele>-24.200000762939</ele>
        <time>2021-02-18T10:52:39.000Z</time>
      </trkpt>
      <trkpt lat="47.28052" lon="-2.40616">
        <ele>-24.200000762939</ele>
        <time>2021-02-18T10:52:40.000Z</time>
      </trkpt>
      <trkpt lat="47.28053" lon="-2.40597">
        <ele>-24.200000762939</ele>
        <time>2021-02-18T10:52:42.000Z</time>
      </trkpt>
      <trkpt lat="47.28057" lon="-2.40578">
        <ele>-24.200000762939</ele>
        <time>2021-02-18T10:52:44.000Z</time>
      </trkpt>
      <trkpt lat="47.28064" lon="-2.4054">
        <ele>-24.200000762939</ele>
        <time>2021-02-18T10:52:48.000Z</time>
      </trkpt>
      <trkpt lat="47.28077" lon="-2.40484">
        <ele>-24.200000762939</ele>
        <time>2021-02-18T10:52:54.000Z</time>
      </trkpt>
      <trkpt lat="47.2808" lon="-2.40476">
        <ele>-24.200000762939</ele>
        <time>2021-02-18T10:52:55.000Z</time>
      </trkpt>
      <trkpt lat="47.28093" lon="-2.40455">
        <ele>-24.200000762939</ele>
        <time>2021-02-18T10:52:58.000Z</time>
      </trkpt>
      <trkpt lat="47.28101" lon="-2.4044">
        <ele>-24.200000762939</ele>
        <time>2021-02-18T10:53:00.000Z</time>
      </trkpt>
      <trkpt lat="47.28104" lon="-2.40432">
        <ele>-24.200000762939</ele>
        <time>2021-02-18T10:53:01.000Z</time>
      </trkpt>
      <trkpt lat="47.28112" lon="-2.40404">
        <ele>-24.200000762939</ele>
        <time>2021-02-18T10:53:04.000Z</time>
      </trkpt>
      <trkpt lat="47.28119" lon="-2.40344">
        <ele>-24.200000762939</ele>
        <time>2021-02-18T10:53:10.000Z</time>
      </trkpt>
      <trkpt lat="47.28129" lon="-2.40262">
        <ele>-24.200000762939</ele>
        <time>2021-02-18T10:53:18.000Z</time>
      </trkpt>
      <trkpt lat="47.28137" lon="-2.40189">
        <ele>-24.200000762939</ele>
        <time>2021-02-18T10:53:25.000Z</time>
      </trkpt>
      <trkpt lat="47.28145" lon="-2.40101">
        <ele>-24.200000762939</ele>
        <time>2021-02-18T10:53:33.000Z</time>
      </trkpt>
      <trkpt lat="47.28148" lon="-2.40057">
        <ele>-23.39999961853</ele>
        <time>2021-02-18T10:53:37.000Z</time>
      </trkpt>
      <trkpt lat="47.28149" lon="-2.40047">
        <ele>-23</ele>
        <time>2021-02-18T10:53:38.000Z</time>
      </trkpt>
      <trkpt lat="47.2815" lon="-2.40036">
        <ele>-22.60000038147</ele>
        <time>2021-02-18T10:53:39.000Z</time>
      </trkpt>
      <trkpt lat="47.28152" lon="-2.40026">
        <ele>-22.200000762939</ele>
        <time>2021-02-18T10:53:40.000Z</time>
      </trkpt>
      <trkpt lat="47.28153" lon="-2.40016">
        <ele>-22.200000762939</ele>
        <time>2021-02-18T10:53:41.000Z</time>
      </trkpt>
      <trkpt lat="47.28153" lon="-2.40006">
        <ele>-22.200000762939</ele>
        <time>2021-02-18T10:53:42.000Z</time>
      </trkpt>
      <trkpt lat="47.28155" lon="-2.39985">
        <ele>-22.200000762939</ele>
        <time>2021-02-18T10:53:44.000Z</time>
      </trkpt>
      <trkpt lat="47.28157" lon="-2.39964">
        <ele>-22.200000762939</ele>
        <time>2021-02-18T10:53:46.000Z</time>
      </trkpt>
      <trkpt lat="47.28161" lon="-2.39895">
        <ele>-22.200000762939</ele>
        <time>2021-02-18T10:53:52.000Z</time>
      </trkpt>
      <trkpt lat="47.28167" lon="-2.39815">
        <ele>-22.200000762939</ele>
        <time>2021-02-18T10:53:59.000Z</time>
      </trkpt>
      <trkpt lat="47.28172" lon="-2.39733">
        <ele>-22.200000762939</ele>
        <time>2021-02-18T10:54:06.000Z</time>
      </trkpt>
      <trkpt lat="47.28174" lon="-2.3971">
        <ele>-22.200000762939</ele>
        <time>2021-02-18T10:54:08.000Z</time>
      </trkpt>
      <trkpt lat="47.28176" lon="-2.39626">
        <ele>-22.200000762939</ele>
        <time>2021-02-18T10:54:15.000Z</time>
      </trkpt>
      <trkpt lat="47.28176" lon="-2.39614">
        <ele>-22.200000762939</ele>
        <time>2021-02-18T10:54:16.000Z</time>
      </trkpt>
      <trkpt lat="47.28178" lon="-2.39534">
        <ele>-22.200000762939</ele>
        <time>2021-02-18T10:54:23.000Z</time>
      </trkpt>
      <trkpt lat="47.28179" lon="-2.39523">
        <ele>-22.200000762939</ele>
        <time>2021-02-18T10:54:24.000Z</time>
      </trkpt>
      <trkpt lat="47.28178" lon="-2.39447">
        <ele>-22.200000762939</ele>
        <time>2021-02-18T10:54:31.000Z</time>
      </trkpt>
      <trkpt lat="47.28177" lon="-2.39382">
        <ele>-22.200000762939</ele>
        <time>2021-02-18T10:54:38.000Z</time>
      </trkpt>
      <trkpt lat="47.28175" lon="-2.39324">
        <ele>-22.200000762939</ele>
        <time>2021-02-18T10:54:45.000Z</time>
      </trkpt>
      <trkpt lat="47.28175" lon="-2.39275">
        <ele>-22.200000762939</ele>
        <time>2021-02-18T10:54:52.000Z</time>
      </trkpt>
      <trkpt lat="47.28174" lon="-2.39262">
        <ele>-22.200000762939</ele>
        <time>2021-02-18T10:54:56.000Z</time>
      </trkpt>
      <trkpt lat="47.28174" lon="-2.39251">
        <ele>-22.200000762939</ele>
        <time>2021-02-18T10:55:03.000Z</time>
      </trkpt>
      <trkpt lat="47.28174" lon="-2.39248">
        <ele>-22.200000762939</ele>
        <time>2021-02-18T10:55:13.000Z</time>
      </trkpt>
      <trkpt lat="47.28173" lon="-2.39228">
        <ele>-22.200000762939</ele>
        <time>2021-02-18T10:55:18.000Z</time>
      </trkpt>
      <trkpt lat="47.28173" lon="-2.39192">
        <ele>-22.200000762939</ele>
        <time>2021-02-18T10:55:23.000Z</time>
      </trkpt>
      <trkpt lat="47.28171" lon="-2.39146">
        <ele>-22.200000762939</ele>
        <time>2021-02-18T10:55:28.000Z</time>
      </trkpt>
      <trkpt lat="47.28166" lon="-2.39066">
        <ele>-22.200000762939</ele>
        <time>2021-02-18T10:55:36.000Z</time>
      </trkpt>
      <trkpt lat="47.28159" lon="-2.38979">
        <ele>-22.200000762939</ele>
        <time>2021-02-18T10:55:44.000Z</time>
      </trkpt>
      <trkpt lat="47.28157" lon="-2.38968">
        <ele>-22.200000762939</ele>
        <time>2021-02-18T10:55:45.000Z</time>
      </trkpt>
      <trkpt lat="47.28145" lon="-2.38914">
        <ele>-22.200000762939</ele>
        <time>2021-02-18T10:55:50.000Z</time>
      </trkpt>
      <trkpt lat="47.28135" lon="-2.38848">
        <ele>-22.200000762939</ele>
        <time>2021-02-18T10:55:56.000Z</time>
      </trkpt>
      <trkpt lat="47.28128" lon="-2.3877">
        <ele>-22.200000762939</ele>
        <time>2021-02-18T10:56:03.000Z</time>
      </trkpt>
      <trkpt lat="47.28119" lon="-2.38686">
        <ele>-22.200000762939</ele>
        <time>2021-02-18T10:56:11.000Z</time>
      </trkpt>
      <trkpt lat="47.28112" lon="-2.38602">
        <ele>-22.200000762939</ele>
        <time>2021-02-18T10:56:19.000Z</time>
      </trkpt>
      <trkpt lat="47.28102" lon="-2.3852">
        <ele>-22.200000762939</ele>
        <time>2021-02-18T10:56:27.000Z</time>
      </trkpt>
      <trkpt lat="47.28087" lon="-2.38432">
        <ele>-22.200000762939</ele>
        <time>2021-02-18T10:56:35.000Z</time>
      </trkpt>
      <trkpt lat="47.28073" lon="-2.38349">
        <ele>-22.200000762939</ele>
        <time>2021-02-18T10:56:42.000Z</time>
      </trkpt>
      <trkpt lat="47.28071" lon="-2.38337">
        <ele>-22.200000762939</ele>
        <time>2021-02-18T10:56:43.000Z</time>
      </trkpt>
      <trkpt lat="47.28057" lon="-2.38272">
        <ele>-22.200000762939</ele>
        <time>2021-02-18T10:56:49.000Z</time>
      </trkpt>
      <trkpt lat="47.28044" lon="-2.38198">
        <ele>-22.200000762939</ele>
        <time>2021-02-18T10:56:57.000Z</time>
      </trkpt>
      <trkpt lat="47.28031" lon="-2.38131">
        <ele>-22.200000762939</ele>
        <time>2021-02-18T10:57:05.000Z</time>
      </trkpt>
      <trkpt lat="47.28018" lon="-2.3806">
        <ele>-22.200000762939</ele>
        <time>2021-02-18T10:57:13.000Z</time>
      </trkpt>
      <trkpt lat="47.28008" lon="-2.38002">
        <ele>-22.200000762939</ele>
        <time>2021-02-18T10:57:20.000Z</time>
      </trkpt>
      <trkpt lat="47.27995" lon="-2.3793">
        <ele>-22.200000762939</ele>
        <time>2021-02-18T10:57:28.000Z</time>
      </trkpt>
      <trkpt lat="47.27982" lon="-2.37863">
        <ele>-22.200000762939</ele>
        <time>2021-02-18T10:57:36.000Z</time>
      </trkpt>
      <trkpt lat="47.2798" lon="-2.37848">
        <ele>-22.200000762939</ele>
        <time>2021-02-18T10:57:40.000Z</time>
      </trkpt>
      <trkpt lat="47.27979" lon="-2.37829">
        <ele>-22.200000762939</ele>
        <time>2021-02-18T10:57:46.000Z</time>
      </trkpt>
      <trkpt lat="47.27972" lon="-2.37808">
        <ele>-22.200000762939</ele>
        <time>2021-02-18T10:57:50.000Z</time>
      </trkpt>
      <trkpt lat="47.2797" lon="-2.37802">
        <ele>-22.200000762939</ele>
        <time>2021-02-18T10:57:51.000Z</time>
      </trkpt>
      <trkpt lat="47.27968" lon="-2.37781">
        <ele>-22.200000762939</ele>
        <time>2021-02-18T10:57:54.000Z</time>
      </trkpt>
      <trkpt lat="47.27962" lon="-2.3776">
        <ele>-22.200000762939</ele>
        <time>2021-02-18T10:57:57.000Z</time>
      </trkpt>
      <trkpt lat="47.27959" lon="-2.37752">
        <ele>-22.200000762939</ele>
        <time>2021-02-18T10:57:58.000Z</time>
      </trkpt>
      <trkpt lat="47.27943" lon="-2.37691">
        <ele>-22.200000762939</ele>
        <time>2021-02-18T10:58:05.000Z</time>
      </trkpt>
      <trkpt lat="47.27934" lon="-2.37654">
        <ele>-21.799999237061</ele>
        <time>2021-02-18T10:58:09.000Z</time>
      </trkpt>
      <trkpt lat="47.27932" lon="-2.37644">
        <ele>-21.39999961853</ele>
        <time>2021-02-18T10:58:10.000Z</time>
      </trkpt>
      <trkpt lat="47.2793" lon="-2.37635">
        <ele>-21</ele>
        <time>2021-02-18T10:58:11.000Z</time>
      </trkpt>
      <trkpt lat="47.27928" lon="-2.37625">
        <ele>-20.60000038147</ele>
        <time>2021-02-18T10:58:12.000Z</time>
      </trkpt>
      <trkpt lat="47.27926" lon="-2.37616">
        <ele>-20.200000762939</ele>
        <time>2021-02-18T10:58:13.000Z</time>
      </trkpt>
      <trkpt lat="47.27908" lon="-2.37539">
        <ele>-20.200000762939</ele>
        <time>2021-02-18T10:58:21.000Z</time>
      </trkpt>
      <trkpt lat="47.27904" lon="-2.37519">
        <ele>-20.200000762939</ele>
        <time>2021-02-18T10:58:23.000Z</time>
      </trkpt>
      <trkpt lat="47.27885" lon="-2.3744">
        <ele>-20.200000762939</ele>
        <time>2021-02-18T10:58:31.000Z</time>
      </trkpt>
      <trkpt lat="47.27883" lon="-2.37431">
        <ele>-20.200000762939</ele>
        <time>2021-02-18T10:58:32.000Z</time>
      </trkpt>
      <trkpt lat="47.27862" lon="-2.37353">
        <ele>-20.200000762939</ele>
        <time>2021-02-18T10:58:40.000Z</time>
      </trkpt>
      <trkpt lat="47.27844" lon="-2.37279">
        <ele>-20.200000762939</ele>
        <time>2021-02-18T10:58:48.000Z</time>
      </trkpt>
      <trkpt lat="47.27827" lon="-2.37206">
        <ele>-20.200000762939</ele>
        <time>2021-02-18T10:58:56.000Z</time>
      </trkpt>
      <trkpt lat="47.27824" lon="-2.37198">
        <ele>-20.200000762939</ele>
        <time>2021-02-18T10:58:57.000Z</time>
      </trkpt>
      <trkpt lat="47.2782" lon="-2.37181">
        <ele>-20.200000762939</ele>
        <time>2021-02-18T10:58:59.000Z</time>
      </trkpt>
      <trkpt lat="47.27819" lon="-2.37172">
        <ele>-20.200000762939</ele>
        <time>2021-02-18T10:59:00.000Z</time>
      </trkpt>
      <trkpt lat="47.27817" lon="-2.37164">
        <ele>-20.200000762939</ele>
        <time>2021-02-18T10:59:01.000Z</time>
      </trkpt>
      <trkpt lat="47.27807" lon="-2.37139">
        <ele>-20.200000762939</ele>
        <time>2021-02-18T10:59:04.000Z</time>
      </trkpt>
      <trkpt lat="47.27801" lon="-2.3712">
        <ele>-20.200000762939</ele>
        <time>2021-02-18T10:59:06.000Z</time>
      </trkpt>
      <trkpt lat="47.27793" lon="-2.3709">
        <ele>-20.200000762939</ele>
        <time>2021-02-18T10:59:09.000Z</time>
      </trkpt>
      <trkpt lat="47.27773" lon="-2.37011">
        <ele>-20.200000762939</ele>
        <time>2021-02-18T10:59:17.000Z</time>
      </trkpt>
      <trkpt lat="47.2775" lon="-2.36933">
        <ele>-20.200000762939</ele>
        <time>2021-02-18T10:59:25.000Z</time>
      </trkpt>
      <trkpt lat="47.27741" lon="-2.36904">
        <ele>-20.200000762939</ele>
        <time>2021-02-18T10:59:28.000Z</time>
      </trkpt>
      <trkpt lat="47.27719" lon="-2.36827">
        <ele>-20.200000762939</ele>
        <time>2021-02-18T10:59:36.000Z</time>
      </trkpt>
      <trkpt lat="47.27694" lon="-2.36748">
        <ele>-20.200000762939</ele>
        <time>2021-02-18T10:59:44.000Z</time>
      </trkpt>
      <trkpt lat="47.27667" lon="-2.36668">
        <ele>-20.200000762939</ele>
        <time>2021-02-18T10:59:52.000Z</time>
      </trkpt>
      <trkpt lat="47.27663" lon="-2.36658">
        <ele>-20.200000762939</ele>
        <time>2021-02-18T10:59:53.000Z</time>
      </trkpt>
      <trkpt lat="47.27638" lon="-2.36589">
        <ele>-20.200000762939</ele>
        <time>2021-02-18T11:00:00.000Z</time>
      </trkpt>
      <trkpt lat="47.27613" lon="-2.36518">
        <ele>-20.200000762939</ele>
        <time>2021-02-18T11:00:07.000Z</time>
      </trkpt>
      <trkpt lat="47.27598" lon="-2.36477">
        <ele>-20.200000762939</ele>
        <time>2021-02-18T11:00:11.000Z</time>
      </trkpt>
      <trkpt lat="47.2757" lon="-2.36403">
        <ele>-20.200000762939</ele>
        <time>2021-02-18T11:00:18.000Z</time>
      </trkpt>
      <trkpt lat="47.27566" lon="-2.36393">
        <ele>-20.200000762939</ele>
        <time>2021-02-18T11:00:19.000Z</time>
      </trkpt>
      <trkpt lat="47.27538" lon="-2.36319">
        <ele>-20.200000762939</ele>
        <time>2021-02-18T11:00:26.000Z</time>
      </trkpt>
      <trkpt lat="47.27534" lon="-2.36309">
        <ele>-20.200000762939</ele>
        <time>2021-02-18T11:00:27.000Z</time>
      </trkpt>
      <trkpt lat="47.27507" lon="-2.36237">
        <ele>-20.200000762939</ele>
        <time>2021-02-18T11:00:34.000Z</time>
      </trkpt>
      <trkpt lat="47.275" lon="-2.36218">
        <ele>-20.200000762939</ele>
        <time>2021-02-18T11:00:36.000Z</time>
      </trkpt>
      <trkpt lat="47.27473" lon="-2.36151">
        <ele>-20.200000762939</ele>
        <time>2021-02-18T11:00:44.000Z</time>
      </trkpt>
      <trkpt lat="47.27468" lon="-2.36135">
        <ele>-20.200000762939</ele>
        <time>2021-02-18T11:00:46.000Z</time>
      </trkpt>
      <trkpt lat="47.27463" lon="-2.36114">
        <ele>-20.200000762939</ele>
        <time>2021-02-18T11:00:49.000Z</time>
      </trkpt>
      <trkpt lat="47.27457" lon="-2.36102">
        <ele>-20.200000762939</ele>
        <time>2021-02-18T11:00:51.000Z</time>
      </trkpt>
      <trkpt lat="47.27451" lon="-2.36091">
        <ele>-20.200000762939</ele>
        <time>2021-02-18T11:00:53.000Z</time>
      </trkpt>
      <trkpt lat="47.27448" lon="-2.36084">
        <ele>-20.200000762939</ele>
        <time>2021-02-18T11:00:54.000Z</time>
      </trkpt>
      <trkpt lat="47.27442" lon="-2.36062">
        <ele>-20.200000762939</ele>
        <time>2021-02-18T11:00:57.000Z</time>
      </trkpt>
      <trkpt lat="47.27426" lon="-2.36023">
        <ele>-20.200000762939</ele>
        <time>2021-02-18T11:01:02.000Z</time>
      </trkpt>
      <trkpt lat="47.27404" lon="-2.35971">
        <ele>-20.200000762939</ele>
        <time>2021-02-18T11:01:09.000Z</time>
      </trkpt>
      <trkpt lat="47.27383" lon="-2.35914">
        <ele>-20.200000762939</ele>
        <time>2021-02-18T11:01:17.000Z</time>
      </trkpt>
      <trkpt lat="47.27356" lon="-2.35846">
        <ele>-20.200000762939</ele>
        <time>2021-02-18T11:01:26.000Z</time>
      </trkpt>
      <trkpt lat="47.27342" lon="-2.35812">
        <ele>-20.60000038147</ele>
        <time>2021-02-18T11:01:31.000Z</time>
      </trkpt>
      <trkpt lat="47.27339" lon="-2.35806">
        <ele>-21</ele>
        <time>2021-02-18T11:01:32.000Z</time>
      </trkpt>
      <trkpt lat="47.27337" lon="-2.358">
        <ele>-21.39999961853</ele>
        <time>2021-02-18T11:01:33.000Z</time>
      </trkpt>
      <trkpt lat="47.27335" lon="-2.35794">
        <ele>-21.799999237061</ele>
        <time>2021-02-18T11:01:34.000Z</time>
      </trkpt>
      <trkpt lat="47.27333" lon="-2.35788">
        <ele>-22.200000762939</ele>
        <time>2021-02-18T11:01:35.000Z</time>
      </trkpt>
      <trkpt lat="47.27325" lon="-2.35762">
        <ele>-22.200000762939</ele>
        <time>2021-02-18T11:01:39.000Z</time>
      </trkpt>
      <trkpt lat="47.27323" lon="-2.35757">
        <ele>-22.200000762939</ele>
        <time>2021-02-18T11:01:40.000Z</time>
      </trkpt>
      <trkpt lat="47.27316" lon="-2.35747">
        <ele>-22.200000762939</ele>
        <time>2021-02-18T11:01:43.000Z</time>
      </trkpt>
      <trkpt lat="47.27307" lon="-2.35728">
        <ele>-22.200000762939</ele>
        <time>2021-02-18T11:01:49.000Z</time>
      </trkpt>
      <trkpt lat="47.27302" lon="-2.35716">
        <ele>-22.200000762939</ele>
        <time>2021-02-18T11:01:53.000Z</time>
      </trkpt>
      <trkpt lat="47.273" lon="-2.35715">
        <ele>-22.200000762939</ele>
        <time>2021-02-18T11:01:54.000Z</time>
      </trkpt>
      <trkpt lat="47.27297" lon="-2.35718">
        <ele>-22.200000762939</ele>
        <time>2021-02-18T11:01:58.000Z</time>
      </trkpt>
      <trkpt lat="47.27296" lon="-2.35712">
        <ele>-22.200000762939</ele>
        <time>2021-02-18T11:08:34.000Z</time>
      </trkpt>
      <trkpt lat="47.27294" lon="-2.35708">
        <ele>-22.200000762939</ele>
        <time>2021-02-18T11:08:36.000Z</time>
      </trkpt>
      <trkpt lat="47.27287" lon="-2.35693">
        <ele>-22.200000762939</ele>
        <time>2021-02-18T11:08:41.000Z</time>
      </trkpt>
      <trkpt lat="47.27285" lon="-2.3569">
        <ele>-22.200000762939</ele>
        <time>2021-02-18T11:08:42.000Z</time>
      </trkpt>
      <trkpt lat="47.27277" lon="-2.35668">
        <ele>-22.200000762939</ele>
        <time>2021-02-18T11:08:47.000Z</time>
      </trkpt>
      <trkpt lat="47.27267" lon="-2.35643">
        <ele>-22.200000762939</ele>
        <time>2021-02-18T11:08:52.000Z</time>
      </trkpt>
      <trkpt lat="47.27265" lon="-2.35638">
        <ele>-22.200000762939</ele>
        <time>2021-02-18T11:08:53.000Z</time>
      </trkpt>
      <trkpt lat="47.27251" lon="-2.35602">
        <ele>-22.200000762939</ele>
        <time>2021-02-18T11:08:59.000Z</time>
      </trkpt>
      <trkpt lat="47.27224" lon="-2.35543">
        <ele>-22.200000762939</ele>
        <time>2021-02-18T11:09:09.000Z</time>
      </trkpt>
      <trkpt lat="47.27218" lon="-2.35531">
        <ele>-21.799999237061</ele>
        <time>2021-02-18T11:09:11.000Z</time>
      </trkpt>
      <trkpt lat="47.27215" lon="-2.35524">
        <ele>-21.39999961853</ele>
        <time>2021-02-18T11:09:12.000Z</time>
      </trkpt>
      <trkpt lat="47.27212" lon="-2.35518">
        <ele>-21</ele>
        <time>2021-02-18T11:09:13.000Z</time>
      </trkpt>
      <trkpt lat="47.27209" lon="-2.35512">
        <ele>-20.60000038147</ele>
        <time>2021-02-18T11:09:14.000Z</time>
      </trkpt>
      <trkpt lat="47.27206" lon="-2.35506">
        <ele>-20.200000762939</ele>
        <time>2021-02-18T11:09:15.000Z</time>
      </trkpt>
      <trkpt lat="47.27203" lon="-2.35499">
        <ele>-20.200000762939</ele>
        <time>2021-02-18T11:09:16.000Z</time>
      </trkpt>
      <trkpt lat="47.27169" lon="-2.35434">
        <ele>-20.200000762939</ele>
        <time>2021-02-18T11:09:26.000Z</time>
      </trkpt>
      <trkpt lat="47.27136" lon="-2.35373">
        <ele>-20.200000762939</ele>
        <time>2021-02-18T11:09:35.000Z</time>
      </trkpt>
      <trkpt lat="47.27103" lon="-2.35319">
        <ele>-20.200000762939</ele>
        <time>2021-02-18T11:09:43.000Z</time>
      </trkpt>
      <trkpt lat="47.27075" lon="-2.35273">
        <ele>-20.200000762939</ele>
        <time>2021-02-18T11:09:50.000Z</time>
      </trkpt>
      <trkpt lat="47.27037" lon="-2.35216">
        <ele>-20.200000762939</ele>
        <time>2021-02-18T11:09:59.000Z</time>
      </trkpt>
      <trkpt lat="47.26998" lon="-2.35157">
        <ele>-20.200000762939</ele>
        <time>2021-02-18T11:10:08.000Z</time>
      </trkpt>
      <trkpt lat="47.2696" lon="-2.35099">
        <ele>-20.200000762939</ele>
        <time>2021-02-18T11:10:17.000Z</time>
      </trkpt>
      <trkpt lat="47.26956" lon="-2.35093">
        <ele>-20.200000762939</ele>
        <time>2021-02-18T11:10:18.000Z</time>
      </trkpt>
      <trkpt lat="47.26918" lon="-2.35034">
        <ele>-20.200000762939</ele>
        <time>2021-02-18T11:10:27.000Z</time>
      </trkpt>
      <trkpt lat="47.2688" lon="-2.34976">
        <ele>-20.200000762939</ele>
        <time>2021-02-18T11:10:36.000Z</time>
      </trkpt>
      <trkpt lat="47.26866" lon="-2.34957">
        <ele>-20.200000762939</ele>
        <time>2021-02-18T11:10:39.000Z</time>
      </trkpt>
      <trkpt lat="47.26834" lon="-2.34906">
        <ele>-20.200000762939</ele>
        <time>2021-02-18T11:10:47.000Z</time>
      </trkpt>
      <trkpt lat="47.26799" lon="-2.34857">
        <ele>-20.200000762939</ele>
        <time>2021-02-18T11:10:55.000Z</time>
      </trkpt>
      <trkpt lat="47.26772" lon="-2.34818">
        <ele>-20.200000762939</ele>
        <time>2021-02-18T11:11:02.000Z</time>
      </trkpt>
      <trkpt lat="47.26767" lon="-2.34813">
        <ele>-20.200000762939</ele>
        <time>2021-02-18T11:11:03.000Z</time>
      </trkpt>
      <trkpt lat="47.26753" lon="-2.34795">
        <ele>-20.200000762939</ele>
        <time>2021-02-18T11:11:06.000Z</time>
      </trkpt>
      <trkpt lat="47.26744" lon="-2.34782">
        <ele>-20.200000762939</ele>
        <time>2021-02-18T11:11:08.000Z</time>
      </trkpt>
      <trkpt lat="47.26709" lon="-2.3474">
        <ele>-20.200000762939</ele>
        <time>2021-02-18T11:11:15.000Z</time>
      </trkpt>
      <trkpt lat="47.26672" lon="-2.34694">
        <ele>-20.200000762939</ele>
        <time>2021-02-18T11:11:23.000Z</time>
      </trkpt>
      <trkpt lat="47.26638" lon="-2.34654">
        <ele>-20.200000762939</ele>
        <time>2021-02-18T11:11:30.000Z</time>
      </trkpt>
      <trkpt lat="47.266" lon="-2.34607">
        <ele>-20.200000762939</ele>
        <time>2021-02-18T11:11:38.000Z</time>
      </trkpt>
      <trkpt lat="47.26567" lon="-2.3457">
        <ele>-20.200000762939</ele>
        <time>2021-02-18T11:11:45.000Z</time>
      </trkpt>
      <trkpt lat="47.26529" lon="-2.34532">
        <ele>-20.200000762939</ele>
        <time>2021-02-18T11:11:53.000Z</time>
      </trkpt>
      <trkpt lat="47.26497" lon="-2.34506">
        <ele>-20.200000762939</ele>
        <time>2021-02-18T11:11:59.000Z</time>
      </trkpt>
      <trkpt lat="47.2645" lon="-2.34472">
        <ele>-20.200000762939</ele>
        <time>2021-02-18T11:12:07.000Z</time>
      </trkpt>
      <trkpt lat="47.26409" lon="-2.34443">
        <ele>-20.200000762939</ele>
        <time>2021-02-18T11:12:14.000Z</time>
      </trkpt>
      <trkpt lat="47.26373" lon="-2.34413">
        <ele>-20.200000762939</ele>
        <time>2021-02-18T11:12:21.000Z</time>
      </trkpt>
      <trkpt lat="47.26343" lon="-2.34386">
        <ele>-20.200000762939</ele>
        <time>2021-02-18T11:12:27.000Z</time>
      </trkpt>
      <trkpt lat="47.26338" lon="-2.34383">
        <ele>-20.200000762939</ele>
        <time>2021-02-18T11:12:28.000Z</time>
      </trkpt>
      <trkpt lat="47.26323" lon="-2.34377">
        <ele>-20.200000762939</ele>
        <time>2021-02-18T11:12:31.000Z</time>
      </trkpt>
      <trkpt lat="47.26316" lon="-2.34363">
        <ele>-20.200000762939</ele>
        <time>2021-02-18T11:12:33.000Z</time>
      </trkpt>
      <trkpt lat="47.26312" lon="-2.34357">
        <ele>-20.200000762939</ele>
        <time>2021-02-18T11:12:34.000Z</time>
      </trkpt>
      <trkpt lat="47.26308" lon="-2.34351">
        <ele>-20.200000762939</ele>
        <time>2021-02-18T11:12:35.000Z</time>
      </trkpt>
      <trkpt lat="47.26272" lon="-2.34315">
        <ele>-20.200000762939</ele>
        <time>2021-02-18T11:12:42.000Z</time>
      </trkpt>
      <trkpt lat="47.26224" lon="-2.34264">
        <ele>-20.200000762939</ele>
        <time>2021-02-18T11:12:52.000Z</time>
      </trkpt>
      <trkpt lat="47.26219" lon="-2.34259">
        <ele>-20.200000762939</ele>
        <time>2021-02-18T11:12:53.000Z</time>
      </trkpt>
      <trkpt lat="47.26185" lon="-2.34223">
        <ele>-20.200000762939</ele>
        <time>2021-02-18T11:13:00.000Z</time>
      </trkpt>
      <trkpt lat="47.26151" lon="-2.34191">
        <ele>-20.200000762939</ele>
        <time>2021-02-18T11:13:07.000Z</time>
      </trkpt>
      <trkpt lat="47.26146" lon="-2.34187">
        <ele>-20.200000762939</ele>
        <time>2021-02-18T11:13:08.000Z</time>
      </trkpt>
      <trkpt lat="47.26132" lon="-2.3418">
        <ele>-20.200000762939</ele>
        <time>2021-02-18T11:13:11.000Z</time>
      </trkpt>
      <trkpt lat="47.26124" lon="-2.3417">
        <ele>-20.200000762939</ele>
        <time>2021-02-18T11:13:13.000Z</time>
      </trkpt>
      <trkpt lat="47.26119" lon="-2.34166">
        <ele>-20.200000762939</ele>
        <time>2021-02-18T11:13:14.000Z</time>
      </trkpt>
      <trkpt lat="47.26108" lon="-2.34159">
        <ele>-20.200000762939</ele>
        <time>2021-02-18T11:13:16.000Z</time>
      </trkpt>
      <trkpt lat="47.26096" lon="-2.34152">
        <ele>-20.200000762939</ele>
        <time>2021-02-18T11:13:18.000Z</time>
      </trkpt>
      <trkpt lat="47.26072" lon="-2.3414">
        <ele>-20.200000762939</ele>
        <time>2021-02-18T11:13:22.000Z</time>
      </trkpt>
      <trkpt lat="47.26018" lon="-2.34114">
        <ele>-20.200000762939</ele>
        <time>2021-02-18T11:13:31.000Z</time>
      </trkpt>
      <trkpt lat="47.25979" lon="-2.34093">
        <ele>-20.200000762939</ele>
        <time>2021-02-18T11:13:38.000Z</time>
      </trkpt>
      <trkpt lat="47.25944" lon="-2.34077">
        <ele>-20.200000762939</ele>
        <time>2021-02-18T11:13:44.000Z</time>
      </trkpt>
      <trkpt lat="47.25912" lon="-2.34067">
        <ele>-20.200000762939</ele>
        <time>2021-02-18T11:13:50.000Z</time>
      </trkpt>
      <trkpt lat="47.25902" lon="-2.34051">
        <ele>-20.200000762939</ele>
        <time>2021-02-18T11:13:53.000Z</time>
      </trkpt>
      <trkpt lat="47.25901" lon="-2.34043">
        <ele>-20.60000038147</ele>
        <time>2021-02-18T11:13:54.000Z</time>
      </trkpt>
      <trkpt lat="47.25901" lon="-2.34036">
        <ele>-21</ele>
        <time>2021-02-18T11:13:55.000Z</time>
      </trkpt>
      <trkpt lat="47.25903" lon="-2.34029">
        <ele>-21.39999961853</ele>
        <time>2021-02-18T11:13:56.000Z</time>
      </trkpt>
      <trkpt lat="47.25906" lon="-2.34022">
        <ele>-21.799999237061</ele>
        <time>2021-02-18T11:13:57.000Z</time>
      </trkpt>
      <trkpt lat="47.25908" lon="-2.34015">
        <ele>-22.200000762939</ele>
        <time>2021-02-18T11:13:58.000Z</time>
      </trkpt>
      <trkpt lat="47.25912" lon="-2.34">
        <ele>-22.200000762939</ele>
        <time>2021-02-18T11:14:00.000Z</time>
      </trkpt>
      <trkpt lat="47.25916" lon="-2.33986">
        <ele>-22.200000762939</ele>
        <time>2021-02-18T11:14:02.000Z</time>
      </trkpt>
      <trkpt lat="47.25935" lon="-2.33942">
        <ele>-22.200000762939</ele>
        <time>2021-02-18T11:14:09.000Z</time>
      </trkpt>
      <trkpt lat="47.25948" lon="-2.33921">
        <ele>-22.200000762939</ele>
        <time>2021-02-18T11:14:13.000Z</time>
      </trkpt>
      <trkpt lat="47.25949" lon="-2.33915">
        <ele>-22.200000762939</ele>
        <time>2021-02-18T11:14:14.000Z</time>
      </trkpt>
      <trkpt lat="47.25956" lon="-2.33886">
        <ele>-22.200000762939</ele>
        <time>2021-02-18T11:14:19.000Z</time>
      </trkpt>
      <trkpt lat="47.25958" lon="-2.33881">
        <ele>-22.200000762939</ele>
        <time>2021-02-18T11:14:20.000Z</time>
      </trkpt>
      <trkpt lat="47.25964" lon="-2.33865">
        <ele>-22.200000762939</ele>
        <time>2021-02-18T11:14:23.000Z</time>
      </trkpt>
      <trkpt lat="47.25968" lon="-2.33852">
        <ele>-22.200000762939</ele>
        <time>2021-02-18T11:14:25.000Z</time>
      </trkpt>
      <trkpt lat="47.25974" lon="-2.33835">
        <ele>-22.200000762939</ele>
        <time>2021-02-18T11:14:28.000Z</time>
      </trkpt>
      <trkpt lat="47.2598" lon="-2.33815">
        <ele>-22.200000762939</ele>
        <time>2021-02-18T11:14:31.000Z</time>
      </trkpt>
      <trkpt lat="47.25998" lon="-2.33759">
        <ele>-22.200000762939</ele>
        <time>2021-02-18T11:14:39.000Z</time>
      </trkpt>
      <trkpt lat="47.26016" lon="-2.33705">
        <ele>-22.200000762939</ele>
        <time>2021-02-18T11:14:46.000Z</time>
      </trkpt>
      <trkpt lat="47.2602" lon="-2.3369">
        <ele>-22.200000762939</ele>
        <time>2021-02-18T11:14:48.000Z</time>
      </trkpt>
      <trkpt lat="47.26024" lon="-2.33678">
        <ele>-22.200000762939</ele>
        <time>2021-02-18T11:14:50.000Z</time>
      </trkpt>
      <trkpt lat="47.26027" lon="-2.33656">
        <ele>-22.200000762939</ele>
        <time>2021-02-18T11:14:55.000Z</time>
      </trkpt>
      <trkpt lat="47.26027" lon="-2.3365">
        <ele>-22.200000762939</ele>
        <time>2021-02-18T11:14:56.000Z</time>
      </trkpt>
      <trkpt lat="47.26024" lon="-2.33628">
        <ele>-22.200000762939</ele>
        <time>2021-02-18T11:14:59.000Z</time>
      </trkpt>
      <trkpt lat="47.26018" lon="-2.33602">
        <ele>-22.200000762939</ele>
        <time>2021-02-18T11:15:02.000Z</time>
      </trkpt>
      <trkpt lat="47.26015" lon="-2.33594">
        <ele>-22.200000762939</ele>
        <time>2021-02-18T11:15:03.000Z</time>
      </trkpt>
      <trkpt lat="47.26009" lon="-2.33578">
        <ele>-22.200000762939</ele>
        <time>2021-02-18T11:15:05.000Z</time>
      </trkpt>
      <trkpt lat="47.25994" lon="-2.33549">
        <ele>-22.200000762939</ele>
        <time>2021-02-18T11:15:09.000Z</time>
      </trkpt>
      <trkpt lat="47.25974" lon="-2.33512">
        <ele>-22.200000762939</ele>
        <time>2021-02-18T11:15:15.000Z</time>
      </trkpt>
      <trkpt lat="47.2597" lon="-2.33508">
        <ele>-22.200000762939</ele>
        <time>2021-02-18T11:15:16.000Z</time>
      </trkpt>
      <trkpt lat="47.25961" lon="-2.33493">
        <ele>-22.200000762939</ele>
        <time>2021-02-18T11:15:20.000Z</time>
      </trkpt>
      <trkpt lat="47.25956" lon="-2.3347">
        <ele>-22.200000762939</ele>
        <time>2021-02-18T11:15:24.000Z</time>
      </trkpt>
      <trkpt lat="47.2595" lon="-2.33458">
        <ele>-22.200000762939</ele>
        <time>2021-02-18T11:15:26.000Z</time>
      </trkpt>
      <trkpt lat="47.25939" lon="-2.33436">
        <ele>-22.200000762939</ele>
        <time>2021-02-18T11:15:29.000Z</time>
      </trkpt>
      <trkpt lat="47.25927" lon="-2.33403">
        <ele>-22.200000762939</ele>
        <time>2021-02-18T11:15:33.000Z</time>
      </trkpt>
      <trkpt lat="47.25923" lon="-2.33386">
        <ele>-22.200000762939</ele>
        <time>2021-02-18T11:15:35.000Z</time>
      </trkpt>
      <trkpt lat="47.25908" lon="-2.33315">
        <ele>-22.200000762939</ele>
        <time>2021-02-18T11:15:43.000Z</time>
      </trkpt>
      <trkpt lat="47.25905" lon="-2.33257">
        <ele>-22.200000762939</ele>
        <time>2021-02-18T11:15:49.000Z</time>
      </trkpt>
      <trkpt lat="47.25902" lon="-2.33173">
        <ele>-22.200000762939</ele>
        <time>2021-02-18T11:15:58.000Z</time>
      </trkpt>
      <trkpt lat="47.259" lon="-2.33154">
        <ele>-22.200000762939</ele>
        <time>2021-02-18T11:16:00.000Z</time>
      </trkpt>
      <trkpt lat="47.25896" lon="-2.33129">
        <ele>-22.200000762939</ele>
        <time>2021-02-18T11:16:03.000Z</time>
      </trkpt>
      <trkpt lat="47.25893" lon="-2.33121">
        <ele>-22.200000762939</ele>
        <time>2021-02-18T11:16:04.000Z</time>
      </trkpt>
      <trkpt lat="47.2588" lon="-2.33081">
        <ele>-22.200000762939</ele>
        <time>2021-02-18T11:16:09.000Z</time>
      </trkpt>
      <trkpt lat="47.25866" lon="-2.33032">
        <ele>-21.799999237061</ele>
        <time>2021-02-18T11:16:15.000Z</time>
      </trkpt>
      <trkpt lat="47.25864" lon="-2.33024">
        <ele>-21.39999961853</ele>
        <time>2021-02-18T11:16:16.000Z</time>
      </trkpt>
      <trkpt lat="47.25861" lon="-2.33017">
        <ele>-21</ele>
        <time>2021-02-18T11:16:17.000Z</time>
      </trkpt>
      <trkpt lat="47.25857" lon="-2.33009">
        <ele>-20.60000038147</ele>
        <time>2021-02-18T11:16:18.000Z</time>
      </trkpt>
      <trkpt lat="47.25854" lon="-2.33002">
        <ele>-20.200000762939</ele>
        <time>2021-02-18T11:16:19.000Z</time>
      </trkpt>
      <trkpt lat="47.25846" lon="-2.32988">
        <ele>-20.200000762939</ele>
        <time>2021-02-18T11:16:21.000Z</time>
      </trkpt>
      <trkpt lat="47.25833" lon="-2.32969">
        <ele>-19.799999237061</ele>
        <time>2021-02-18T11:16:24.000Z</time>
      </trkpt>
      <trkpt lat="47.25829" lon="-2.32963">
        <ele>-19.39999961853</ele>
        <time>2021-02-18T11:16:25.000Z</time>
      </trkpt>
      <trkpt lat="47.25824" lon="-2.32957">
        <ele>-19</ele>
        <time>2021-02-18T11:16:26.000Z</time>
      </trkpt>
      <trkpt lat="47.25819" lon="-2.32951">
        <ele>-18.39999961853</ele>
        <time>2021-02-18T11:16:27.000Z</time>
      </trkpt>
      <trkpt lat="47.25814" lon="-2.32945">
        <ele>-18</ele>
        <time>2021-02-18T11:16:28.000Z</time>
      </trkpt>
      <trkpt lat="47.25781" lon="-2.32904">
        <ele>-18</ele>
        <time>2021-02-18T11:16:35.000Z</time>
      </trkpt>
      <trkpt lat="47.25777" lon="-2.32898">
        <ele>-18</ele>
        <time>2021-02-18T11:16:36.000Z</time>
      </trkpt>
      <trkpt lat="47.25761" lon="-2.32873">
        <ele>-18</ele>
        <time>2021-02-18T11:16:40.000Z</time>
      </trkpt>
      <trkpt lat="47.25757" lon="-2.32866">
        <ele>-17.60000038147</ele>
        <time>2021-02-18T11:16:41.000Z</time>
      </trkpt>
      <trkpt lat="47.25754" lon="-2.32858">
        <ele>-17.200000762939</ele>
        <time>2021-02-18T11:16:42.000Z</time>
      </trkpt>
      <trkpt lat="47.25751" lon="-2.32851">
        <ele>-16.799999237061</ele>
        <time>2021-02-18T11:16:43.000Z</time>
      </trkpt>
      <trkpt lat="47.25748" lon="-2.32844">
        <ele>-16.39999961853</ele>
        <time>2021-02-18T11:16:44.000Z</time>
      </trkpt>
      <trkpt lat="47.25745" lon="-2.32836">
        <ele>-16</ele>
        <time>2021-02-18T11:16:45.000Z</time>
      </trkpt>
      <trkpt lat="47.25732" lon="-2.32784">
        <ele>-16</ele>
        <time>2021-02-18T11:16:51.000Z</time>
      </trkpt>
      <trkpt lat="47.25724" lon="-2.32717">
        <ele>-16</ele>
        <time>2021-02-18T11:16:58.000Z</time>
      </trkpt>
      <trkpt lat="47.25718" lon="-2.32643">
        <ele>-16</ele>
        <time>2021-02-18T11:17:05.000Z</time>
      </trkpt>
      <trkpt lat="47.25704" lon="-2.32581">
        <ele>-16</ele>
        <time>2021-02-18T11:17:11.000Z</time>
      </trkpt>
      <trkpt lat="47.25681" lon="-2.3251">
        <ele>-16.39999961853</ele>
        <time>2021-02-18T11:17:18.000Z</time>
      </trkpt>
      <trkpt lat="47.25678" lon="-2.32499">
        <ele>-16.799999237061</ele>
        <time>2021-02-18T11:17:19.000Z</time>
      </trkpt>
      <trkpt lat="47.25674" lon="-2.32488">
        <ele>-17.39999961853</ele>
        <time>2021-02-18T11:17:20.000Z</time>
      </trkpt>
      <trkpt lat="47.25671" lon="-2.32478">
        <ele>-17.799999237061</ele>
        <time>2021-02-18T11:17:21.000Z</time>
      </trkpt>
      <trkpt lat="47.25668" lon="-2.32467">
        <ele>-18.200000762939</ele>
        <time>2021-02-18T11:17:22.000Z</time>
      </trkpt>
      <trkpt lat="47.25662" lon="-2.32444">
        <ele>-18.200000762939</ele>
        <time>2021-02-18T11:17:24.000Z</time>
      </trkpt>
      <trkpt lat="47.25658" lon="-2.32422">
        <ele>-18.200000762939</ele>
        <time>2021-02-18T11:17:26.000Z</time>
      </trkpt>
      <trkpt lat="47.25656" lon="-2.32411">
        <ele>-18.60000038147</ele>
        <time>2021-02-18T11:17:27.000Z</time>
      </trkpt>
      <trkpt lat="47.25656" lon="-2.324">
        <ele>-19</ele>
        <time>2021-02-18T11:17:28.000Z</time>
      </trkpt>
      <trkpt lat="47.25655" lon="-2.32389">
        <ele>-19.39999961853</ele>
        <time>2021-02-18T11:17:29.000Z</time>
      </trkpt>
      <trkpt lat="47.25654" lon="-2.32378">
        <ele>-20.200000762939</ele>
        <time>2021-02-18T11:17:30.000Z</time>
      </trkpt>
      <trkpt lat="47.2565" lon="-2.3232">
        <ele>-20.200000762939</ele>
        <time>2021-02-18T11:17:36.000Z</time>
      </trkpt>
      <trkpt lat="47.25649" lon="-2.32294">
        <ele>-20.200000762939</ele>
        <time>2021-02-18T11:17:39.000Z</time>
      </trkpt>
      <trkpt lat="47.25649" lon="-2.32285">
        <ele>-19.799999237061</ele>
        <time>2021-02-18T11:17:40.000Z</time>
      </trkpt>
      <trkpt lat="47.25648" lon="-2.32277">
        <ele>-19.39999961853</ele>
        <time>2021-02-18T11:17:41.000Z</time>
      </trkpt>
      <trkpt lat="47.25647" lon="-2.32269">
        <ele>-19</ele>
        <time>2021-02-18T11:17:42.000Z</time>
      </trkpt>
      <trkpt lat="47.25647" lon="-2.3226">
        <ele>-18.60000038147</ele>
        <time>2021-02-18T11:17:43.000Z</time>
      </trkpt>
      <trkpt lat="47.25647" lon="-2.32252">
        <ele>-18.200000762939</ele>
        <time>2021-02-18T11:17:44.000Z</time>
      </trkpt>
      <trkpt lat="47.25646" lon="-2.32244">
        <ele>-17.799999237061</ele>
        <time>2021-02-18T11:17:45.000Z</time>
      </trkpt>
      <trkpt lat="47.25645" lon="-2.32236">
        <ele>-17.39999961853</ele>
        <time>2021-02-18T11:17:46.000Z</time>
      </trkpt>
      <trkpt lat="47.25645" lon="-2.32228">
        <ele>-17</ele>
        <time>2021-02-18T11:17:47.000Z</time>
      </trkpt>
      <trkpt lat="47.25645" lon="-2.32219">
        <ele>-16.60000038147</ele>
        <time>2021-02-18T11:17:48.000Z</time>
      </trkpt>
      <trkpt lat="47.25644" lon="-2.32212">
        <ele>-16</ele>
        <time>2021-02-18T11:17:49.000Z</time>
      </trkpt>
      <trkpt lat="47.25642" lon="-2.32204">
        <ele>-15.60000038147</ele>
        <time>2021-02-18T11:17:50.000Z</time>
      </trkpt>
      <trkpt lat="47.25641" lon="-2.32196">
        <ele>-15.199999809265</ele>
        <time>2021-02-18T11:17:51.000Z</time>
      </trkpt>
      <trkpt lat="47.25639" lon="-2.32188">
        <ele>-14.800000190735</ele>
        <time>2021-02-18T11:17:52.000Z</time>
      </trkpt>
      <trkpt lat="47.25637" lon="-2.3218">
        <ele>-14.39999961853</ele>
        <time>2021-02-18T11:17:53.000Z</time>
      </trkpt>
      <trkpt lat="47.25634" lon="-2.32172">
        <ele>-14</ele>
        <time>2021-02-18T11:17:54.000Z</time>
      </trkpt>
      <trkpt lat="47.25625" lon="-2.32141">
        <ele>-14</ele>
        <time>2021-02-18T11:17:58.000Z</time>
      </trkpt>
      <trkpt lat="47.2562" lon="-2.32125">
        <ele>-13.60000038147</ele>
        <time>2021-02-18T11:18:00.000Z</time>
      </trkpt>
      <trkpt lat="47.25617" lon="-2.32117">
        <ele>-13.199999809265</ele>
        <time>2021-02-18T11:18:01.000Z</time>
      </trkpt>
      <trkpt lat="47.25615" lon="-2.3211">
        <ele>-12.800000190735</ele>
        <time>2021-02-18T11:18:02.000Z</time>
      </trkpt>
      <trkpt lat="47.25612" lon="-2.32102">
        <ele>-12.39999961853</ele>
        <time>2021-02-18T11:18:03.000Z</time>
      </trkpt>
      <trkpt lat="47.25609" lon="-2.32095">
        <ele>-12</ele>
        <time>2021-02-18T11:18:04.000Z</time>
      </trkpt>
      <trkpt lat="47.25604" lon="-2.32081">
        <ele>-12</ele>
        <time>2021-02-18T11:18:06.000Z</time>
      </trkpt>
      <trkpt lat="47.25584" lon="-2.32029">
        <ele>-12</ele>
        <time>2021-02-18T11:18:13.000Z</time>
      </trkpt>
      <trkpt lat="47.25572" lon="-2.31991">
        <ele>-12</ele>
        <time>2021-02-18T11:18:18.000Z</time>
      </trkpt>
      <trkpt lat="47.25567" lon="-2.31967">
        <ele>-12</ele>
        <time>2021-02-18T11:18:21.000Z</time>
      </trkpt>
      <trkpt lat="47.2556" lon="-2.31903">
        <ele>-12</ele>
        <time>2021-02-18T11:18:29.000Z</time>
      </trkpt>
      <trkpt lat="47.25559" lon="-2.31895">
        <ele>-11.60000038147</ele>
        <time>2021-02-18T11:18:30.000Z</time>
      </trkpt>
      <trkpt lat="47.2556" lon="-2.31887">
        <ele>-11.199999809265</ele>
        <time>2021-02-18T11:18:31.000Z</time>
      </trkpt>
      <trkpt lat="47.2556" lon="-2.3188">
        <ele>-10.60000038147</ele>
        <time>2021-02-18T11:18:32.000Z</time>
      </trkpt>
      <trkpt lat="47.2556" lon="-2.31873">
        <ele>-10.199999809265</ele>
        <time>2021-02-18T11:18:33.000Z</time>
      </trkpt>
      <trkpt lat="47.2556" lon="-2.31866">
        <ele>-9.8000001907349</ele>
        <time>2021-02-18T11:18:34.000Z</time>
      </trkpt>
      <trkpt lat="47.25561" lon="-2.3186">
        <ele>-9.8000001907349</ele>
        <time>2021-02-18T11:18:35.000Z</time>
      </trkpt>
      <trkpt lat="47.25561" lon="-2.31808">
        <ele>-9.8000001907349</ele>
        <time>2021-02-18T11:18:42.000Z</time>
      </trkpt>
      <trkpt lat="47.25563" lon="-2.31795">
        <ele>-9.8000001907349</ele>
        <time>2021-02-18T11:18:44.000Z</time>
      </trkpt>
      <trkpt lat="47.25568" lon="-2.31774">
        <ele>-9.8000001907349</ele>
        <time>2021-02-18T11:18:47.000Z</time>
      </trkpt>
      <trkpt lat="47.2558" lon="-2.31762">
        <ele>-9.8000001907349</ele>
        <time>2021-02-18T11:18:50.000Z</time>
      </trkpt>
      <trkpt lat="47.2559" lon="-2.3174">
        <ele>-9.8000001907349</ele>
        <time>2021-02-18T11:18:53.000Z</time>
      </trkpt>
      <trkpt lat="47.25591" lon="-2.31733">
        <ele>-9.8000001907349</ele>
        <time>2021-02-18T11:18:54.000Z</time>
      </trkpt>
      <trkpt lat="47.25593" lon="-2.31725">
        <ele>-9.8000001907349</ele>
        <time>2021-02-18T11:18:55.000Z</time>
      </trkpt>
      <trkpt lat="47.25602" lon="-2.31709">
        <ele>-9.8000001907349</ele>
        <time>2021-02-18T11:18:58.000Z</time>
      </trkpt>
      <trkpt lat="47.25617" lon="-2.31706">
        <ele>-9.8000001907349</ele>
        <time>2021-02-18T11:19:01.000Z</time>
      </trkpt>
      <trkpt lat="47.25633" lon="-2.31704">
        <ele>-10.199999809265</ele>
        <time>2021-02-18T11:19:04.000Z</time>
      </trkpt>
      <trkpt lat="47.25639" lon="-2.31701">
        <ele>-10.60000038147</ele>
        <time>2021-02-18T11:19:05.000Z</time>
      </trkpt>
      <trkpt lat="47.25644" lon="-2.31697">
        <ele>-11.199999809265</ele>
        <time>2021-02-18T11:19:06.000Z</time>
      </trkpt>
      <trkpt lat="47.25648" lon="-2.31691">
        <ele>-12</ele>
        <time>2021-02-18T11:19:07.000Z</time>
      </trkpt>
      <trkpt lat="47.25652" lon="-2.31686">
        <ele>-12</ele>
        <time>2021-02-18T11:19:08.000Z</time>
      </trkpt>
      <trkpt lat="47.25655" lon="-2.31681">
        <ele>-12</ele>
        <time>2021-02-18T11:19:09.000Z</time>
      </trkpt>
      <trkpt lat="47.25658" lon="-2.31676">
        <ele>-12.39999961853</ele>
        <time>2021-02-18T11:19:10.000Z</time>
      </trkpt>
      <trkpt lat="47.2566" lon="-2.31669">
        <ele>-13</ele>
        <time>2021-02-18T11:19:11.000Z</time>
      </trkpt>
      <trkpt lat="47.25662" lon="-2.31664">
        <ele>-13.39999961853</ele>
        <time>2021-02-18T11:19:12.000Z</time>
      </trkpt>
      <trkpt lat="47.25666" lon="-2.31661">
        <ele>-14</ele>
        <time>2021-02-18T11:19:13.000Z</time>
      </trkpt>
      <trkpt lat="47.25671" lon="-2.31661">
        <ele>-14.39999961853</ele>
        <time>2021-02-18T11:19:14.000Z</time>
      </trkpt>
      <trkpt lat="47.25679" lon="-2.31668">
        <ele>-14.39999961853</ele>
        <time>2021-02-18T11:19:16.000Z</time>
      </trkpt>
      <trkpt lat="47.25683" lon="-2.31671">
        <ele>-14.39999961853</ele>
        <time>2021-02-18T11:19:17.000Z</time>
      </trkpt>
      <trkpt lat="47.25689" lon="-2.31674">
        <ele>-14.39999961853</ele>
        <time>2021-02-18T11:19:18.000Z</time>
      </trkpt>
      <trkpt lat="47.25705" lon="-2.31681">
        <ele>-14.39999961853</ele>
        <time>2021-02-18T11:19:21.000Z</time>
      </trkpt>
      <trkpt lat="47.25711" lon="-2.31685">
        <ele>-14.39999961853</ele>
        <time>2021-02-18T11:19:22.000Z</time>
      </trkpt>
      <trkpt lat="47.25728" lon="-2.31696">
        <ele>-14.39999961853</ele>
        <time>2021-02-18T11:19:25.000Z</time>
      </trkpt>
      <trkpt lat="47.25735" lon="-2.31695">
        <ele>-14.39999961853</ele>
        <time>2021-02-18T11:19:26.000Z</time>
      </trkpt>
      <trkpt lat="47.25746" lon="-2.31688">
        <ele>-14.800000190735</ele>
        <time>2021-02-18T11:19:28.000Z</time>
      </trkpt>
      <trkpt lat="47.25751" lon="-2.31684">
        <ele>-15.39999961853</ele>
        <time>2021-02-18T11:19:29.000Z</time>
      </trkpt>
      <trkpt lat="47.25757" lon="-2.3168">
        <ele>-15.800000190735</ele>
        <time>2021-02-18T11:19:30.000Z</time>
      </trkpt>
      <trkpt lat="47.25762" lon="-2.31676">
        <ele>-16.200000762939</ele>
        <time>2021-02-18T11:19:31.000Z</time>
      </trkpt>
      <trkpt lat="47.25767" lon="-2.31671">
        <ele>-16.799999237061</ele>
        <time>2021-02-18T11:19:32.000Z</time>
      </trkpt>
      <trkpt lat="47.25787" lon="-2.31655">
        <ele>-16.799999237061</ele>
        <time>2021-02-18T11:19:36.000Z</time>
      </trkpt>
      <trkpt lat="47.25826" lon="-2.31625">
        <ele>-16.799999237061</ele>
        <time>2021-02-18T11:19:44.000Z</time>
      </trkpt>
      <trkpt lat="47.2586" lon="-2.31595">
        <ele>-16.799999237061</ele>
        <time>2021-02-18T11:19:51.000Z</time>
      </trkpt>
      <trkpt lat="47.25887" lon="-2.31565">
        <ele>-16.799999237061</ele>
        <time>2021-02-18T11:19:56.000Z</time>
      </trkpt>
      <trkpt lat="47.25892" lon="-2.31556">
        <ele>-16.799999237061</ele>
        <time>2021-02-18T11:19:57.000Z</time>
      </trkpt>
      <trkpt lat="47.25903" lon="-2.31527">
        <ele>-16.799999237061</ele>
        <time>2021-02-18T11:20:01.000Z</time>
      </trkpt>
      <trkpt lat="47.25912" lon="-2.31515">
        <ele>-17.200000762939</ele>
        <time>2021-02-18T11:20:04.000Z</time>
      </trkpt>
      <trkpt lat="47.25914" lon="-2.31513">
        <ele>-17.60000038147</ele>
        <time>2021-02-18T11:20:05.000Z</time>
      </trkpt>
      <trkpt lat="47.25914" lon="-2.3151">
        <ele>-18</ele>
        <time>2021-02-18T11:20:06.000Z</time>
      </trkpt>
      <trkpt lat="47.25914" lon="-2.31508">
        <ele>-18.60000038147</ele>
        <time>2021-02-18T11:20:07.000Z</time>
      </trkpt>
      <trkpt lat="47.25914" lon="-2.31506">
        <ele>-19</ele>
        <time>2021-02-18T11:20:08.000Z</time>
      </trkpt>
      <trkpt lat="47.25914" lon="-2.31505">
        <ele>-19</ele>
        <time>2021-02-18T11:20:09.000Z</time>
      </trkpt>
      <trkpt lat="47.25914" lon="-2.31503">
        <ele>-19</ele>
        <time>2021-02-18T11:20:11.000Z</time>
      </trkpt>
      <trkpt lat="47.25915" lon="-2.31498">
        <ele>-19</ele>
        <time>2021-02-18T11:20:13.000Z</time>
      </trkpt>
      <trkpt lat="47.25926" lon="-2.31469">
        <ele>-19</ele>
        <time>2021-02-18T11:20:19.000Z</time>
      </trkpt>
      <trkpt lat="47.25933" lon="-2.31459">
        <ele>-19</ele>
        <time>2021-02-18T11:20:22.000Z</time>
      </trkpt>
      <trkpt lat="47.25937" lon="-2.31458">
        <ele>-19</ele>
        <time>2021-02-18T11:20:23.000Z</time>
      </trkpt>
      <trkpt lat="47.25949" lon="-2.31464">
        <ele>-19</ele>
        <time>2021-02-18T11:20:26.000Z</time>
      </trkpt>
      <trkpt lat="47.25953" lon="-2.31467">
        <ele>-19</ele>
        <time>2021-02-18T11:20:27.000Z</time>
      </trkpt>
      <trkpt lat="47.25968" lon="-2.31483">
        <ele>-19</ele>
        <time>2021-02-18T11:20:31.000Z</time>
      </trkpt>
      <trkpt lat="47.25971" lon="-2.31488">
        <ele>-19</ele>
        <time>2021-02-18T11:20:32.000Z</time>
      </trkpt>
      <trkpt lat="47.25976" lon="-2.31499">
        <ele>-19</ele>
        <time>2021-02-18T11:20:34.000Z</time>
      </trkpt>
      <trkpt lat="47.25982" lon="-2.31516">
        <ele>-19</ele>
        <time>2021-02-18T11:20:37.000Z</time>
      </trkpt>
      <trkpt lat="47.25996" lon="-2.31538">
        <ele>-19</ele>
        <time>2021-02-18T11:20:42.000Z</time>
      </trkpt>
      <trkpt lat="47.26011" lon="-2.3156">
        <ele>-19</ele>
        <time>2021-02-18T11:20:48.000Z</time>
      </trkpt>
      <trkpt lat="47.26014" lon="-2.31561">
        <ele>-19</ele>
        <time>2021-02-18T11:20:49.000Z</time>
      </trkpt>
      <trkpt lat="47.2602" lon="-2.31557">
        <ele>-19.39999961853</ele>
        <time>2021-02-18T11:20:51.000Z</time>
      </trkpt>
      <trkpt lat="47.26023" lon="-2.31552">
        <ele>-19.799999237061</ele>
        <time>2021-02-18T11:20:52.000Z</time>
      </trkpt>
      <trkpt lat="47.26026" lon="-2.31547">
        <ele>-20.200000762939</ele>
        <time>2021-02-18T11:20:53.000Z</time>
      </trkpt>
      <trkpt lat="47.26027" lon="-2.31542">
        <ele>-20.60000038147</ele>
        <time>2021-02-18T11:20:54.000Z</time>
      </trkpt>
      <trkpt lat="47.26029" lon="-2.31536">
        <ele>-21</ele>
        <time>2021-02-18T11:20:55.000Z</time>
      </trkpt>
      <trkpt lat="47.26033" lon="-2.31525">
        <ele>-21</ele>
        <time>2021-02-18T11:20:57.000Z</time>
      </trkpt>
      <trkpt lat="47.26038" lon="-2.31514">
        <ele>-21</ele>
        <time>2021-02-18T11:21:00.000Z</time>
      </trkpt>
      <trkpt lat="47.26047" lon="-2.3152">
        <ele>-21</ele>
        <time>2021-02-18T11:21:03.000Z</time>
      </trkpt>
      <trkpt lat="47.26051" lon="-2.31525">
        <ele>-21</ele>
        <time>2021-02-18T11:21:04.000Z</time>
      </trkpt>
      <trkpt lat="47.26054" lon="-2.3153">
        <ele>-21</ele>
        <time>2021-02-18T11:21:05.000Z</time>
      </trkpt>
      <trkpt lat="47.26061" lon="-2.31541">
        <ele>-21</ele>
        <time>2021-02-18T11:21:07.000Z</time>
      </trkpt>
      <trkpt lat="47.26067" lon="-2.31552">
        <ele>-21</ele>
        <time>2021-02-18T11:21:09.000Z</time>
      </trkpt>
      <trkpt lat="47.2607" lon="-2.31558">
        <ele>-21</ele>
        <time>2021-02-18T11:21:10.000Z</time>
      </trkpt>
      <trkpt lat="47.26074" lon="-2.3157">
        <ele>-21</ele>
        <time>2021-02-18T11:21:12.000Z</time>
      </trkpt>
      <trkpt lat="47.26077" lon="-2.31574">
        <ele>-21</ele>
        <time>2021-02-18T11:21:13.000Z</time>
      </trkpt>
      <trkpt lat="47.26084" lon="-2.31577">
        <ele>-21</ele>
        <time>2021-02-18T11:21:15.000Z</time>
      </trkpt>
      <trkpt lat="47.26086" lon="-2.31576">
        <ele>-21.39999961853</ele>
        <time>2021-02-18T11:21:16.000Z</time>
      </trkpt>
      <trkpt lat="47.26089" lon="-2.31573">
        <ele>-21.799999237061</ele>
        <time>2021-02-18T11:21:17.000Z</time>
      </trkpt>
      <trkpt lat="47.26092" lon="-2.31569">
        <ele>-22.200000762939</ele>
        <time>2021-02-18T11:21:18.000Z</time>
      </trkpt>
      <trkpt lat="47.26095" lon="-2.31564">
        <ele>-22.799999237061</ele>
        <time>2021-02-18T11:21:19.000Z</time>
      </trkpt>
      <trkpt lat="47.26097" lon="-2.31559">
        <ele>-23.200000762939</ele>
        <time>2021-02-18T11:21:20.000Z</time>
      </trkpt>
      <trkpt lat="47.261" lon="-2.31554">
        <ele>-23.200000762939</ele>
        <time>2021-02-18T11:21:21.000Z</time>
      </trkpt>
      <trkpt lat="47.26107" lon="-2.31546">
        <ele>-23.200000762939</ele>
        <time>2021-02-18T11:21:23.000Z</time>
      </trkpt>
      <trkpt lat="47.26131" lon="-2.31518">
        <ele>-23.200000762939</ele>
        <time>2021-02-18T11:21:30.000Z</time>
      </trkpt>
      <trkpt lat="47.26148" lon="-2.31505">
        <ele>-22.799999237061</ele>
        <time>2021-02-18T11:21:34.000Z</time>
      </trkpt>
      <trkpt lat="47.26153" lon="-2.31503">
        <ele>-22</ele>
        <time>2021-02-18T11:21:35.000Z</time>
      </trkpt>
      <trkpt lat="47.26158" lon="-2.315">
        <ele>-21.60000038147</ele>
        <time>2021-02-18T11:21:36.000Z</time>
      </trkpt>
      <trkpt lat="47.26164" lon="-2.31498">
        <ele>-21.200000762939</ele>
        <time>2021-02-18T11:21:37.000Z</time>
      </trkpt>
      <trkpt lat="47.26187" lon="-2.31491">
        <ele>-21.200000762939</ele>
        <time>2021-02-18T11:21:41.000Z</time>
      </trkpt>
      <trkpt lat="47.26228" lon="-2.31475">
        <ele>-21.200000762939</ele>
        <time>2021-02-18T11:21:48.000Z</time>
      </trkpt>
      <trkpt lat="47.26234" lon="-2.31472">
        <ele>-21.200000762939</ele>
        <time>2021-02-18T11:21:49.000Z</time>
      </trkpt>
      <trkpt lat="47.26255" lon="-2.31451">
        <ele>-21.200000762939</ele>
        <time>2021-02-18T11:21:53.000Z</time>
      </trkpt>
      <trkpt lat="47.26259" lon="-2.31444">
        <ele>-21.200000762939</ele>
        <time>2021-02-18T11:21:54.000Z</time>
      </trkpt>
      <trkpt lat="47.26279" lon="-2.3141">
        <ele>-21.200000762939</ele>
        <time>2021-02-18T11:21:59.000Z</time>
      </trkpt>
      <trkpt lat="47.26284" lon="-2.31405">
        <ele>-21.200000762939</ele>
        <time>2021-02-18T11:22:00.000Z</time>
      </trkpt>
      <trkpt lat="47.26306" lon="-2.31388">
        <ele>-21.200000762939</ele>
        <time>2021-02-18T11:22:04.000Z</time>
      </trkpt>
      <trkpt lat="47.26341" lon="-2.31366">
        <ele>-21.200000762939</ele>
        <time>2021-02-18T11:22:11.000Z</time>
      </trkpt>
      <trkpt lat="47.26349" lon="-2.31362">
        <ele>-20.60000038147</ele>
        <time>2021-02-18T11:22:13.000Z</time>
      </trkpt>
      <trkpt lat="47.26353" lon="-2.31364">
        <ele>-20.200000762939</ele>
        <time>2021-02-18T11:22:14.000Z</time>
      </trkpt>
      <trkpt lat="47.26357" lon="-2.31369">
        <ele>-19.799999237061</ele>
        <time>2021-02-18T11:22:15.000Z</time>
      </trkpt>
      <trkpt lat="47.2636" lon="-2.31375">
        <ele>-19.39999961853</ele>
        <time>2021-02-18T11:22:16.000Z</time>
      </trkpt>
      <trkpt lat="47.26363" lon="-2.31382">
        <ele>-19</ele>
        <time>2021-02-18T11:22:17.000Z</time>
      </trkpt>
      <trkpt lat="47.26365" lon="-2.31389">
        <ele>-19</ele>
        <time>2021-02-18T11:22:18.000Z</time>
      </trkpt>
      <trkpt lat="47.26375" lon="-2.31416">
        <ele>-18.39999961853</ele>
        <time>2021-02-18T11:22:22.000Z</time>
      </trkpt>
      <trkpt lat="47.26378" lon="-2.31423">
        <ele>-18</ele>
        <time>2021-02-18T11:22:23.000Z</time>
      </trkpt>
      <trkpt lat="47.2638" lon="-2.31429">
        <ele>-17</ele>
        <time>2021-02-18T11:22:24.000Z</time>
      </trkpt>
      <trkpt lat="47.26383" lon="-2.31436">
        <ele>-16.39999961853</ele>
        <time>2021-02-18T11:22:25.000Z</time>
      </trkpt>
      <trkpt lat="47.26386" lon="-2.31443">
        <ele>-16.39999961853</ele>
        <time>2021-02-18T11:22:26.000Z</time>
      </trkpt>
      <trkpt lat="47.26393" lon="-2.31464">
        <ele>-16.39999961853</ele>
        <time>2021-02-18T11:22:29.000Z</time>
      </trkpt>
      <trkpt lat="47.26404" lon="-2.31508">
        <ele>-16.39999961853</ele>
        <time>2021-02-18T11:22:35.000Z</time>
      </trkpt>
      <trkpt lat="47.26405" lon="-2.31516">
        <ele>-16.39999961853</ele>
        <time>2021-02-18T11:22:36.000Z</time>
      </trkpt>
      <trkpt lat="47.26408" lon="-2.3155">
        <ele>-16.39999961853</ele>
        <time>2021-02-18T11:22:41.000Z</time>
      </trkpt>
      <trkpt lat="47.26411" lon="-2.31553">
        <ele>-16.39999961853</ele>
        <time>2021-02-18T11:22:42.000Z</time>
      </trkpt>
      <trkpt lat="47.26417" lon="-2.31553">
        <ele>-16.39999961853</ele>
        <time>2021-02-18T11:22:44.000Z</time>
      </trkpt>
      <trkpt lat="47.2642" lon="-2.31552">
        <ele>-16.39999961853</ele>
        <time>2021-02-18T11:22:47.000Z</time>
      </trkpt>
    </trkseg>
  </trk>
</gpx>